<?xml version="1.0" encoding="UTF-8" standalone="no" ?>
<gpx xmlns="http://www.topografix.com/GPX/1/1" xmlns:xsi="http://www.w3.org/2001/XMLSchema-instance" xsi:schemaLocation="http://www.topografix.com/GPX/1/1 http://www.topografix.com/GPX/1/1/gpx.xsd" version="1.1" creator="VisuGPX - https://www.visugpx.com">
  <metadata>
    <name>Sortie VTT bât D</name>
    <desc><![CDATA[description de la sortie VTT du 28 juillet]]></desc>
  </metadata>
  <trk>
    <name><![CDATA[Debutants]]></name>
    <trkseg>
      <trkpt lat="47.27052" lon="-1.6243">
        <ele>48.4</ele>
        <time>2011-07-28T13:22:16Z</time>
      </trkpt>
      <trkpt lat="47.27052" lon="-1.62439">
        <ele>48.6</ele>
        <time>2011-07-28T13:22:20Z</time>
      </trkpt>
      <trkpt lat="47.2705" lon="-1.62444">
        <ele>48.8</ele>
        <time>2011-07-28T13:22:22Z</time>
      </trkpt>
      <trkpt lat="47.27048" lon="-1.62447">
        <ele>48.8</ele>
        <time>2011-07-28T13:22:23Z</time>
      </trkpt>
      <trkpt lat="47.27045" lon="-1.62451">
        <ele>48.9</ele>
        <time>2011-07-28T13:22:25Z</time>
      </trkpt>
      <trkpt lat="47.27042" lon="-1.62455">
        <ele>48.9</ele>
        <time>2011-07-28T13:22:27Z</time>
      </trkpt>
      <trkpt lat="47.27039" lon="-1.62459">
        <ele>48.9</ele>
        <time>2011-07-28T13:22:29Z</time>
      </trkpt>
      <trkpt lat="47.27038" lon="-1.62462">
        <ele>48.9</ele>
        <time>2011-07-28T13:22:30Z</time>
      </trkpt>
      <trkpt lat="47.27036" lon="-1.62464">
        <ele>48.9</ele>
        <time>2011-07-28T13:22:31Z</time>
      </trkpt>
      <trkpt lat="47.27034" lon="-1.62466">
        <ele>48.8</ele>
        <time>2011-07-28T13:22:32Z</time>
      </trkpt>
      <trkpt lat="47.27031" lon="-1.62471">
        <ele>48.6</ele>
        <time>2011-07-28T13:22:34Z</time>
      </trkpt>
      <trkpt lat="47.27029" lon="-1.62475">
        <ele>48.4</ele>
        <time>2011-07-28T13:22:36Z</time>
      </trkpt>
      <trkpt lat="47.27026" lon="-1.62479">
        <ele>48.3</ele>
        <time>2011-07-28T13:22:38Z</time>
      </trkpt>
      <trkpt lat="47.27025" lon="-1.62483">
        <ele>48.3</ele>
        <time>2011-07-28T13:22:40Z</time>
      </trkpt>
      <trkpt lat="47.27022" lon="-1.62486">
        <ele>48.3</ele>
        <time>2011-07-28T13:22:42Z</time>
      </trkpt>
      <trkpt lat="47.2702" lon="-1.6249">
        <ele>48.3</ele>
        <time>2011-07-28T13:22:44Z</time>
      </trkpt>
      <trkpt lat="47.27018" lon="-1.62495">
        <ele>48.3</ele>
        <time>2011-07-28T13:22:46Z</time>
      </trkpt>
      <trkpt lat="47.27017" lon="-1.625">
        <ele>48.2</ele>
        <time>2011-07-28T13:22:48Z</time>
      </trkpt>
      <trkpt lat="47.27015" lon="-1.62504">
        <ele>48.1</ele>
        <time>2011-07-28T13:22:50Z</time>
      </trkpt>
      <trkpt lat="47.27013" lon="-1.6251">
        <ele>48.2</ele>
        <time>2011-07-28T13:22:52Z</time>
      </trkpt>
      <trkpt lat="47.27013" lon="-1.62516">
        <ele>48.2</ele>
        <time>2011-07-28T13:22:54Z</time>
      </trkpt>
      <trkpt lat="47.27013" lon="-1.62522">
        <ele>48.1</ele>
        <time>2011-07-28T13:22:56Z</time>
      </trkpt>
      <trkpt lat="47.27013" lon="-1.62527">
        <ele>48.3</ele>
        <time>2011-07-28T13:22:58Z</time>
      </trkpt>
      <trkpt lat="47.27014" lon="-1.62533">
        <ele>48.9</ele>
        <time>2011-07-28T13:23:00Z</time>
      </trkpt>
      <trkpt lat="47.27014" lon="-1.62538">
        <ele>49.5</ele>
        <time>2011-07-28T13:23:02Z</time>
      </trkpt>
      <trkpt lat="47.27016" lon="-1.62544">
        <ele>50.1</ele>
        <time>2011-07-28T13:23:04Z</time>
      </trkpt>
      <trkpt lat="47.27017" lon="-1.62548">
        <ele>50.3</ele>
        <time>2011-07-28T13:23:05Z</time>
      </trkpt>
      <trkpt lat="47.27017" lon="-1.62551">
        <ele>50.4</ele>
        <time>2011-07-28T13:23:06Z</time>
      </trkpt>
      <trkpt lat="47.27018" lon="-1.62554">
        <ele>50.5</ele>
        <time>2011-07-28T13:23:07Z</time>
      </trkpt>
      <trkpt lat="47.27019" lon="-1.62558">
        <ele>50.6</ele>
        <time>2011-07-28T13:23:08Z</time>
      </trkpt>
      <trkpt lat="47.2702" lon="-1.62561">
        <ele>50.6</ele>
        <time>2011-07-28T13:23:09Z</time>
      </trkpt>
      <trkpt lat="47.2702" lon="-1.62564">
        <ele>50.7</ele>
        <time>2011-07-28T13:23:10Z</time>
      </trkpt>
      <trkpt lat="47.27021" lon="-1.62568">
        <ele>50.6</ele>
        <time>2011-07-28T13:23:11Z</time>
      </trkpt>
      <trkpt lat="47.27023" lon="-1.62571">
        <ele>50.5</ele>
        <time>2011-07-28T13:23:12Z</time>
      </trkpt>
      <trkpt lat="47.27024" lon="-1.62574">
        <ele>50.4</ele>
        <time>2011-07-28T13:23:13Z</time>
      </trkpt>
      <trkpt lat="47.27025" lon="-1.62578">
        <ele>50.2</ele>
        <time>2011-07-28T13:23:14Z</time>
      </trkpt>
      <trkpt lat="47.27025" lon="-1.62581">
        <ele>50.1</ele>
        <time>2011-07-28T13:23:15Z</time>
      </trkpt>
      <trkpt lat="47.27026" lon="-1.62585">
        <ele>49.9</ele>
        <time>2011-07-28T13:23:16Z</time>
      </trkpt>
      <trkpt lat="47.27026" lon="-1.62589">
        <ele>49.8</ele>
        <time>2011-07-28T13:23:17Z</time>
      </trkpt>
      <trkpt lat="47.27026" lon="-1.62592">
        <ele>49.7</ele>
        <time>2011-07-28T13:23:18Z</time>
      </trkpt>
      <trkpt lat="47.27026" lon="-1.62597">
        <ele>49.6</ele>
        <time>2011-07-28T13:23:19Z</time>
      </trkpt>
      <trkpt lat="47.27024" lon="-1.62602">
        <ele>49.6</ele>
        <time>2011-07-28T13:23:20Z</time>
      </trkpt>
      <trkpt lat="47.27023" lon="-1.62607">
        <ele>49.5</ele>
        <time>2011-07-28T13:23:21Z</time>
      </trkpt>
      <trkpt lat="47.27023" lon="-1.62612">
        <ele>49.5</ele>
        <time>2011-07-28T13:23:22Z</time>
      </trkpt>
      <trkpt lat="47.27022" lon="-1.62617">
        <ele>49.4</ele>
        <time>2011-07-28T13:23:23Z</time>
      </trkpt>
      <trkpt lat="47.27021" lon="-1.62622">
        <ele>49.3</ele>
        <time>2011-07-28T13:23:24Z</time>
      </trkpt>
      <trkpt lat="47.2702" lon="-1.62627">
        <ele>49.2</ele>
        <time>2011-07-28T13:23:25Z</time>
      </trkpt>
      <trkpt lat="47.2702" lon="-1.62632">
        <ele>49.1</ele>
        <time>2011-07-28T13:23:26Z</time>
      </trkpt>
      <trkpt lat="47.27019" lon="-1.62637">
        <ele>49</ele>
        <time>2011-07-28T13:23:27Z</time>
      </trkpt>
      <trkpt lat="47.27019" lon="-1.62642">
        <ele>49</ele>
        <time>2011-07-28T13:23:28Z</time>
      </trkpt>
      <trkpt lat="47.2702" lon="-1.62647">
        <ele>49.1</ele>
        <time>2011-07-28T13:23:29Z</time>
      </trkpt>
      <trkpt lat="47.2702" lon="-1.62652">
        <ele>49.2</ele>
        <time>2011-07-28T13:23:30Z</time>
      </trkpt>
      <trkpt lat="47.27021" lon="-1.62657">
        <ele>49.3</ele>
        <time>2011-07-28T13:23:31Z</time>
      </trkpt>
      <trkpt lat="47.27022" lon="-1.62661">
        <ele>49.4</ele>
        <time>2011-07-28T13:23:32Z</time>
      </trkpt>
      <trkpt lat="47.27023" lon="-1.62665">
        <ele>49.4</ele>
        <time>2011-07-28T13:23:33Z</time>
      </trkpt>
      <trkpt lat="47.27024" lon="-1.6267">
        <ele>49.3</ele>
        <time>2011-07-28T13:23:34Z</time>
      </trkpt>
      <trkpt lat="47.27025" lon="-1.62674">
        <ele>49.3</ele>
        <time>2011-07-28T13:23:35Z</time>
      </trkpt>
      <trkpt lat="47.27026" lon="-1.62679">
        <ele>49.4</ele>
        <time>2011-07-28T13:23:36Z</time>
      </trkpt>
      <trkpt lat="47.27027" lon="-1.62683">
        <ele>49.5</ele>
        <time>2011-07-28T13:23:37Z</time>
      </trkpt>
      <trkpt lat="47.27028" lon="-1.62688">
        <ele>49.6</ele>
        <time>2011-07-28T13:23:38Z</time>
      </trkpt>
      <trkpt lat="47.27029" lon="-1.62693">
        <ele>49.8</ele>
        <time>2011-07-28T13:23:39Z</time>
      </trkpt>
      <trkpt lat="47.27029" lon="-1.62697">
        <ele>49.9</ele>
        <time>2011-07-28T13:23:40Z</time>
      </trkpt>
      <trkpt lat="47.2703" lon="-1.62702">
        <ele>50</ele>
        <time>2011-07-28T13:23:41Z</time>
      </trkpt>
      <trkpt lat="47.27031" lon="-1.62706">
        <ele>50.1</ele>
        <time>2011-07-28T13:23:42Z</time>
      </trkpt>
      <trkpt lat="47.27032" lon="-1.62711">
        <ele>50.2</ele>
        <time>2011-07-28T13:23:43Z</time>
      </trkpt>
      <trkpt lat="47.27033" lon="-1.62716">
        <ele>50.4</ele>
        <time>2011-07-28T13:23:44Z</time>
      </trkpt>
      <trkpt lat="47.27033" lon="-1.6272">
        <ele>50.5</ele>
        <time>2011-07-28T13:23:45Z</time>
      </trkpt>
      <trkpt lat="47.27034" lon="-1.62725">
        <ele>50.6</ele>
        <time>2011-07-28T13:23:46Z</time>
      </trkpt>
      <trkpt lat="47.27034" lon="-1.62729">
        <ele>50.8</ele>
        <time>2011-07-28T13:23:47Z</time>
      </trkpt>
      <trkpt lat="47.27035" lon="-1.62734">
        <ele>50.9</ele>
        <time>2011-07-28T13:23:48Z</time>
      </trkpt>
      <trkpt lat="47.27036" lon="-1.62738">
        <ele>51</ele>
        <time>2011-07-28T13:23:49Z</time>
      </trkpt>
      <trkpt lat="47.27037" lon="-1.62742">
        <ele>51.2</ele>
        <time>2011-07-28T13:23:50Z</time>
      </trkpt>
      <trkpt lat="47.27037" lon="-1.62746">
        <ele>51.4</ele>
        <time>2011-07-28T13:23:51Z</time>
      </trkpt>
      <trkpt lat="47.27039" lon="-1.62751">
        <ele>51.6</ele>
        <time>2011-07-28T13:23:52Z</time>
      </trkpt>
      <trkpt lat="47.2704" lon="-1.62755">
        <ele>51.8</ele>
        <time>2011-07-28T13:23:53Z</time>
      </trkpt>
      <trkpt lat="47.27041" lon="-1.62757">
        <ele>51.9</ele>
        <time>2011-07-28T13:23:54Z</time>
      </trkpt>
      <trkpt lat="47.27043" lon="-1.62763">
        <ele>52.1</ele>
        <time>2011-07-28T13:23:56Z</time>
      </trkpt>
      <trkpt lat="47.27044" lon="-1.62766">
        <ele>52.1</ele>
        <time>2011-07-28T13:23:57Z</time>
      </trkpt>
      <trkpt lat="47.27044" lon="-1.6277">
        <ele>52</ele>
        <time>2011-07-28T13:23:58Z</time>
      </trkpt>
      <trkpt lat="47.27045" lon="-1.62773">
        <ele>52</ele>
        <time>2011-07-28T13:23:59Z</time>
      </trkpt>
      <trkpt lat="47.27047" lon="-1.62777">
        <ele>52</ele>
        <time>2011-07-28T13:24:00Z</time>
      </trkpt>
      <trkpt lat="47.27048" lon="-1.62781">
        <ele>52</ele>
        <time>2011-07-28T13:24:01Z</time>
      </trkpt>
      <trkpt lat="47.27048" lon="-1.62786">
        <ele>52</ele>
        <time>2011-07-28T13:24:02Z</time>
      </trkpt>
      <trkpt lat="47.27049" lon="-1.6279">
        <ele>52</ele>
        <time>2011-07-28T13:24:03Z</time>
      </trkpt>
      <trkpt lat="47.27049" lon="-1.62794">
        <ele>52</ele>
        <time>2011-07-28T13:24:04Z</time>
      </trkpt>
      <trkpt lat="47.2705" lon="-1.62798">
        <ele>51.9</ele>
        <time>2011-07-28T13:24:05Z</time>
      </trkpt>
      <trkpt lat="47.27051" lon="-1.62803">
        <ele>51.8</ele>
        <time>2011-07-28T13:24:06Z</time>
      </trkpt>
      <trkpt lat="47.27052" lon="-1.62807">
        <ele>51.7</ele>
        <time>2011-07-28T13:24:07Z</time>
      </trkpt>
      <trkpt lat="47.27053" lon="-1.62811">
        <ele>51.6</ele>
        <time>2011-07-28T13:24:08Z</time>
      </trkpt>
      <trkpt lat="47.27054" lon="-1.62816">
        <ele>51.7</ele>
        <time>2011-07-28T13:24:09Z</time>
      </trkpt>
      <trkpt lat="47.27055" lon="-1.62819">
        <ele>51.9</ele>
        <time>2011-07-28T13:24:10Z</time>
      </trkpt>
      <trkpt lat="47.27056" lon="-1.62825">
        <ele>52.2</ele>
        <time>2011-07-28T13:24:12Z</time>
      </trkpt>
      <trkpt lat="47.27056" lon="-1.62831">
        <ele>52.7</ele>
        <time>2011-07-28T13:24:14Z</time>
      </trkpt>
      <trkpt lat="47.27057" lon="-1.62835">
        <ele>52.9</ele>
        <time>2011-07-28T13:24:15Z</time>
      </trkpt>
      <trkpt lat="47.27058" lon="-1.62838">
        <ele>53</ele>
        <time>2011-07-28T13:24:16Z</time>
      </trkpt>
      <trkpt lat="47.27058" lon="-1.62842">
        <ele>53.2</ele>
        <time>2011-07-28T13:24:17Z</time>
      </trkpt>
      <trkpt lat="47.27059" lon="-1.62845">
        <ele>53.3</ele>
        <time>2011-07-28T13:24:18Z</time>
      </trkpt>
      <trkpt lat="47.2706" lon="-1.62849">
        <ele>53.3</ele>
        <time>2011-07-28T13:24:19Z</time>
      </trkpt>
      <trkpt lat="47.27061" lon="-1.62853">
        <ele>53.4</ele>
        <time>2011-07-28T13:24:20Z</time>
      </trkpt>
      <trkpt lat="47.27062" lon="-1.62857">
        <ele>53.5</ele>
        <time>2011-07-28T13:24:21Z</time>
      </trkpt>
      <trkpt lat="47.27063" lon="-1.62861">
        <ele>53.7</ele>
        <time>2011-07-28T13:24:22Z</time>
      </trkpt>
      <trkpt lat="47.27063" lon="-1.62866">
        <ele>53.9</ele>
        <time>2011-07-28T13:24:23Z</time>
      </trkpt>
      <trkpt lat="47.27064" lon="-1.6287">
        <ele>54.2</ele>
        <time>2011-07-28T13:24:24Z</time>
      </trkpt>
      <trkpt lat="47.27066" lon="-1.62875">
        <ele>54.4</ele>
        <time>2011-07-28T13:24:25Z</time>
      </trkpt>
      <trkpt lat="47.27067" lon="-1.6288">
        <ele>54.7</ele>
        <time>2011-07-28T13:24:26Z</time>
      </trkpt>
      <trkpt lat="47.27068" lon="-1.62884">
        <ele>54.9</ele>
        <time>2011-07-28T13:24:27Z</time>
      </trkpt>
      <trkpt lat="47.27069" lon="-1.62889">
        <ele>55.2</ele>
        <time>2011-07-28T13:24:28Z</time>
      </trkpt>
      <trkpt lat="47.2707" lon="-1.62894">
        <ele>55.4</ele>
        <time>2011-07-28T13:24:29Z</time>
      </trkpt>
      <trkpt lat="47.27071" lon="-1.62898">
        <ele>55.7</ele>
        <time>2011-07-28T13:24:30Z</time>
      </trkpt>
      <trkpt lat="47.27072" lon="-1.62903">
        <ele>55.9</ele>
        <time>2011-07-28T13:24:31Z</time>
      </trkpt>
      <trkpt lat="47.27073" lon="-1.62907">
        <ele>56.2</ele>
        <time>2011-07-28T13:24:32Z</time>
      </trkpt>
      <trkpt lat="47.27074" lon="-1.62912">
        <ele>56.4</ele>
        <time>2011-07-28T13:24:33Z</time>
      </trkpt>
      <trkpt lat="47.27075" lon="-1.62917">
        <ele>56.7</ele>
        <time>2011-07-28T13:24:34Z</time>
      </trkpt>
      <trkpt lat="47.27076" lon="-1.62922">
        <ele>56.8</ele>
        <time>2011-07-28T13:24:35Z</time>
      </trkpt>
      <trkpt lat="47.27077" lon="-1.62927">
        <ele>57</ele>
        <time>2011-07-28T13:24:36Z</time>
      </trkpt>
      <trkpt lat="47.27077" lon="-1.62932">
        <ele>57</ele>
        <time>2011-07-28T13:24:37Z</time>
      </trkpt>
      <trkpt lat="47.27079" lon="-1.62938">
        <ele>57.1</ele>
        <time>2011-07-28T13:24:38Z</time>
      </trkpt>
      <trkpt lat="47.27081" lon="-1.62943">
        <ele>57.1</ele>
        <time>2011-07-28T13:24:39Z</time>
      </trkpt>
      <trkpt lat="47.27082" lon="-1.62949">
        <ele>57</ele>
        <time>2011-07-28T13:24:40Z</time>
      </trkpt>
      <trkpt lat="47.27082" lon="-1.62956">
        <ele>57</ele>
        <time>2011-07-28T13:24:41Z</time>
      </trkpt>
      <trkpt lat="47.27083" lon="-1.62962">
        <ele>56.9</ele>
        <time>2011-07-28T13:24:42Z</time>
      </trkpt>
      <trkpt lat="47.27085" lon="-1.62968">
        <ele>56.8</ele>
        <time>2011-07-28T13:24:43Z</time>
      </trkpt>
      <trkpt lat="47.27085" lon="-1.62975">
        <ele>56.6</ele>
        <time>2011-07-28T13:24:44Z</time>
      </trkpt>
      <trkpt lat="47.27085" lon="-1.6298">
        <ele>56.2</ele>
        <time>2011-07-28T13:24:45Z</time>
      </trkpt>
      <trkpt lat="47.27085" lon="-1.62987">
        <ele>55.6</ele>
        <time>2011-07-28T13:24:46Z</time>
      </trkpt>
      <trkpt lat="47.27084" lon="-1.62995">
        <ele>54.6</ele>
        <time>2011-07-28T13:24:47Z</time>
      </trkpt>
      <trkpt lat="47.27084" lon="-1.63002">
        <ele>53.2</ele>
        <time>2011-07-28T13:24:48Z</time>
      </trkpt>
      <trkpt lat="47.27085" lon="-1.63009">
        <ele>51.5</ele>
        <time>2011-07-28T13:24:49Z</time>
      </trkpt>
      <trkpt lat="47.27085" lon="-1.63016">
        <ele>49.8</ele>
        <time>2011-07-28T13:24:50Z</time>
      </trkpt>
      <trkpt lat="47.27084" lon="-1.63023">
        <ele>48</ele>
        <time>2011-07-28T13:24:51Z</time>
      </trkpt>
      <trkpt lat="47.27083" lon="-1.63028">
        <ele>46.2</ele>
        <time>2011-07-28T13:24:52Z</time>
      </trkpt>
      <trkpt lat="47.27082" lon="-1.63035">
        <ele>44.4</ele>
        <time>2011-07-28T13:24:53Z</time>
      </trkpt>
      <trkpt lat="47.27081" lon="-1.63043">
        <ele>42.6</ele>
        <time>2011-07-28T13:24:54Z</time>
      </trkpt>
      <trkpt lat="47.27079" lon="-1.63053">
        <ele>40.9</ele>
        <time>2011-07-28T13:24:55Z</time>
      </trkpt>
      <trkpt lat="47.27075" lon="-1.63063">
        <ele>39.2</ele>
        <time>2011-07-28T13:24:56Z</time>
      </trkpt>
      <trkpt lat="47.27072" lon="-1.63074">
        <ele>37.8</ele>
        <time>2011-07-28T13:24:57Z</time>
      </trkpt>
      <trkpt lat="47.27069" lon="-1.63086">
        <ele>36.6</ele>
        <time>2011-07-28T13:24:58Z</time>
      </trkpt>
      <trkpt lat="47.27067" lon="-1.63098">
        <ele>35.8</ele>
        <time>2011-07-28T13:24:59Z</time>
      </trkpt>
      <trkpt lat="47.27065" lon="-1.63109">
        <ele>35.2</ele>
        <time>2011-07-28T13:25:00Z</time>
      </trkpt>
      <trkpt lat="47.27064" lon="-1.63121">
        <ele>34.8</ele>
        <time>2011-07-28T13:25:01Z</time>
      </trkpt>
      <trkpt lat="47.27063" lon="-1.63132">
        <ele>34.6</ele>
        <time>2011-07-28T13:25:02Z</time>
      </trkpt>
      <trkpt lat="47.27061" lon="-1.63142">
        <ele>34.6</ele>
        <time>2011-07-28T13:25:03Z</time>
      </trkpt>
      <trkpt lat="47.27059" lon="-1.63151">
        <ele>34.8</ele>
        <time>2011-07-28T13:25:04Z</time>
      </trkpt>
      <trkpt lat="47.27057" lon="-1.6316">
        <ele>35.1</ele>
        <time>2011-07-28T13:25:05Z</time>
      </trkpt>
      <trkpt lat="47.27056" lon="-1.63169">
        <ele>35.5</ele>
        <time>2011-07-28T13:25:06Z</time>
      </trkpt>
      <trkpt lat="47.27055" lon="-1.63176">
        <ele>35.9</ele>
        <time>2011-07-28T13:25:07Z</time>
      </trkpt>
      <trkpt lat="47.27053" lon="-1.63183">
        <ele>36.4</ele>
        <time>2011-07-28T13:25:08Z</time>
      </trkpt>
      <trkpt lat="47.27051" lon="-1.6319">
        <ele>36.9</ele>
        <time>2011-07-28T13:25:09Z</time>
      </trkpt>
      <trkpt lat="47.27049" lon="-1.63197">
        <ele>37.4</ele>
        <time>2011-07-28T13:25:10Z</time>
      </trkpt>
      <trkpt lat="47.27047" lon="-1.63204">
        <ele>37.8</ele>
        <time>2011-07-28T13:25:11Z</time>
      </trkpt>
      <trkpt lat="47.27044" lon="-1.6321">
        <ele>38.2</ele>
        <time>2011-07-28T13:25:12Z</time>
      </trkpt>
      <trkpt lat="47.27042" lon="-1.63217">
        <ele>38.5</ele>
        <time>2011-07-28T13:25:13Z</time>
      </trkpt>
      <trkpt lat="47.27041" lon="-1.63225">
        <ele>38.9</ele>
        <time>2011-07-28T13:25:14Z</time>
      </trkpt>
      <trkpt lat="47.2704" lon="-1.63232">
        <ele>39.2</ele>
        <time>2011-07-28T13:25:15Z</time>
      </trkpt>
      <trkpt lat="47.27038" lon="-1.63239">
        <ele>39.5</ele>
        <time>2011-07-28T13:25:16Z</time>
      </trkpt>
      <trkpt lat="47.27037" lon="-1.63246">
        <ele>39.7</ele>
        <time>2011-07-28T13:25:17Z</time>
      </trkpt>
      <trkpt lat="47.27035" lon="-1.63253">
        <ele>39.9</ele>
        <time>2011-07-28T13:25:18Z</time>
      </trkpt>
      <trkpt lat="47.27034" lon="-1.6326">
        <ele>40.2</ele>
        <time>2011-07-28T13:25:19Z</time>
      </trkpt>
      <trkpt lat="47.27035" lon="-1.63267">
        <ele>40.4</ele>
        <time>2011-07-28T13:25:20Z</time>
      </trkpt>
      <trkpt lat="47.27037" lon="-1.63272">
        <ele>40.7</ele>
        <time>2011-07-28T13:25:21Z</time>
      </trkpt>
      <trkpt lat="47.27039" lon="-1.63276">
        <ele>41</ele>
        <time>2011-07-28T13:25:22Z</time>
      </trkpt>
      <trkpt lat="47.2704" lon="-1.6328">
        <ele>41.3</ele>
        <time>2011-07-28T13:25:23Z</time>
      </trkpt>
      <trkpt lat="47.2704" lon="-1.63284">
        <ele>41.6</ele>
        <time>2011-07-28T13:25:24Z</time>
      </trkpt>
      <trkpt lat="47.2704" lon="-1.63287">
        <ele>41.9</ele>
        <time>2011-07-28T13:25:25Z</time>
      </trkpt>
      <trkpt lat="47.2704" lon="-1.63293">
        <ele>42.4</ele>
        <time>2011-07-28T13:25:27Z</time>
      </trkpt>
      <trkpt lat="47.27041" lon="-1.63299">
        <ele>43.2</ele>
        <time>2011-07-28T13:25:29Z</time>
      </trkpt>
      <trkpt lat="47.27041" lon="-1.63306">
        <ele>44.2</ele>
        <time>2011-07-28T13:25:31Z</time>
      </trkpt>
      <trkpt lat="47.2704" lon="-1.63311">
        <ele>44.9</ele>
        <time>2011-07-28T13:25:33Z</time>
      </trkpt>
      <trkpt lat="47.27039" lon="-1.63316">
        <ele>45.2</ele>
        <time>2011-07-28T13:25:35Z</time>
      </trkpt>
      <trkpt lat="47.27039" lon="-1.63321">
        <ele>45.4</ele>
        <time>2011-07-28T13:25:37Z</time>
      </trkpt>
      <trkpt lat="47.2704" lon="-1.63326">
        <ele>45.6</ele>
        <time>2011-07-28T13:25:39Z</time>
      </trkpt>
      <trkpt lat="47.27041" lon="-1.6333">
        <ele>45.8</ele>
        <time>2011-07-28T13:25:41Z</time>
      </trkpt>
      <trkpt lat="47.27042" lon="-1.63335">
        <ele>45.7</ele>
        <time>2011-07-28T13:25:44Z</time>
      </trkpt>
      <trkpt lat="47.27042" lon="-1.63341">
        <ele>45.7</ele>
        <time>2011-07-28T13:25:47Z</time>
      </trkpt>
      <trkpt lat="47.27042" lon="-1.63346">
        <ele>46</ele>
        <time>2011-07-28T13:25:49Z</time>
      </trkpt>
      <trkpt lat="47.27042" lon="-1.63352">
        <ele>46.5</ele>
        <time>2011-07-28T13:25:51Z</time>
      </trkpt>
      <trkpt lat="47.27041" lon="-1.63356">
        <ele>46.5</ele>
        <time>2011-07-28T13:25:52Z</time>
      </trkpt>
      <trkpt lat="47.27041" lon="-1.63359">
        <ele>46.5</ele>
        <time>2011-07-28T13:25:53Z</time>
      </trkpt>
      <trkpt lat="47.27043" lon="-1.63365">
        <ele>46.6</ele>
        <time>2011-07-28T13:25:55Z</time>
      </trkpt>
      <trkpt lat="47.27044" lon="-1.63369">
        <ele>46.7</ele>
        <time>2011-07-28T13:25:56Z</time>
      </trkpt>
      <trkpt lat="47.27044" lon="-1.63375">
        <ele>46.6</ele>
        <time>2011-07-28T13:25:58Z</time>
      </trkpt>
      <trkpt lat="47.27045" lon="-1.6338">
        <ele>46.5</ele>
        <time>2011-07-28T13:26:00Z</time>
      </trkpt>
      <trkpt lat="47.27045" lon="-1.63386">
        <ele>45</ele>
        <time>2011-07-28T13:26:03Z</time>
      </trkpt>
      <trkpt lat="47.27044" lon="-1.63393">
        <ele>45.8</ele>
        <time>2011-07-28T13:26:13Z</time>
      </trkpt>
      <trkpt lat="47.27045" lon="-1.63388">
        <ele>45.6</ele>
        <time>2011-07-28T13:26:30Z</time>
      </trkpt>
      <trkpt lat="47.27045" lon="-1.63384">
        <ele>45.6</ele>
        <time>2011-07-28T13:26:31Z</time>
      </trkpt>
      <trkpt lat="47.27043" lon="-1.63379">
        <ele>45.5</ele>
        <time>2011-07-28T13:26:32Z</time>
      </trkpt>
      <trkpt lat="47.27043" lon="-1.63373">
        <ele>45.8</ele>
        <time>2011-07-28T13:26:33Z</time>
      </trkpt>
      <trkpt lat="47.27043" lon="-1.63365">
        <ele>46.1</ele>
        <time>2011-07-28T13:26:34Z</time>
      </trkpt>
      <trkpt lat="47.27043" lon="-1.63358">
        <ele>46.2</ele>
        <time>2011-07-28T13:26:35Z</time>
      </trkpt>
      <trkpt lat="47.27043" lon="-1.6335">
        <ele>46.4</ele>
        <time>2011-07-28T13:26:36Z</time>
      </trkpt>
      <trkpt lat="47.27042" lon="-1.63343">
        <ele>46.2</ele>
        <time>2011-07-28T13:26:37Z</time>
      </trkpt>
      <trkpt lat="47.27041" lon="-1.63336">
        <ele>46.1</ele>
        <time>2011-07-28T13:26:38Z</time>
      </trkpt>
      <trkpt lat="47.27041" lon="-1.63329">
        <ele>46</ele>
        <time>2011-07-28T13:26:39Z</time>
      </trkpt>
      <trkpt lat="47.27041" lon="-1.63321">
        <ele>46.1</ele>
        <time>2011-07-28T13:26:40Z</time>
      </trkpt>
      <trkpt lat="47.27041" lon="-1.63314">
        <ele>46.2</ele>
        <time>2011-07-28T13:26:41Z</time>
      </trkpt>
      <trkpt lat="47.27042" lon="-1.63309">
        <ele>46.3</ele>
        <time>2011-07-28T13:26:42Z</time>
      </trkpt>
      <trkpt lat="47.27041" lon="-1.63303">
        <ele>45.4</ele>
        <time>2011-07-28T13:26:46Z</time>
      </trkpt>
      <trkpt lat="47.27039" lon="-1.63297">
        <ele>45.2</ele>
        <time>2011-07-28T13:26:59Z</time>
      </trkpt>
      <trkpt lat="47.27038" lon="-1.63291">
        <ele>45.4</ele>
        <time>2011-07-28T13:27:01Z</time>
      </trkpt>
      <trkpt lat="47.27037" lon="-1.63286">
        <ele>45.1</ele>
        <time>2011-07-28T13:27:02Z</time>
      </trkpt>
      <trkpt lat="47.27035" lon="-1.63281">
        <ele>44.9</ele>
        <time>2011-07-28T13:27:03Z</time>
      </trkpt>
      <trkpt lat="47.27033" lon="-1.63276">
        <ele>44.7</ele>
        <time>2011-07-28T13:27:04Z</time>
      </trkpt>
      <trkpt lat="47.27032" lon="-1.63269">
        <ele>44.7</ele>
        <time>2011-07-28T13:27:05Z</time>
      </trkpt>
      <trkpt lat="47.27034" lon="-1.63263">
        <ele>44.6</ele>
        <time>2011-07-28T13:27:06Z</time>
      </trkpt>
      <trkpt lat="47.27035" lon="-1.63257">
        <ele>44.6</ele>
        <time>2011-07-28T13:27:07Z</time>
      </trkpt>
      <trkpt lat="47.27035" lon="-1.63251">
        <ele>44.2</ele>
        <time>2011-07-28T13:27:08Z</time>
      </trkpt>
      <trkpt lat="47.27036" lon="-1.63246">
        <ele>44</ele>
        <time>2011-07-28T13:27:09Z</time>
      </trkpt>
      <trkpt lat="47.27037" lon="-1.63241">
        <ele>43.8</ele>
        <time>2011-07-28T13:27:10Z</time>
      </trkpt>
      <trkpt lat="47.27038" lon="-1.63236">
        <ele>43.6</ele>
        <time>2011-07-28T13:27:11Z</time>
      </trkpt>
      <trkpt lat="47.27039" lon="-1.63231">
        <ele>44</ele>
        <time>2011-07-28T13:27:12Z</time>
      </trkpt>
      <trkpt lat="47.2704" lon="-1.63227">
        <ele>44.4</ele>
        <time>2011-07-28T13:27:13Z</time>
      </trkpt>
      <trkpt lat="47.27041" lon="-1.63223">
        <ele>44.6</ele>
        <time>2011-07-28T13:27:14Z</time>
      </trkpt>
      <trkpt lat="47.27042" lon="-1.63219">
        <ele>44.7</ele>
        <time>2011-07-28T13:27:15Z</time>
      </trkpt>
      <trkpt lat="47.27043" lon="-1.63216">
        <ele>44.8</ele>
        <time>2011-07-28T13:27:16Z</time>
      </trkpt>
      <trkpt lat="47.27043" lon="-1.63212">
        <ele>44.9</ele>
        <time>2011-07-28T13:27:17Z</time>
      </trkpt>
      <trkpt lat="47.27046" lon="-1.63208">
        <ele>44.3</ele>
        <time>2011-07-28T13:27:19Z</time>
      </trkpt>
      <trkpt lat="47.27048" lon="-1.63212">
        <ele>44.1</ele>
        <time>2011-07-28T13:27:21Z</time>
      </trkpt>
      <trkpt lat="47.27047" lon="-1.63216">
        <ele>44</ele>
        <time>2011-07-28T13:27:22Z</time>
      </trkpt>
      <trkpt lat="47.27045" lon="-1.63221">
        <ele>44</ele>
        <time>2011-07-28T13:27:23Z</time>
      </trkpt>
      <trkpt lat="47.27043" lon="-1.63226">
        <ele>43.6</ele>
        <time>2011-07-28T13:27:24Z</time>
      </trkpt>
      <trkpt lat="47.27041" lon="-1.63231">
        <ele>43.3</ele>
        <time>2011-07-28T13:27:25Z</time>
      </trkpt>
      <trkpt lat="47.2704" lon="-1.63236">
        <ele>43.1</ele>
        <time>2011-07-28T13:27:26Z</time>
      </trkpt>
      <trkpt lat="47.27039" lon="-1.63243">
        <ele>43</ele>
        <time>2011-07-28T13:27:27Z</time>
      </trkpt>
      <trkpt lat="47.27038" lon="-1.6325">
        <ele>43</ele>
        <time>2011-07-28T13:27:28Z</time>
      </trkpt>
      <trkpt lat="47.27036" lon="-1.63257">
        <ele>43.1</ele>
        <time>2011-07-28T13:27:29Z</time>
      </trkpt>
      <trkpt lat="47.27035" lon="-1.63265">
        <ele>43.1</ele>
        <time>2011-07-28T13:27:30Z</time>
      </trkpt>
      <trkpt lat="47.27034" lon="-1.63272">
        <ele>43.1</ele>
        <time>2011-07-28T13:27:31Z</time>
      </trkpt>
      <trkpt lat="47.27035" lon="-1.63279">
        <ele>43</ele>
        <time>2011-07-28T13:27:32Z</time>
      </trkpt>
      <trkpt lat="47.27036" lon="-1.63285">
        <ele>43</ele>
        <time>2011-07-28T13:27:33Z</time>
      </trkpt>
      <trkpt lat="47.27039" lon="-1.6329">
        <ele>43.2</ele>
        <time>2011-07-28T13:27:34Z</time>
      </trkpt>
      <trkpt lat="47.2704" lon="-1.63296">
        <ele>43.3</ele>
        <time>2011-07-28T13:27:35Z</time>
      </trkpt>
      <trkpt lat="47.2704" lon="-1.63302">
        <ele>43.5</ele>
        <time>2011-07-28T13:27:36Z</time>
      </trkpt>
      <trkpt lat="47.2704" lon="-1.63308">
        <ele>43.9</ele>
        <time>2011-07-28T13:27:37Z</time>
      </trkpt>
      <trkpt lat="47.2704" lon="-1.63314">
        <ele>44.3</ele>
        <time>2011-07-28T13:27:38Z</time>
      </trkpt>
      <trkpt lat="47.2704" lon="-1.6332">
        <ele>44.6</ele>
        <time>2011-07-28T13:27:39Z</time>
      </trkpt>
      <trkpt lat="47.2704" lon="-1.63326">
        <ele>45.4</ele>
        <time>2011-07-28T13:27:40Z</time>
      </trkpt>
      <trkpt lat="47.27041" lon="-1.63332">
        <ele>46</ele>
        <time>2011-07-28T13:27:41Z</time>
      </trkpt>
      <trkpt lat="47.27041" lon="-1.63337">
        <ele>46.4</ele>
        <time>2011-07-28T13:27:42Z</time>
      </trkpt>
      <trkpt lat="47.27041" lon="-1.63343">
        <ele>46.7</ele>
        <time>2011-07-28T13:27:43Z</time>
      </trkpt>
      <trkpt lat="47.27041" lon="-1.63349">
        <ele>46.8</ele>
        <time>2011-07-28T13:27:44Z</time>
      </trkpt>
      <trkpt lat="47.27041" lon="-1.63355">
        <ele>46.8</ele>
        <time>2011-07-28T13:27:45Z</time>
      </trkpt>
      <trkpt lat="47.27041" lon="-1.63362">
        <ele>46.9</ele>
        <time>2011-07-28T13:27:46Z</time>
      </trkpt>
      <trkpt lat="47.27042" lon="-1.63368">
        <ele>46.8</ele>
        <time>2011-07-28T13:27:47Z</time>
      </trkpt>
      <trkpt lat="47.27043" lon="-1.63374">
        <ele>46.7</ele>
        <time>2011-07-28T13:27:48Z</time>
      </trkpt>
      <trkpt lat="47.27044" lon="-1.63379">
        <ele>46.6</ele>
        <time>2011-07-28T13:27:49Z</time>
      </trkpt>
      <trkpt lat="47.27045" lon="-1.63384">
        <ele>46.4</ele>
        <time>2011-07-28T13:27:50Z</time>
      </trkpt>
      <trkpt lat="47.27045" lon="-1.63388">
        <ele>46.2</ele>
        <time>2011-07-28T13:27:51Z</time>
      </trkpt>
      <trkpt lat="47.27045" lon="-1.63391">
        <ele>46.1</ele>
        <time>2011-07-28T13:27:52Z</time>
      </trkpt>
      <trkpt lat="47.27045" lon="-1.63395">
        <ele>46.5</ele>
        <time>2011-07-28T13:27:53Z</time>
      </trkpt>
      <trkpt lat="47.27045" lon="-1.63399">
        <ele>46.8</ele>
        <time>2011-07-28T13:27:54Z</time>
      </trkpt>
      <trkpt lat="47.27046" lon="-1.63403">
        <ele>47.1</ele>
        <time>2011-07-28T13:27:55Z</time>
      </trkpt>
      <trkpt lat="47.27047" lon="-1.63407">
        <ele>47</ele>
        <time>2011-07-28T13:27:56Z</time>
      </trkpt>
      <trkpt lat="47.27048" lon="-1.6341">
        <ele>47</ele>
        <time>2011-07-28T13:27:57Z</time>
      </trkpt>
      <trkpt lat="47.27049" lon="-1.63414">
        <ele>47</ele>
        <time>2011-07-28T13:27:58Z</time>
      </trkpt>
      <trkpt lat="47.27052" lon="-1.63418">
        <ele>46.9</ele>
        <time>2011-07-28T13:28:00Z</time>
      </trkpt>
      <trkpt lat="47.27056" lon="-1.6342">
        <ele>46.8</ele>
        <time>2011-07-28T13:28:02Z</time>
      </trkpt>
      <trkpt lat="47.2706" lon="-1.63423">
        <ele>46.8</ele>
        <time>2011-07-28T13:28:04Z</time>
      </trkpt>
      <trkpt lat="47.27064" lon="-1.63424">
        <ele>47.1</ele>
        <time>2011-07-28T13:28:06Z</time>
      </trkpt>
      <trkpt lat="47.27067" lon="-1.63425">
        <ele>47.4</ele>
        <time>2011-07-28T13:28:08Z</time>
      </trkpt>
      <trkpt lat="47.27071" lon="-1.63426">
        <ele>47.2</ele>
        <time>2011-07-28T13:28:10Z</time>
      </trkpt>
      <trkpt lat="47.27074" lon="-1.63428">
        <ele>47</ele>
        <time>2011-07-28T13:28:12Z</time>
      </trkpt>
      <trkpt lat="47.27078" lon="-1.6343">
        <ele>46.9</ele>
        <time>2011-07-28T13:28:14Z</time>
      </trkpt>
      <trkpt lat="47.27081" lon="-1.63434">
        <ele>47</ele>
        <time>2011-07-28T13:28:16Z</time>
      </trkpt>
      <trkpt lat="47.27083" lon="-1.63438">
        <ele>47.2</ele>
        <time>2011-07-28T13:28:18Z</time>
      </trkpt>
      <trkpt lat="47.27084" lon="-1.63443">
        <ele>47.8</ele>
        <time>2011-07-28T13:28:21Z</time>
      </trkpt>
      <trkpt lat="47.27086" lon="-1.63448">
        <ele>47.4</ele>
        <time>2011-07-28T13:28:23Z</time>
      </trkpt>
      <trkpt lat="47.27088" lon="-1.63452">
        <ele>47.9</ele>
        <time>2011-07-28T13:28:25Z</time>
      </trkpt>
      <trkpt lat="47.27089" lon="-1.63458">
        <ele>48.7</ele>
        <time>2011-07-28T13:28:27Z</time>
      </trkpt>
      <trkpt lat="47.27089" lon="-1.63464">
        <ele>48.6</ele>
        <time>2011-07-28T13:28:29Z</time>
      </trkpt>
      <trkpt lat="47.2709" lon="-1.63469">
        <ele>48.6</ele>
        <time>2011-07-28T13:28:31Z</time>
      </trkpt>
      <trkpt lat="47.2709" lon="-1.63474">
        <ele>49.4</ele>
        <time>2011-07-28T13:28:33Z</time>
      </trkpt>
      <trkpt lat="47.27091" lon="-1.63476">
        <ele>49.7</ele>
        <time>2011-07-28T13:28:34Z</time>
      </trkpt>
      <trkpt lat="47.27091" lon="-1.63483">
        <ele>50.9</ele>
        <time>2011-07-28T13:28:37Z</time>
      </trkpt>
      <trkpt lat="47.27092" lon="-1.63489">
        <ele>50.7</ele>
        <time>2011-07-28T13:28:39Z</time>
      </trkpt>
      <trkpt lat="47.27092" lon="-1.63496">
        <ele>50.8</ele>
        <time>2011-07-28T13:28:41Z</time>
      </trkpt>
      <trkpt lat="47.27093" lon="-1.63502">
        <ele>51</ele>
        <time>2011-07-28T13:28:43Z</time>
      </trkpt>
      <trkpt lat="47.27093" lon="-1.63505">
        <ele>51.6</ele>
        <time>2011-07-28T13:28:44Z</time>
      </trkpt>
      <trkpt lat="47.27094" lon="-1.63509">
        <ele>52</ele>
        <time>2011-07-28T13:28:45Z</time>
      </trkpt>
      <trkpt lat="47.27094" lon="-1.63515">
        <ele>52.7</ele>
        <time>2011-07-28T13:28:47Z</time>
      </trkpt>
      <trkpt lat="47.27094" lon="-1.63519">
        <ele>53</ele>
        <time>2011-07-28T13:28:48Z</time>
      </trkpt>
      <trkpt lat="47.27094" lon="-1.63523">
        <ele>53.2</ele>
        <time>2011-07-28T13:28:49Z</time>
      </trkpt>
      <trkpt lat="47.27094" lon="-1.63528">
        <ele>53.3</ele>
        <time>2011-07-28T13:28:50Z</time>
      </trkpt>
      <trkpt lat="47.27094" lon="-1.63533">
        <ele>53.5</ele>
        <time>2011-07-28T13:28:51Z</time>
      </trkpt>
      <trkpt lat="47.27094" lon="-1.63538">
        <ele>53.7</ele>
        <time>2011-07-28T13:28:52Z</time>
      </trkpt>
      <trkpt lat="47.27094" lon="-1.63543">
        <ele>53.9</ele>
        <time>2011-07-28T13:28:53Z</time>
      </trkpt>
      <trkpt lat="47.27095" lon="-1.63547">
        <ele>54.2</ele>
        <time>2011-07-28T13:28:54Z</time>
      </trkpt>
      <trkpt lat="47.27095" lon="-1.63551">
        <ele>54.4</ele>
        <time>2011-07-28T13:28:55Z</time>
      </trkpt>
      <trkpt lat="47.27095" lon="-1.63554">
        <ele>54.5</ele>
        <time>2011-07-28T13:28:56Z</time>
      </trkpt>
      <trkpt lat="47.27096" lon="-1.6356">
        <ele>54.6</ele>
        <time>2011-07-28T13:28:58Z</time>
      </trkpt>
      <trkpt lat="47.27095" lon="-1.63565">
        <ele>55.2</ele>
        <time>2011-07-28T13:29:00Z</time>
      </trkpt>
      <trkpt lat="47.27092" lon="-1.6357">
        <ele>55.3</ele>
        <time>2011-07-28T13:29:04Z</time>
      </trkpt>
      <trkpt lat="47.27091" lon="-1.63576">
        <ele>55.2</ele>
        <time>2011-07-28T13:29:08Z</time>
      </trkpt>
      <trkpt lat="47.27089" lon="-1.63582">
        <ele>56.1</ele>
        <time>2011-07-28T13:29:12Z</time>
      </trkpt>
      <trkpt lat="47.2709" lon="-1.63575">
        <ele>56.3</ele>
        <time>2011-07-28T13:29:48Z</time>
      </trkpt>
      <trkpt lat="47.27091" lon="-1.63572">
        <ele>56</ele>
        <time>2011-07-28T13:29:49Z</time>
      </trkpt>
      <trkpt lat="47.27092" lon="-1.63564">
        <ele>56.1</ele>
        <time>2011-07-28T13:29:53Z</time>
      </trkpt>
      <trkpt lat="47.27093" lon="-1.63557">
        <ele>56.2</ele>
        <time>2011-07-28T13:29:56Z</time>
      </trkpt>
      <trkpt lat="47.27096" lon="-1.63559">
        <ele>56.4</ele>
        <time>2011-07-28T13:29:59Z</time>
      </trkpt>
      <trkpt lat="47.27096" lon="-1.63563">
        <ele>56.3</ele>
        <time>2011-07-28T13:30:01Z</time>
      </trkpt>
      <trkpt lat="47.27092" lon="-1.63566">
        <ele>56.1</ele>
        <time>2011-07-28T13:30:03Z</time>
      </trkpt>
      <trkpt lat="47.2709" lon="-1.63572">
        <ele>55.7</ele>
        <time>2011-07-28T13:30:05Z</time>
      </trkpt>
      <trkpt lat="47.27089" lon="-1.63577">
        <ele>55.7</ele>
        <time>2011-07-28T13:30:07Z</time>
      </trkpt>
      <trkpt lat="47.27088" lon="-1.63583">
        <ele>56.1</ele>
        <time>2011-07-28T13:30:10Z</time>
      </trkpt>
      <trkpt lat="47.27087" lon="-1.63588">
        <ele>56.4</ele>
        <time>2011-07-28T13:30:12Z</time>
      </trkpt>
      <trkpt lat="47.27086" lon="-1.63592">
        <ele>56.5</ele>
        <time>2011-07-28T13:30:14Z</time>
      </trkpt>
      <trkpt lat="47.27084" lon="-1.63597">
        <ele>56.5</ele>
        <time>2011-07-28T13:30:16Z</time>
      </trkpt>
      <trkpt lat="47.27083" lon="-1.63602">
        <ele>56.2</ele>
        <time>2011-07-28T13:30:18Z</time>
      </trkpt>
      <trkpt lat="47.27082" lon="-1.63609">
        <ele>55.9</ele>
        <time>2011-07-28T13:30:20Z</time>
      </trkpt>
      <trkpt lat="47.27082" lon="-1.63612">
        <ele>55.8</ele>
        <time>2011-07-28T13:30:21Z</time>
      </trkpt>
      <trkpt lat="47.27081" lon="-1.63616">
        <ele>55.7</ele>
        <time>2011-07-28T13:30:22Z</time>
      </trkpt>
      <trkpt lat="47.2708" lon="-1.6362">
        <ele>55.7</ele>
        <time>2011-07-28T13:30:23Z</time>
      </trkpt>
      <trkpt lat="47.27079" lon="-1.63625">
        <ele>55.8</ele>
        <time>2011-07-28T13:30:24Z</time>
      </trkpt>
      <trkpt lat="47.27078" lon="-1.6363">
        <ele>55.8</ele>
        <time>2011-07-28T13:30:25Z</time>
      </trkpt>
      <trkpt lat="47.27077" lon="-1.63635">
        <ele>55.8</ele>
        <time>2011-07-28T13:30:26Z</time>
      </trkpt>
      <trkpt lat="47.27076" lon="-1.63641">
        <ele>55.8</ele>
        <time>2011-07-28T13:30:27Z</time>
      </trkpt>
      <trkpt lat="47.27075" lon="-1.63646">
        <ele>55.8</ele>
        <time>2011-07-28T13:30:28Z</time>
      </trkpt>
      <trkpt lat="47.27073" lon="-1.63652">
        <ele>55.8</ele>
        <time>2011-07-28T13:30:29Z</time>
      </trkpt>
      <trkpt lat="47.27072" lon="-1.63658">
        <ele>55.9</ele>
        <time>2011-07-28T13:30:30Z</time>
      </trkpt>
      <trkpt lat="47.27071" lon="-1.63665">
        <ele>56</ele>
        <time>2011-07-28T13:30:31Z</time>
      </trkpt>
      <trkpt lat="47.2707" lon="-1.63672">
        <ele>56.1</ele>
        <time>2011-07-28T13:30:32Z</time>
      </trkpt>
      <trkpt lat="47.27069" lon="-1.63679">
        <ele>55.6</ele>
        <time>2011-07-28T13:30:33Z</time>
      </trkpt>
      <trkpt lat="47.27068" lon="-1.63686">
        <ele>55.3</ele>
        <time>2011-07-28T13:30:34Z</time>
      </trkpt>
      <trkpt lat="47.27067" lon="-1.63693">
        <ele>55.1</ele>
        <time>2011-07-28T13:30:35Z</time>
      </trkpt>
      <trkpt lat="47.27066" lon="-1.637">
        <ele>54.8</ele>
        <time>2011-07-28T13:30:36Z</time>
      </trkpt>
      <trkpt lat="47.27065" lon="-1.63707">
        <ele>54.6</ele>
        <time>2011-07-28T13:30:37Z</time>
      </trkpt>
      <trkpt lat="47.27064" lon="-1.63713">
        <ele>54.4</ele>
        <time>2011-07-28T13:30:38Z</time>
      </trkpt>
      <trkpt lat="47.27063" lon="-1.6372">
        <ele>54.5</ele>
        <time>2011-07-28T13:30:39Z</time>
      </trkpt>
      <trkpt lat="47.27062" lon="-1.63727">
        <ele>54.5</ele>
        <time>2011-07-28T13:30:40Z</time>
      </trkpt>
      <trkpt lat="47.27062" lon="-1.63734">
        <ele>54.6</ele>
        <time>2011-07-28T13:30:41Z</time>
      </trkpt>
      <trkpt lat="47.27061" lon="-1.63742">
        <ele>54.8</ele>
        <time>2011-07-28T13:30:42Z</time>
      </trkpt>
      <trkpt lat="47.27061" lon="-1.63749">
        <ele>54.9</ele>
        <time>2011-07-28T13:30:43Z</time>
      </trkpt>
      <trkpt lat="47.2706" lon="-1.63757">
        <ele>55</ele>
        <time>2011-07-28T13:30:44Z</time>
      </trkpt>
      <trkpt lat="47.2706" lon="-1.63764">
        <ele>55.1</ele>
        <time>2011-07-28T13:30:45Z</time>
      </trkpt>
      <trkpt lat="47.2706" lon="-1.63772">
        <ele>55</ele>
        <time>2011-07-28T13:30:46Z</time>
      </trkpt>
      <trkpt lat="47.2706" lon="-1.63779">
        <ele>55</ele>
        <time>2011-07-28T13:30:47Z</time>
      </trkpt>
      <trkpt lat="47.2706" lon="-1.63787">
        <ele>55</ele>
        <time>2011-07-28T13:30:48Z</time>
      </trkpt>
      <trkpt lat="47.2706" lon="-1.63794">
        <ele>54.8</ele>
        <time>2011-07-28T13:30:49Z</time>
      </trkpt>
      <trkpt lat="47.27061" lon="-1.63802">
        <ele>54.7</ele>
        <time>2011-07-28T13:30:50Z</time>
      </trkpt>
      <trkpt lat="47.27061" lon="-1.63809">
        <ele>54.7</ele>
        <time>2011-07-28T13:30:51Z</time>
      </trkpt>
      <trkpt lat="47.27061" lon="-1.63817">
        <ele>54.4</ele>
        <time>2011-07-28T13:30:52Z</time>
      </trkpt>
      <trkpt lat="47.27062" lon="-1.63824">
        <ele>54.2</ele>
        <time>2011-07-28T13:30:53Z</time>
      </trkpt>
      <trkpt lat="47.27062" lon="-1.63831">
        <ele>54</ele>
        <time>2011-07-28T13:30:54Z</time>
      </trkpt>
      <trkpt lat="47.27063" lon="-1.63839">
        <ele>53.7</ele>
        <time>2011-07-28T13:30:55Z</time>
      </trkpt>
      <trkpt lat="47.27064" lon="-1.63846">
        <ele>53.4</ele>
        <time>2011-07-28T13:30:56Z</time>
      </trkpt>
      <trkpt lat="47.27065" lon="-1.63853">
        <ele>53.2</ele>
        <time>2011-07-28T13:30:57Z</time>
      </trkpt>
      <trkpt lat="47.27066" lon="-1.6386">
        <ele>53.5</ele>
        <time>2011-07-28T13:30:58Z</time>
      </trkpt>
      <trkpt lat="47.27067" lon="-1.63867">
        <ele>53.7</ele>
        <time>2011-07-28T13:30:59Z</time>
      </trkpt>
      <trkpt lat="47.27068" lon="-1.63874">
        <ele>53.9</ele>
        <time>2011-07-28T13:31:00Z</time>
      </trkpt>
      <trkpt lat="47.27068" lon="-1.63881">
        <ele>54</ele>
        <time>2011-07-28T13:31:01Z</time>
      </trkpt>
      <trkpt lat="47.27069" lon="-1.63888">
        <ele>53.9</ele>
        <time>2011-07-28T13:31:02Z</time>
      </trkpt>
      <trkpt lat="47.27072" lon="-1.63894">
        <ele>53.9</ele>
        <time>2011-07-28T13:31:03Z</time>
      </trkpt>
      <trkpt lat="47.27075" lon="-1.63897">
        <ele>53.9</ele>
        <time>2011-07-28T13:31:04Z</time>
      </trkpt>
      <trkpt lat="47.27079" lon="-1.639">
        <ele>53.8</ele>
        <time>2011-07-28T13:31:05Z</time>
      </trkpt>
      <trkpt lat="47.27082" lon="-1.63904">
        <ele>53.7</ele>
        <time>2011-07-28T13:31:06Z</time>
      </trkpt>
      <trkpt lat="47.27085" lon="-1.63908">
        <ele>53.7</ele>
        <time>2011-07-28T13:31:07Z</time>
      </trkpt>
      <trkpt lat="47.27087" lon="-1.63913">
        <ele>53.5</ele>
        <time>2011-07-28T13:31:08Z</time>
      </trkpt>
      <trkpt lat="47.27089" lon="-1.63919">
        <ele>53.3</ele>
        <time>2011-07-28T13:31:09Z</time>
      </trkpt>
      <trkpt lat="47.27092" lon="-1.63927">
        <ele>53.2</ele>
        <time>2011-07-28T13:31:10Z</time>
      </trkpt>
      <trkpt lat="47.27095" lon="-1.63935">
        <ele>53.4</ele>
        <time>2011-07-28T13:31:11Z</time>
      </trkpt>
      <trkpt lat="47.27099" lon="-1.63943">
        <ele>53.6</ele>
        <time>2011-07-28T13:31:12Z</time>
      </trkpt>
      <trkpt lat="47.27104" lon="-1.63952">
        <ele>53.7</ele>
        <time>2011-07-28T13:31:13Z</time>
      </trkpt>
      <trkpt lat="47.27109" lon="-1.63961">
        <ele>53.5</ele>
        <time>2011-07-28T13:31:14Z</time>
      </trkpt>
      <trkpt lat="47.27113" lon="-1.6397">
        <ele>53.4</ele>
        <time>2011-07-28T13:31:15Z</time>
      </trkpt>
      <trkpt lat="47.27118" lon="-1.63979">
        <ele>53.3</ele>
        <time>2011-07-28T13:31:16Z</time>
      </trkpt>
      <trkpt lat="47.27122" lon="-1.63988">
        <ele>53.2</ele>
        <time>2011-07-28T13:31:17Z</time>
      </trkpt>
      <trkpt lat="47.27127" lon="-1.63997">
        <ele>53.2</ele>
        <time>2011-07-28T13:31:18Z</time>
      </trkpt>
      <trkpt lat="47.27133" lon="-1.64005">
        <ele>53.2</ele>
        <time>2011-07-28T13:31:19Z</time>
      </trkpt>
      <trkpt lat="47.27138" lon="-1.64013">
        <ele>53.1</ele>
        <time>2011-07-28T13:31:20Z</time>
      </trkpt>
      <trkpt lat="47.27143" lon="-1.64022">
        <ele>53.3</ele>
        <time>2011-07-28T13:31:21Z</time>
      </trkpt>
      <trkpt lat="47.27148" lon="-1.64032">
        <ele>53.4</ele>
        <time>2011-07-28T13:31:22Z</time>
      </trkpt>
      <trkpt lat="47.27153" lon="-1.64043">
        <ele>53.4</ele>
        <time>2011-07-28T13:31:23Z</time>
      </trkpt>
      <trkpt lat="47.27158" lon="-1.64053">
        <ele>53.7</ele>
        <time>2011-07-28T13:31:24Z</time>
      </trkpt>
      <trkpt lat="47.27163" lon="-1.64063">
        <ele>53.9</ele>
        <time>2011-07-28T13:31:25Z</time>
      </trkpt>
      <trkpt lat="47.27169" lon="-1.64073">
        <ele>54</ele>
        <time>2011-07-28T13:31:26Z</time>
      </trkpt>
      <trkpt lat="47.27174" lon="-1.64084">
        <ele>53.6</ele>
        <time>2011-07-28T13:31:27Z</time>
      </trkpt>
      <trkpt lat="47.27179" lon="-1.64096">
        <ele>53.4</ele>
        <time>2011-07-28T13:31:28Z</time>
      </trkpt>
      <trkpt lat="47.27185" lon="-1.64107">
        <ele>53.1</ele>
        <time>2011-07-28T13:31:29Z</time>
      </trkpt>
      <trkpt lat="47.2719" lon="-1.64119">
        <ele>52.8</ele>
        <time>2011-07-28T13:31:30Z</time>
      </trkpt>
      <trkpt lat="47.27194" lon="-1.64132">
        <ele>52.5</ele>
        <time>2011-07-28T13:31:31Z</time>
      </trkpt>
      <trkpt lat="47.27199" lon="-1.64144">
        <ele>52.3</ele>
        <time>2011-07-28T13:31:32Z</time>
      </trkpt>
      <trkpt lat="47.27205" lon="-1.64156">
        <ele>51.5</ele>
        <time>2011-07-28T13:31:33Z</time>
      </trkpt>
      <trkpt lat="47.27208" lon="-1.64169">
        <ele>51</ele>
        <time>2011-07-28T13:31:34Z</time>
      </trkpt>
      <trkpt lat="47.27213" lon="-1.64182">
        <ele>50.6</ele>
        <time>2011-07-28T13:31:35Z</time>
      </trkpt>
      <trkpt lat="47.27217" lon="-1.64194">
        <ele>50.2</ele>
        <time>2011-07-28T13:31:36Z</time>
      </trkpt>
      <trkpt lat="47.27222" lon="-1.64206">
        <ele>49.3</ele>
        <time>2011-07-28T13:31:37Z</time>
      </trkpt>
      <trkpt lat="47.27227" lon="-1.64217">
        <ele>48.6</ele>
        <time>2011-07-28T13:31:38Z</time>
      </trkpt>
      <trkpt lat="47.27232" lon="-1.64227">
        <ele>48.1</ele>
        <time>2011-07-28T13:31:39Z</time>
      </trkpt>
      <trkpt lat="47.27236" lon="-1.64235">
        <ele>47.7</ele>
        <time>2011-07-28T13:31:40Z</time>
      </trkpt>
      <trkpt lat="47.27239" lon="-1.64241">
        <ele>47.5</ele>
        <time>2011-07-28T13:31:41Z</time>
      </trkpt>
      <trkpt lat="47.27242" lon="-1.64245">
        <ele>47.3</ele>
        <time>2011-07-28T13:31:42Z</time>
      </trkpt>
      <trkpt lat="47.27245" lon="-1.64248">
        <ele>47.4</ele>
        <time>2011-07-28T13:31:43Z</time>
      </trkpt>
      <trkpt lat="47.27247" lon="-1.64251">
        <ele>47.5</ele>
        <time>2011-07-28T13:31:44Z</time>
      </trkpt>
      <trkpt lat="47.27249" lon="-1.64254">
        <ele>47.6</ele>
        <time>2011-07-28T13:31:45Z</time>
      </trkpt>
      <trkpt lat="47.27251" lon="-1.64257">
        <ele>47.6</ele>
        <time>2011-07-28T13:31:46Z</time>
      </trkpt>
      <trkpt lat="47.27253" lon="-1.64261">
        <ele>47.7</ele>
        <time>2011-07-28T13:31:47Z</time>
      </trkpt>
      <trkpt lat="47.27256" lon="-1.64265">
        <ele>47.2</ele>
        <time>2011-07-28T13:31:50Z</time>
      </trkpt>
      <trkpt lat="47.27257" lon="-1.64266">
        <ele>47.1</ele>
        <time>2011-07-28T13:31:51Z</time>
      </trkpt>
      <trkpt lat="47.2726" lon="-1.64277">
        <ele>45.9</ele>
        <time>2011-07-28T13:32:43Z</time>
      </trkpt>
      <trkpt lat="47.27264" lon="-1.6428">
        <ele>47</ele>
        <time>2011-07-28T13:33:47Z</time>
      </trkpt>
      <trkpt lat="47.27264" lon="-1.6428">
        <ele>46.9</ele>
        <time>2011-07-28T13:33:48Z</time>
      </trkpt>
      <trkpt lat="47.2727" lon="-1.64286">
        <ele>45.6</ele>
        <time>2011-07-28T13:34:37Z</time>
      </trkpt>
      <trkpt lat="47.27272" lon="-1.6429">
        <ele>45.9</ele>
        <time>2011-07-28T13:34:39Z</time>
      </trkpt>
      <trkpt lat="47.27274" lon="-1.64294">
        <ele>46.2</ele>
        <time>2011-07-28T13:34:41Z</time>
      </trkpt>
      <trkpt lat="47.27277" lon="-1.64299">
        <ele>46.1</ele>
        <time>2011-07-28T13:34:43Z</time>
      </trkpt>
      <trkpt lat="47.2728" lon="-1.64303">
        <ele>46.4</ele>
        <time>2011-07-28T13:34:45Z</time>
      </trkpt>
      <trkpt lat="47.27282" lon="-1.64306">
        <ele>46.6</ele>
        <time>2011-07-28T13:34:46Z</time>
      </trkpt>
      <trkpt lat="47.27283" lon="-1.64308">
        <ele>46.8</ele>
        <time>2011-07-28T13:34:47Z</time>
      </trkpt>
      <trkpt lat="47.27285" lon="-1.64311">
        <ele>46.8</ele>
        <time>2011-07-28T13:34:48Z</time>
      </trkpt>
      <trkpt lat="47.27286" lon="-1.64314">
        <ele>46.8</ele>
        <time>2011-07-28T13:34:49Z</time>
      </trkpt>
      <trkpt lat="47.27288" lon="-1.64316">
        <ele>46.9</ele>
        <time>2011-07-28T13:34:50Z</time>
      </trkpt>
      <trkpt lat="47.2729" lon="-1.64319">
        <ele>47</ele>
        <time>2011-07-28T13:34:51Z</time>
      </trkpt>
      <trkpt lat="47.27291" lon="-1.64322">
        <ele>47.2</ele>
        <time>2011-07-28T13:34:52Z</time>
      </trkpt>
      <trkpt lat="47.27293" lon="-1.64325">
        <ele>47.3</ele>
        <time>2011-07-28T13:34:53Z</time>
      </trkpt>
      <trkpt lat="47.27295" lon="-1.64328">
        <ele>47.3</ele>
        <time>2011-07-28T13:34:54Z</time>
      </trkpt>
      <trkpt lat="47.27297" lon="-1.6433">
        <ele>47.1</ele>
        <time>2011-07-28T13:34:55Z</time>
      </trkpt>
      <trkpt lat="47.27299" lon="-1.64333">
        <ele>46.9</ele>
        <time>2011-07-28T13:34:56Z</time>
      </trkpt>
      <trkpt lat="47.273" lon="-1.64336">
        <ele>46.7</ele>
        <time>2011-07-28T13:34:57Z</time>
      </trkpt>
      <trkpt lat="47.27302" lon="-1.64339">
        <ele>46.8</ele>
        <time>2011-07-28T13:34:58Z</time>
      </trkpt>
      <trkpt lat="47.27304" lon="-1.64342">
        <ele>46.8</ele>
        <time>2011-07-28T13:34:59Z</time>
      </trkpt>
      <trkpt lat="47.27306" lon="-1.64345">
        <ele>46.8</ele>
        <time>2011-07-28T13:35:00Z</time>
      </trkpt>
      <trkpt lat="47.27308" lon="-1.64348">
        <ele>47.3</ele>
        <time>2011-07-28T13:35:01Z</time>
      </trkpt>
      <trkpt lat="47.27311" lon="-1.64352">
        <ele>47.7</ele>
        <time>2011-07-28T13:35:02Z</time>
      </trkpt>
      <trkpt lat="47.27313" lon="-1.64354">
        <ele>48</ele>
        <time>2011-07-28T13:35:03Z</time>
      </trkpt>
      <trkpt lat="47.27315" lon="-1.64358">
        <ele>48</ele>
        <time>2011-07-28T13:35:04Z</time>
      </trkpt>
      <trkpt lat="47.27318" lon="-1.64361">
        <ele>48</ele>
        <time>2011-07-28T13:35:05Z</time>
      </trkpt>
      <trkpt lat="47.2732" lon="-1.64363">
        <ele>47.9</ele>
        <time>2011-07-28T13:35:06Z</time>
      </trkpt>
      <trkpt lat="47.27322" lon="-1.64366">
        <ele>48.3</ele>
        <time>2011-07-28T13:35:07Z</time>
      </trkpt>
      <trkpt lat="47.27324" lon="-1.64369">
        <ele>48.6</ele>
        <time>2011-07-28T13:35:08Z</time>
      </trkpt>
      <trkpt lat="47.27326" lon="-1.64371">
        <ele>48.8</ele>
        <time>2011-07-28T13:35:09Z</time>
      </trkpt>
      <trkpt lat="47.27328" lon="-1.64374">
        <ele>48.9</ele>
        <time>2011-07-28T13:35:10Z</time>
      </trkpt>
      <trkpt lat="47.2733" lon="-1.64376">
        <ele>48.6</ele>
        <time>2011-07-28T13:35:11Z</time>
      </trkpt>
      <trkpt lat="47.27332" lon="-1.64378">
        <ele>48.3</ele>
        <time>2011-07-28T13:35:12Z</time>
      </trkpt>
      <trkpt lat="47.27333" lon="-1.64381">
        <ele>48</ele>
        <time>2011-07-28T13:35:13Z</time>
      </trkpt>
      <trkpt lat="47.27335" lon="-1.64383">
        <ele>48.1</ele>
        <time>2011-07-28T13:35:14Z</time>
      </trkpt>
      <trkpt lat="47.27337" lon="-1.64386">
        <ele>48.1</ele>
        <time>2011-07-28T13:35:15Z</time>
      </trkpt>
      <trkpt lat="47.27339" lon="-1.64389">
        <ele>48.1</ele>
        <time>2011-07-28T13:35:16Z</time>
      </trkpt>
      <trkpt lat="47.2734" lon="-1.64391">
        <ele>48.3</ele>
        <time>2011-07-28T13:35:17Z</time>
      </trkpt>
      <trkpt lat="47.27342" lon="-1.64394">
        <ele>48.5</ele>
        <time>2011-07-28T13:35:18Z</time>
      </trkpt>
      <trkpt lat="47.27345" lon="-1.64397">
        <ele>48.7</ele>
        <time>2011-07-28T13:35:19Z</time>
      </trkpt>
      <trkpt lat="47.27347" lon="-1.64399">
        <ele>49.1</ele>
        <time>2011-07-28T13:35:20Z</time>
      </trkpt>
      <trkpt lat="47.27349" lon="-1.64402">
        <ele>49.4</ele>
        <time>2011-07-28T13:35:21Z</time>
      </trkpt>
      <trkpt lat="47.27351" lon="-1.64405">
        <ele>49.7</ele>
        <time>2011-07-28T13:35:22Z</time>
      </trkpt>
      <trkpt lat="47.27353" lon="-1.64408">
        <ele>50.1</ele>
        <time>2011-07-28T13:35:23Z</time>
      </trkpt>
      <trkpt lat="47.27355" lon="-1.64411">
        <ele>50.4</ele>
        <time>2011-07-28T13:35:24Z</time>
      </trkpt>
      <trkpt lat="47.27357" lon="-1.64413">
        <ele>50.6</ele>
        <time>2011-07-28T13:35:25Z</time>
      </trkpt>
      <trkpt lat="47.27359" lon="-1.64416">
        <ele>50.9</ele>
        <time>2011-07-28T13:35:26Z</time>
      </trkpt>
      <trkpt lat="47.27362" lon="-1.64419">
        <ele>51.2</ele>
        <time>2011-07-28T13:35:27Z</time>
      </trkpt>
      <trkpt lat="47.27364" lon="-1.64422">
        <ele>51.3</ele>
        <time>2011-07-28T13:35:28Z</time>
      </trkpt>
      <trkpt lat="47.27366" lon="-1.64427">
        <ele>51.7</ele>
        <time>2011-07-28T13:35:30Z</time>
      </trkpt>
      <trkpt lat="47.27368" lon="-1.64429">
        <ele>51.8</ele>
        <time>2011-07-28T13:35:31Z</time>
      </trkpt>
      <trkpt lat="47.2737" lon="-1.64432">
        <ele>51.9</ele>
        <time>2011-07-28T13:35:32Z</time>
      </trkpt>
      <trkpt lat="47.27372" lon="-1.64436">
        <ele>51.7</ele>
        <time>2011-07-28T13:35:33Z</time>
      </trkpt>
      <trkpt lat="47.27375" lon="-1.64439">
        <ele>51.6</ele>
        <time>2011-07-28T13:35:34Z</time>
      </trkpt>
      <trkpt lat="47.27377" lon="-1.64442">
        <ele>51.5</ele>
        <time>2011-07-28T13:35:35Z</time>
      </trkpt>
      <trkpt lat="47.27379" lon="-1.64445">
        <ele>51.5</ele>
        <time>2011-07-28T13:35:36Z</time>
      </trkpt>
      <trkpt lat="47.27381" lon="-1.64448">
        <ele>51.5</ele>
        <time>2011-07-28T13:35:37Z</time>
      </trkpt>
      <trkpt lat="47.27383" lon="-1.64451">
        <ele>51.5</ele>
        <time>2011-07-28T13:35:38Z</time>
      </trkpt>
      <trkpt lat="47.27385" lon="-1.64454">
        <ele>51.6</ele>
        <time>2011-07-28T13:35:39Z</time>
      </trkpt>
      <trkpt lat="47.27388" lon="-1.64457">
        <ele>51.6</ele>
        <time>2011-07-28T13:35:40Z</time>
      </trkpt>
      <trkpt lat="47.2739" lon="-1.64459">
        <ele>51.7</ele>
        <time>2011-07-28T13:35:41Z</time>
      </trkpt>
      <trkpt lat="47.27392" lon="-1.64462">
        <ele>52.3</ele>
        <time>2011-07-28T13:35:42Z</time>
      </trkpt>
      <trkpt lat="47.27395" lon="-1.64464">
        <ele>52.7</ele>
        <time>2011-07-28T13:35:43Z</time>
      </trkpt>
      <trkpt lat="47.27397" lon="-1.64467">
        <ele>53</ele>
        <time>2011-07-28T13:35:44Z</time>
      </trkpt>
      <trkpt lat="47.274" lon="-1.6447">
        <ele>53.6</ele>
        <time>2011-07-28T13:35:46Z</time>
      </trkpt>
      <trkpt lat="47.27402" lon="-1.64473">
        <ele>53.8</ele>
        <time>2011-07-28T13:35:47Z</time>
      </trkpt>
      <trkpt lat="47.27404" lon="-1.64475">
        <ele>54</ele>
        <time>2011-07-28T13:35:48Z</time>
      </trkpt>
      <trkpt lat="47.27408" lon="-1.64478">
        <ele>53.9</ele>
        <time>2011-07-28T13:35:50Z</time>
      </trkpt>
      <trkpt lat="47.2741" lon="-1.64479">
        <ele>53.9</ele>
        <time>2011-07-28T13:35:51Z</time>
      </trkpt>
      <trkpt lat="47.27415" lon="-1.6448">
        <ele>55.5</ele>
        <time>2011-07-28T13:35:54Z</time>
      </trkpt>
      <trkpt lat="47.27419" lon="-1.64483">
        <ele>55.3</ele>
        <time>2011-07-28T13:36:01Z</time>
      </trkpt>
      <trkpt lat="47.27422" lon="-1.64487">
        <ele>56.2</ele>
        <time>2011-07-28T13:36:19Z</time>
      </trkpt>
      <trkpt lat="47.27425" lon="-1.64492">
        <ele>56.5</ele>
        <time>2011-07-28T13:37:02Z</time>
      </trkpt>
      <trkpt lat="47.27425" lon="-1.64492">
        <ele>56.8</ele>
        <time>2011-07-28T13:37:03Z</time>
      </trkpt>
      <trkpt lat="47.27429" lon="-1.64493">
        <ele>55.6</ele>
        <time>2011-07-28T13:38:37Z</time>
      </trkpt>
      <trkpt lat="47.27436" lon="-1.64492">
        <ele>55.1</ele>
        <time>2011-07-28T13:39:38Z</time>
      </trkpt>
      <trkpt lat="47.27438" lon="-1.64492">
        <ele>55.3</ele>
        <time>2011-07-28T13:39:39Z</time>
      </trkpt>
      <trkpt lat="47.27442" lon="-1.64492">
        <ele>55.5</ele>
        <time>2011-07-28T13:39:41Z</time>
      </trkpt>
      <trkpt lat="47.27445" lon="-1.64492">
        <ele>55.4</ele>
        <time>2011-07-28T13:39:42Z</time>
      </trkpt>
      <trkpt lat="47.27448" lon="-1.64492">
        <ele>55.2</ele>
        <time>2011-07-28T13:39:43Z</time>
      </trkpt>
      <trkpt lat="47.27451" lon="-1.64491">
        <ele>55.2</ele>
        <time>2011-07-28T13:39:44Z</time>
      </trkpt>
      <trkpt lat="47.27454" lon="-1.64491">
        <ele>55.4</ele>
        <time>2011-07-28T13:39:45Z</time>
      </trkpt>
      <trkpt lat="47.27457" lon="-1.6449">
        <ele>55.6</ele>
        <time>2011-07-28T13:39:46Z</time>
      </trkpt>
      <trkpt lat="47.2746" lon="-1.6449">
        <ele>55.7</ele>
        <time>2011-07-28T13:39:47Z</time>
      </trkpt>
      <trkpt lat="47.27463" lon="-1.64489">
        <ele>55.7</ele>
        <time>2011-07-28T13:39:48Z</time>
      </trkpt>
      <trkpt lat="47.27467" lon="-1.64488">
        <ele>55.6</ele>
        <time>2011-07-28T13:39:49Z</time>
      </trkpt>
      <trkpt lat="47.2747" lon="-1.64488">
        <ele>55.6</ele>
        <time>2011-07-28T13:39:50Z</time>
      </trkpt>
      <trkpt lat="47.27474" lon="-1.64487">
        <ele>56</ele>
        <time>2011-07-28T13:39:51Z</time>
      </trkpt>
      <trkpt lat="47.27477" lon="-1.64486">
        <ele>56.3</ele>
        <time>2011-07-28T13:39:52Z</time>
      </trkpt>
      <trkpt lat="47.27481" lon="-1.64485">
        <ele>56.5</ele>
        <time>2011-07-28T13:39:53Z</time>
      </trkpt>
      <trkpt lat="47.27484" lon="-1.64484">
        <ele>56.7</ele>
        <time>2011-07-28T13:39:54Z</time>
      </trkpt>
      <trkpt lat="47.27486" lon="-1.64483">
        <ele>56.8</ele>
        <time>2011-07-28T13:39:55Z</time>
      </trkpt>
      <trkpt lat="47.27489" lon="-1.64482">
        <ele>56.8</ele>
        <time>2011-07-28T13:39:56Z</time>
      </trkpt>
      <trkpt lat="47.27491" lon="-1.64481">
        <ele>56.9</ele>
        <time>2011-07-28T13:39:57Z</time>
      </trkpt>
      <trkpt lat="47.27493" lon="-1.64479">
        <ele>56.7</ele>
        <time>2011-07-28T13:39:58Z</time>
      </trkpt>
      <trkpt lat="47.27496" lon="-1.64477">
        <ele>56.5</ele>
        <time>2011-07-28T13:39:59Z</time>
      </trkpt>
      <trkpt lat="47.27499" lon="-1.64475">
        <ele>56.4</ele>
        <time>2011-07-28T13:40:00Z</time>
      </trkpt>
      <trkpt lat="47.27501" lon="-1.64473">
        <ele>57.1</ele>
        <time>2011-07-28T13:40:01Z</time>
      </trkpt>
      <trkpt lat="47.27504" lon="-1.64471">
        <ele>57.7</ele>
        <time>2011-07-28T13:40:02Z</time>
      </trkpt>
      <trkpt lat="47.27507" lon="-1.64468">
        <ele>58.1</ele>
        <time>2011-07-28T13:40:03Z</time>
      </trkpt>
      <trkpt lat="47.27511" lon="-1.64466">
        <ele>58.2</ele>
        <time>2011-07-28T13:40:04Z</time>
      </trkpt>
      <trkpt lat="47.27514" lon="-1.64464">
        <ele>58.2</ele>
        <time>2011-07-28T13:40:05Z</time>
      </trkpt>
      <trkpt lat="47.27518" lon="-1.64462">
        <ele>58.3</ele>
        <time>2011-07-28T13:40:06Z</time>
      </trkpt>
      <trkpt lat="47.27521" lon="-1.6446">
        <ele>57.9</ele>
        <time>2011-07-28T13:40:07Z</time>
      </trkpt>
      <trkpt lat="47.27525" lon="-1.64458">
        <ele>57.7</ele>
        <time>2011-07-28T13:40:08Z</time>
      </trkpt>
      <trkpt lat="47.27528" lon="-1.64457">
        <ele>57.5</ele>
        <time>2011-07-28T13:40:09Z</time>
      </trkpt>
      <trkpt lat="47.27531" lon="-1.64456">
        <ele>57.3</ele>
        <time>2011-07-28T13:40:10Z</time>
      </trkpt>
      <trkpt lat="47.27535" lon="-1.64454">
        <ele>57.5</ele>
        <time>2011-07-28T13:40:11Z</time>
      </trkpt>
      <trkpt lat="47.27538" lon="-1.64452">
        <ele>57.7</ele>
        <time>2011-07-28T13:40:12Z</time>
      </trkpt>
      <trkpt lat="47.27541" lon="-1.64451">
        <ele>57.8</ele>
        <time>2011-07-28T13:40:13Z</time>
      </trkpt>
      <trkpt lat="47.27544" lon="-1.64451">
        <ele>58.1</ele>
        <time>2011-07-28T13:40:14Z</time>
      </trkpt>
      <trkpt lat="47.27546" lon="-1.64453">
        <ele>58.3</ele>
        <time>2011-07-28T13:40:15Z</time>
      </trkpt>
      <trkpt lat="47.27547" lon="-1.64456">
        <ele>58.5</ele>
        <time>2011-07-28T13:40:16Z</time>
      </trkpt>
      <trkpt lat="47.27549" lon="-1.64459">
        <ele>58.7</ele>
        <time>2011-07-28T13:40:17Z</time>
      </trkpt>
      <trkpt lat="47.2755" lon="-1.64463">
        <ele>58.9</ele>
        <time>2011-07-28T13:40:18Z</time>
      </trkpt>
      <trkpt lat="47.27551" lon="-1.64468">
        <ele>59</ele>
        <time>2011-07-28T13:40:19Z</time>
      </trkpt>
      <trkpt lat="47.27552" lon="-1.64472">
        <ele>59.1</ele>
        <time>2011-07-28T13:40:20Z</time>
      </trkpt>
      <trkpt lat="47.27553" lon="-1.64477">
        <ele>59.2</ele>
        <time>2011-07-28T13:40:21Z</time>
      </trkpt>
      <trkpt lat="47.27554" lon="-1.64483">
        <ele>59.3</ele>
        <time>2011-07-28T13:40:22Z</time>
      </trkpt>
      <trkpt lat="47.27555" lon="-1.64489">
        <ele>59.4</ele>
        <time>2011-07-28T13:40:23Z</time>
      </trkpt>
      <trkpt lat="47.27556" lon="-1.64496">
        <ele>59.5</ele>
        <time>2011-07-28T13:40:24Z</time>
      </trkpt>
      <trkpt lat="47.27557" lon="-1.64503">
        <ele>59.6</ele>
        <time>2011-07-28T13:40:25Z</time>
      </trkpt>
      <trkpt lat="47.27558" lon="-1.64511">
        <ele>59.6</ele>
        <time>2011-07-28T13:40:26Z</time>
      </trkpt>
      <trkpt lat="47.27559" lon="-1.64519">
        <ele>59.2</ele>
        <time>2011-07-28T13:40:27Z</time>
      </trkpt>
      <trkpt lat="47.27559" lon="-1.64528">
        <ele>58.8</ele>
        <time>2011-07-28T13:40:28Z</time>
      </trkpt>
      <trkpt lat="47.27559" lon="-1.64537">
        <ele>58.6</ele>
        <time>2011-07-28T13:40:29Z</time>
      </trkpt>
      <trkpt lat="47.2756" lon="-1.64546">
        <ele>58.5</ele>
        <time>2011-07-28T13:40:30Z</time>
      </trkpt>
      <trkpt lat="47.2756" lon="-1.64556">
        <ele>58.4</ele>
        <time>2011-07-28T13:40:31Z</time>
      </trkpt>
      <trkpt lat="47.27559" lon="-1.64566">
        <ele>58.4</ele>
        <time>2011-07-28T13:40:32Z</time>
      </trkpt>
      <trkpt lat="47.27559" lon="-1.64575">
        <ele>58.2</ele>
        <time>2011-07-28T13:40:33Z</time>
      </trkpt>
      <trkpt lat="47.27558" lon="-1.64584">
        <ele>58</ele>
        <time>2011-07-28T13:40:34Z</time>
      </trkpt>
      <trkpt lat="47.27557" lon="-1.64592">
        <ele>57.9</ele>
        <time>2011-07-28T13:40:35Z</time>
      </trkpt>
      <trkpt lat="47.27556" lon="-1.646">
        <ele>57.2</ele>
        <time>2011-07-28T13:40:36Z</time>
      </trkpt>
      <trkpt lat="47.27554" lon="-1.64608">
        <ele>56.6</ele>
        <time>2011-07-28T13:40:37Z</time>
      </trkpt>
      <trkpt lat="47.27553" lon="-1.64615">
        <ele>56.2</ele>
        <time>2011-07-28T13:40:38Z</time>
      </trkpt>
      <trkpt lat="47.27552" lon="-1.64622">
        <ele>56.4</ele>
        <time>2011-07-28T13:40:39Z</time>
      </trkpt>
      <trkpt lat="47.27551" lon="-1.64628">
        <ele>56.5</ele>
        <time>2011-07-28T13:40:40Z</time>
      </trkpt>
      <trkpt lat="47.2755" lon="-1.64635">
        <ele>56.7</ele>
        <time>2011-07-28T13:40:41Z</time>
      </trkpt>
      <trkpt lat="47.2755" lon="-1.64641">
        <ele>56.7</ele>
        <time>2011-07-28T13:40:42Z</time>
      </trkpt>
      <trkpt lat="47.27548" lon="-1.64648">
        <ele>57.3</ele>
        <time>2011-07-28T13:40:43Z</time>
      </trkpt>
      <trkpt lat="47.27548" lon="-1.64654">
        <ele>57.8</ele>
        <time>2011-07-28T13:40:44Z</time>
      </trkpt>
      <trkpt lat="47.27547" lon="-1.6466">
        <ele>58.1</ele>
        <time>2011-07-28T13:40:45Z</time>
      </trkpt>
      <trkpt lat="47.27547" lon="-1.64667">
        <ele>58.1</ele>
        <time>2011-07-28T13:40:46Z</time>
      </trkpt>
      <trkpt lat="47.27546" lon="-1.64674">
        <ele>58</ele>
        <time>2011-07-28T13:40:47Z</time>
      </trkpt>
      <trkpt lat="47.27546" lon="-1.6468">
        <ele>58</ele>
        <time>2011-07-28T13:40:48Z</time>
      </trkpt>
      <trkpt lat="47.27545" lon="-1.64686">
        <ele>58.4</ele>
        <time>2011-07-28T13:40:49Z</time>
      </trkpt>
      <trkpt lat="47.27544" lon="-1.64691">
        <ele>58.6</ele>
        <time>2011-07-28T13:40:50Z</time>
      </trkpt>
      <trkpt lat="47.27544" lon="-1.64697">
        <ele>58.8</ele>
        <time>2011-07-28T13:40:51Z</time>
      </trkpt>
      <trkpt lat="47.27544" lon="-1.64702">
        <ele>59.3</ele>
        <time>2011-07-28T13:40:52Z</time>
      </trkpt>
      <trkpt lat="47.27544" lon="-1.64707">
        <ele>59.6</ele>
        <time>2011-07-28T13:40:53Z</time>
      </trkpt>
      <trkpt lat="47.27544" lon="-1.64713">
        <ele>59.9</ele>
        <time>2011-07-28T13:40:54Z</time>
      </trkpt>
      <trkpt lat="47.27544" lon="-1.64718">
        <ele>60.5</ele>
        <time>2011-07-28T13:40:55Z</time>
      </trkpt>
      <trkpt lat="47.27544" lon="-1.64723">
        <ele>60.9</ele>
        <time>2011-07-28T13:40:56Z</time>
      </trkpt>
      <trkpt lat="47.27543" lon="-1.64728">
        <ele>61.2</ele>
        <time>2011-07-28T13:40:57Z</time>
      </trkpt>
      <trkpt lat="47.27542" lon="-1.64733">
        <ele>61</ele>
        <time>2011-07-28T13:40:58Z</time>
      </trkpt>
      <trkpt lat="47.27542" lon="-1.64738">
        <ele>60.9</ele>
        <time>2011-07-28T13:40:59Z</time>
      </trkpt>
      <trkpt lat="47.27541" lon="-1.64743">
        <ele>60.8</ele>
        <time>2011-07-28T13:41:00Z</time>
      </trkpt>
      <trkpt lat="47.27541" lon="-1.64748">
        <ele>60.7</ele>
        <time>2011-07-28T13:41:01Z</time>
      </trkpt>
      <trkpt lat="47.2754" lon="-1.64753">
        <ele>61.1</ele>
        <time>2011-07-28T13:41:02Z</time>
      </trkpt>
      <trkpt lat="47.27538" lon="-1.64758">
        <ele>61.4</ele>
        <time>2011-07-28T13:41:03Z</time>
      </trkpt>
      <trkpt lat="47.27537" lon="-1.64763">
        <ele>61.6</ele>
        <time>2011-07-28T13:41:04Z</time>
      </trkpt>
      <trkpt lat="47.27536" lon="-1.64768">
        <ele>61.9</ele>
        <time>2011-07-28T13:41:05Z</time>
      </trkpt>
      <trkpt lat="47.27535" lon="-1.64773">
        <ele>62</ele>
        <time>2011-07-28T13:41:06Z</time>
      </trkpt>
      <trkpt lat="47.27534" lon="-1.64778">
        <ele>62.1</ele>
        <time>2011-07-28T13:41:07Z</time>
      </trkpt>
      <trkpt lat="47.27533" lon="-1.64783">
        <ele>62</ele>
        <time>2011-07-28T13:41:08Z</time>
      </trkpt>
      <trkpt lat="47.27532" lon="-1.64788">
        <ele>61.9</ele>
        <time>2011-07-28T13:41:09Z</time>
      </trkpt>
      <trkpt lat="47.27531" lon="-1.64793">
        <ele>61.8</ele>
        <time>2011-07-28T13:41:10Z</time>
      </trkpt>
      <trkpt lat="47.2753" lon="-1.64797">
        <ele>61.8</ele>
        <time>2011-07-28T13:41:11Z</time>
      </trkpt>
      <trkpt lat="47.27529" lon="-1.64802">
        <ele>61.8</ele>
        <time>2011-07-28T13:41:12Z</time>
      </trkpt>
      <trkpt lat="47.27528" lon="-1.64807">
        <ele>61.8</ele>
        <time>2011-07-28T13:41:13Z</time>
      </trkpt>
      <trkpt lat="47.27527" lon="-1.64812">
        <ele>61.7</ele>
        <time>2011-07-28T13:41:14Z</time>
      </trkpt>
      <trkpt lat="47.27526" lon="-1.64817">
        <ele>61.7</ele>
        <time>2011-07-28T13:41:15Z</time>
      </trkpt>
      <trkpt lat="47.27525" lon="-1.64822">
        <ele>61.6</ele>
        <time>2011-07-28T13:41:16Z</time>
      </trkpt>
      <trkpt lat="47.27524" lon="-1.64828">
        <ele>61.6</ele>
        <time>2011-07-28T13:41:17Z</time>
      </trkpt>
      <trkpt lat="47.27524" lon="-1.64833">
        <ele>61.8</ele>
        <time>2011-07-28T13:41:18Z</time>
      </trkpt>
      <trkpt lat="47.27524" lon="-1.64838">
        <ele>61.9</ele>
        <time>2011-07-28T13:41:19Z</time>
      </trkpt>
      <trkpt lat="47.27524" lon="-1.64843">
        <ele>62</ele>
        <time>2011-07-28T13:41:20Z</time>
      </trkpt>
      <trkpt lat="47.27524" lon="-1.64848">
        <ele>62.1</ele>
        <time>2011-07-28T13:41:21Z</time>
      </trkpt>
      <trkpt lat="47.27524" lon="-1.64853">
        <ele>62.2</ele>
        <time>2011-07-28T13:41:22Z</time>
      </trkpt>
      <trkpt lat="47.27524" lon="-1.64858">
        <ele>62.2</ele>
        <time>2011-07-28T13:41:23Z</time>
      </trkpt>
      <trkpt lat="47.27524" lon="-1.64862">
        <ele>62.2</ele>
        <time>2011-07-28T13:41:24Z</time>
      </trkpt>
      <trkpt lat="47.27525" lon="-1.64867">
        <ele>62.2</ele>
        <time>2011-07-28T13:41:25Z</time>
      </trkpt>
      <trkpt lat="47.27526" lon="-1.64871">
        <ele>62.2</ele>
        <time>2011-07-28T13:41:26Z</time>
      </trkpt>
      <trkpt lat="47.27527" lon="-1.64876">
        <ele>62.4</ele>
        <time>2011-07-28T13:41:27Z</time>
      </trkpt>
      <trkpt lat="47.27527" lon="-1.6488">
        <ele>62.6</ele>
        <time>2011-07-28T13:41:28Z</time>
      </trkpt>
      <trkpt lat="47.27527" lon="-1.64885">
        <ele>62.7</ele>
        <time>2011-07-28T13:41:29Z</time>
      </trkpt>
      <trkpt lat="47.27528" lon="-1.6489">
        <ele>62.9</ele>
        <time>2011-07-28T13:41:30Z</time>
      </trkpt>
      <trkpt lat="47.27529" lon="-1.64895">
        <ele>63.1</ele>
        <time>2011-07-28T13:41:31Z</time>
      </trkpt>
      <trkpt lat="47.27529" lon="-1.649">
        <ele>63.2</ele>
        <time>2011-07-28T13:41:32Z</time>
      </trkpt>
      <trkpt lat="47.2753" lon="-1.64904">
        <ele>63.3</ele>
        <time>2011-07-28T13:41:33Z</time>
      </trkpt>
      <trkpt lat="47.27531" lon="-1.64909">
        <ele>63.4</ele>
        <time>2011-07-28T13:41:34Z</time>
      </trkpt>
      <trkpt lat="47.27531" lon="-1.64914">
        <ele>63.4</ele>
        <time>2011-07-28T13:41:35Z</time>
      </trkpt>
      <trkpt lat="47.27531" lon="-1.64919">
        <ele>63.4</ele>
        <time>2011-07-28T13:41:36Z</time>
      </trkpt>
      <trkpt lat="47.27531" lon="-1.64925">
        <ele>63.6</ele>
        <time>2011-07-28T13:41:37Z</time>
      </trkpt>
      <trkpt lat="47.27531" lon="-1.64931">
        <ele>63.7</ele>
        <time>2011-07-28T13:41:38Z</time>
      </trkpt>
      <trkpt lat="47.27531" lon="-1.64936">
        <ele>63.8</ele>
        <time>2011-07-28T13:41:39Z</time>
      </trkpt>
      <trkpt lat="47.27531" lon="-1.64942">
        <ele>63.7</ele>
        <time>2011-07-28T13:41:40Z</time>
      </trkpt>
      <trkpt lat="47.27531" lon="-1.64948">
        <ele>63.6</ele>
        <time>2011-07-28T13:41:41Z</time>
      </trkpt>
      <trkpt lat="47.27531" lon="-1.64953">
        <ele>63.6</ele>
        <time>2011-07-28T13:41:42Z</time>
      </trkpt>
      <trkpt lat="47.27531" lon="-1.64958">
        <ele>63.4</ele>
        <time>2011-07-28T13:41:43Z</time>
      </trkpt>
      <trkpt lat="47.27531" lon="-1.64964">
        <ele>63.3</ele>
        <time>2011-07-28T13:41:44Z</time>
      </trkpt>
      <trkpt lat="47.27531" lon="-1.64969">
        <ele>63.2</ele>
        <time>2011-07-28T13:41:45Z</time>
      </trkpt>
      <trkpt lat="47.27531" lon="-1.64975">
        <ele>63.3</ele>
        <time>2011-07-28T13:41:46Z</time>
      </trkpt>
      <trkpt lat="47.27532" lon="-1.6498">
        <ele>63.3</ele>
        <time>2011-07-28T13:41:47Z</time>
      </trkpt>
      <trkpt lat="47.27532" lon="-1.64986">
        <ele>63.3</ele>
        <time>2011-07-28T13:41:48Z</time>
      </trkpt>
      <trkpt lat="47.27533" lon="-1.64991">
        <ele>63</ele>
        <time>2011-07-28T13:41:49Z</time>
      </trkpt>
      <trkpt lat="47.27534" lon="-1.64996">
        <ele>62.8</ele>
        <time>2011-07-28T13:41:50Z</time>
      </trkpt>
      <trkpt lat="47.27535" lon="-1.65002">
        <ele>62.6</ele>
        <time>2011-07-28T13:41:51Z</time>
      </trkpt>
      <trkpt lat="47.27536" lon="-1.65007">
        <ele>62.5</ele>
        <time>2011-07-28T13:41:52Z</time>
      </trkpt>
      <trkpt lat="47.27537" lon="-1.65012">
        <ele>63</ele>
        <time>2011-07-28T13:41:53Z</time>
      </trkpt>
      <trkpt lat="47.27538" lon="-1.65018">
        <ele>63.3</ele>
        <time>2011-07-28T13:41:54Z</time>
      </trkpt>
      <trkpt lat="47.2754" lon="-1.65024">
        <ele>63.6</ele>
        <time>2011-07-28T13:41:55Z</time>
      </trkpt>
      <trkpt lat="47.27541" lon="-1.6503">
        <ele>63.5</ele>
        <time>2011-07-28T13:41:56Z</time>
      </trkpt>
      <trkpt lat="47.27543" lon="-1.65037">
        <ele>63.4</ele>
        <time>2011-07-28T13:41:57Z</time>
      </trkpt>
      <trkpt lat="47.27544" lon="-1.65043">
        <ele>63.4</ele>
        <time>2011-07-28T13:41:58Z</time>
      </trkpt>
      <trkpt lat="47.27546" lon="-1.6505">
        <ele>63.1</ele>
        <time>2011-07-28T13:41:59Z</time>
      </trkpt>
      <trkpt lat="47.27547" lon="-1.65057">
        <ele>62.8</ele>
        <time>2011-07-28T13:42:00Z</time>
      </trkpt>
      <trkpt lat="47.27549" lon="-1.65064">
        <ele>62.6</ele>
        <time>2011-07-28T13:42:01Z</time>
      </trkpt>
      <trkpt lat="47.2755" lon="-1.65071">
        <ele>62.7</ele>
        <time>2011-07-28T13:42:02Z</time>
      </trkpt>
      <trkpt lat="47.27551" lon="-1.65079">
        <ele>62.7</ele>
        <time>2011-07-28T13:42:03Z</time>
      </trkpt>
      <trkpt lat="47.27552" lon="-1.65086">
        <ele>62.7</ele>
        <time>2011-07-28T13:42:04Z</time>
      </trkpt>
      <trkpt lat="47.27554" lon="-1.65094">
        <ele>62.7</ele>
        <time>2011-07-28T13:42:05Z</time>
      </trkpt>
      <trkpt lat="47.27556" lon="-1.65101">
        <ele>62.5</ele>
        <time>2011-07-28T13:42:06Z</time>
      </trkpt>
      <trkpt lat="47.27558" lon="-1.65108">
        <ele>62.3</ele>
        <time>2011-07-28T13:42:07Z</time>
      </trkpt>
      <trkpt lat="47.2756" lon="-1.65114">
        <ele>62.2</ele>
        <time>2011-07-28T13:42:08Z</time>
      </trkpt>
      <trkpt lat="47.27562" lon="-1.6512">
        <ele>61.8</ele>
        <time>2011-07-28T13:42:09Z</time>
      </trkpt>
      <trkpt lat="47.27565" lon="-1.65125">
        <ele>61.2</ele>
        <time>2011-07-28T13:42:12Z</time>
      </trkpt>
      <trkpt lat="47.27564" lon="-1.6513">
        <ele>61.2</ele>
        <time>2011-07-28T13:43:15Z</time>
      </trkpt>
      <trkpt lat="47.27564" lon="-1.65132">
        <ele>61.1</ele>
        <time>2011-07-28T13:43:16Z</time>
      </trkpt>
      <trkpt lat="47.27566" lon="-1.65142">
        <ele>61.9</ele>
        <time>2011-07-28T13:44:03Z</time>
      </trkpt>
      <trkpt lat="47.27567" lon="-1.65146">
        <ele>61.1</ele>
        <time>2011-07-28T13:44:07Z</time>
      </trkpt>
      <trkpt lat="47.27568" lon="-1.65149">
        <ele>61.3</ele>
        <time>2011-07-28T13:44:08Z</time>
      </trkpt>
      <trkpt lat="47.27569" lon="-1.65152">
        <ele>61.4</ele>
        <time>2011-07-28T13:44:09Z</time>
      </trkpt>
      <trkpt lat="47.27571" lon="-1.65156">
        <ele>61.4</ele>
        <time>2011-07-28T13:44:10Z</time>
      </trkpt>
      <trkpt lat="47.27573" lon="-1.6516">
        <ele>61.5</ele>
        <time>2011-07-28T13:44:11Z</time>
      </trkpt>
      <trkpt lat="47.27576" lon="-1.65165">
        <ele>61.5</ele>
        <time>2011-07-28T13:44:12Z</time>
      </trkpt>
      <trkpt lat="47.27578" lon="-1.65171">
        <ele>61.2</ele>
        <time>2011-07-28T13:44:13Z</time>
      </trkpt>
      <trkpt lat="47.27581" lon="-1.65178">
        <ele>61</ele>
        <time>2011-07-28T13:44:14Z</time>
      </trkpt>
      <trkpt lat="47.27585" lon="-1.65184">
        <ele>60.8</ele>
        <time>2011-07-28T13:44:15Z</time>
      </trkpt>
      <trkpt lat="47.27588" lon="-1.65191">
        <ele>61</ele>
        <time>2011-07-28T13:44:16Z</time>
      </trkpt>
      <trkpt lat="47.27592" lon="-1.65197">
        <ele>61.1</ele>
        <time>2011-07-28T13:44:17Z</time>
      </trkpt>
      <trkpt lat="47.27596" lon="-1.65205">
        <ele>61.1</ele>
        <time>2011-07-28T13:44:18Z</time>
      </trkpt>
      <trkpt lat="47.276" lon="-1.65212">
        <ele>61.2</ele>
        <time>2011-07-28T13:44:19Z</time>
      </trkpt>
      <trkpt lat="47.27605" lon="-1.6522">
        <ele>61.3</ele>
        <time>2011-07-28T13:44:20Z</time>
      </trkpt>
      <trkpt lat="47.27609" lon="-1.65228">
        <ele>61.4</ele>
        <time>2011-07-28T13:44:21Z</time>
      </trkpt>
      <trkpt lat="47.27614" lon="-1.65236">
        <ele>61.5</ele>
        <time>2011-07-28T13:44:22Z</time>
      </trkpt>
      <trkpt lat="47.27619" lon="-1.65243">
        <ele>61.8</ele>
        <time>2011-07-28T13:44:23Z</time>
      </trkpt>
      <trkpt lat="47.27624" lon="-1.65249">
        <ele>62</ele>
        <time>2011-07-28T13:44:24Z</time>
      </trkpt>
      <trkpt lat="47.27628" lon="-1.65258">
        <ele>62.1</ele>
        <time>2011-07-28T13:44:25Z</time>
      </trkpt>
      <trkpt lat="47.27631" lon="-1.65268">
        <ele>61.7</ele>
        <time>2011-07-28T13:44:26Z</time>
      </trkpt>
      <trkpt lat="47.27632" lon="-1.65278">
        <ele>61.4</ele>
        <time>2011-07-28T13:44:27Z</time>
      </trkpt>
      <trkpt lat="47.27634" lon="-1.65287">
        <ele>61.2</ele>
        <time>2011-07-28T13:44:28Z</time>
      </trkpt>
      <trkpt lat="47.27635" lon="-1.65294">
        <ele>60.3</ele>
        <time>2011-07-28T13:44:29Z</time>
      </trkpt>
      <trkpt lat="47.27638" lon="-1.65302">
        <ele>59.7</ele>
        <time>2011-07-28T13:44:30Z</time>
      </trkpt>
      <trkpt lat="47.27642" lon="-1.65307">
        <ele>59.2</ele>
        <time>2011-07-28T13:44:31Z</time>
      </trkpt>
      <trkpt lat="47.27646" lon="-1.65311">
        <ele>58.3</ele>
        <time>2011-07-28T13:44:32Z</time>
      </trkpt>
      <trkpt lat="47.27649" lon="-1.65314">
        <ele>57.7</ele>
        <time>2011-07-28T13:44:33Z</time>
      </trkpt>
      <trkpt lat="47.27653" lon="-1.65317">
        <ele>57.2</ele>
        <time>2011-07-28T13:44:34Z</time>
      </trkpt>
      <trkpt lat="47.27656" lon="-1.65318">
        <ele>56.8</ele>
        <time>2011-07-28T13:44:35Z</time>
      </trkpt>
      <trkpt lat="47.2766" lon="-1.6532">
        <ele>56.6</ele>
        <time>2011-07-28T13:44:36Z</time>
      </trkpt>
      <trkpt lat="47.27663" lon="-1.65322">
        <ele>56.4</ele>
        <time>2011-07-28T13:44:37Z</time>
      </trkpt>
      <trkpt lat="47.27666" lon="-1.65324">
        <ele>56.3</ele>
        <time>2011-07-28T13:44:38Z</time>
      </trkpt>
      <trkpt lat="47.27669" lon="-1.65324">
        <ele>56.1</ele>
        <time>2011-07-28T13:44:39Z</time>
      </trkpt>
      <trkpt lat="47.27673" lon="-1.65325">
        <ele>56</ele>
        <time>2011-07-28T13:44:41Z</time>
      </trkpt>
      <trkpt lat="47.27675" lon="-1.65331">
        <ele>55.4</ele>
        <time>2011-07-28T13:44:48Z</time>
      </trkpt>
      <trkpt lat="47.27676" lon="-1.65337">
        <ele>55.6</ele>
        <time>2011-07-28T13:45:00Z</time>
      </trkpt>
      <trkpt lat="47.27679" lon="-1.65342">
        <ele>55.1</ele>
        <time>2011-07-28T13:45:28Z</time>
      </trkpt>
      <trkpt lat="47.27679" lon="-1.65343">
        <ele>55.2</ele>
        <time>2011-07-28T13:45:29Z</time>
      </trkpt>
      <trkpt lat="47.27682" lon="-1.65348">
        <ele>55.4</ele>
        <time>2011-07-28T13:45:32Z</time>
      </trkpt>
      <trkpt lat="47.27684" lon="-1.65351">
        <ele>55.5</ele>
        <time>2011-07-28T13:45:33Z</time>
      </trkpt>
      <trkpt lat="47.27686" lon="-1.65355">
        <ele>55.5</ele>
        <time>2011-07-28T13:45:34Z</time>
      </trkpt>
      <trkpt lat="47.27688" lon="-1.65359">
        <ele>55.6</ele>
        <time>2011-07-28T13:45:35Z</time>
      </trkpt>
      <trkpt lat="47.27689" lon="-1.65363">
        <ele>55.8</ele>
        <time>2011-07-28T13:45:36Z</time>
      </trkpt>
      <trkpt lat="47.27691" lon="-1.65367">
        <ele>56</ele>
        <time>2011-07-28T13:45:37Z</time>
      </trkpt>
      <trkpt lat="47.27692" lon="-1.65371">
        <ele>56.2</ele>
        <time>2011-07-28T13:45:38Z</time>
      </trkpt>
      <trkpt lat="47.27694" lon="-1.65376">
        <ele>57</ele>
        <time>2011-07-28T13:45:39Z</time>
      </trkpt>
      <trkpt lat="47.27695" lon="-1.65381">
        <ele>57.6</ele>
        <time>2011-07-28T13:45:40Z</time>
      </trkpt>
      <trkpt lat="47.27696" lon="-1.65386">
        <ele>58.1</ele>
        <time>2011-07-28T13:45:41Z</time>
      </trkpt>
      <trkpt lat="47.27698" lon="-1.65391">
        <ele>58.4</ele>
        <time>2011-07-28T13:45:42Z</time>
      </trkpt>
      <trkpt lat="47.27699" lon="-1.65396">
        <ele>58.8</ele>
        <time>2011-07-28T13:45:43Z</time>
      </trkpt>
      <trkpt lat="47.277" lon="-1.65402">
        <ele>59</ele>
        <time>2011-07-28T13:45:44Z</time>
      </trkpt>
      <trkpt lat="47.27702" lon="-1.65407">
        <ele>59.2</ele>
        <time>2011-07-28T13:45:45Z</time>
      </trkpt>
      <trkpt lat="47.27702" lon="-1.65412">
        <ele>59.4</ele>
        <time>2011-07-28T13:45:46Z</time>
      </trkpt>
      <trkpt lat="47.27703" lon="-1.65416">
        <ele>59.5</ele>
        <time>2011-07-28T13:45:47Z</time>
      </trkpt>
      <trkpt lat="47.27705" lon="-1.65419">
        <ele>59.6</ele>
        <time>2011-07-28T13:45:48Z</time>
      </trkpt>
      <trkpt lat="47.27707" lon="-1.65424">
        <ele>60.1</ele>
        <time>2011-07-28T13:45:50Z</time>
      </trkpt>
      <trkpt lat="47.27711" lon="-1.65428">
        <ele>61.3</ele>
        <time>2011-07-28T13:45:53Z</time>
      </trkpt>
      <trkpt lat="47.27714" lon="-1.65432">
        <ele>61.5</ele>
        <time>2011-07-28T13:45:56Z</time>
      </trkpt>
      <trkpt lat="47.27717" lon="-1.65436">
        <ele>61.1</ele>
        <time>2011-07-28T13:46:00Z</time>
      </trkpt>
      <trkpt lat="47.27713" lon="-1.65434">
        <ele>61.6</ele>
        <time>2011-07-28T13:47:16Z</time>
      </trkpt>
      <trkpt lat="47.27712" lon="-1.65432">
        <ele>61.7</ele>
        <time>2011-07-28T13:47:17Z</time>
      </trkpt>
      <trkpt lat="47.27707" lon="-1.65427">
        <ele>60.7</ele>
        <time>2011-07-28T13:47:20Z</time>
      </trkpt>
      <trkpt lat="47.27703" lon="-1.65425">
        <ele>60.8</ele>
        <time>2011-07-28T13:47:22Z</time>
      </trkpt>
      <trkpt lat="47.27699" lon="-1.65428">
        <ele>61.2</ele>
        <time>2011-07-28T13:47:32Z</time>
      </trkpt>
      <trkpt lat="47.27701" lon="-1.65423">
        <ele>61.7</ele>
        <time>2011-07-28T13:51:11Z</time>
      </trkpt>
      <trkpt lat="47.27702" lon="-1.65423">
        <ele>62.1</ele>
        <time>2011-07-28T13:51:12Z</time>
      </trkpt>
      <trkpt lat="47.27708" lon="-1.65426">
        <ele>62.1</ele>
        <time>2011-07-28T13:51:29Z</time>
      </trkpt>
      <trkpt lat="47.27711" lon="-1.65429">
        <ele>61.4</ele>
        <time>2011-07-28T13:51:32Z</time>
      </trkpt>
      <trkpt lat="47.27708" lon="-1.65426">
        <ele>62</ele>
        <time>2011-07-28T13:51:41Z</time>
      </trkpt>
      <trkpt lat="47.27705" lon="-1.65424">
        <ele>62</ele>
        <time>2011-07-28T13:51:43Z</time>
      </trkpt>
      <trkpt lat="47.27708" lon="-1.65428">
        <ele>62.7</ele>
        <time>2011-07-28T13:52:06Z</time>
      </trkpt>
      <trkpt lat="47.2771" lon="-1.6543">
        <ele>62.3</ele>
        <time>2011-07-28T13:52:08Z</time>
      </trkpt>
      <trkpt lat="47.27713" lon="-1.65433">
        <ele>62.2</ele>
        <time>2011-07-28T13:52:10Z</time>
      </trkpt>
      <trkpt lat="47.27716" lon="-1.65435">
        <ele>62.2</ele>
        <time>2011-07-28T13:52:12Z</time>
      </trkpt>
      <trkpt lat="47.27717" lon="-1.65436">
        <ele>62.2</ele>
        <time>2011-07-28T13:52:13Z</time>
      </trkpt>
      <trkpt lat="47.27722" lon="-1.65439">
        <ele>61.5</ele>
        <time>2011-07-28T13:52:16Z</time>
      </trkpt>
      <trkpt lat="47.27725" lon="-1.65442">
        <ele>61.2</ele>
        <time>2011-07-28T13:52:18Z</time>
      </trkpt>
      <trkpt lat="47.27729" lon="-1.65444">
        <ele>62.4</ele>
        <time>2011-07-28T13:52:20Z</time>
      </trkpt>
      <trkpt lat="47.27731" lon="-1.65444">
        <ele>62.8</ele>
        <time>2011-07-28T13:52:21Z</time>
      </trkpt>
      <trkpt lat="47.27734" lon="-1.65444">
        <ele>62.5</ele>
        <time>2011-07-28T13:52:22Z</time>
      </trkpt>
      <trkpt lat="47.27736" lon="-1.65444">
        <ele>62.4</ele>
        <time>2011-07-28T13:52:23Z</time>
      </trkpt>
      <trkpt lat="47.27739" lon="-1.65443">
        <ele>62.2</ele>
        <time>2011-07-28T13:52:24Z</time>
      </trkpt>
      <trkpt lat="47.27741" lon="-1.65442">
        <ele>62.4</ele>
        <time>2011-07-28T13:52:25Z</time>
      </trkpt>
      <trkpt lat="47.27744" lon="-1.65442">
        <ele>62.6</ele>
        <time>2011-07-28T13:52:26Z</time>
      </trkpt>
      <trkpt lat="47.27746" lon="-1.65441">
        <ele>62.7</ele>
        <time>2011-07-28T13:52:27Z</time>
      </trkpt>
      <trkpt lat="47.27748" lon="-1.65441">
        <ele>62.5</ele>
        <time>2011-07-28T13:52:28Z</time>
      </trkpt>
      <trkpt lat="47.27751" lon="-1.65441">
        <ele>62.3</ele>
        <time>2011-07-28T13:52:29Z</time>
      </trkpt>
      <trkpt lat="47.27753" lon="-1.65441">
        <ele>62.2</ele>
        <time>2011-07-28T13:52:30Z</time>
      </trkpt>
      <trkpt lat="47.27755" lon="-1.65441">
        <ele>62.4</ele>
        <time>2011-07-28T13:52:31Z</time>
      </trkpt>
      <trkpt lat="47.27758" lon="-1.65442">
        <ele>62.5</ele>
        <time>2011-07-28T13:52:32Z</time>
      </trkpt>
      <trkpt lat="47.27761" lon="-1.65442">
        <ele>62.5</ele>
        <time>2011-07-28T13:52:33Z</time>
      </trkpt>
      <trkpt lat="47.27763" lon="-1.65443">
        <ele>62.6</ele>
        <time>2011-07-28T13:52:34Z</time>
      </trkpt>
      <trkpt lat="47.27765" lon="-1.65443">
        <ele>63</ele>
        <time>2011-07-28T13:52:35Z</time>
      </trkpt>
      <trkpt lat="47.27768" lon="-1.65445">
        <ele>63.3</ele>
        <time>2011-07-28T13:52:36Z</time>
      </trkpt>
      <trkpt lat="47.27772" lon="-1.65447">
        <ele>63.2</ele>
        <time>2011-07-28T13:52:38Z</time>
      </trkpt>
      <trkpt lat="47.27774" lon="-1.65448">
        <ele>62.9</ele>
        <time>2011-07-28T13:52:39Z</time>
      </trkpt>
      <trkpt lat="47.27776" lon="-1.65449">
        <ele>62.8</ele>
        <time>2011-07-28T13:52:40Z</time>
      </trkpt>
      <trkpt lat="47.27778" lon="-1.65449">
        <ele>62.9</ele>
        <time>2011-07-28T13:52:41Z</time>
      </trkpt>
      <trkpt lat="47.27782" lon="-1.6545">
        <ele>63</ele>
        <time>2011-07-28T13:52:42Z</time>
      </trkpt>
      <trkpt lat="47.27784" lon="-1.6545">
        <ele>63.1</ele>
        <time>2011-07-28T13:52:43Z</time>
      </trkpt>
      <trkpt lat="47.27787" lon="-1.65451">
        <ele>63.2</ele>
        <time>2011-07-28T13:52:44Z</time>
      </trkpt>
      <trkpt lat="47.2779" lon="-1.65452">
        <ele>63.3</ele>
        <time>2011-07-28T13:52:45Z</time>
      </trkpt>
      <trkpt lat="47.27793" lon="-1.65452">
        <ele>63.3</ele>
        <time>2011-07-28T13:52:46Z</time>
      </trkpt>
      <trkpt lat="47.27796" lon="-1.65453">
        <ele>62.9</ele>
        <time>2011-07-28T13:52:47Z</time>
      </trkpt>
      <trkpt lat="47.27798" lon="-1.65453">
        <ele>62.5</ele>
        <time>2011-07-28T13:52:48Z</time>
      </trkpt>
      <trkpt lat="47.27801" lon="-1.65454">
        <ele>62.3</ele>
        <time>2011-07-28T13:52:49Z</time>
      </trkpt>
      <trkpt lat="47.27804" lon="-1.65455">
        <ele>62.2</ele>
        <time>2011-07-28T13:52:50Z</time>
      </trkpt>
      <trkpt lat="47.27807" lon="-1.65456">
        <ele>62.2</ele>
        <time>2011-07-28T13:52:51Z</time>
      </trkpt>
      <trkpt lat="47.2781" lon="-1.65457">
        <ele>62.2</ele>
        <time>2011-07-28T13:52:52Z</time>
      </trkpt>
      <trkpt lat="47.27814" lon="-1.65458">
        <ele>62.2</ele>
        <time>2011-07-28T13:52:53Z</time>
      </trkpt>
      <trkpt lat="47.27817" lon="-1.65458">
        <ele>62</ele>
        <time>2011-07-28T13:52:54Z</time>
      </trkpt>
      <trkpt lat="47.2782" lon="-1.65457">
        <ele>61.9</ele>
        <time>2011-07-28T13:52:55Z</time>
      </trkpt>
      <trkpt lat="47.27824" lon="-1.65458">
        <ele>61.7</ele>
        <time>2011-07-28T13:52:56Z</time>
      </trkpt>
      <trkpt lat="47.27827" lon="-1.65458">
        <ele>62</ele>
        <time>2011-07-28T13:52:57Z</time>
      </trkpt>
      <trkpt lat="47.27831" lon="-1.65458">
        <ele>62.1</ele>
        <time>2011-07-28T13:52:58Z</time>
      </trkpt>
      <trkpt lat="47.27835" lon="-1.65458">
        <ele>62.2</ele>
        <time>2011-07-28T13:52:59Z</time>
      </trkpt>
      <trkpt lat="47.27838" lon="-1.65458">
        <ele>62.4</ele>
        <time>2011-07-28T13:53:00Z</time>
      </trkpt>
      <trkpt lat="47.27842" lon="-1.65459">
        <ele>62.5</ele>
        <time>2011-07-28T13:53:01Z</time>
      </trkpt>
      <trkpt lat="47.27846" lon="-1.65459">
        <ele>62.6</ele>
        <time>2011-07-28T13:53:02Z</time>
      </trkpt>
      <trkpt lat="47.2785" lon="-1.6546">
        <ele>62.4</ele>
        <time>2011-07-28T13:53:03Z</time>
      </trkpt>
      <trkpt lat="47.27854" lon="-1.65461">
        <ele>62.3</ele>
        <time>2011-07-28T13:53:04Z</time>
      </trkpt>
      <trkpt lat="47.27858" lon="-1.65463">
        <ele>62.1</ele>
        <time>2011-07-28T13:53:05Z</time>
      </trkpt>
      <trkpt lat="47.27862" lon="-1.65465">
        <ele>62.1</ele>
        <time>2011-07-28T13:53:06Z</time>
      </trkpt>
      <trkpt lat="47.27866" lon="-1.65466">
        <ele>62.1</ele>
        <time>2011-07-28T13:53:07Z</time>
      </trkpt>
      <trkpt lat="47.27869" lon="-1.65468">
        <ele>62.1</ele>
        <time>2011-07-28T13:53:08Z</time>
      </trkpt>
      <trkpt lat="47.27872" lon="-1.6547">
        <ele>62.1</ele>
        <time>2011-07-28T13:53:09Z</time>
      </trkpt>
      <trkpt lat="47.27875" lon="-1.65473">
        <ele>62.1</ele>
        <time>2011-07-28T13:53:10Z</time>
      </trkpt>
      <trkpt lat="47.27878" lon="-1.65476">
        <ele>62.1</ele>
        <time>2011-07-28T13:53:11Z</time>
      </trkpt>
      <trkpt lat="47.2788" lon="-1.6548">
        <ele>62.1</ele>
        <time>2011-07-28T13:53:12Z</time>
      </trkpt>
      <trkpt lat="47.27883" lon="-1.65483">
        <ele>61.7</ele>
        <time>2011-07-28T13:53:13Z</time>
      </trkpt>
      <trkpt lat="47.27885" lon="-1.65487">
        <ele>61.4</ele>
        <time>2011-07-28T13:53:14Z</time>
      </trkpt>
      <trkpt lat="47.27888" lon="-1.65491">
        <ele>61.2</ele>
        <time>2011-07-28T13:53:15Z</time>
      </trkpt>
      <trkpt lat="47.2789" lon="-1.65495">
        <ele>61.3</ele>
        <time>2011-07-28T13:53:16Z</time>
      </trkpt>
      <trkpt lat="47.27892" lon="-1.65499">
        <ele>61.4</ele>
        <time>2011-07-28T13:53:17Z</time>
      </trkpt>
      <trkpt lat="47.27894" lon="-1.65503">
        <ele>61.4</ele>
        <time>2011-07-28T13:53:18Z</time>
      </trkpt>
      <trkpt lat="47.27896" lon="-1.65507">
        <ele>61.5</ele>
        <time>2011-07-28T13:53:19Z</time>
      </trkpt>
      <trkpt lat="47.27897" lon="-1.65511">
        <ele>61.6</ele>
        <time>2011-07-28T13:53:20Z</time>
      </trkpt>
      <trkpt lat="47.27899" lon="-1.65515">
        <ele>61.7</ele>
        <time>2011-07-28T13:53:21Z</time>
      </trkpt>
      <trkpt lat="47.27899" lon="-1.65518">
        <ele>61.8</ele>
        <time>2011-07-28T13:53:22Z</time>
      </trkpt>
      <trkpt lat="47.279" lon="-1.65522">
        <ele>61.9</ele>
        <time>2011-07-28T13:53:23Z</time>
      </trkpt>
      <trkpt lat="47.27901" lon="-1.65525">
        <ele>62</ele>
        <time>2011-07-28T13:53:24Z</time>
      </trkpt>
      <trkpt lat="47.27902" lon="-1.65529">
        <ele>62</ele>
        <time>2011-07-28T13:53:25Z</time>
      </trkpt>
      <trkpt lat="47.27903" lon="-1.65533">
        <ele>62</ele>
        <time>2011-07-28T13:53:26Z</time>
      </trkpt>
      <trkpt lat="47.27904" lon="-1.65537">
        <ele>62</ele>
        <time>2011-07-28T13:53:27Z</time>
      </trkpt>
      <trkpt lat="47.27905" lon="-1.6554">
        <ele>62</ele>
        <time>2011-07-28T13:53:28Z</time>
      </trkpt>
      <trkpt lat="47.27905" lon="-1.65545">
        <ele>62.4</ele>
        <time>2011-07-28T13:53:29Z</time>
      </trkpt>
      <trkpt lat="47.27906" lon="-1.65549">
        <ele>62.6</ele>
        <time>2011-07-28T13:53:30Z</time>
      </trkpt>
      <trkpt lat="47.27907" lon="-1.65553">
        <ele>62.9</ele>
        <time>2011-07-28T13:53:31Z</time>
      </trkpt>
      <trkpt lat="47.27908" lon="-1.65557">
        <ele>62.4</ele>
        <time>2011-07-28T13:53:32Z</time>
      </trkpt>
      <trkpt lat="47.27909" lon="-1.65561">
        <ele>62.1</ele>
        <time>2011-07-28T13:53:33Z</time>
      </trkpt>
      <trkpt lat="47.27909" lon="-1.65565">
        <ele>61.8</ele>
        <time>2011-07-28T13:53:34Z</time>
      </trkpt>
      <trkpt lat="47.2791" lon="-1.65569">
        <ele>61.6</ele>
        <time>2011-07-28T13:53:35Z</time>
      </trkpt>
      <trkpt lat="47.27911" lon="-1.65573">
        <ele>61.5</ele>
        <time>2011-07-28T13:53:36Z</time>
      </trkpt>
      <trkpt lat="47.27912" lon="-1.65577">
        <ele>61.4</ele>
        <time>2011-07-28T13:53:37Z</time>
      </trkpt>
      <trkpt lat="47.27913" lon="-1.65581">
        <ele>61.5</ele>
        <time>2011-07-28T13:53:38Z</time>
      </trkpt>
      <trkpt lat="47.27913" lon="-1.65585">
        <ele>61.6</ele>
        <time>2011-07-28T13:53:39Z</time>
      </trkpt>
      <trkpt lat="47.27914" lon="-1.65589">
        <ele>61.6</ele>
        <time>2011-07-28T13:53:40Z</time>
      </trkpt>
      <trkpt lat="47.27914" lon="-1.65593">
        <ele>62.2</ele>
        <time>2011-07-28T13:53:41Z</time>
      </trkpt>
      <trkpt lat="47.27915" lon="-1.65598">
        <ele>62.7</ele>
        <time>2011-07-28T13:53:42Z</time>
      </trkpt>
      <trkpt lat="47.27915" lon="-1.65602">
        <ele>63</ele>
        <time>2011-07-28T13:53:43Z</time>
      </trkpt>
      <trkpt lat="47.27916" lon="-1.65606">
        <ele>63.2</ele>
        <time>2011-07-28T13:53:44Z</time>
      </trkpt>
      <trkpt lat="47.27916" lon="-1.6561">
        <ele>63.3</ele>
        <time>2011-07-28T13:53:45Z</time>
      </trkpt>
      <trkpt lat="47.27916" lon="-1.65615">
        <ele>63.4</ele>
        <time>2011-07-28T13:53:46Z</time>
      </trkpt>
      <trkpt lat="47.27917" lon="-1.65619">
        <ele>63.4</ele>
        <time>2011-07-28T13:53:47Z</time>
      </trkpt>
      <trkpt lat="47.27917" lon="-1.65623">
        <ele>63.2</ele>
        <time>2011-07-28T13:53:48Z</time>
      </trkpt>
      <trkpt lat="47.27918" lon="-1.65628">
        <ele>63.1</ele>
        <time>2011-07-28T13:53:49Z</time>
      </trkpt>
      <trkpt lat="47.27918" lon="-1.65633">
        <ele>63</ele>
        <time>2011-07-28T13:53:50Z</time>
      </trkpt>
      <trkpt lat="47.27918" lon="-1.65638">
        <ele>62.9</ele>
        <time>2011-07-28T13:53:51Z</time>
      </trkpt>
      <trkpt lat="47.27918" lon="-1.65643">
        <ele>62.8</ele>
        <time>2011-07-28T13:53:52Z</time>
      </trkpt>
      <trkpt lat="47.27918" lon="-1.65648">
        <ele>62.7</ele>
        <time>2011-07-28T13:53:53Z</time>
      </trkpt>
      <trkpt lat="47.27917" lon="-1.65653">
        <ele>62.7</ele>
        <time>2011-07-28T13:53:54Z</time>
      </trkpt>
      <trkpt lat="47.27917" lon="-1.65658">
        <ele>62.7</ele>
        <time>2011-07-28T13:53:55Z</time>
      </trkpt>
      <trkpt lat="47.27917" lon="-1.65664">
        <ele>62.7</ele>
        <time>2011-07-28T13:53:56Z</time>
      </trkpt>
      <trkpt lat="47.27917" lon="-1.65669">
        <ele>63.1</ele>
        <time>2011-07-28T13:53:57Z</time>
      </trkpt>
      <trkpt lat="47.27917" lon="-1.65675">
        <ele>63.3</ele>
        <time>2011-07-28T13:53:58Z</time>
      </trkpt>
      <trkpt lat="47.27917" lon="-1.6568">
        <ele>63.5</ele>
        <time>2011-07-28T13:53:59Z</time>
      </trkpt>
      <trkpt lat="47.27917" lon="-1.65685">
        <ele>63.6</ele>
        <time>2011-07-28T13:54:00Z</time>
      </trkpt>
      <trkpt lat="47.27916" lon="-1.6569">
        <ele>63.5</ele>
        <time>2011-07-28T13:54:01Z</time>
      </trkpt>
      <trkpt lat="47.27916" lon="-1.65695">
        <ele>63.3</ele>
        <time>2011-07-28T13:54:02Z</time>
      </trkpt>
      <trkpt lat="47.27916" lon="-1.657">
        <ele>63.2</ele>
        <time>2011-07-28T13:54:03Z</time>
      </trkpt>
      <trkpt lat="47.27916" lon="-1.65705">
        <ele>63.3</ele>
        <time>2011-07-28T13:54:04Z</time>
      </trkpt>
      <trkpt lat="47.27916" lon="-1.65709">
        <ele>63.3</ele>
        <time>2011-07-28T13:54:05Z</time>
      </trkpt>
      <trkpt lat="47.27916" lon="-1.65714">
        <ele>63.3</ele>
        <time>2011-07-28T13:54:06Z</time>
      </trkpt>
      <trkpt lat="47.27916" lon="-1.65719">
        <ele>63.5</ele>
        <time>2011-07-28T13:54:07Z</time>
      </trkpt>
      <trkpt lat="47.27916" lon="-1.65724">
        <ele>63.7</ele>
        <time>2011-07-28T13:54:08Z</time>
      </trkpt>
      <trkpt lat="47.27916" lon="-1.65729">
        <ele>63.9</ele>
        <time>2011-07-28T13:54:09Z</time>
      </trkpt>
      <trkpt lat="47.27916" lon="-1.65734">
        <ele>64</ele>
        <time>2011-07-28T13:54:10Z</time>
      </trkpt>
      <trkpt lat="47.27917" lon="-1.65739">
        <ele>64.1</ele>
        <time>2011-07-28T13:54:11Z</time>
      </trkpt>
      <trkpt lat="47.27917" lon="-1.65744">
        <ele>64.1</ele>
        <time>2011-07-28T13:54:12Z</time>
      </trkpt>
      <trkpt lat="47.27917" lon="-1.65749">
        <ele>64.1</ele>
        <time>2011-07-28T13:54:13Z</time>
      </trkpt>
      <trkpt lat="47.27918" lon="-1.65754">
        <ele>64.1</ele>
        <time>2011-07-28T13:54:14Z</time>
      </trkpt>
      <trkpt lat="47.27918" lon="-1.65759">
        <ele>64</ele>
        <time>2011-07-28T13:54:15Z</time>
      </trkpt>
      <trkpt lat="47.27918" lon="-1.65764">
        <ele>64</ele>
        <time>2011-07-28T13:54:16Z</time>
      </trkpt>
      <trkpt lat="47.27918" lon="-1.6577">
        <ele>64.6</ele>
        <time>2011-07-28T13:54:17Z</time>
      </trkpt>
      <trkpt lat="47.27918" lon="-1.65775">
        <ele>65</ele>
        <time>2011-07-28T13:54:18Z</time>
      </trkpt>
      <trkpt lat="47.27919" lon="-1.6578">
        <ele>65.3</ele>
        <time>2011-07-28T13:54:19Z</time>
      </trkpt>
      <trkpt lat="47.27919" lon="-1.65785">
        <ele>64.9</ele>
        <time>2011-07-28T13:54:20Z</time>
      </trkpt>
      <trkpt lat="47.27919" lon="-1.6579">
        <ele>64.6</ele>
        <time>2011-07-28T13:54:21Z</time>
      </trkpt>
      <trkpt lat="47.27919" lon="-1.65795">
        <ele>64.4</ele>
        <time>2011-07-28T13:54:22Z</time>
      </trkpt>
      <trkpt lat="47.2792" lon="-1.658">
        <ele>64.5</ele>
        <time>2011-07-28T13:54:23Z</time>
      </trkpt>
      <trkpt lat="47.2792" lon="-1.65805">
        <ele>64.7</ele>
        <time>2011-07-28T13:54:24Z</time>
      </trkpt>
      <trkpt lat="47.27919" lon="-1.6581">
        <ele>64.8</ele>
        <time>2011-07-28T13:54:25Z</time>
      </trkpt>
      <trkpt lat="47.27919" lon="-1.65814">
        <ele>65</ele>
        <time>2011-07-28T13:54:26Z</time>
      </trkpt>
      <trkpt lat="47.27919" lon="-1.65819">
        <ele>65.1</ele>
        <time>2011-07-28T13:54:27Z</time>
      </trkpt>
      <trkpt lat="47.27918" lon="-1.65824">
        <ele>65.2</ele>
        <time>2011-07-28T13:54:28Z</time>
      </trkpt>
      <trkpt lat="47.27918" lon="-1.65829">
        <ele>65.2</ele>
        <time>2011-07-28T13:54:29Z</time>
      </trkpt>
      <trkpt lat="47.27917" lon="-1.65834">
        <ele>65.2</ele>
        <time>2011-07-28T13:54:30Z</time>
      </trkpt>
      <trkpt lat="47.27917" lon="-1.65839">
        <ele>65.2</ele>
        <time>2011-07-28T13:54:31Z</time>
      </trkpt>
      <trkpt lat="47.27917" lon="-1.65844">
        <ele>65.3</ele>
        <time>2011-07-28T13:54:32Z</time>
      </trkpt>
      <trkpt lat="47.27917" lon="-1.6585">
        <ele>65.4</ele>
        <time>2011-07-28T13:54:33Z</time>
      </trkpt>
      <trkpt lat="47.27917" lon="-1.65855">
        <ele>65.5</ele>
        <time>2011-07-28T13:54:34Z</time>
      </trkpt>
      <trkpt lat="47.27917" lon="-1.65861">
        <ele>65.5</ele>
        <time>2011-07-28T13:54:35Z</time>
      </trkpt>
      <trkpt lat="47.27918" lon="-1.65866">
        <ele>65.4</ele>
        <time>2011-07-28T13:54:36Z</time>
      </trkpt>
      <trkpt lat="47.27918" lon="-1.65871">
        <ele>65.3</ele>
        <time>2011-07-28T13:54:37Z</time>
      </trkpt>
      <trkpt lat="47.27919" lon="-1.65875">
        <ele>65.3</ele>
        <time>2011-07-28T13:54:38Z</time>
      </trkpt>
      <trkpt lat="47.27919" lon="-1.6588">
        <ele>65.5</ele>
        <time>2011-07-28T13:54:39Z</time>
      </trkpt>
      <trkpt lat="47.2792" lon="-1.65884">
        <ele>65.6</ele>
        <time>2011-07-28T13:54:40Z</time>
      </trkpt>
      <trkpt lat="47.2792" lon="-1.65889">
        <ele>65.7</ele>
        <time>2011-07-28T13:54:41Z</time>
      </trkpt>
      <trkpt lat="47.27921" lon="-1.65892">
        <ele>65.6</ele>
        <time>2011-07-28T13:54:42Z</time>
      </trkpt>
      <trkpt lat="47.27922" lon="-1.65897">
        <ele>65.6</ele>
        <time>2011-07-28T13:54:43Z</time>
      </trkpt>
      <trkpt lat="47.27922" lon="-1.65901">
        <ele>65.5</ele>
        <time>2011-07-28T13:54:44Z</time>
      </trkpt>
      <trkpt lat="47.27923" lon="-1.65905">
        <ele>65.7</ele>
        <time>2011-07-28T13:54:45Z</time>
      </trkpt>
      <trkpt lat="47.27924" lon="-1.6591">
        <ele>65.8</ele>
        <time>2011-07-28T13:54:46Z</time>
      </trkpt>
      <trkpt lat="47.27924" lon="-1.65915">
        <ele>65.9</ele>
        <time>2011-07-28T13:54:47Z</time>
      </trkpt>
      <trkpt lat="47.27925" lon="-1.6592">
        <ele>66</ele>
        <time>2011-07-28T13:54:48Z</time>
      </trkpt>
      <trkpt lat="47.27926" lon="-1.65925">
        <ele>66</ele>
        <time>2011-07-28T13:54:49Z</time>
      </trkpt>
      <trkpt lat="47.27926" lon="-1.6593">
        <ele>65.9</ele>
        <time>2011-07-28T13:54:50Z</time>
      </trkpt>
      <trkpt lat="47.27927" lon="-1.65934">
        <ele>65.9</ele>
        <time>2011-07-28T13:54:51Z</time>
      </trkpt>
      <trkpt lat="47.27927" lon="-1.65939">
        <ele>66</ele>
        <time>2011-07-28T13:54:52Z</time>
      </trkpt>
      <trkpt lat="47.27928" lon="-1.65944">
        <ele>66</ele>
        <time>2011-07-28T13:54:53Z</time>
      </trkpt>
      <trkpt lat="47.27928" lon="-1.65949">
        <ele>66.1</ele>
        <time>2011-07-28T13:54:54Z</time>
      </trkpt>
      <trkpt lat="47.27928" lon="-1.65954">
        <ele>66.5</ele>
        <time>2011-07-28T13:54:55Z</time>
      </trkpt>
      <trkpt lat="47.27928" lon="-1.6596">
        <ele>66.9</ele>
        <time>2011-07-28T13:54:56Z</time>
      </trkpt>
      <trkpt lat="47.27928" lon="-1.65965">
        <ele>67.1</ele>
        <time>2011-07-28T13:54:57Z</time>
      </trkpt>
      <trkpt lat="47.27928" lon="-1.65971">
        <ele>66.7</ele>
        <time>2011-07-28T13:54:58Z</time>
      </trkpt>
      <trkpt lat="47.27927" lon="-1.65976">
        <ele>66.3</ele>
        <time>2011-07-28T13:54:59Z</time>
      </trkpt>
      <trkpt lat="47.27926" lon="-1.6598">
        <ele>66.1</ele>
        <time>2011-07-28T13:55:00Z</time>
      </trkpt>
      <trkpt lat="47.27925" lon="-1.65985">
        <ele>65.7</ele>
        <time>2011-07-28T13:55:01Z</time>
      </trkpt>
      <trkpt lat="47.27924" lon="-1.65989">
        <ele>65.4</ele>
        <time>2011-07-28T13:55:02Z</time>
      </trkpt>
      <trkpt lat="47.27925" lon="-1.65994">
        <ele>65.2</ele>
        <time>2011-07-28T13:55:03Z</time>
      </trkpt>
      <trkpt lat="47.27926" lon="-1.65999">
        <ele>65.1</ele>
        <time>2011-07-28T13:55:04Z</time>
      </trkpt>
      <trkpt lat="47.27928" lon="-1.66004">
        <ele>65.7</ele>
        <time>2011-07-28T13:55:05Z</time>
      </trkpt>
      <trkpt lat="47.27931" lon="-1.66008">
        <ele>66.1</ele>
        <time>2011-07-28T13:55:06Z</time>
      </trkpt>
      <trkpt lat="47.27933" lon="-1.66012">
        <ele>66.4</ele>
        <time>2011-07-28T13:55:07Z</time>
      </trkpt>
      <trkpt lat="47.27934" lon="-1.66016">
        <ele>66.4</ele>
        <time>2011-07-28T13:55:08Z</time>
      </trkpt>
      <trkpt lat="47.27936" lon="-1.66021">
        <ele>66.4</ele>
        <time>2011-07-28T13:55:09Z</time>
      </trkpt>
      <trkpt lat="47.27937" lon="-1.66026">
        <ele>66.4</ele>
        <time>2011-07-28T13:55:10Z</time>
      </trkpt>
      <trkpt lat="47.27938" lon="-1.66031">
        <ele>66.6</ele>
        <time>2011-07-28T13:55:11Z</time>
      </trkpt>
      <trkpt lat="47.27939" lon="-1.66036">
        <ele>66.7</ele>
        <time>2011-07-28T13:55:12Z</time>
      </trkpt>
      <trkpt lat="47.2794" lon="-1.6604">
        <ele>66.8</ele>
        <time>2011-07-28T13:55:13Z</time>
      </trkpt>
      <trkpt lat="47.2794" lon="-1.66044">
        <ele>66.9</ele>
        <time>2011-07-28T13:55:14Z</time>
      </trkpt>
      <trkpt lat="47.27941" lon="-1.66048">
        <ele>67</ele>
        <time>2011-07-28T13:55:15Z</time>
      </trkpt>
      <trkpt lat="47.27942" lon="-1.66051">
        <ele>67</ele>
        <time>2011-07-28T13:55:16Z</time>
      </trkpt>
      <trkpt lat="47.27943" lon="-1.66055">
        <ele>66.5</ele>
        <time>2011-07-28T13:55:17Z</time>
      </trkpt>
      <trkpt lat="47.27944" lon="-1.66059">
        <ele>66.1</ele>
        <time>2011-07-28T13:55:18Z</time>
      </trkpt>
      <trkpt lat="47.27946" lon="-1.66063">
        <ele>65.9</ele>
        <time>2011-07-28T13:55:19Z</time>
      </trkpt>
      <trkpt lat="47.27949" lon="-1.66067">
        <ele>66.2</ele>
        <time>2011-07-28T13:55:20Z</time>
      </trkpt>
      <trkpt lat="47.27951" lon="-1.66069">
        <ele>66.4</ele>
        <time>2011-07-28T13:55:21Z</time>
      </trkpt>
      <trkpt lat="47.27955" lon="-1.66072">
        <ele>66.6</ele>
        <time>2011-07-28T13:55:22Z</time>
      </trkpt>
      <trkpt lat="47.27958" lon="-1.66073">
        <ele>66.7</ele>
        <time>2011-07-28T13:55:23Z</time>
      </trkpt>
      <trkpt lat="47.27962" lon="-1.66075">
        <ele>66.4</ele>
        <time>2011-07-28T13:55:24Z</time>
      </trkpt>
      <trkpt lat="47.27966" lon="-1.66077">
        <ele>66.2</ele>
        <time>2011-07-28T13:55:25Z</time>
      </trkpt>
      <trkpt lat="47.2797" lon="-1.66077">
        <ele>66.1</ele>
        <time>2011-07-28T13:55:26Z</time>
      </trkpt>
      <trkpt lat="47.27974" lon="-1.66078">
        <ele>66</ele>
        <time>2011-07-28T13:55:27Z</time>
      </trkpt>
      <trkpt lat="47.27978" lon="-1.66078">
        <ele>66</ele>
        <time>2011-07-28T13:55:28Z</time>
      </trkpt>
      <trkpt lat="47.27983" lon="-1.66079">
        <ele>65.9</ele>
        <time>2011-07-28T13:55:29Z</time>
      </trkpt>
      <trkpt lat="47.27987" lon="-1.66079">
        <ele>65.9</ele>
        <time>2011-07-28T13:55:30Z</time>
      </trkpt>
      <trkpt lat="47.27991" lon="-1.66079">
        <ele>65.9</ele>
        <time>2011-07-28T13:55:31Z</time>
      </trkpt>
      <trkpt lat="47.27995" lon="-1.66079">
        <ele>65.8</ele>
        <time>2011-07-28T13:55:32Z</time>
      </trkpt>
      <trkpt lat="47.28" lon="-1.66079">
        <ele>66</ele>
        <time>2011-07-28T13:55:33Z</time>
      </trkpt>
      <trkpt lat="47.28004" lon="-1.66079">
        <ele>66.1</ele>
        <time>2011-07-28T13:55:34Z</time>
      </trkpt>
      <trkpt lat="47.28008" lon="-1.66079">
        <ele>66.2</ele>
        <time>2011-07-28T13:55:35Z</time>
      </trkpt>
      <trkpt lat="47.28012" lon="-1.6608">
        <ele>65.8</ele>
        <time>2011-07-28T13:55:36Z</time>
      </trkpt>
      <trkpt lat="47.28016" lon="-1.6608">
        <ele>65.5</ele>
        <time>2011-07-28T13:55:37Z</time>
      </trkpt>
      <trkpt lat="47.28021" lon="-1.6608">
        <ele>65.3</ele>
        <time>2011-07-28T13:55:38Z</time>
      </trkpt>
      <trkpt lat="47.28025" lon="-1.6608">
        <ele>65.1</ele>
        <time>2011-07-28T13:55:39Z</time>
      </trkpt>
      <trkpt lat="47.28028" lon="-1.6608">
        <ele>64.8</ele>
        <time>2011-07-28T13:55:40Z</time>
      </trkpt>
      <trkpt lat="47.28032" lon="-1.66081">
        <ele>64.5</ele>
        <time>2011-07-28T13:55:41Z</time>
      </trkpt>
      <trkpt lat="47.28035" lon="-1.66081">
        <ele>64.3</ele>
        <time>2011-07-28T13:55:42Z</time>
      </trkpt>
      <trkpt lat="47.28038" lon="-1.66081">
        <ele>64.4</ele>
        <time>2011-07-28T13:55:43Z</time>
      </trkpt>
      <trkpt lat="47.28042" lon="-1.66082">
        <ele>64.5</ele>
        <time>2011-07-28T13:55:44Z</time>
      </trkpt>
      <trkpt lat="47.28045" lon="-1.66082">
        <ele>64.5</ele>
        <time>2011-07-28T13:55:45Z</time>
      </trkpt>
      <trkpt lat="47.28049" lon="-1.66082">
        <ele>64.7</ele>
        <time>2011-07-28T13:55:46Z</time>
      </trkpt>
      <trkpt lat="47.28053" lon="-1.66082">
        <ele>64.9</ele>
        <time>2011-07-28T13:55:47Z</time>
      </trkpt>
      <trkpt lat="47.28056" lon="-1.66082">
        <ele>65</ele>
        <time>2011-07-28T13:55:48Z</time>
      </trkpt>
      <trkpt lat="47.2806" lon="-1.66083">
        <ele>65.1</ele>
        <time>2011-07-28T13:55:49Z</time>
      </trkpt>
      <trkpt lat="47.28064" lon="-1.66083">
        <ele>65.1</ele>
        <time>2011-07-28T13:55:50Z</time>
      </trkpt>
      <trkpt lat="47.28068" lon="-1.66083">
        <ele>65.1</ele>
        <time>2011-07-28T13:55:51Z</time>
      </trkpt>
      <trkpt lat="47.28072" lon="-1.66083">
        <ele>64.9</ele>
        <time>2011-07-28T13:55:52Z</time>
      </trkpt>
      <trkpt lat="47.28076" lon="-1.66083">
        <ele>64.6</ele>
        <time>2011-07-28T13:55:53Z</time>
      </trkpt>
      <trkpt lat="47.2808" lon="-1.66083">
        <ele>64.5</ele>
        <time>2011-07-28T13:55:54Z</time>
      </trkpt>
      <trkpt lat="47.28084" lon="-1.66084">
        <ele>64.4</ele>
        <time>2011-07-28T13:55:55Z</time>
      </trkpt>
      <trkpt lat="47.28088" lon="-1.66084">
        <ele>64.3</ele>
        <time>2011-07-28T13:55:56Z</time>
      </trkpt>
      <trkpt lat="47.28092" lon="-1.66084">
        <ele>64.3</ele>
        <time>2011-07-28T13:55:57Z</time>
      </trkpt>
      <trkpt lat="47.28097" lon="-1.66084">
        <ele>64.3</ele>
        <time>2011-07-28T13:55:58Z</time>
      </trkpt>
      <trkpt lat="47.28101" lon="-1.66084">
        <ele>64.7</ele>
        <time>2011-07-28T13:55:59Z</time>
      </trkpt>
      <trkpt lat="47.28105" lon="-1.66084">
        <ele>65</ele>
        <time>2011-07-28T13:56:00Z</time>
      </trkpt>
      <trkpt lat="47.28109" lon="-1.66085">
        <ele>65.2</ele>
        <time>2011-07-28T13:56:01Z</time>
      </trkpt>
      <trkpt lat="47.28113" lon="-1.66085">
        <ele>65.2</ele>
        <time>2011-07-28T13:56:02Z</time>
      </trkpt>
      <trkpt lat="47.28117" lon="-1.66086">
        <ele>65.2</ele>
        <time>2011-07-28T13:56:03Z</time>
      </trkpt>
      <trkpt lat="47.28121" lon="-1.66086">
        <ele>65.2</ele>
        <time>2011-07-28T13:56:04Z</time>
      </trkpt>
      <trkpt lat="47.28125" lon="-1.66085">
        <ele>64.8</ele>
        <time>2011-07-28T13:56:05Z</time>
      </trkpt>
      <trkpt lat="47.28129" lon="-1.66085">
        <ele>64.5</ele>
        <time>2011-07-28T13:56:06Z</time>
      </trkpt>
      <trkpt lat="47.28133" lon="-1.66085">
        <ele>64.3</ele>
        <time>2011-07-28T13:56:07Z</time>
      </trkpt>
      <trkpt lat="47.28136" lon="-1.66085">
        <ele>64.3</ele>
        <time>2011-07-28T13:56:08Z</time>
      </trkpt>
      <trkpt lat="47.2814" lon="-1.66086">
        <ele>64.3</ele>
        <time>2011-07-28T13:56:09Z</time>
      </trkpt>
      <trkpt lat="47.28143" lon="-1.66086">
        <ele>64.3</ele>
        <time>2011-07-28T13:56:10Z</time>
      </trkpt>
      <trkpt lat="47.28146" lon="-1.66086">
        <ele>64.2</ele>
        <time>2011-07-28T13:56:11Z</time>
      </trkpt>
      <trkpt lat="47.28149" lon="-1.66086">
        <ele>64.2</ele>
        <time>2011-07-28T13:56:12Z</time>
      </trkpt>
      <trkpt lat="47.28152" lon="-1.66086">
        <ele>64.2</ele>
        <time>2011-07-28T13:56:13Z</time>
      </trkpt>
      <trkpt lat="47.28155" lon="-1.66086">
        <ele>64.1</ele>
        <time>2011-07-28T13:56:14Z</time>
      </trkpt>
      <trkpt lat="47.28158" lon="-1.66086">
        <ele>64</ele>
        <time>2011-07-28T13:56:15Z</time>
      </trkpt>
      <trkpt lat="47.28161" lon="-1.66086">
        <ele>63.9</ele>
        <time>2011-07-28T13:56:16Z</time>
      </trkpt>
      <trkpt lat="47.28165" lon="-1.66085">
        <ele>63.9</ele>
        <time>2011-07-28T13:56:17Z</time>
      </trkpt>
      <trkpt lat="47.28168" lon="-1.66084">
        <ele>64</ele>
        <time>2011-07-28T13:56:18Z</time>
      </trkpt>
      <trkpt lat="47.28172" lon="-1.66084">
        <ele>64.1</ele>
        <time>2011-07-28T13:56:19Z</time>
      </trkpt>
      <trkpt lat="47.28176" lon="-1.66084">
        <ele>64.2</ele>
        <time>2011-07-28T13:56:20Z</time>
      </trkpt>
      <trkpt lat="47.28179" lon="-1.66084">
        <ele>64.5</ele>
        <time>2011-07-28T13:56:21Z</time>
      </trkpt>
      <trkpt lat="47.28182" lon="-1.66083">
        <ele>64.7</ele>
        <time>2011-07-28T13:56:22Z</time>
      </trkpt>
      <trkpt lat="47.28186" lon="-1.66083">
        <ele>64.8</ele>
        <time>2011-07-28T13:56:23Z</time>
      </trkpt>
      <trkpt lat="47.28189" lon="-1.66083">
        <ele>65.1</ele>
        <time>2011-07-28T13:56:24Z</time>
      </trkpt>
      <trkpt lat="47.28193" lon="-1.66083">
        <ele>65.3</ele>
        <time>2011-07-28T13:56:25Z</time>
      </trkpt>
      <trkpt lat="47.28197" lon="-1.66082">
        <ele>65.5</ele>
        <time>2011-07-28T13:56:26Z</time>
      </trkpt>
      <trkpt lat="47.28201" lon="-1.66082">
        <ele>65.5</ele>
        <time>2011-07-28T13:56:27Z</time>
      </trkpt>
      <trkpt lat="47.28204" lon="-1.66082">
        <ele>65.4</ele>
        <time>2011-07-28T13:56:28Z</time>
      </trkpt>
      <trkpt lat="47.28208" lon="-1.66082">
        <ele>65.4</ele>
        <time>2011-07-28T13:56:29Z</time>
      </trkpt>
      <trkpt lat="47.28212" lon="-1.66082">
        <ele>65.4</ele>
        <time>2011-07-28T13:56:30Z</time>
      </trkpt>
      <trkpt lat="47.28216" lon="-1.66082">
        <ele>65.3</ele>
        <time>2011-07-28T13:56:31Z</time>
      </trkpt>
      <trkpt lat="47.2822" lon="-1.66082">
        <ele>65.3</ele>
        <time>2011-07-28T13:56:32Z</time>
      </trkpt>
      <trkpt lat="47.28224" lon="-1.66081">
        <ele>65.3</ele>
        <time>2011-07-28T13:56:33Z</time>
      </trkpt>
      <trkpt lat="47.28228" lon="-1.66081">
        <ele>65.1</ele>
        <time>2011-07-28T13:56:34Z</time>
      </trkpt>
      <trkpt lat="47.28233" lon="-1.66081">
        <ele>65</ele>
        <time>2011-07-28T13:56:35Z</time>
      </trkpt>
      <trkpt lat="47.28237" lon="-1.66081">
        <ele>64.9</ele>
        <time>2011-07-28T13:56:36Z</time>
      </trkpt>
      <trkpt lat="47.28241" lon="-1.66081">
        <ele>65.1</ele>
        <time>2011-07-28T13:56:37Z</time>
      </trkpt>
      <trkpt lat="47.28246" lon="-1.66081">
        <ele>65.3</ele>
        <time>2011-07-28T13:56:38Z</time>
      </trkpt>
      <trkpt lat="47.2825" lon="-1.6608">
        <ele>65.5</ele>
        <time>2011-07-28T13:56:39Z</time>
      </trkpt>
      <trkpt lat="47.28254" lon="-1.6608">
        <ele>65.5</ele>
        <time>2011-07-28T13:56:40Z</time>
      </trkpt>
      <trkpt lat="47.28258" lon="-1.6608">
        <ele>65.5</ele>
        <time>2011-07-28T13:56:41Z</time>
      </trkpt>
      <trkpt lat="47.28262" lon="-1.6608">
        <ele>65.5</ele>
        <time>2011-07-28T13:56:42Z</time>
      </trkpt>
      <trkpt lat="47.28267" lon="-1.6608">
        <ele>65.3</ele>
        <time>2011-07-28T13:56:43Z</time>
      </trkpt>
      <trkpt lat="47.28271" lon="-1.66079">
        <ele>65.1</ele>
        <time>2011-07-28T13:56:44Z</time>
      </trkpt>
      <trkpt lat="47.28275" lon="-1.66079">
        <ele>65</ele>
        <time>2011-07-28T13:56:45Z</time>
      </trkpt>
      <trkpt lat="47.28279" lon="-1.66079">
        <ele>64.9</ele>
        <time>2011-07-28T13:56:46Z</time>
      </trkpt>
      <trkpt lat="47.28282" lon="-1.66079">
        <ele>65.3</ele>
        <time>2011-07-28T13:56:47Z</time>
      </trkpt>
      <trkpt lat="47.28286" lon="-1.66078">
        <ele>65.6</ele>
        <time>2011-07-28T13:56:48Z</time>
      </trkpt>
      <trkpt lat="47.2829" lon="-1.66078">
        <ele>65.8</ele>
        <time>2011-07-28T13:56:49Z</time>
      </trkpt>
      <trkpt lat="47.28294" lon="-1.66078">
        <ele>65.6</ele>
        <time>2011-07-28T13:56:50Z</time>
      </trkpt>
      <trkpt lat="47.28298" lon="-1.66078">
        <ele>65.5</ele>
        <time>2011-07-28T13:56:51Z</time>
      </trkpt>
      <trkpt lat="47.28303" lon="-1.66077">
        <ele>65.4</ele>
        <time>2011-07-28T13:56:52Z</time>
      </trkpt>
      <trkpt lat="47.28307" lon="-1.66077">
        <ele>65.9</ele>
        <time>2011-07-28T13:56:53Z</time>
      </trkpt>
      <trkpt lat="47.28312" lon="-1.66077">
        <ele>66.2</ele>
        <time>2011-07-28T13:56:54Z</time>
      </trkpt>
      <trkpt lat="47.28316" lon="-1.66077">
        <ele>66.5</ele>
        <time>2011-07-28T13:56:55Z</time>
      </trkpt>
      <trkpt lat="47.2832" lon="-1.66076">
        <ele>66.5</ele>
        <time>2011-07-28T13:56:56Z</time>
      </trkpt>
      <trkpt lat="47.28325" lon="-1.66076">
        <ele>66.4</ele>
        <time>2011-07-28T13:56:57Z</time>
      </trkpt>
      <trkpt lat="47.28329" lon="-1.66077">
        <ele>66.4</ele>
        <time>2011-07-28T13:56:58Z</time>
      </trkpt>
      <trkpt lat="47.28333" lon="-1.66078">
        <ele>66.3</ele>
        <time>2011-07-28T13:56:59Z</time>
      </trkpt>
      <trkpt lat="47.28337" lon="-1.66078">
        <ele>66.1</ele>
        <time>2011-07-28T13:57:00Z</time>
      </trkpt>
      <trkpt lat="47.28341" lon="-1.66078">
        <ele>66</ele>
        <time>2011-07-28T13:57:01Z</time>
      </trkpt>
      <trkpt lat="47.28345" lon="-1.66077">
        <ele>66</ele>
        <time>2011-07-28T13:57:02Z</time>
      </trkpt>
      <trkpt lat="47.28349" lon="-1.66077">
        <ele>65.9</ele>
        <time>2011-07-28T13:57:03Z</time>
      </trkpt>
      <trkpt lat="47.28352" lon="-1.66078">
        <ele>65.9</ele>
        <time>2011-07-28T13:57:04Z</time>
      </trkpt>
      <trkpt lat="47.28356" lon="-1.66078">
        <ele>65.9</ele>
        <time>2011-07-28T13:57:05Z</time>
      </trkpt>
      <trkpt lat="47.28359" lon="-1.66077">
        <ele>66.1</ele>
        <time>2011-07-28T13:57:06Z</time>
      </trkpt>
      <trkpt lat="47.28363" lon="-1.66078">
        <ele>66.3</ele>
        <time>2011-07-28T13:57:07Z</time>
      </trkpt>
      <trkpt lat="47.28367" lon="-1.66078">
        <ele>66.4</ele>
        <time>2011-07-28T13:57:08Z</time>
      </trkpt>
      <trkpt lat="47.2837" lon="-1.66077">
        <ele>66.2</ele>
        <time>2011-07-28T13:57:09Z</time>
      </trkpt>
      <trkpt lat="47.28374" lon="-1.66077">
        <ele>66</ele>
        <time>2011-07-28T13:57:10Z</time>
      </trkpt>
      <trkpt lat="47.28377" lon="-1.66077">
        <ele>65.8</ele>
        <time>2011-07-28T13:57:11Z</time>
      </trkpt>
      <trkpt lat="47.28381" lon="-1.66078">
        <ele>66.1</ele>
        <time>2011-07-28T13:57:12Z</time>
      </trkpt>
      <trkpt lat="47.28385" lon="-1.66078">
        <ele>66.3</ele>
        <time>2011-07-28T13:57:13Z</time>
      </trkpt>
      <trkpt lat="47.28388" lon="-1.6608">
        <ele>66.5</ele>
        <time>2011-07-28T13:57:14Z</time>
      </trkpt>
      <trkpt lat="47.28392" lon="-1.6608">
        <ele>66.8</ele>
        <time>2011-07-28T13:57:15Z</time>
      </trkpt>
      <trkpt lat="47.28395" lon="-1.6608">
        <ele>67</ele>
        <time>2011-07-28T13:57:16Z</time>
      </trkpt>
      <trkpt lat="47.28398" lon="-1.66078">
        <ele>67.2</ele>
        <time>2011-07-28T13:57:17Z</time>
      </trkpt>
      <trkpt lat="47.28402" lon="-1.66079">
        <ele>67.3</ele>
        <time>2011-07-28T13:57:18Z</time>
      </trkpt>
      <trkpt lat="47.28406" lon="-1.6608">
        <ele>67.4</ele>
        <time>2011-07-28T13:57:19Z</time>
      </trkpt>
      <trkpt lat="47.28409" lon="-1.66081">
        <ele>67.5</ele>
        <time>2011-07-28T13:57:20Z</time>
      </trkpt>
      <trkpt lat="47.28413" lon="-1.66081">
        <ele>67.6</ele>
        <time>2011-07-28T13:57:21Z</time>
      </trkpt>
      <trkpt lat="47.28417" lon="-1.66081">
        <ele>67.6</ele>
        <time>2011-07-28T13:57:22Z</time>
      </trkpt>
      <trkpt lat="47.28421" lon="-1.66081">
        <ele>67.7</ele>
        <time>2011-07-28T13:57:23Z</time>
      </trkpt>
      <trkpt lat="47.28425" lon="-1.66081">
        <ele>67.7</ele>
        <time>2011-07-28T13:57:24Z</time>
      </trkpt>
      <trkpt lat="47.28429" lon="-1.66081">
        <ele>67.4</ele>
        <time>2011-07-28T13:57:25Z</time>
      </trkpt>
      <trkpt lat="47.28433" lon="-1.66081">
        <ele>67.1</ele>
        <time>2011-07-28T13:57:26Z</time>
      </trkpt>
      <trkpt lat="47.28437" lon="-1.66081">
        <ele>67</ele>
        <time>2011-07-28T13:57:27Z</time>
      </trkpt>
      <trkpt lat="47.28441" lon="-1.6608">
        <ele>67</ele>
        <time>2011-07-28T13:57:28Z</time>
      </trkpt>
      <trkpt lat="47.28445" lon="-1.6608">
        <ele>67</ele>
        <time>2011-07-28T13:57:29Z</time>
      </trkpt>
      <trkpt lat="47.28449" lon="-1.6608">
        <ele>67</ele>
        <time>2011-07-28T13:57:30Z</time>
      </trkpt>
      <trkpt lat="47.28453" lon="-1.6608">
        <ele>67.4</ele>
        <time>2011-07-28T13:57:31Z</time>
      </trkpt>
      <trkpt lat="47.28457" lon="-1.66079">
        <ele>67.7</ele>
        <time>2011-07-28T13:57:32Z</time>
      </trkpt>
      <trkpt lat="47.28461" lon="-1.66079">
        <ele>67.9</ele>
        <time>2011-07-28T13:57:33Z</time>
      </trkpt>
      <trkpt lat="47.28465" lon="-1.66078">
        <ele>68</ele>
        <time>2011-07-28T13:57:34Z</time>
      </trkpt>
      <trkpt lat="47.28469" lon="-1.66078">
        <ele>68</ele>
        <time>2011-07-28T13:57:35Z</time>
      </trkpt>
      <trkpt lat="47.28473" lon="-1.66077">
        <ele>68</ele>
        <time>2011-07-28T13:57:36Z</time>
      </trkpt>
      <trkpt lat="47.28478" lon="-1.66077">
        <ele>68</ele>
        <time>2011-07-28T13:57:37Z</time>
      </trkpt>
      <trkpt lat="47.28483" lon="-1.66077">
        <ele>68.2</ele>
        <time>2011-07-28T13:57:38Z</time>
      </trkpt>
      <trkpt lat="47.28488" lon="-1.66076">
        <ele>68.2</ele>
        <time>2011-07-28T13:57:39Z</time>
      </trkpt>
      <trkpt lat="47.28493" lon="-1.66075">
        <ele>68.3</ele>
        <time>2011-07-28T13:57:40Z</time>
      </trkpt>
      <trkpt lat="47.28498" lon="-1.66075">
        <ele>68.1</ele>
        <time>2011-07-28T13:57:41Z</time>
      </trkpt>
      <trkpt lat="47.28503" lon="-1.66074">
        <ele>67.9</ele>
        <time>2011-07-28T13:57:42Z</time>
      </trkpt>
      <trkpt lat="47.28507" lon="-1.66072">
        <ele>67.8</ele>
        <time>2011-07-28T13:57:43Z</time>
      </trkpt>
      <trkpt lat="47.28511" lon="-1.66071">
        <ele>68.2</ele>
        <time>2011-07-28T13:57:44Z</time>
      </trkpt>
      <trkpt lat="47.28516" lon="-1.66071">
        <ele>68.5</ele>
        <time>2011-07-28T13:57:45Z</time>
      </trkpt>
      <trkpt lat="47.2852" lon="-1.6607">
        <ele>68.7</ele>
        <time>2011-07-28T13:57:46Z</time>
      </trkpt>
      <trkpt lat="47.28523" lon="-1.66069">
        <ele>68.3</ele>
        <time>2011-07-28T13:57:47Z</time>
      </trkpt>
      <trkpt lat="47.28526" lon="-1.66068">
        <ele>68</ele>
        <time>2011-07-28T13:57:48Z</time>
      </trkpt>
      <trkpt lat="47.28528" lon="-1.66067">
        <ele>67.8</ele>
        <time>2011-07-28T13:57:49Z</time>
      </trkpt>
      <trkpt lat="47.28533" lon="-1.66066">
        <ele>67.8</ele>
        <time>2011-07-28T13:57:51Z</time>
      </trkpt>
      <trkpt lat="47.28537" lon="-1.66068">
        <ele>67.9</ele>
        <time>2011-07-28T13:58:05Z</time>
      </trkpt>
      <trkpt lat="47.2854" lon="-1.66073">
        <ele>68.6</ele>
        <time>2011-07-28T13:59:18Z</time>
      </trkpt>
      <trkpt lat="47.2854" lon="-1.66075">
        <ele>68.4</ele>
        <time>2011-07-28T13:59:19Z</time>
      </trkpt>
      <trkpt lat="47.28542" lon="-1.66082">
        <ele>68.6</ele>
        <time>2011-07-28T13:59:22Z</time>
      </trkpt>
      <trkpt lat="47.28542" lon="-1.66089">
        <ele>68.2</ele>
        <time>2011-07-28T13:59:24Z</time>
      </trkpt>
      <trkpt lat="47.28542" lon="-1.66092">
        <ele>68.1</ele>
        <time>2011-07-28T13:59:25Z</time>
      </trkpt>
      <trkpt lat="47.28543" lon="-1.66096">
        <ele>68.1</ele>
        <time>2011-07-28T13:59:26Z</time>
      </trkpt>
      <trkpt lat="47.28544" lon="-1.66099">
        <ele>68.1</ele>
        <time>2011-07-28T13:59:27Z</time>
      </trkpt>
      <trkpt lat="47.28544" lon="-1.66103">
        <ele>68.1</ele>
        <time>2011-07-28T13:59:28Z</time>
      </trkpt>
      <trkpt lat="47.28545" lon="-1.66107">
        <ele>68.1</ele>
        <time>2011-07-28T13:59:29Z</time>
      </trkpt>
      <trkpt lat="47.28545" lon="-1.66111">
        <ele>68.4</ele>
        <time>2011-07-28T13:59:30Z</time>
      </trkpt>
      <trkpt lat="47.28545" lon="-1.66115">
        <ele>68.7</ele>
        <time>2011-07-28T13:59:31Z</time>
      </trkpt>
      <trkpt lat="47.28546" lon="-1.66119">
        <ele>68.8</ele>
        <time>2011-07-28T13:59:32Z</time>
      </trkpt>
      <trkpt lat="47.28546" lon="-1.66124">
        <ele>69</ele>
        <time>2011-07-28T13:59:33Z</time>
      </trkpt>
      <trkpt lat="47.28547" lon="-1.66128">
        <ele>69.1</ele>
        <time>2011-07-28T13:59:34Z</time>
      </trkpt>
      <trkpt lat="47.28547" lon="-1.66132">
        <ele>69.1</ele>
        <time>2011-07-28T13:59:35Z</time>
      </trkpt>
      <trkpt lat="47.28548" lon="-1.66137">
        <ele>69.1</ele>
        <time>2011-07-28T13:59:36Z</time>
      </trkpt>
      <trkpt lat="47.28548" lon="-1.66141">
        <ele>69.1</ele>
        <time>2011-07-28T13:59:37Z</time>
      </trkpt>
      <trkpt lat="47.28549" lon="-1.66146">
        <ele>69.1</ele>
        <time>2011-07-28T13:59:38Z</time>
      </trkpt>
      <trkpt lat="47.2855" lon="-1.6615">
        <ele>68.9</ele>
        <time>2011-07-28T13:59:39Z</time>
      </trkpt>
      <trkpt lat="47.2855" lon="-1.66155">
        <ele>68.8</ele>
        <time>2011-07-28T13:59:40Z</time>
      </trkpt>
      <trkpt lat="47.28551" lon="-1.66159">
        <ele>68.7</ele>
        <time>2011-07-28T13:59:41Z</time>
      </trkpt>
      <trkpt lat="47.28551" lon="-1.66163">
        <ele>68.7</ele>
        <time>2011-07-28T13:59:42Z</time>
      </trkpt>
      <trkpt lat="47.28552" lon="-1.66168">
        <ele>68.7</ele>
        <time>2011-07-28T13:59:43Z</time>
      </trkpt>
      <trkpt lat="47.28552" lon="-1.66172">
        <ele>68.7</ele>
        <time>2011-07-28T13:59:44Z</time>
      </trkpt>
      <trkpt lat="47.28553" lon="-1.66177">
        <ele>68.6</ele>
        <time>2011-07-28T13:59:45Z</time>
      </trkpt>
      <trkpt lat="47.28554" lon="-1.66181">
        <ele>68.5</ele>
        <time>2011-07-28T13:59:46Z</time>
      </trkpt>
      <trkpt lat="47.28555" lon="-1.66186">
        <ele>68.4</ele>
        <time>2011-07-28T13:59:47Z</time>
      </trkpt>
      <trkpt lat="47.28555" lon="-1.6619">
        <ele>68.3</ele>
        <time>2011-07-28T13:59:48Z</time>
      </trkpt>
      <trkpt lat="47.28556" lon="-1.66194">
        <ele>69</ele>
        <time>2011-07-28T13:59:49Z</time>
      </trkpt>
      <trkpt lat="47.28557" lon="-1.662">
        <ele>69.8</ele>
        <time>2011-07-28T13:59:51Z</time>
      </trkpt>
      <trkpt lat="47.28558" lon="-1.66206">
        <ele>69.4</ele>
        <time>2011-07-28T13:59:53Z</time>
      </trkpt>
      <trkpt lat="47.28559" lon="-1.66212">
        <ele>69</ele>
        <time>2011-07-28T13:59:55Z</time>
      </trkpt>
      <trkpt lat="47.28559" lon="-1.66215">
        <ele>68.7</ele>
        <time>2011-07-28T13:59:56Z</time>
      </trkpt>
      <trkpt lat="47.2856" lon="-1.66219">
        <ele>68.6</ele>
        <time>2011-07-28T13:59:57Z</time>
      </trkpt>
      <trkpt lat="47.2856" lon="-1.66224">
        <ele>68.8</ele>
        <time>2011-07-28T13:59:58Z</time>
      </trkpt>
      <trkpt lat="47.28561" lon="-1.66228">
        <ele>69</ele>
        <time>2011-07-28T13:59:59Z</time>
      </trkpt>
      <trkpt lat="47.28561" lon="-1.66233">
        <ele>69.2</ele>
        <time>2011-07-28T14:00:00Z</time>
      </trkpt>
      <trkpt lat="47.28562" lon="-1.66237">
        <ele>69.5</ele>
        <time>2011-07-28T14:00:01Z</time>
      </trkpt>
      <trkpt lat="47.28562" lon="-1.66241">
        <ele>69.8</ele>
        <time>2011-07-28T14:00:02Z</time>
      </trkpt>
      <trkpt lat="47.28563" lon="-1.66246">
        <ele>70</ele>
        <time>2011-07-28T14:00:03Z</time>
      </trkpt>
      <trkpt lat="47.28564" lon="-1.6625">
        <ele>70.2</ele>
        <time>2011-07-28T14:00:04Z</time>
      </trkpt>
      <trkpt lat="47.28565" lon="-1.66254">
        <ele>70.2</ele>
        <time>2011-07-28T14:00:05Z</time>
      </trkpt>
      <trkpt lat="47.28565" lon="-1.66258">
        <ele>70.2</ele>
        <time>2011-07-28T14:00:06Z</time>
      </trkpt>
      <trkpt lat="47.28566" lon="-1.66261">
        <ele>70.2</ele>
        <time>2011-07-28T14:00:07Z</time>
      </trkpt>
      <trkpt lat="47.28566" lon="-1.66266">
        <ele>70.3</ele>
        <time>2011-07-28T14:00:08Z</time>
      </trkpt>
      <trkpt lat="47.28567" lon="-1.6627">
        <ele>70.4</ele>
        <time>2011-07-28T14:00:09Z</time>
      </trkpt>
      <trkpt lat="47.28568" lon="-1.66274">
        <ele>70.4</ele>
        <time>2011-07-28T14:00:10Z</time>
      </trkpt>
      <trkpt lat="47.28569" lon="-1.66279">
        <ele>70.6</ele>
        <time>2011-07-28T14:00:11Z</time>
      </trkpt>
      <trkpt lat="47.28569" lon="-1.66283">
        <ele>70.8</ele>
        <time>2011-07-28T14:00:12Z</time>
      </trkpt>
      <trkpt lat="47.28569" lon="-1.66287">
        <ele>70.9</ele>
        <time>2011-07-28T14:00:13Z</time>
      </trkpt>
      <trkpt lat="47.2857" lon="-1.66292">
        <ele>70.9</ele>
        <time>2011-07-28T14:00:14Z</time>
      </trkpt>
      <trkpt lat="47.2857" lon="-1.66297">
        <ele>70.8</ele>
        <time>2011-07-28T14:00:15Z</time>
      </trkpt>
      <trkpt lat="47.28571" lon="-1.66302">
        <ele>70.8</ele>
        <time>2011-07-28T14:00:16Z</time>
      </trkpt>
      <trkpt lat="47.28571" lon="-1.66307">
        <ele>70.6</ele>
        <time>2011-07-28T14:00:17Z</time>
      </trkpt>
      <trkpt lat="47.28572" lon="-1.66312">
        <ele>70.5</ele>
        <time>2011-07-28T14:00:18Z</time>
      </trkpt>
      <trkpt lat="47.28573" lon="-1.66317">
        <ele>70.5</ele>
        <time>2011-07-28T14:00:19Z</time>
      </trkpt>
      <trkpt lat="47.28573" lon="-1.66322">
        <ele>70.4</ele>
        <time>2011-07-28T14:00:20Z</time>
      </trkpt>
      <trkpt lat="47.28574" lon="-1.66327">
        <ele>70.9</ele>
        <time>2011-07-28T14:00:21Z</time>
      </trkpt>
      <trkpt lat="47.28574" lon="-1.66332">
        <ele>71.3</ele>
        <time>2011-07-28T14:00:22Z</time>
      </trkpt>
      <trkpt lat="47.28575" lon="-1.66337">
        <ele>71.5</ele>
        <time>2011-07-28T14:00:23Z</time>
      </trkpt>
      <trkpt lat="47.28575" lon="-1.66342">
        <ele>71.6</ele>
        <time>2011-07-28T14:00:24Z</time>
      </trkpt>
      <trkpt lat="47.28575" lon="-1.66348">
        <ele>71.6</ele>
        <time>2011-07-28T14:00:25Z</time>
      </trkpt>
      <trkpt lat="47.28575" lon="-1.66353">
        <ele>71.6</ele>
        <time>2011-07-28T14:00:26Z</time>
      </trkpt>
      <trkpt lat="47.28575" lon="-1.66359">
        <ele>71.6</ele>
        <time>2011-07-28T14:00:27Z</time>
      </trkpt>
      <trkpt lat="47.28575" lon="-1.66364">
        <ele>71.6</ele>
        <time>2011-07-28T14:00:28Z</time>
      </trkpt>
      <trkpt lat="47.28576" lon="-1.66369">
        <ele>71.7</ele>
        <time>2011-07-28T14:00:29Z</time>
      </trkpt>
      <trkpt lat="47.28578" lon="-1.66372">
        <ele>71.8</ele>
        <time>2011-07-28T14:00:30Z</time>
      </trkpt>
      <trkpt lat="47.2858" lon="-1.66375">
        <ele>71.9</ele>
        <time>2011-07-28T14:00:31Z</time>
      </trkpt>
      <trkpt lat="47.28583" lon="-1.66376">
        <ele>71.9</ele>
        <time>2011-07-28T14:00:32Z</time>
      </trkpt>
      <trkpt lat="47.28586" lon="-1.66376">
        <ele>71.6</ele>
        <time>2011-07-28T14:00:33Z</time>
      </trkpt>
      <trkpt lat="47.28589" lon="-1.66375">
        <ele>71.4</ele>
        <time>2011-07-28T14:00:34Z</time>
      </trkpt>
      <trkpt lat="47.28592" lon="-1.66374">
        <ele>71.3</ele>
        <time>2011-07-28T14:00:35Z</time>
      </trkpt>
      <trkpt lat="47.28595" lon="-1.66373">
        <ele>71.1</ele>
        <time>2011-07-28T14:00:36Z</time>
      </trkpt>
      <trkpt lat="47.28598" lon="-1.66372">
        <ele>71.1</ele>
        <time>2011-07-28T14:00:37Z</time>
      </trkpt>
      <trkpt lat="47.28601" lon="-1.66371">
        <ele>71</ele>
        <time>2011-07-28T14:00:38Z</time>
      </trkpt>
      <trkpt lat="47.28605" lon="-1.6637">
        <ele>71</ele>
        <time>2011-07-28T14:00:39Z</time>
      </trkpt>
      <trkpt lat="47.28608" lon="-1.6637">
        <ele>70.9</ele>
        <time>2011-07-28T14:00:40Z</time>
      </trkpt>
      <trkpt lat="47.28611" lon="-1.66371">
        <ele>70.9</ele>
        <time>2011-07-28T14:00:41Z</time>
      </trkpt>
      <trkpt lat="47.28615" lon="-1.66373">
        <ele>70.8</ele>
        <time>2011-07-28T14:00:42Z</time>
      </trkpt>
      <trkpt lat="47.28618" lon="-1.66374">
        <ele>71.2</ele>
        <time>2011-07-28T14:00:43Z</time>
      </trkpt>
      <trkpt lat="47.2862" lon="-1.66376">
        <ele>71.5</ele>
        <time>2011-07-28T14:00:44Z</time>
      </trkpt>
      <trkpt lat="47.28623" lon="-1.66378">
        <ele>71.7</ele>
        <time>2011-07-28T14:00:45Z</time>
      </trkpt>
      <trkpt lat="47.28627" lon="-1.66381">
        <ele>71.6</ele>
        <time>2011-07-28T14:00:46Z</time>
      </trkpt>
      <trkpt lat="47.2863" lon="-1.66383">
        <ele>71.6</ele>
        <time>2011-07-28T14:00:47Z</time>
      </trkpt>
      <trkpt lat="47.28633" lon="-1.66385">
        <ele>71.6</ele>
        <time>2011-07-28T14:00:48Z</time>
      </trkpt>
      <trkpt lat="47.28636" lon="-1.66387">
        <ele>71.5</ele>
        <time>2011-07-28T14:00:49Z</time>
      </trkpt>
      <trkpt lat="47.2864" lon="-1.66388">
        <ele>71.5</ele>
        <time>2011-07-28T14:00:50Z</time>
      </trkpt>
      <trkpt lat="47.28643" lon="-1.66386">
        <ele>71.4</ele>
        <time>2011-07-28T14:00:51Z</time>
      </trkpt>
      <trkpt lat="47.28647" lon="-1.66384">
        <ele>71.5</ele>
        <time>2011-07-28T14:00:52Z</time>
      </trkpt>
      <trkpt lat="47.28649" lon="-1.66381">
        <ele>71.5</ele>
        <time>2011-07-28T14:00:53Z</time>
      </trkpt>
      <trkpt lat="47.28652" lon="-1.66378">
        <ele>71.5</ele>
        <time>2011-07-28T14:00:54Z</time>
      </trkpt>
      <trkpt lat="47.28654" lon="-1.66375">
        <ele>71.5</ele>
        <time>2011-07-28T14:00:55Z</time>
      </trkpt>
      <trkpt lat="47.28656" lon="-1.66372">
        <ele>71.1</ele>
        <time>2011-07-28T14:00:56Z</time>
      </trkpt>
      <trkpt lat="47.28658" lon="-1.66368">
        <ele>70.7</ele>
        <time>2011-07-28T14:00:57Z</time>
      </trkpt>
      <trkpt lat="47.28661" lon="-1.66364">
        <ele>70.5</ele>
        <time>2011-07-28T14:00:58Z</time>
      </trkpt>
      <trkpt lat="47.28664" lon="-1.6636">
        <ele>70.6</ele>
        <time>2011-07-28T14:00:59Z</time>
      </trkpt>
      <trkpt lat="47.28666" lon="-1.66356">
        <ele>70.7</ele>
        <time>2011-07-28T14:01:00Z</time>
      </trkpt>
      <trkpt lat="47.28669" lon="-1.66352">
        <ele>70.8</ele>
        <time>2011-07-28T14:01:01Z</time>
      </trkpt>
      <trkpt lat="47.28672" lon="-1.66348">
        <ele>71.1</ele>
        <time>2011-07-28T14:01:02Z</time>
      </trkpt>
      <trkpt lat="47.28674" lon="-1.66344">
        <ele>71.4</ele>
        <time>2011-07-28T14:01:03Z</time>
      </trkpt>
      <trkpt lat="47.28677" lon="-1.6634">
        <ele>71.6</ele>
        <time>2011-07-28T14:01:04Z</time>
      </trkpt>
      <trkpt lat="47.2868" lon="-1.66336">
        <ele>71.4</ele>
        <time>2011-07-28T14:01:05Z</time>
      </trkpt>
      <trkpt lat="47.28682" lon="-1.66332">
        <ele>71.3</ele>
        <time>2011-07-28T14:01:06Z</time>
      </trkpt>
      <trkpt lat="47.28685" lon="-1.66328">
        <ele>71.2</ele>
        <time>2011-07-28T14:01:07Z</time>
      </trkpt>
      <trkpt lat="47.28687" lon="-1.66325">
        <ele>71.5</ele>
        <time>2011-07-28T14:01:08Z</time>
      </trkpt>
      <trkpt lat="47.2869" lon="-1.66321">
        <ele>71.6</ele>
        <time>2011-07-28T14:01:09Z</time>
      </trkpt>
      <trkpt lat="47.28693" lon="-1.66317">
        <ele>71.8</ele>
        <time>2011-07-28T14:01:10Z</time>
      </trkpt>
      <trkpt lat="47.28696" lon="-1.66312">
        <ele>71.9</ele>
        <time>2011-07-28T14:01:11Z</time>
      </trkpt>
      <trkpt lat="47.28699" lon="-1.66308">
        <ele>71.6</ele>
        <time>2011-07-28T14:01:12Z</time>
      </trkpt>
      <trkpt lat="47.28702" lon="-1.66304">
        <ele>71.4</ele>
        <time>2011-07-28T14:01:13Z</time>
      </trkpt>
      <trkpt lat="47.28704" lon="-1.663">
        <ele>71.2</ele>
        <time>2011-07-28T14:01:14Z</time>
      </trkpt>
      <trkpt lat="47.28707" lon="-1.66296">
        <ele>71.3</ele>
        <time>2011-07-28T14:01:15Z</time>
      </trkpt>
      <trkpt lat="47.28709" lon="-1.66292">
        <ele>71.3</ele>
        <time>2011-07-28T14:01:16Z</time>
      </trkpt>
      <trkpt lat="47.28712" lon="-1.66288">
        <ele>71.3</ele>
        <time>2011-07-28T14:01:17Z</time>
      </trkpt>
      <trkpt lat="47.28715" lon="-1.66284">
        <ele>71.1</ele>
        <time>2011-07-28T14:01:18Z</time>
      </trkpt>
      <trkpt lat="47.28717" lon="-1.66281">
        <ele>70.9</ele>
        <time>2011-07-28T14:01:19Z</time>
      </trkpt>
      <trkpt lat="47.28718" lon="-1.66278">
        <ele>70.7</ele>
        <time>2011-07-28T14:01:20Z</time>
      </trkpt>
      <trkpt lat="47.2872" lon="-1.66275">
        <ele>70.3</ele>
        <time>2011-07-28T14:01:21Z</time>
      </trkpt>
      <trkpt lat="47.28724" lon="-1.6627">
        <ele>70.1</ele>
        <time>2011-07-28T14:01:24Z</time>
      </trkpt>
      <trkpt lat="47.28728" lon="-1.66267">
        <ele>70.5</ele>
        <time>2011-07-28T14:01:30Z</time>
      </trkpt>
      <trkpt lat="47.28732" lon="-1.66264">
        <ele>70</ele>
        <time>2011-07-28T14:01:40Z</time>
      </trkpt>
      <trkpt lat="47.28735" lon="-1.66261">
        <ele>69.9</ele>
        <time>2011-07-28T14:01:50Z</time>
      </trkpt>
      <trkpt lat="47.28737" lon="-1.66257">
        <ele>69.7</ele>
        <time>2011-07-28T14:01:53Z</time>
      </trkpt>
      <trkpt lat="47.28739" lon="-1.66253">
        <ele>69.4</ele>
        <time>2011-07-28T14:01:55Z</time>
      </trkpt>
      <trkpt lat="47.28742" lon="-1.66249">
        <ele>69.8</ele>
        <time>2011-07-28T14:01:57Z</time>
      </trkpt>
      <trkpt lat="47.28745" lon="-1.66244">
        <ele>70.1</ele>
        <time>2011-07-28T14:01:59Z</time>
      </trkpt>
      <trkpt lat="47.28746" lon="-1.66242">
        <ele>70.2</ele>
        <time>2011-07-28T14:02:00Z</time>
      </trkpt>
      <trkpt lat="47.28748" lon="-1.66239">
        <ele>70.3</ele>
        <time>2011-07-28T14:02:01Z</time>
      </trkpt>
      <trkpt lat="47.2875" lon="-1.66236">
        <ele>70.4</ele>
        <time>2011-07-28T14:02:02Z</time>
      </trkpt>
      <trkpt lat="47.28751" lon="-1.66234">
        <ele>70.2</ele>
        <time>2011-07-28T14:02:03Z</time>
      </trkpt>
      <trkpt lat="47.28753" lon="-1.66231">
        <ele>70.1</ele>
        <time>2011-07-28T14:02:04Z</time>
      </trkpt>
      <trkpt lat="47.28755" lon="-1.66228">
        <ele>70</ele>
        <time>2011-07-28T14:02:05Z</time>
      </trkpt>
      <trkpt lat="47.28757" lon="-1.66225">
        <ele>70.3</ele>
        <time>2011-07-28T14:02:06Z</time>
      </trkpt>
      <trkpt lat="47.28759" lon="-1.66222">
        <ele>70.5</ele>
        <time>2011-07-28T14:02:07Z</time>
      </trkpt>
      <trkpt lat="47.28761" lon="-1.66218">
        <ele>70.7</ele>
        <time>2011-07-28T14:02:08Z</time>
      </trkpt>
      <trkpt lat="47.28763" lon="-1.66215">
        <ele>70.4</ele>
        <time>2011-07-28T14:02:09Z</time>
      </trkpt>
      <trkpt lat="47.28765" lon="-1.66212">
        <ele>70.3</ele>
        <time>2011-07-28T14:02:10Z</time>
      </trkpt>
      <trkpt lat="47.28767" lon="-1.66208">
        <ele>70.2</ele>
        <time>2011-07-28T14:02:11Z</time>
      </trkpt>
      <trkpt lat="47.28769" lon="-1.66205">
        <ele>70.2</ele>
        <time>2011-07-28T14:02:12Z</time>
      </trkpt>
      <trkpt lat="47.28771" lon="-1.66201">
        <ele>70.2</ele>
        <time>2011-07-28T14:02:13Z</time>
      </trkpt>
      <trkpt lat="47.28773" lon="-1.66198">
        <ele>70.2</ele>
        <time>2011-07-28T14:02:14Z</time>
      </trkpt>
      <trkpt lat="47.28776" lon="-1.66194">
        <ele>70.3</ele>
        <time>2011-07-28T14:02:15Z</time>
      </trkpt>
      <trkpt lat="47.28778" lon="-1.6619">
        <ele>70.3</ele>
        <time>2011-07-28T14:02:16Z</time>
      </trkpt>
      <trkpt lat="47.2878" lon="-1.66187">
        <ele>70.3</ele>
        <time>2011-07-28T14:02:17Z</time>
      </trkpt>
      <trkpt lat="47.28783" lon="-1.66183">
        <ele>70.3</ele>
        <time>2011-07-28T14:02:18Z</time>
      </trkpt>
      <trkpt lat="47.28785" lon="-1.6618">
        <ele>70.2</ele>
        <time>2011-07-28T14:02:19Z</time>
      </trkpt>
      <trkpt lat="47.28788" lon="-1.66176">
        <ele>70.2</ele>
        <time>2011-07-28T14:02:20Z</time>
      </trkpt>
      <trkpt lat="47.2879" lon="-1.66173">
        <ele>70.1</ele>
        <time>2011-07-28T14:02:21Z</time>
      </trkpt>
      <trkpt lat="47.28792" lon="-1.66169">
        <ele>70</ele>
        <time>2011-07-28T14:02:22Z</time>
      </trkpt>
      <trkpt lat="47.28795" lon="-1.66166">
        <ele>69.9</ele>
        <time>2011-07-28T14:02:23Z</time>
      </trkpt>
      <trkpt lat="47.28797" lon="-1.66163">
        <ele>69.8</ele>
        <time>2011-07-28T14:02:24Z</time>
      </trkpt>
      <trkpt lat="47.288" lon="-1.6616">
        <ele>70</ele>
        <time>2011-07-28T14:02:25Z</time>
      </trkpt>
      <trkpt lat="47.28802" lon="-1.66156">
        <ele>70.2</ele>
        <time>2011-07-28T14:02:26Z</time>
      </trkpt>
      <trkpt lat="47.28804" lon="-1.66152">
        <ele>70.3</ele>
        <time>2011-07-28T14:02:27Z</time>
      </trkpt>
      <trkpt lat="47.28806" lon="-1.66148">
        <ele>69.9</ele>
        <time>2011-07-28T14:02:28Z</time>
      </trkpt>
      <trkpt lat="47.28809" lon="-1.66145">
        <ele>69.6</ele>
        <time>2011-07-28T14:02:29Z</time>
      </trkpt>
      <trkpt lat="47.28811" lon="-1.66141">
        <ele>69.4</ele>
        <time>2011-07-28T14:02:30Z</time>
      </trkpt>
      <trkpt lat="47.28814" lon="-1.66137">
        <ele>69.5</ele>
        <time>2011-07-28T14:02:31Z</time>
      </trkpt>
      <trkpt lat="47.28817" lon="-1.66134">
        <ele>69.6</ele>
        <time>2011-07-28T14:02:32Z</time>
      </trkpt>
      <trkpt lat="47.28819" lon="-1.6613">
        <ele>69.7</ele>
        <time>2011-07-28T14:02:33Z</time>
      </trkpt>
      <trkpt lat="47.28821" lon="-1.66127">
        <ele>69.7</ele>
        <time>2011-07-28T14:02:34Z</time>
      </trkpt>
      <trkpt lat="47.28823" lon="-1.66123">
        <ele>69.8</ele>
        <time>2011-07-28T14:02:35Z</time>
      </trkpt>
      <trkpt lat="47.28826" lon="-1.6612">
        <ele>69.9</ele>
        <time>2011-07-28T14:02:36Z</time>
      </trkpt>
      <trkpt lat="47.28828" lon="-1.66117">
        <ele>69.9</ele>
        <time>2011-07-28T14:02:37Z</time>
      </trkpt>
      <trkpt lat="47.2883" lon="-1.66113">
        <ele>69.8</ele>
        <time>2011-07-28T14:02:38Z</time>
      </trkpt>
      <trkpt lat="47.28832" lon="-1.6611">
        <ele>69.8</ele>
        <time>2011-07-28T14:02:39Z</time>
      </trkpt>
      <trkpt lat="47.28834" lon="-1.66106">
        <ele>69.7</ele>
        <time>2011-07-28T14:02:40Z</time>
      </trkpt>
      <trkpt lat="47.28837" lon="-1.66102">
        <ele>69.9</ele>
        <time>2011-07-28T14:02:41Z</time>
      </trkpt>
      <trkpt lat="47.28839" lon="-1.66099">
        <ele>70</ele>
        <time>2011-07-28T14:02:42Z</time>
      </trkpt>
      <trkpt lat="47.28841" lon="-1.66095">
        <ele>70.1</ele>
        <time>2011-07-28T14:02:43Z</time>
      </trkpt>
      <trkpt lat="47.28844" lon="-1.66091">
        <ele>69.8</ele>
        <time>2011-07-28T14:02:44Z</time>
      </trkpt>
      <trkpt lat="47.28847" lon="-1.66087">
        <ele>69.6</ele>
        <time>2011-07-28T14:02:45Z</time>
      </trkpt>
      <trkpt lat="47.28849" lon="-1.66084">
        <ele>69.5</ele>
        <time>2011-07-28T14:02:46Z</time>
      </trkpt>
      <trkpt lat="47.28851" lon="-1.6608">
        <ele>69.7</ele>
        <time>2011-07-28T14:02:47Z</time>
      </trkpt>
      <trkpt lat="47.28854" lon="-1.66077">
        <ele>69.9</ele>
        <time>2011-07-28T14:02:48Z</time>
      </trkpt>
      <trkpt lat="47.28856" lon="-1.66073">
        <ele>70.1</ele>
        <time>2011-07-28T14:02:49Z</time>
      </trkpt>
      <trkpt lat="47.28859" lon="-1.66069">
        <ele>70.2</ele>
        <time>2011-07-28T14:02:50Z</time>
      </trkpt>
      <trkpt lat="47.28861" lon="-1.66065">
        <ele>70.2</ele>
        <time>2011-07-28T14:02:51Z</time>
      </trkpt>
      <trkpt lat="47.28863" lon="-1.66061">
        <ele>70.3</ele>
        <time>2011-07-28T14:02:52Z</time>
      </trkpt>
      <trkpt lat="47.28866" lon="-1.66058">
        <ele>70.3</ele>
        <time>2011-07-28T14:02:53Z</time>
      </trkpt>
      <trkpt lat="47.28868" lon="-1.66054">
        <ele>70.1</ele>
        <time>2011-07-28T14:02:54Z</time>
      </trkpt>
      <trkpt lat="47.2887" lon="-1.66051">
        <ele>70</ele>
        <time>2011-07-28T14:02:55Z</time>
      </trkpt>
      <trkpt lat="47.28872" lon="-1.66047">
        <ele>69.9</ele>
        <time>2011-07-28T14:02:56Z</time>
      </trkpt>
      <trkpt lat="47.28874" lon="-1.66044">
        <ele>69.8</ele>
        <time>2011-07-28T14:02:57Z</time>
      </trkpt>
      <trkpt lat="47.28877" lon="-1.6604">
        <ele>69.7</ele>
        <time>2011-07-28T14:02:58Z</time>
      </trkpt>
      <trkpt lat="47.28879" lon="-1.66036">
        <ele>69.6</ele>
        <time>2011-07-28T14:02:59Z</time>
      </trkpt>
      <trkpt lat="47.28882" lon="-1.66032">
        <ele>69.6</ele>
        <time>2011-07-28T14:03:00Z</time>
      </trkpt>
      <trkpt lat="47.28885" lon="-1.66029">
        <ele>69.6</ele>
        <time>2011-07-28T14:03:01Z</time>
      </trkpt>
      <trkpt lat="47.28888" lon="-1.66025">
        <ele>69.6</ele>
        <time>2011-07-28T14:03:02Z</time>
      </trkpt>
      <trkpt lat="47.28891" lon="-1.66021">
        <ele>69.8</ele>
        <time>2011-07-28T14:03:03Z</time>
      </trkpt>
      <trkpt lat="47.28894" lon="-1.66017">
        <ele>70</ele>
        <time>2011-07-28T14:03:04Z</time>
      </trkpt>
      <trkpt lat="47.28897" lon="-1.66013">
        <ele>70.1</ele>
        <time>2011-07-28T14:03:05Z</time>
      </trkpt>
      <trkpt lat="47.289" lon="-1.66009">
        <ele>70.2</ele>
        <time>2011-07-28T14:03:06Z</time>
      </trkpt>
      <trkpt lat="47.28902" lon="-1.66005">
        <ele>70.2</ele>
        <time>2011-07-28T14:03:07Z</time>
      </trkpt>
      <trkpt lat="47.28905" lon="-1.66001">
        <ele>70.1</ele>
        <time>2011-07-28T14:03:08Z</time>
      </trkpt>
      <trkpt lat="47.28908" lon="-1.65997">
        <ele>70.1</ele>
        <time>2011-07-28T14:03:09Z</time>
      </trkpt>
      <trkpt lat="47.2891" lon="-1.65994">
        <ele>70.3</ele>
        <time>2011-07-28T14:03:10Z</time>
      </trkpt>
      <trkpt lat="47.28913" lon="-1.6599">
        <ele>70.4</ele>
        <time>2011-07-28T14:03:11Z</time>
      </trkpt>
      <trkpt lat="47.28915" lon="-1.65987">
        <ele>70.5</ele>
        <time>2011-07-28T14:03:12Z</time>
      </trkpt>
      <trkpt lat="47.28918" lon="-1.65984">
        <ele>70.3</ele>
        <time>2011-07-28T14:03:13Z</time>
      </trkpt>
      <trkpt lat="47.2892" lon="-1.65982">
        <ele>70.2</ele>
        <time>2011-07-28T14:03:14Z</time>
      </trkpt>
      <trkpt lat="47.28923" lon="-1.65981">
        <ele>70.1</ele>
        <time>2011-07-28T14:03:15Z</time>
      </trkpt>
      <trkpt lat="47.28925" lon="-1.65981">
        <ele>70</ele>
        <time>2011-07-28T14:03:16Z</time>
      </trkpt>
      <trkpt lat="47.28927" lon="-1.65982">
        <ele>70</ele>
        <time>2011-07-28T14:03:17Z</time>
      </trkpt>
      <trkpt lat="47.2893" lon="-1.65983">
        <ele>69.9</ele>
        <time>2011-07-28T14:03:18Z</time>
      </trkpt>
      <trkpt lat="47.28932" lon="-1.65984">
        <ele>70.3</ele>
        <time>2011-07-28T14:03:19Z</time>
      </trkpt>
      <trkpt lat="47.28934" lon="-1.65985">
        <ele>70.7</ele>
        <time>2011-07-28T14:03:20Z</time>
      </trkpt>
      <trkpt lat="47.28936" lon="-1.65987">
        <ele>70.9</ele>
        <time>2011-07-28T14:03:21Z</time>
      </trkpt>
      <trkpt lat="47.28938" lon="-1.65989">
        <ele>70.7</ele>
        <time>2011-07-28T14:03:22Z</time>
      </trkpt>
      <trkpt lat="47.28941" lon="-1.6599">
        <ele>70.5</ele>
        <time>2011-07-28T14:03:23Z</time>
      </trkpt>
      <trkpt lat="47.28943" lon="-1.65992">
        <ele>70.4</ele>
        <time>2011-07-28T14:03:24Z</time>
      </trkpt>
      <trkpt lat="47.28947" lon="-1.65995">
        <ele>70.7</ele>
        <time>2011-07-28T14:03:26Z</time>
      </trkpt>
      <trkpt lat="47.28951" lon="-1.65998">
        <ele>71.3</ele>
        <time>2011-07-28T14:03:28Z</time>
      </trkpt>
      <trkpt lat="47.28953" lon="-1.66">
        <ele>71.3</ele>
        <time>2011-07-28T14:03:29Z</time>
      </trkpt>
      <trkpt lat="47.28955" lon="-1.66001">
        <ele>71.3</ele>
        <time>2011-07-28T14:03:30Z</time>
      </trkpt>
      <trkpt lat="47.28957" lon="-1.66003">
        <ele>71.3</ele>
        <time>2011-07-28T14:03:31Z</time>
      </trkpt>
      <trkpt lat="47.28959" lon="-1.66005">
        <ele>71.1</ele>
        <time>2011-07-28T14:03:32Z</time>
      </trkpt>
      <trkpt lat="47.28963" lon="-1.66008">
        <ele>70.8</ele>
        <time>2011-07-28T14:03:34Z</time>
      </trkpt>
      <trkpt lat="47.28965" lon="-1.66009">
        <ele>70.6</ele>
        <time>2011-07-28T14:03:35Z</time>
      </trkpt>
      <trkpt lat="47.28967" lon="-1.66011">
        <ele>70.5</ele>
        <time>2011-07-28T14:03:36Z</time>
      </trkpt>
      <trkpt lat="47.28969" lon="-1.66013">
        <ele>70.4</ele>
        <time>2011-07-28T14:03:37Z</time>
      </trkpt>
      <trkpt lat="47.28971" lon="-1.66015">
        <ele>70.6</ele>
        <time>2011-07-28T14:03:38Z</time>
      </trkpt>
      <trkpt lat="47.28973" lon="-1.66017">
        <ele>70.7</ele>
        <time>2011-07-28T14:03:39Z</time>
      </trkpt>
      <trkpt lat="47.28976" lon="-1.66019">
        <ele>70.8</ele>
        <time>2011-07-28T14:03:40Z</time>
      </trkpt>
      <trkpt lat="47.28978" lon="-1.66022">
        <ele>70.9</ele>
        <time>2011-07-28T14:03:41Z</time>
      </trkpt>
      <trkpt lat="47.2898" lon="-1.66025">
        <ele>71.2</ele>
        <time>2011-07-28T14:03:42Z</time>
      </trkpt>
      <trkpt lat="47.28983" lon="-1.66027">
        <ele>71.5</ele>
        <time>2011-07-28T14:03:43Z</time>
      </trkpt>
      <trkpt lat="47.28985" lon="-1.6603">
        <ele>71.6</ele>
        <time>2011-07-28T14:03:44Z</time>
      </trkpt>
      <trkpt lat="47.28988" lon="-1.66033">
        <ele>71.4</ele>
        <time>2011-07-28T14:03:45Z</time>
      </trkpt>
      <trkpt lat="47.2899" lon="-1.66035">
        <ele>71.2</ele>
        <time>2011-07-28T14:03:46Z</time>
      </trkpt>
      <trkpt lat="47.28993" lon="-1.66039">
        <ele>71.1</ele>
        <time>2011-07-28T14:03:47Z</time>
      </trkpt>
      <trkpt lat="47.28996" lon="-1.66042">
        <ele>71.3</ele>
        <time>2011-07-28T14:03:48Z</time>
      </trkpt>
      <trkpt lat="47.28998" lon="-1.66045">
        <ele>71.5</ele>
        <time>2011-07-28T14:03:49Z</time>
      </trkpt>
      <trkpt lat="47.29" lon="-1.66048">
        <ele>71.6</ele>
        <time>2011-07-28T14:03:50Z</time>
      </trkpt>
      <trkpt lat="47.29003" lon="-1.66051">
        <ele>71.5</ele>
        <time>2011-07-28T14:03:51Z</time>
      </trkpt>
      <trkpt lat="47.29006" lon="-1.66054">
        <ele>71.4</ele>
        <time>2011-07-28T14:03:52Z</time>
      </trkpt>
      <trkpt lat="47.29008" lon="-1.66057">
        <ele>71.3</ele>
        <time>2011-07-28T14:03:53Z</time>
      </trkpt>
      <trkpt lat="47.29011" lon="-1.66061">
        <ele>71.4</ele>
        <time>2011-07-28T14:03:54Z</time>
      </trkpt>
      <trkpt lat="47.29014" lon="-1.66064">
        <ele>71.5</ele>
        <time>2011-07-28T14:03:55Z</time>
      </trkpt>
      <trkpt lat="47.29016" lon="-1.66067">
        <ele>71.5</ele>
        <time>2011-07-28T14:03:56Z</time>
      </trkpt>
      <trkpt lat="47.29019" lon="-1.66071">
        <ele>71.5</ele>
        <time>2011-07-28T14:03:57Z</time>
      </trkpt>
      <trkpt lat="47.29021" lon="-1.66074">
        <ele>71.4</ele>
        <time>2011-07-28T14:03:58Z</time>
      </trkpt>
      <trkpt lat="47.29024" lon="-1.66078">
        <ele>71.3</ele>
        <time>2011-07-28T14:03:59Z</time>
      </trkpt>
      <trkpt lat="47.29027" lon="-1.66082">
        <ele>71.3</ele>
        <time>2011-07-28T14:04:00Z</time>
      </trkpt>
      <trkpt lat="47.29029" lon="-1.66086">
        <ele>71.6</ele>
        <time>2011-07-28T14:04:01Z</time>
      </trkpt>
      <trkpt lat="47.29031" lon="-1.6609">
        <ele>71.8</ele>
        <time>2011-07-28T14:04:02Z</time>
      </trkpt>
      <trkpt lat="47.29034" lon="-1.66093">
        <ele>71.9</ele>
        <time>2011-07-28T14:04:03Z</time>
      </trkpt>
      <trkpt lat="47.29036" lon="-1.66097">
        <ele>71.7</ele>
        <time>2011-07-28T14:04:04Z</time>
      </trkpt>
      <trkpt lat="47.29039" lon="-1.66101">
        <ele>71.5</ele>
        <time>2011-07-28T14:04:05Z</time>
      </trkpt>
      <trkpt lat="47.29041" lon="-1.66105">
        <ele>71.4</ele>
        <time>2011-07-28T14:04:06Z</time>
      </trkpt>
      <trkpt lat="47.29044" lon="-1.66109">
        <ele>71.1</ele>
        <time>2011-07-28T14:04:07Z</time>
      </trkpt>
      <trkpt lat="47.29046" lon="-1.66113">
        <ele>70.9</ele>
        <time>2011-07-28T14:04:08Z</time>
      </trkpt>
      <trkpt lat="47.29049" lon="-1.66116">
        <ele>70.7</ele>
        <time>2011-07-28T14:04:09Z</time>
      </trkpt>
      <trkpt lat="47.29052" lon="-1.6612">
        <ele>70.6</ele>
        <time>2011-07-28T14:04:10Z</time>
      </trkpt>
      <trkpt lat="47.29054" lon="-1.66124">
        <ele>70.5</ele>
        <time>2011-07-28T14:04:11Z</time>
      </trkpt>
      <trkpt lat="47.29057" lon="-1.66128">
        <ele>70.5</ele>
        <time>2011-07-28T14:04:12Z</time>
      </trkpt>
      <trkpt lat="47.2906" lon="-1.66132">
        <ele>70.4</ele>
        <time>2011-07-28T14:04:13Z</time>
      </trkpt>
      <trkpt lat="47.29063" lon="-1.66136">
        <ele>70.4</ele>
        <time>2011-07-28T14:04:14Z</time>
      </trkpt>
      <trkpt lat="47.29066" lon="-1.6614">
        <ele>70.4</ele>
        <time>2011-07-28T14:04:15Z</time>
      </trkpt>
      <trkpt lat="47.29069" lon="-1.66144">
        <ele>70.3</ele>
        <time>2011-07-28T14:04:16Z</time>
      </trkpt>
      <trkpt lat="47.29071" lon="-1.66149">
        <ele>70.4</ele>
        <time>2011-07-28T14:04:17Z</time>
      </trkpt>
      <trkpt lat="47.29074" lon="-1.66154">
        <ele>70.4</ele>
        <time>2011-07-28T14:04:18Z</time>
      </trkpt>
      <trkpt lat="47.29077" lon="-1.66159">
        <ele>70.4</ele>
        <time>2011-07-28T14:04:19Z</time>
      </trkpt>
      <trkpt lat="47.2908" lon="-1.66163">
        <ele>70.5</ele>
        <time>2011-07-28T14:04:20Z</time>
      </trkpt>
      <trkpt lat="47.29083" lon="-1.66168">
        <ele>70.5</ele>
        <time>2011-07-28T14:04:21Z</time>
      </trkpt>
      <trkpt lat="47.29086" lon="-1.66172">
        <ele>70.5</ele>
        <time>2011-07-28T14:04:22Z</time>
      </trkpt>
      <trkpt lat="47.29089" lon="-1.66177">
        <ele>70.6</ele>
        <time>2011-07-28T14:04:23Z</time>
      </trkpt>
      <trkpt lat="47.29092" lon="-1.66181">
        <ele>70.7</ele>
        <time>2011-07-28T14:04:24Z</time>
      </trkpt>
      <trkpt lat="47.29095" lon="-1.66185">
        <ele>70.8</ele>
        <time>2011-07-28T14:04:25Z</time>
      </trkpt>
      <trkpt lat="47.29097" lon="-1.66189">
        <ele>70.8</ele>
        <time>2011-07-28T14:04:26Z</time>
      </trkpt>
      <trkpt lat="47.291" lon="-1.66194">
        <ele>70.8</ele>
        <time>2011-07-28T14:04:27Z</time>
      </trkpt>
      <trkpt lat="47.29102" lon="-1.66198">
        <ele>70.8</ele>
        <time>2011-07-28T14:04:28Z</time>
      </trkpt>
      <trkpt lat="47.29105" lon="-1.66202">
        <ele>70.8</ele>
        <time>2011-07-28T14:04:29Z</time>
      </trkpt>
      <trkpt lat="47.29108" lon="-1.66205">
        <ele>70.8</ele>
        <time>2011-07-28T14:04:30Z</time>
      </trkpt>
      <trkpt lat="47.29111" lon="-1.66206">
        <ele>70.9</ele>
        <time>2011-07-28T14:04:31Z</time>
      </trkpt>
      <trkpt lat="47.29115" lon="-1.66206">
        <ele>70.9</ele>
        <time>2011-07-28T14:04:32Z</time>
      </trkpt>
      <trkpt lat="47.29119" lon="-1.66206">
        <ele>70.6</ele>
        <time>2011-07-28T14:04:33Z</time>
      </trkpt>
      <trkpt lat="47.29122" lon="-1.66205">
        <ele>70.4</ele>
        <time>2011-07-28T14:04:34Z</time>
      </trkpt>
      <trkpt lat="47.29126" lon="-1.66204">
        <ele>70.3</ele>
        <time>2011-07-28T14:04:35Z</time>
      </trkpt>
      <trkpt lat="47.2913" lon="-1.66203">
        <ele>70</ele>
        <time>2011-07-28T14:04:36Z</time>
      </trkpt>
      <trkpt lat="47.29133" lon="-1.66202">
        <ele>69.8</ele>
        <time>2011-07-28T14:04:37Z</time>
      </trkpt>
      <trkpt lat="47.29137" lon="-1.66201">
        <ele>69.7</ele>
        <time>2011-07-28T14:04:38Z</time>
      </trkpt>
      <trkpt lat="47.29141" lon="-1.662">
        <ele>69.6</ele>
        <time>2011-07-28T14:04:39Z</time>
      </trkpt>
      <trkpt lat="47.29145" lon="-1.66198">
        <ele>69.5</ele>
        <time>2011-07-28T14:04:40Z</time>
      </trkpt>
      <trkpt lat="47.29149" lon="-1.66197">
        <ele>69.4</ele>
        <time>2011-07-28T14:04:41Z</time>
      </trkpt>
      <trkpt lat="47.29152" lon="-1.66196">
        <ele>69.1</ele>
        <time>2011-07-28T14:04:42Z</time>
      </trkpt>
      <trkpt lat="47.29156" lon="-1.66195">
        <ele>68.9</ele>
        <time>2011-07-28T14:04:43Z</time>
      </trkpt>
      <trkpt lat="47.29159" lon="-1.66195">
        <ele>68.8</ele>
        <time>2011-07-28T14:04:44Z</time>
      </trkpt>
      <trkpt lat="47.29162" lon="-1.66194">
        <ele>68.6</ele>
        <time>2011-07-28T14:04:45Z</time>
      </trkpt>
      <trkpt lat="47.29166" lon="-1.66195">
        <ele>68.5</ele>
        <time>2011-07-28T14:04:46Z</time>
      </trkpt>
      <trkpt lat="47.29169" lon="-1.66196">
        <ele>68.5</ele>
        <time>2011-07-28T14:04:47Z</time>
      </trkpt>
      <trkpt lat="47.29172" lon="-1.66199">
        <ele>68.4</ele>
        <time>2011-07-28T14:04:48Z</time>
      </trkpt>
      <trkpt lat="47.29174" lon="-1.66202">
        <ele>68.9</ele>
        <time>2011-07-28T14:04:49Z</time>
      </trkpt>
      <trkpt lat="47.29177" lon="-1.66205">
        <ele>69.2</ele>
        <time>2011-07-28T14:04:50Z</time>
      </trkpt>
      <trkpt lat="47.2918" lon="-1.66208">
        <ele>69.5</ele>
        <time>2011-07-28T14:04:51Z</time>
      </trkpt>
      <trkpt lat="47.29182" lon="-1.66212">
        <ele>69.7</ele>
        <time>2011-07-28T14:04:52Z</time>
      </trkpt>
      <trkpt lat="47.29185" lon="-1.66215">
        <ele>69.8</ele>
        <time>2011-07-28T14:04:53Z</time>
      </trkpt>
      <trkpt lat="47.29187" lon="-1.66219">
        <ele>69.9</ele>
        <time>2011-07-28T14:04:54Z</time>
      </trkpt>
      <trkpt lat="47.2919" lon="-1.66222">
        <ele>69.8</ele>
        <time>2011-07-28T14:04:55Z</time>
      </trkpt>
      <trkpt lat="47.29193" lon="-1.66226">
        <ele>69.8</ele>
        <time>2011-07-28T14:04:56Z</time>
      </trkpt>
      <trkpt lat="47.29195" lon="-1.66229">
        <ele>69.8</ele>
        <time>2011-07-28T14:04:57Z</time>
      </trkpt>
      <trkpt lat="47.29198" lon="-1.66233">
        <ele>69.1</ele>
        <time>2011-07-28T14:04:58Z</time>
      </trkpt>
      <trkpt lat="47.29201" lon="-1.66237">
        <ele>68.6</ele>
        <time>2011-07-28T14:04:59Z</time>
      </trkpt>
      <trkpt lat="47.29204" lon="-1.66241">
        <ele>68.3</ele>
        <time>2011-07-28T14:05:00Z</time>
      </trkpt>
      <trkpt lat="47.29207" lon="-1.66244">
        <ele>68.6</ele>
        <time>2011-07-28T14:05:01Z</time>
      </trkpt>
      <trkpt lat="47.2921" lon="-1.66248">
        <ele>68.8</ele>
        <time>2011-07-28T14:05:02Z</time>
      </trkpt>
      <trkpt lat="47.29212" lon="-1.66251">
        <ele>69</ele>
        <time>2011-07-28T14:05:03Z</time>
      </trkpt>
      <trkpt lat="47.29215" lon="-1.66255">
        <ele>69.1</ele>
        <time>2011-07-28T14:05:04Z</time>
      </trkpt>
      <trkpt lat="47.29218" lon="-1.66259">
        <ele>69</ele>
        <time>2011-07-28T14:05:05Z</time>
      </trkpt>
      <trkpt lat="47.2922" lon="-1.66262">
        <ele>68.9</ele>
        <time>2011-07-28T14:05:06Z</time>
      </trkpt>
      <trkpt lat="47.29222" lon="-1.66267">
        <ele>68.9</ele>
        <time>2011-07-28T14:05:07Z</time>
      </trkpt>
      <trkpt lat="47.29224" lon="-1.66271">
        <ele>68.9</ele>
        <time>2011-07-28T14:05:08Z</time>
      </trkpt>
      <trkpt lat="47.29226" lon="-1.66275">
        <ele>68.9</ele>
        <time>2011-07-28T14:05:09Z</time>
      </trkpt>
      <trkpt lat="47.29227" lon="-1.66279">
        <ele>68.9</ele>
        <time>2011-07-28T14:05:10Z</time>
      </trkpt>
      <trkpt lat="47.29229" lon="-1.66283">
        <ele>68.7</ele>
        <time>2011-07-28T14:05:11Z</time>
      </trkpt>
      <trkpt lat="47.2923" lon="-1.66288">
        <ele>68.6</ele>
        <time>2011-07-28T14:05:12Z</time>
      </trkpt>
      <trkpt lat="47.29231" lon="-1.66293">
        <ele>68.5</ele>
        <time>2011-07-28T14:05:13Z</time>
      </trkpt>
      <trkpt lat="47.29232" lon="-1.66298">
        <ele>68.6</ele>
        <time>2011-07-28T14:05:14Z</time>
      </trkpt>
      <trkpt lat="47.29233" lon="-1.66303">
        <ele>68.7</ele>
        <time>2011-07-28T14:05:15Z</time>
      </trkpt>
      <trkpt lat="47.29234" lon="-1.66308">
        <ele>68.7</ele>
        <time>2011-07-28T14:05:16Z</time>
      </trkpt>
      <trkpt lat="47.29235" lon="-1.66312">
        <ele>68.8</ele>
        <time>2011-07-28T14:05:17Z</time>
      </trkpt>
      <trkpt lat="47.29236" lon="-1.66317">
        <ele>68.9</ele>
        <time>2011-07-28T14:05:18Z</time>
      </trkpt>
      <trkpt lat="47.29236" lon="-1.66321">
        <ele>69</ele>
        <time>2011-07-28T14:05:19Z</time>
      </trkpt>
      <trkpt lat="47.29237" lon="-1.66326">
        <ele>69</ele>
        <time>2011-07-28T14:05:20Z</time>
      </trkpt>
      <trkpt lat="47.29237" lon="-1.66331">
        <ele>69.2</ele>
        <time>2011-07-28T14:05:21Z</time>
      </trkpt>
      <trkpt lat="47.29238" lon="-1.66335">
        <ele>69.3</ele>
        <time>2011-07-28T14:05:22Z</time>
      </trkpt>
      <trkpt lat="47.29239" lon="-1.6634">
        <ele>69.4</ele>
        <time>2011-07-28T14:05:23Z</time>
      </trkpt>
      <trkpt lat="47.2924" lon="-1.66344">
        <ele>69.5</ele>
        <time>2011-07-28T14:05:24Z</time>
      </trkpt>
      <trkpt lat="47.29241" lon="-1.66348">
        <ele>69.6</ele>
        <time>2011-07-28T14:05:25Z</time>
      </trkpt>
      <trkpt lat="47.29242" lon="-1.66353">
        <ele>69.6</ele>
        <time>2011-07-28T14:05:26Z</time>
      </trkpt>
      <trkpt lat="47.29244" lon="-1.66357">
        <ele>69.8</ele>
        <time>2011-07-28T14:05:27Z</time>
      </trkpt>
      <trkpt lat="47.29245" lon="-1.66361">
        <ele>69.9</ele>
        <time>2011-07-28T14:05:28Z</time>
      </trkpt>
      <trkpt lat="47.29247" lon="-1.66366">
        <ele>70</ele>
        <time>2011-07-28T14:05:29Z</time>
      </trkpt>
      <trkpt lat="47.2925" lon="-1.6637">
        <ele>69.6</ele>
        <time>2011-07-28T14:05:30Z</time>
      </trkpt>
      <trkpt lat="47.29252" lon="-1.66374">
        <ele>69.4</ele>
        <time>2011-07-28T14:05:31Z</time>
      </trkpt>
      <trkpt lat="47.29255" lon="-1.66379">
        <ele>69.2</ele>
        <time>2011-07-28T14:05:32Z</time>
      </trkpt>
      <trkpt lat="47.29257" lon="-1.66383">
        <ele>69.4</ele>
        <time>2011-07-28T14:05:33Z</time>
      </trkpt>
      <trkpt lat="47.2926" lon="-1.66386">
        <ele>69.5</ele>
        <time>2011-07-28T14:05:34Z</time>
      </trkpt>
      <trkpt lat="47.29262" lon="-1.6639">
        <ele>69.6</ele>
        <time>2011-07-28T14:05:35Z</time>
      </trkpt>
      <trkpt lat="47.29265" lon="-1.66394">
        <ele>69.7</ele>
        <time>2011-07-28T14:05:36Z</time>
      </trkpt>
      <trkpt lat="47.29267" lon="-1.66398">
        <ele>69.7</ele>
        <time>2011-07-28T14:05:37Z</time>
      </trkpt>
      <trkpt lat="47.2927" lon="-1.66402">
        <ele>69.7</ele>
        <time>2011-07-28T14:05:38Z</time>
      </trkpt>
      <trkpt lat="47.29273" lon="-1.66406">
        <ele>69.7</ele>
        <time>2011-07-28T14:05:39Z</time>
      </trkpt>
      <trkpt lat="47.29275" lon="-1.6641">
        <ele>69.5</ele>
        <time>2011-07-28T14:05:40Z</time>
      </trkpt>
      <trkpt lat="47.29278" lon="-1.66413">
        <ele>69.4</ele>
        <time>2011-07-28T14:05:41Z</time>
      </trkpt>
      <trkpt lat="47.2928" lon="-1.66416">
        <ele>69.3</ele>
        <time>2011-07-28T14:05:42Z</time>
      </trkpt>
      <trkpt lat="47.29283" lon="-1.6642">
        <ele>70.1</ele>
        <time>2011-07-28T14:05:43Z</time>
      </trkpt>
      <trkpt lat="47.29285" lon="-1.66423">
        <ele>70.6</ele>
        <time>2011-07-28T14:05:44Z</time>
      </trkpt>
      <trkpt lat="47.29288" lon="-1.66427">
        <ele>71</ele>
        <time>2011-07-28T14:05:45Z</time>
      </trkpt>
      <trkpt lat="47.2929" lon="-1.66431">
        <ele>71.3</ele>
        <time>2011-07-28T14:05:46Z</time>
      </trkpt>
      <trkpt lat="47.29292" lon="-1.66434">
        <ele>71.5</ele>
        <time>2011-07-28T14:05:47Z</time>
      </trkpt>
      <trkpt lat="47.29295" lon="-1.66438">
        <ele>71.7</ele>
        <time>2011-07-28T14:05:48Z</time>
      </trkpt>
      <trkpt lat="47.29297" lon="-1.66441">
        <ele>71.7</ele>
        <time>2011-07-28T14:05:49Z</time>
      </trkpt>
      <trkpt lat="47.29299" lon="-1.66445">
        <ele>71.8</ele>
        <time>2011-07-28T14:05:50Z</time>
      </trkpt>
      <trkpt lat="47.29302" lon="-1.66448">
        <ele>71.9</ele>
        <time>2011-07-28T14:05:51Z</time>
      </trkpt>
      <trkpt lat="47.29304" lon="-1.66452">
        <ele>71.9</ele>
        <time>2011-07-28T14:05:52Z</time>
      </trkpt>
      <trkpt lat="47.29306" lon="-1.66456">
        <ele>71.5</ele>
        <time>2011-07-28T14:05:53Z</time>
      </trkpt>
      <trkpt lat="47.29308" lon="-1.6646">
        <ele>71.2</ele>
        <time>2011-07-28T14:05:54Z</time>
      </trkpt>
      <trkpt lat="47.2931" lon="-1.66464">
        <ele>71</ele>
        <time>2011-07-28T14:05:55Z</time>
      </trkpt>
      <trkpt lat="47.29312" lon="-1.66468">
        <ele>71.2</ele>
        <time>2011-07-28T14:05:56Z</time>
      </trkpt>
      <trkpt lat="47.29315" lon="-1.66472">
        <ele>71.2</ele>
        <time>2011-07-28T14:05:57Z</time>
      </trkpt>
      <trkpt lat="47.29317" lon="-1.66476">
        <ele>71.3</ele>
        <time>2011-07-28T14:05:58Z</time>
      </trkpt>
      <trkpt lat="47.29319" lon="-1.6648">
        <ele>71.2</ele>
        <time>2011-07-28T14:05:59Z</time>
      </trkpt>
      <trkpt lat="47.29321" lon="-1.66484">
        <ele>71</ele>
        <time>2011-07-28T14:06:00Z</time>
      </trkpt>
      <trkpt lat="47.29323" lon="-1.66488">
        <ele>71</ele>
        <time>2011-07-28T14:06:01Z</time>
      </trkpt>
      <trkpt lat="47.29325" lon="-1.66493">
        <ele>71</ele>
        <time>2011-07-28T14:06:02Z</time>
      </trkpt>
      <trkpt lat="47.29327" lon="-1.66497">
        <ele>71</ele>
        <time>2011-07-28T14:06:03Z</time>
      </trkpt>
      <trkpt lat="47.29329" lon="-1.665">
        <ele>71</ele>
        <time>2011-07-28T14:06:04Z</time>
      </trkpt>
      <trkpt lat="47.2933" lon="-1.66502">
        <ele>71.1</ele>
        <time>2011-07-28T14:06:05Z</time>
      </trkpt>
      <trkpt lat="47.29331" lon="-1.66505">
        <ele>71.2</ele>
        <time>2011-07-28T14:06:06Z</time>
      </trkpt>
      <trkpt lat="47.29334" lon="-1.66511">
        <ele>71.6</ele>
        <time>2011-07-28T14:06:08Z</time>
      </trkpt>
      <trkpt lat="47.29336" lon="-1.66516">
        <ele>71.9</ele>
        <time>2011-07-28T14:06:16Z</time>
      </trkpt>
      <trkpt lat="47.29336" lon="-1.66523">
        <ele>72.7</ele>
        <time>2011-07-28T14:06:39Z</time>
      </trkpt>
      <trkpt lat="47.29336" lon="-1.66523">
        <ele>72.5</ele>
        <time>2011-07-28T14:06:40Z</time>
      </trkpt>
      <trkpt lat="47.29339" lon="-1.66531">
        <ele>71.8</ele>
        <time>2011-07-28T14:07:19Z</time>
      </trkpt>
      <trkpt lat="47.29342" lon="-1.66535">
        <ele>72.1</ele>
        <time>2011-07-28T14:07:21Z</time>
      </trkpt>
      <trkpt lat="47.29343" lon="-1.66539">
        <ele>72.5</ele>
        <time>2011-07-28T14:07:22Z</time>
      </trkpt>
      <trkpt lat="47.29345" lon="-1.66542">
        <ele>72.7</ele>
        <time>2011-07-28T14:07:23Z</time>
      </trkpt>
      <trkpt lat="47.29347" lon="-1.66546">
        <ele>72.9</ele>
        <time>2011-07-28T14:07:24Z</time>
      </trkpt>
      <trkpt lat="47.29349" lon="-1.66549">
        <ele>72.6</ele>
        <time>2011-07-28T14:07:25Z</time>
      </trkpt>
      <trkpt lat="47.2935" lon="-1.66553">
        <ele>72.3</ele>
        <time>2011-07-28T14:07:26Z</time>
      </trkpt>
      <trkpt lat="47.29352" lon="-1.66556">
        <ele>72.1</ele>
        <time>2011-07-28T14:07:27Z</time>
      </trkpt>
      <trkpt lat="47.29354" lon="-1.6656">
        <ele>72.3</ele>
        <time>2011-07-28T14:07:28Z</time>
      </trkpt>
      <trkpt lat="47.29355" lon="-1.66564">
        <ele>72.4</ele>
        <time>2011-07-28T14:07:29Z</time>
      </trkpt>
      <trkpt lat="47.29357" lon="-1.66567">
        <ele>72.5</ele>
        <time>2011-07-28T14:07:30Z</time>
      </trkpt>
      <trkpt lat="47.29359" lon="-1.6657">
        <ele>72.6</ele>
        <time>2011-07-28T14:07:31Z</time>
      </trkpt>
      <trkpt lat="47.2936" lon="-1.66573">
        <ele>72.6</ele>
        <time>2011-07-28T14:07:32Z</time>
      </trkpt>
      <trkpt lat="47.29362" lon="-1.66577">
        <ele>72.6</ele>
        <time>2011-07-28T14:07:33Z</time>
      </trkpt>
      <trkpt lat="47.29364" lon="-1.66581">
        <ele>72.6</ele>
        <time>2011-07-28T14:07:34Z</time>
      </trkpt>
      <trkpt lat="47.29366" lon="-1.66585">
        <ele>72.6</ele>
        <time>2011-07-28T14:07:35Z</time>
      </trkpt>
      <trkpt lat="47.29368" lon="-1.66589">
        <ele>72.5</ele>
        <time>2011-07-28T14:07:36Z</time>
      </trkpt>
      <trkpt lat="47.2937" lon="-1.66593">
        <ele>72.5</ele>
        <time>2011-07-28T14:07:37Z</time>
      </trkpt>
      <trkpt lat="47.29372" lon="-1.66597">
        <ele>72.8</ele>
        <time>2011-07-28T14:07:38Z</time>
      </trkpt>
      <trkpt lat="47.29374" lon="-1.66601">
        <ele>73</ele>
        <time>2011-07-28T14:07:39Z</time>
      </trkpt>
      <trkpt lat="47.29376" lon="-1.66605">
        <ele>73.2</ele>
        <time>2011-07-28T14:07:40Z</time>
      </trkpt>
      <trkpt lat="47.29378" lon="-1.66608">
        <ele>72.9</ele>
        <time>2011-07-28T14:07:41Z</time>
      </trkpt>
      <trkpt lat="47.2938" lon="-1.66612">
        <ele>72.7</ele>
        <time>2011-07-28T14:07:42Z</time>
      </trkpt>
      <trkpt lat="47.29382" lon="-1.66616">
        <ele>72.5</ele>
        <time>2011-07-28T14:07:43Z</time>
      </trkpt>
      <trkpt lat="47.29384" lon="-1.6662">
        <ele>72.7</ele>
        <time>2011-07-28T14:07:44Z</time>
      </trkpt>
      <trkpt lat="47.29386" lon="-1.66624">
        <ele>72.9</ele>
        <time>2011-07-28T14:07:45Z</time>
      </trkpt>
      <trkpt lat="47.29388" lon="-1.66628">
        <ele>73</ele>
        <time>2011-07-28T14:07:46Z</time>
      </trkpt>
      <trkpt lat="47.2939" lon="-1.66632">
        <ele>72.9</ele>
        <time>2011-07-28T14:07:47Z</time>
      </trkpt>
      <trkpt lat="47.29392" lon="-1.66635">
        <ele>72.8</ele>
        <time>2011-07-28T14:07:48Z</time>
      </trkpt>
      <trkpt lat="47.29394" lon="-1.66639">
        <ele>72.7</ele>
        <time>2011-07-28T14:07:49Z</time>
      </trkpt>
      <trkpt lat="47.29395" lon="-1.66643">
        <ele>72.7</ele>
        <time>2011-07-28T14:07:50Z</time>
      </trkpt>
      <trkpt lat="47.29397" lon="-1.66647">
        <ele>72.4</ele>
        <time>2011-07-28T14:07:51Z</time>
      </trkpt>
      <trkpt lat="47.29398" lon="-1.66651">
        <ele>72.1</ele>
        <time>2011-07-28T14:07:52Z</time>
      </trkpt>
      <trkpt lat="47.294" lon="-1.66655">
        <ele>72</ele>
        <time>2011-07-28T14:07:53Z</time>
      </trkpt>
      <trkpt lat="47.29401" lon="-1.66659">
        <ele>72.3</ele>
        <time>2011-07-28T14:07:54Z</time>
      </trkpt>
      <trkpt lat="47.29402" lon="-1.66663">
        <ele>72.5</ele>
        <time>2011-07-28T14:07:55Z</time>
      </trkpt>
      <trkpt lat="47.29402" lon="-1.66666">
        <ele>72.7</ele>
        <time>2011-07-28T14:07:56Z</time>
      </trkpt>
      <trkpt lat="47.29402" lon="-1.66669">
        <ele>72.8</ele>
        <time>2011-07-28T14:07:57Z</time>
      </trkpt>
      <trkpt lat="47.29402" lon="-1.66673">
        <ele>73</ele>
        <time>2011-07-28T14:07:58Z</time>
      </trkpt>
      <trkpt lat="47.29402" lon="-1.66676">
        <ele>73.1</ele>
        <time>2011-07-28T14:07:59Z</time>
      </trkpt>
      <trkpt lat="47.29403" lon="-1.6668">
        <ele>73.2</ele>
        <time>2011-07-28T14:08:00Z</time>
      </trkpt>
      <trkpt lat="47.29403" lon="-1.66683">
        <ele>73.3</ele>
        <time>2011-07-28T14:08:01Z</time>
      </trkpt>
      <trkpt lat="47.29404" lon="-1.66686">
        <ele>73.4</ele>
        <time>2011-07-28T14:08:02Z</time>
      </trkpt>
      <trkpt lat="47.29405" lon="-1.6669">
        <ele>73.4</ele>
        <time>2011-07-28T14:08:03Z</time>
      </trkpt>
      <trkpt lat="47.29405" lon="-1.66694">
        <ele>73.3</ele>
        <time>2011-07-28T14:08:04Z</time>
      </trkpt>
      <trkpt lat="47.29406" lon="-1.66698">
        <ele>73.3</ele>
        <time>2011-07-28T14:08:05Z</time>
      </trkpt>
      <trkpt lat="47.29406" lon="-1.66703">
        <ele>73.3</ele>
        <time>2011-07-28T14:08:06Z</time>
      </trkpt>
      <trkpt lat="47.29406" lon="-1.66706">
        <ele>73.3</ele>
        <time>2011-07-28T14:08:07Z</time>
      </trkpt>
      <trkpt lat="47.29406" lon="-1.6671">
        <ele>73.2</ele>
        <time>2011-07-28T14:08:08Z</time>
      </trkpt>
      <trkpt lat="47.29406" lon="-1.66713">
        <ele>73.2</ele>
        <time>2011-07-28T14:08:09Z</time>
      </trkpt>
      <trkpt lat="47.29407" lon="-1.66716">
        <ele>73.3</ele>
        <time>2011-07-28T14:08:10Z</time>
      </trkpt>
      <trkpt lat="47.29407" lon="-1.6672">
        <ele>73.4</ele>
        <time>2011-07-28T14:08:11Z</time>
      </trkpt>
      <trkpt lat="47.29408" lon="-1.66727">
        <ele>73.4</ele>
        <time>2011-07-28T14:08:13Z</time>
      </trkpt>
      <trkpt lat="47.29408" lon="-1.66732">
        <ele>73.4</ele>
        <time>2011-07-28T14:08:15Z</time>
      </trkpt>
      <trkpt lat="47.29408" lon="-1.66737">
        <ele>73.5</ele>
        <time>2011-07-28T14:08:17Z</time>
      </trkpt>
      <trkpt lat="47.29408" lon="-1.66743">
        <ele>73.3</ele>
        <time>2011-07-28T14:08:19Z</time>
      </trkpt>
      <trkpt lat="47.29408" lon="-1.66749">
        <ele>73</ele>
        <time>2011-07-28T14:08:21Z</time>
      </trkpt>
      <trkpt lat="47.29408" lon="-1.66752">
        <ele>72.9</ele>
        <time>2011-07-28T14:08:22Z</time>
      </trkpt>
      <trkpt lat="47.29408" lon="-1.66756">
        <ele>73</ele>
        <time>2011-07-28T14:08:23Z</time>
      </trkpt>
      <trkpt lat="47.29408" lon="-1.66759">
        <ele>73.1</ele>
        <time>2011-07-28T14:08:24Z</time>
      </trkpt>
      <trkpt lat="47.29408" lon="-1.66763">
        <ele>73.2</ele>
        <time>2011-07-28T14:08:25Z</time>
      </trkpt>
      <trkpt lat="47.29408" lon="-1.66766">
        <ele>73.3</ele>
        <time>2011-07-28T14:08:26Z</time>
      </trkpt>
      <trkpt lat="47.29408" lon="-1.6677">
        <ele>73.3</ele>
        <time>2011-07-28T14:08:27Z</time>
      </trkpt>
      <trkpt lat="47.29408" lon="-1.66774">
        <ele>73.4</ele>
        <time>2011-07-28T14:08:28Z</time>
      </trkpt>
      <trkpt lat="47.29408" lon="-1.66777">
        <ele>73.5</ele>
        <time>2011-07-28T14:08:29Z</time>
      </trkpt>
      <trkpt lat="47.29408" lon="-1.66781">
        <ele>73.6</ele>
        <time>2011-07-28T14:08:30Z</time>
      </trkpt>
      <trkpt lat="47.29408" lon="-1.66785">
        <ele>73.7</ele>
        <time>2011-07-28T14:08:31Z</time>
      </trkpt>
      <trkpt lat="47.29408" lon="-1.66789">
        <ele>73.6</ele>
        <time>2011-07-28T14:08:32Z</time>
      </trkpt>
      <trkpt lat="47.29408" lon="-1.66796">
        <ele>73.6</ele>
        <time>2011-07-28T14:08:34Z</time>
      </trkpt>
      <trkpt lat="47.29408" lon="-1.66799">
        <ele>73.5</ele>
        <time>2011-07-28T14:08:35Z</time>
      </trkpt>
      <trkpt lat="47.29408" lon="-1.66803">
        <ele>73.5</ele>
        <time>2011-07-28T14:08:36Z</time>
      </trkpt>
      <trkpt lat="47.29408" lon="-1.66806">
        <ele>73.4</ele>
        <time>2011-07-28T14:08:37Z</time>
      </trkpt>
      <trkpt lat="47.29408" lon="-1.6681">
        <ele>73.4</ele>
        <time>2011-07-28T14:08:38Z</time>
      </trkpt>
      <trkpt lat="47.29408" lon="-1.66815">
        <ele>73.7</ele>
        <time>2011-07-28T14:08:39Z</time>
      </trkpt>
      <trkpt lat="47.29408" lon="-1.66819">
        <ele>73.9</ele>
        <time>2011-07-28T14:08:40Z</time>
      </trkpt>
      <trkpt lat="47.29409" lon="-1.66824">
        <ele>74.1</ele>
        <time>2011-07-28T14:08:41Z</time>
      </trkpt>
      <trkpt lat="47.29409" lon="-1.66829">
        <ele>74.3</ele>
        <time>2011-07-28T14:08:42Z</time>
      </trkpt>
      <trkpt lat="47.29409" lon="-1.66834">
        <ele>74.4</ele>
        <time>2011-07-28T14:08:43Z</time>
      </trkpt>
      <trkpt lat="47.29409" lon="-1.66839">
        <ele>74.5</ele>
        <time>2011-07-28T14:08:44Z</time>
      </trkpt>
      <trkpt lat="47.29409" lon="-1.66844">
        <ele>74.4</ele>
        <time>2011-07-28T14:08:45Z</time>
      </trkpt>
      <trkpt lat="47.29409" lon="-1.66849">
        <ele>74.3</ele>
        <time>2011-07-28T14:08:46Z</time>
      </trkpt>
      <trkpt lat="47.29409" lon="-1.66854">
        <ele>74.2</ele>
        <time>2011-07-28T14:08:47Z</time>
      </trkpt>
      <trkpt lat="47.29409" lon="-1.66859">
        <ele>73.8</ele>
        <time>2011-07-28T14:08:48Z</time>
      </trkpt>
      <trkpt lat="47.29409" lon="-1.66863">
        <ele>73.5</ele>
        <time>2011-07-28T14:08:49Z</time>
      </trkpt>
      <trkpt lat="47.29409" lon="-1.66868">
        <ele>73.3</ele>
        <time>2011-07-28T14:08:50Z</time>
      </trkpt>
      <trkpt lat="47.2941" lon="-1.66873">
        <ele>73.3</ele>
        <time>2011-07-28T14:08:51Z</time>
      </trkpt>
      <trkpt lat="47.2941" lon="-1.66878">
        <ele>73.4</ele>
        <time>2011-07-28T14:08:52Z</time>
      </trkpt>
      <trkpt lat="47.2941" lon="-1.66882">
        <ele>73.4</ele>
        <time>2011-07-28T14:08:53Z</time>
      </trkpt>
      <trkpt lat="47.2941" lon="-1.66885">
        <ele>73.4</ele>
        <time>2011-07-28T14:08:54Z</time>
      </trkpt>
      <trkpt lat="47.2941" lon="-1.6689">
        <ele>73.5</ele>
        <time>2011-07-28T14:08:55Z</time>
      </trkpt>
      <trkpt lat="47.2941" lon="-1.66894">
        <ele>73.6</ele>
        <time>2011-07-28T14:08:56Z</time>
      </trkpt>
      <trkpt lat="47.29411" lon="-1.66898">
        <ele>73.7</ele>
        <time>2011-07-28T14:08:57Z</time>
      </trkpt>
      <trkpt lat="47.29411" lon="-1.66902">
        <ele>73.6</ele>
        <time>2011-07-28T14:08:58Z</time>
      </trkpt>
      <trkpt lat="47.29411" lon="-1.66906">
        <ele>73.5</ele>
        <time>2011-07-28T14:08:59Z</time>
      </trkpt>
      <trkpt lat="47.29412" lon="-1.66911">
        <ele>73.5</ele>
        <time>2011-07-28T14:09:00Z</time>
      </trkpt>
      <trkpt lat="47.29412" lon="-1.66915">
        <ele>73.7</ele>
        <time>2011-07-28T14:09:01Z</time>
      </trkpt>
      <trkpt lat="47.29414" lon="-1.66919">
        <ele>73.9</ele>
        <time>2011-07-28T14:09:02Z</time>
      </trkpt>
      <trkpt lat="47.29415" lon="-1.66923">
        <ele>74.1</ele>
        <time>2011-07-28T14:09:03Z</time>
      </trkpt>
      <trkpt lat="47.29417" lon="-1.66927">
        <ele>73.9</ele>
        <time>2011-07-28T14:09:04Z</time>
      </trkpt>
      <trkpt lat="47.29418" lon="-1.66931">
        <ele>73.8</ele>
        <time>2011-07-28T14:09:05Z</time>
      </trkpt>
      <trkpt lat="47.2942" lon="-1.66935">
        <ele>73.7</ele>
        <time>2011-07-28T14:09:06Z</time>
      </trkpt>
      <trkpt lat="47.29422" lon="-1.66939">
        <ele>74.2</ele>
        <time>2011-07-28T14:09:07Z</time>
      </trkpt>
      <trkpt lat="47.29425" lon="-1.66944">
        <ele>74.5</ele>
        <time>2011-07-28T14:09:08Z</time>
      </trkpt>
      <trkpt lat="47.29427" lon="-1.66948">
        <ele>74.8</ele>
        <time>2011-07-28T14:09:09Z</time>
      </trkpt>
      <trkpt lat="47.29429" lon="-1.66951">
        <ele>74.2</ele>
        <time>2011-07-28T14:09:10Z</time>
      </trkpt>
      <trkpt lat="47.29431" lon="-1.66955">
        <ele>73.8</ele>
        <time>2011-07-28T14:09:11Z</time>
      </trkpt>
      <trkpt lat="47.29433" lon="-1.66959">
        <ele>73.5</ele>
        <time>2011-07-28T14:09:12Z</time>
      </trkpt>
      <trkpt lat="47.29435" lon="-1.66962">
        <ele>73.3</ele>
        <time>2011-07-28T14:09:13Z</time>
      </trkpt>
      <trkpt lat="47.29437" lon="-1.66966">
        <ele>73.1</ele>
        <time>2011-07-28T14:09:14Z</time>
      </trkpt>
      <trkpt lat="47.29438" lon="-1.66969">
        <ele>73</ele>
        <time>2011-07-28T14:09:15Z</time>
      </trkpt>
      <trkpt lat="47.2944" lon="-1.66975">
        <ele>73.6</ele>
        <time>2011-07-28T14:09:20Z</time>
      </trkpt>
      <trkpt lat="47.2944" lon="-1.66982">
        <ele>73.3</ele>
        <time>2011-07-28T14:09:34Z</time>
      </trkpt>
      <trkpt lat="47.29441" lon="-1.66987">
        <ele>73.5</ele>
        <time>2011-07-28T14:09:46Z</time>
      </trkpt>
      <trkpt lat="47.29442" lon="-1.66989">
        <ele>73.7</ele>
        <time>2011-07-28T14:09:47Z</time>
      </trkpt>
      <trkpt lat="47.2944" lon="-1.66997">
        <ele>73.5</ele>
        <time>2011-07-28T14:09:50Z</time>
      </trkpt>
      <trkpt lat="47.29438" lon="-1.66999">
        <ele>73.3</ele>
        <time>2011-07-28T14:09:51Z</time>
      </trkpt>
      <trkpt lat="47.29435" lon="-1.67002">
        <ele>73.5</ele>
        <time>2011-07-28T14:09:52Z</time>
      </trkpt>
      <trkpt lat="47.29432" lon="-1.67005">
        <ele>73.5</ele>
        <time>2011-07-28T14:09:53Z</time>
      </trkpt>
      <trkpt lat="47.29429" lon="-1.6701">
        <ele>73.6</ele>
        <time>2011-07-28T14:09:54Z</time>
      </trkpt>
      <trkpt lat="47.29427" lon="-1.67015">
        <ele>73.8</ele>
        <time>2011-07-28T14:09:55Z</time>
      </trkpt>
      <trkpt lat="47.29425" lon="-1.6702">
        <ele>73.9</ele>
        <time>2011-07-28T14:09:56Z</time>
      </trkpt>
      <trkpt lat="47.29422" lon="-1.67025">
        <ele>74</ele>
        <time>2011-07-28T14:09:57Z</time>
      </trkpt>
      <trkpt lat="47.2942" lon="-1.67031">
        <ele>74.1</ele>
        <time>2011-07-28T14:09:58Z</time>
      </trkpt>
      <trkpt lat="47.29417" lon="-1.67037">
        <ele>74.2</ele>
        <time>2011-07-28T14:09:59Z</time>
      </trkpt>
      <trkpt lat="47.29415" lon="-1.67042">
        <ele>74.2</ele>
        <time>2011-07-28T14:10:00Z</time>
      </trkpt>
      <trkpt lat="47.29412" lon="-1.67047">
        <ele>74.3</ele>
        <time>2011-07-28T14:10:01Z</time>
      </trkpt>
      <trkpt lat="47.29409" lon="-1.67053">
        <ele>74.3</ele>
        <time>2011-07-28T14:10:02Z</time>
      </trkpt>
      <trkpt lat="47.29406" lon="-1.67058">
        <ele>74.4</ele>
        <time>2011-07-28T14:10:03Z</time>
      </trkpt>
      <trkpt lat="47.29404" lon="-1.67064">
        <ele>74.4</ele>
        <time>2011-07-28T14:10:04Z</time>
      </trkpt>
      <trkpt lat="47.29401" lon="-1.6707">
        <ele>74</ele>
        <time>2011-07-28T14:10:05Z</time>
      </trkpt>
      <trkpt lat="47.29398" lon="-1.67075">
        <ele>73.8</ele>
        <time>2011-07-28T14:10:06Z</time>
      </trkpt>
      <trkpt lat="47.29396" lon="-1.6708">
        <ele>73.6</ele>
        <time>2011-07-28T14:10:07Z</time>
      </trkpt>
      <trkpt lat="47.29393" lon="-1.67086">
        <ele>73.2</ele>
        <time>2011-07-28T14:10:08Z</time>
      </trkpt>
      <trkpt lat="47.2939" lon="-1.67091">
        <ele>72.9</ele>
        <time>2011-07-28T14:10:09Z</time>
      </trkpt>
      <trkpt lat="47.29388" lon="-1.67097">
        <ele>72.7</ele>
        <time>2011-07-28T14:10:10Z</time>
      </trkpt>
      <trkpt lat="47.29385" lon="-1.67103">
        <ele>73</ele>
        <time>2011-07-28T14:10:11Z</time>
      </trkpt>
      <trkpt lat="47.29382" lon="-1.67109">
        <ele>73.2</ele>
        <time>2011-07-28T14:10:12Z</time>
      </trkpt>
      <trkpt lat="47.2938" lon="-1.67115">
        <ele>73.3</ele>
        <time>2011-07-28T14:10:13Z</time>
      </trkpt>
      <trkpt lat="47.29377" lon="-1.67121">
        <ele>73.2</ele>
        <time>2011-07-28T14:10:14Z</time>
      </trkpt>
      <trkpt lat="47.29374" lon="-1.67126">
        <ele>73.1</ele>
        <time>2011-07-28T14:10:15Z</time>
      </trkpt>
      <trkpt lat="47.29372" lon="-1.67132">
        <ele>73.1</ele>
        <time>2011-07-28T14:10:16Z</time>
      </trkpt>
      <trkpt lat="47.29369" lon="-1.67138">
        <ele>73</ele>
        <time>2011-07-28T14:10:17Z</time>
      </trkpt>
      <trkpt lat="47.29366" lon="-1.67144">
        <ele>73.2</ele>
        <time>2011-07-28T14:10:18Z</time>
      </trkpt>
      <trkpt lat="47.29363" lon="-1.6715">
        <ele>73.4</ele>
        <time>2011-07-28T14:10:19Z</time>
      </trkpt>
      <trkpt lat="47.2936" lon="-1.67155">
        <ele>73.5</ele>
        <time>2011-07-28T14:10:20Z</time>
      </trkpt>
      <trkpt lat="47.29358" lon="-1.67161">
        <ele>73.2</ele>
        <time>2011-07-28T14:10:21Z</time>
      </trkpt>
      <trkpt lat="47.29355" lon="-1.67166">
        <ele>72.9</ele>
        <time>2011-07-28T14:10:22Z</time>
      </trkpt>
      <trkpt lat="47.29352" lon="-1.67172">
        <ele>72.7</ele>
        <time>2011-07-28T14:10:23Z</time>
      </trkpt>
      <trkpt lat="47.2935" lon="-1.67177">
        <ele>73</ele>
        <time>2011-07-28T14:10:24Z</time>
      </trkpt>
      <trkpt lat="47.29348" lon="-1.67182">
        <ele>73.2</ele>
        <time>2011-07-28T14:10:25Z</time>
      </trkpt>
      <trkpt lat="47.29346" lon="-1.67187">
        <ele>73.4</ele>
        <time>2011-07-28T14:10:26Z</time>
      </trkpt>
      <trkpt lat="47.29344" lon="-1.67193">
        <ele>73.6</ele>
        <time>2011-07-28T14:10:27Z</time>
      </trkpt>
      <trkpt lat="47.29342" lon="-1.67198">
        <ele>73.7</ele>
        <time>2011-07-28T14:10:28Z</time>
      </trkpt>
      <trkpt lat="47.2934" lon="-1.67203">
        <ele>73.8</ele>
        <time>2011-07-28T14:10:29Z</time>
      </trkpt>
      <trkpt lat="47.29338" lon="-1.67208">
        <ele>73.5</ele>
        <time>2011-07-28T14:10:30Z</time>
      </trkpt>
      <trkpt lat="47.29336" lon="-1.67213">
        <ele>73.2</ele>
        <time>2011-07-28T14:10:31Z</time>
      </trkpt>
      <trkpt lat="47.29333" lon="-1.67217">
        <ele>73</ele>
        <time>2011-07-28T14:10:32Z</time>
      </trkpt>
      <trkpt lat="47.29331" lon="-1.67222">
        <ele>73.2</ele>
        <time>2011-07-28T14:10:33Z</time>
      </trkpt>
      <trkpt lat="47.29329" lon="-1.67227">
        <ele>73.3</ele>
        <time>2011-07-28T14:10:34Z</time>
      </trkpt>
      <trkpt lat="47.29326" lon="-1.67232">
        <ele>73.5</ele>
        <time>2011-07-28T14:10:35Z</time>
      </trkpt>
      <trkpt lat="47.29324" lon="-1.67237">
        <ele>73.5</ele>
        <time>2011-07-28T14:10:36Z</time>
      </trkpt>
      <trkpt lat="47.29321" lon="-1.67242">
        <ele>73.4</ele>
        <time>2011-07-28T14:10:37Z</time>
      </trkpt>
      <trkpt lat="47.29318" lon="-1.67248">
        <ele>73.4</ele>
        <time>2011-07-28T14:10:38Z</time>
      </trkpt>
      <trkpt lat="47.29316" lon="-1.67254">
        <ele>73.3</ele>
        <time>2011-07-28T14:10:39Z</time>
      </trkpt>
      <trkpt lat="47.29317" lon="-1.67259">
        <ele>73.4</ele>
        <time>2011-07-28T14:10:40Z</time>
      </trkpt>
      <trkpt lat="47.29319" lon="-1.67263">
        <ele>73.4</ele>
        <time>2011-07-28T14:10:41Z</time>
      </trkpt>
      <trkpt lat="47.29322" lon="-1.67265">
        <ele>73.4</ele>
        <time>2011-07-28T14:10:42Z</time>
      </trkpt>
      <trkpt lat="47.29325" lon="-1.67268">
        <ele>73.3</ele>
        <time>2011-07-28T14:10:43Z</time>
      </trkpt>
      <trkpt lat="47.29328" lon="-1.67271">
        <ele>73.2</ele>
        <time>2011-07-28T14:10:44Z</time>
      </trkpt>
      <trkpt lat="47.2933" lon="-1.67274">
        <ele>73.1</ele>
        <time>2011-07-28T14:10:45Z</time>
      </trkpt>
      <trkpt lat="47.29333" lon="-1.67277">
        <ele>73.3</ele>
        <time>2011-07-28T14:10:46Z</time>
      </trkpt>
      <trkpt lat="47.29335" lon="-1.6728">
        <ele>73.4</ele>
        <time>2011-07-28T14:10:47Z</time>
      </trkpt>
      <trkpt lat="47.29338" lon="-1.67283">
        <ele>73.5</ele>
        <time>2011-07-28T14:10:48Z</time>
      </trkpt>
      <trkpt lat="47.2934" lon="-1.67285">
        <ele>73.5</ele>
        <time>2011-07-28T14:10:49Z</time>
      </trkpt>
      <trkpt lat="47.29343" lon="-1.67287">
        <ele>73.5</ele>
        <time>2011-07-28T14:10:50Z</time>
      </trkpt>
      <trkpt lat="47.29346" lon="-1.67289">
        <ele>73.4</ele>
        <time>2011-07-28T14:10:51Z</time>
      </trkpt>
      <trkpt lat="47.29349" lon="-1.67292">
        <ele>73.4</ele>
        <time>2011-07-28T14:10:52Z</time>
      </trkpt>
      <trkpt lat="47.29351" lon="-1.67295">
        <ele>73.3</ele>
        <time>2011-07-28T14:10:53Z</time>
      </trkpt>
      <trkpt lat="47.29353" lon="-1.67298">
        <ele>73.1</ele>
        <time>2011-07-28T14:10:54Z</time>
      </trkpt>
      <trkpt lat="47.29356" lon="-1.67301">
        <ele>73</ele>
        <time>2011-07-28T14:10:55Z</time>
      </trkpt>
      <trkpt lat="47.29359" lon="-1.67303">
        <ele>72.9</ele>
        <time>2011-07-28T14:10:56Z</time>
      </trkpt>
      <trkpt lat="47.29362" lon="-1.67306">
        <ele>72.8</ele>
        <time>2011-07-28T14:10:57Z</time>
      </trkpt>
      <trkpt lat="47.29365" lon="-1.67308">
        <ele>72.7</ele>
        <time>2011-07-28T14:10:58Z</time>
      </trkpt>
      <trkpt lat="47.29367" lon="-1.6731">
        <ele>72.9</ele>
        <time>2011-07-28T14:10:59Z</time>
      </trkpt>
      <trkpt lat="47.2937" lon="-1.67312">
        <ele>73</ele>
        <time>2011-07-28T14:11:00Z</time>
      </trkpt>
      <trkpt lat="47.29373" lon="-1.67314">
        <ele>73</ele>
        <time>2011-07-28T14:11:01Z</time>
      </trkpt>
      <trkpt lat="47.29375" lon="-1.67316">
        <ele>73.2</ele>
        <time>2011-07-28T14:11:02Z</time>
      </trkpt>
      <trkpt lat="47.29378" lon="-1.67319">
        <ele>73.3</ele>
        <time>2011-07-28T14:11:03Z</time>
      </trkpt>
      <trkpt lat="47.2938" lon="-1.67321">
        <ele>73.3</ele>
        <time>2011-07-28T14:11:04Z</time>
      </trkpt>
      <trkpt lat="47.29383" lon="-1.67324">
        <ele>72.7</ele>
        <time>2011-07-28T14:11:05Z</time>
      </trkpt>
      <trkpt lat="47.29385" lon="-1.67326">
        <ele>72.3</ele>
        <time>2011-07-28T14:11:06Z</time>
      </trkpt>
      <trkpt lat="47.29388" lon="-1.67329">
        <ele>71.9</ele>
        <time>2011-07-28T14:11:07Z</time>
      </trkpt>
      <trkpt lat="47.29392" lon="-1.67333">
        <ele>72.2</ele>
        <time>2011-07-28T14:11:08Z</time>
      </trkpt>
      <trkpt lat="47.29395" lon="-1.67335">
        <ele>72.4</ele>
        <time>2011-07-28T14:11:09Z</time>
      </trkpt>
      <trkpt lat="47.29398" lon="-1.67338">
        <ele>72.5</ele>
        <time>2011-07-28T14:11:10Z</time>
      </trkpt>
      <trkpt lat="47.29401" lon="-1.67342">
        <ele>72.6</ele>
        <time>2011-07-28T14:11:11Z</time>
      </trkpt>
      <trkpt lat="47.29405" lon="-1.67345">
        <ele>72.6</ele>
        <time>2011-07-28T14:11:12Z</time>
      </trkpt>
      <trkpt lat="47.29408" lon="-1.67348">
        <ele>72.6</ele>
        <time>2011-07-28T14:11:13Z</time>
      </trkpt>
      <trkpt lat="47.29411" lon="-1.67351">
        <ele>72.6</ele>
        <time>2011-07-28T14:11:14Z</time>
      </trkpt>
      <trkpt lat="47.29414" lon="-1.67354">
        <ele>72.2</ele>
        <time>2011-07-28T14:11:15Z</time>
      </trkpt>
      <trkpt lat="47.29416" lon="-1.67356">
        <ele>72</ele>
        <time>2011-07-28T14:11:16Z</time>
      </trkpt>
      <trkpt lat="47.29419" lon="-1.67358">
        <ele>71.8</ele>
        <time>2011-07-28T14:11:17Z</time>
      </trkpt>
      <trkpt lat="47.29421" lon="-1.67361">
        <ele>71.9</ele>
        <time>2011-07-28T14:11:18Z</time>
      </trkpt>
      <trkpt lat="47.29424" lon="-1.67364">
        <ele>72</ele>
        <time>2011-07-28T14:11:19Z</time>
      </trkpt>
      <trkpt lat="47.29426" lon="-1.67367">
        <ele>72</ele>
        <time>2011-07-28T14:11:20Z</time>
      </trkpt>
      <trkpt lat="47.29429" lon="-1.67369">
        <ele>72</ele>
        <time>2011-07-28T14:11:21Z</time>
      </trkpt>
      <trkpt lat="47.29432" lon="-1.67372">
        <ele>71.9</ele>
        <time>2011-07-28T14:11:22Z</time>
      </trkpt>
      <trkpt lat="47.29435" lon="-1.67375">
        <ele>71.9</ele>
        <time>2011-07-28T14:11:23Z</time>
      </trkpt>
      <trkpt lat="47.29438" lon="-1.67378">
        <ele>71.8</ele>
        <time>2011-07-28T14:11:24Z</time>
      </trkpt>
      <trkpt lat="47.29441" lon="-1.67381">
        <ele>71.9</ele>
        <time>2011-07-28T14:11:25Z</time>
      </trkpt>
      <trkpt lat="47.29444" lon="-1.67384">
        <ele>72</ele>
        <time>2011-07-28T14:11:26Z</time>
      </trkpt>
      <trkpt lat="47.29447" lon="-1.67387">
        <ele>72</ele>
        <time>2011-07-28T14:11:27Z</time>
      </trkpt>
      <trkpt lat="47.2945" lon="-1.6739">
        <ele>71.7</ele>
        <time>2011-07-28T14:11:28Z</time>
      </trkpt>
      <trkpt lat="47.29453" lon="-1.67393">
        <ele>71.5</ele>
        <time>2011-07-28T14:11:29Z</time>
      </trkpt>
      <trkpt lat="47.29457" lon="-1.67397">
        <ele>71.3</ele>
        <time>2011-07-28T14:11:30Z</time>
      </trkpt>
      <trkpt lat="47.2946" lon="-1.674">
        <ele>71.3</ele>
        <time>2011-07-28T14:11:31Z</time>
      </trkpt>
      <trkpt lat="47.29463" lon="-1.67403">
        <ele>71.3</ele>
        <time>2011-07-28T14:11:32Z</time>
      </trkpt>
      <trkpt lat="47.29467" lon="-1.67406">
        <ele>71.3</ele>
        <time>2011-07-28T14:11:33Z</time>
      </trkpt>
      <trkpt lat="47.2947" lon="-1.67409">
        <ele>70.8</ele>
        <time>2011-07-28T14:11:34Z</time>
      </trkpt>
      <trkpt lat="47.29474" lon="-1.67412">
        <ele>70.5</ele>
        <time>2011-07-28T14:11:35Z</time>
      </trkpt>
      <trkpt lat="47.29477" lon="-1.67414">
        <ele>70.2</ele>
        <time>2011-07-28T14:11:36Z</time>
      </trkpt>
      <trkpt lat="47.29481" lon="-1.67417">
        <ele>70.2</ele>
        <time>2011-07-28T14:11:37Z</time>
      </trkpt>
      <trkpt lat="47.29485" lon="-1.6742">
        <ele>70.2</ele>
        <time>2011-07-28T14:11:38Z</time>
      </trkpt>
      <trkpt lat="47.29489" lon="-1.67422">
        <ele>70.2</ele>
        <time>2011-07-28T14:11:39Z</time>
      </trkpt>
      <trkpt lat="47.29493" lon="-1.67425">
        <ele>70.2</ele>
        <time>2011-07-28T14:11:40Z</time>
      </trkpt>
      <trkpt lat="47.29497" lon="-1.67428">
        <ele>70.2</ele>
        <time>2011-07-28T14:11:41Z</time>
      </trkpt>
      <trkpt lat="47.29501" lon="-1.6743">
        <ele>70.2</ele>
        <time>2011-07-28T14:11:42Z</time>
      </trkpt>
      <trkpt lat="47.29506" lon="-1.67433">
        <ele>70.2</ele>
        <time>2011-07-28T14:11:43Z</time>
      </trkpt>
      <trkpt lat="47.2951" lon="-1.67435">
        <ele>69.7</ele>
        <time>2011-07-28T14:11:44Z</time>
      </trkpt>
      <trkpt lat="47.29514" lon="-1.67437">
        <ele>69.3</ele>
        <time>2011-07-28T14:11:45Z</time>
      </trkpt>
      <trkpt lat="47.29518" lon="-1.67438">
        <ele>69</ele>
        <time>2011-07-28T14:11:46Z</time>
      </trkpt>
      <trkpt lat="47.29522" lon="-1.6744">
        <ele>69.1</ele>
        <time>2011-07-28T14:11:47Z</time>
      </trkpt>
      <trkpt lat="47.29526" lon="-1.67441">
        <ele>69.2</ele>
        <time>2011-07-28T14:11:48Z</time>
      </trkpt>
      <trkpt lat="47.2953" lon="-1.67442">
        <ele>69.3</ele>
        <time>2011-07-28T14:11:49Z</time>
      </trkpt>
      <trkpt lat="47.29533" lon="-1.67443">
        <ele>69</ele>
        <time>2011-07-28T14:11:50Z</time>
      </trkpt>
      <trkpt lat="47.29536" lon="-1.67443">
        <ele>68.9</ele>
        <time>2011-07-28T14:11:51Z</time>
      </trkpt>
      <trkpt lat="47.29539" lon="-1.67442">
        <ele>68.7</ele>
        <time>2011-07-28T14:11:52Z</time>
      </trkpt>
      <trkpt lat="47.29543" lon="-1.6744">
        <ele>68.4</ele>
        <time>2011-07-28T14:11:57Z</time>
      </trkpt>
      <trkpt lat="47.29546" lon="-1.67443">
        <ele>68.2</ele>
        <time>2011-07-28T14:13:33Z</time>
      </trkpt>
      <trkpt lat="47.29548" lon="-1.67444">
        <ele>68.3</ele>
        <time>2011-07-28T14:13:34Z</time>
      </trkpt>
      <trkpt lat="47.29554" lon="-1.6745">
        <ele>67.3</ele>
        <time>2011-07-28T14:13:37Z</time>
      </trkpt>
      <trkpt lat="47.29556" lon="-1.67452">
        <ele>67.1</ele>
        <time>2011-07-28T14:13:38Z</time>
      </trkpt>
      <trkpt lat="47.29559" lon="-1.67453">
        <ele>67.1</ele>
        <time>2011-07-28T14:13:39Z</time>
      </trkpt>
      <trkpt lat="47.29562" lon="-1.67455">
        <ele>67</ele>
        <time>2011-07-28T14:13:40Z</time>
      </trkpt>
      <trkpt lat="47.29565" lon="-1.67457">
        <ele>67</ele>
        <time>2011-07-28T14:13:41Z</time>
      </trkpt>
      <trkpt lat="47.29568" lon="-1.67459">
        <ele>67.3</ele>
        <time>2011-07-28T14:13:42Z</time>
      </trkpt>
      <trkpt lat="47.29571" lon="-1.67461">
        <ele>67.6</ele>
        <time>2011-07-28T14:13:43Z</time>
      </trkpt>
      <trkpt lat="47.29575" lon="-1.67464">
        <ele>67.7</ele>
        <time>2011-07-28T14:13:44Z</time>
      </trkpt>
      <trkpt lat="47.29578" lon="-1.67466">
        <ele>67.9</ele>
        <time>2011-07-28T14:13:45Z</time>
      </trkpt>
      <trkpt lat="47.29582" lon="-1.67468">
        <ele>68.1</ele>
        <time>2011-07-28T14:13:46Z</time>
      </trkpt>
      <trkpt lat="47.29585" lon="-1.67471">
        <ele>68.2</ele>
        <time>2011-07-28T14:13:47Z</time>
      </trkpt>
      <trkpt lat="47.29589" lon="-1.67474">
        <ele>67.9</ele>
        <time>2011-07-28T14:13:48Z</time>
      </trkpt>
      <trkpt lat="47.29592" lon="-1.67477">
        <ele>67.6</ele>
        <time>2011-07-28T14:13:49Z</time>
      </trkpt>
      <trkpt lat="47.29596" lon="-1.6748">
        <ele>67.4</ele>
        <time>2011-07-28T14:13:50Z</time>
      </trkpt>
      <trkpt lat="47.29599" lon="-1.67483">
        <ele>67</ele>
        <time>2011-07-28T14:13:51Z</time>
      </trkpt>
      <trkpt lat="47.29602" lon="-1.67487">
        <ele>66.7</ele>
        <time>2011-07-28T14:13:52Z</time>
      </trkpt>
      <trkpt lat="47.29606" lon="-1.6749">
        <ele>66.5</ele>
        <time>2011-07-28T14:13:53Z</time>
      </trkpt>
      <trkpt lat="47.29609" lon="-1.67494">
        <ele>66.3</ele>
        <time>2011-07-28T14:13:54Z</time>
      </trkpt>
      <trkpt lat="47.29612" lon="-1.67498">
        <ele>66.2</ele>
        <time>2011-07-28T14:13:55Z</time>
      </trkpt>
      <trkpt lat="47.29615" lon="-1.67503">
        <ele>66.1</ele>
        <time>2011-07-28T14:13:56Z</time>
      </trkpt>
      <trkpt lat="47.29618" lon="-1.67507">
        <ele>66</ele>
        <time>2011-07-28T14:13:57Z</time>
      </trkpt>
      <trkpt lat="47.2962" lon="-1.67512">
        <ele>65.9</ele>
        <time>2011-07-28T14:13:58Z</time>
      </trkpt>
      <trkpt lat="47.29623" lon="-1.67517">
        <ele>65.8</ele>
        <time>2011-07-28T14:13:59Z</time>
      </trkpt>
      <trkpt lat="47.29626" lon="-1.67522">
        <ele>65.8</ele>
        <time>2011-07-28T14:14:00Z</time>
      </trkpt>
      <trkpt lat="47.29628" lon="-1.67528">
        <ele>65.7</ele>
        <time>2011-07-28T14:14:01Z</time>
      </trkpt>
      <trkpt lat="47.29631" lon="-1.67533">
        <ele>65.6</ele>
        <time>2011-07-28T14:14:02Z</time>
      </trkpt>
      <trkpt lat="47.29633" lon="-1.67539">
        <ele>65.5</ele>
        <time>2011-07-28T14:14:03Z</time>
      </trkpt>
      <trkpt lat="47.29635" lon="-1.67546">
        <ele>65.5</ele>
        <time>2011-07-28T14:14:04Z</time>
      </trkpt>
      <trkpt lat="47.29638" lon="-1.67552">
        <ele>65.5</ele>
        <time>2011-07-28T14:14:05Z</time>
      </trkpt>
      <trkpt lat="47.2964" lon="-1.67559">
        <ele>65.5</ele>
        <time>2011-07-28T14:14:06Z</time>
      </trkpt>
      <trkpt lat="47.29642" lon="-1.67565">
        <ele>65.4</ele>
        <time>2011-07-28T14:14:07Z</time>
      </trkpt>
      <trkpt lat="47.29645" lon="-1.67571">
        <ele>65.3</ele>
        <time>2011-07-28T14:14:08Z</time>
      </trkpt>
      <trkpt lat="47.29648" lon="-1.67578">
        <ele>65.2</ele>
        <time>2011-07-28T14:14:09Z</time>
      </trkpt>
      <trkpt lat="47.29651" lon="-1.67584">
        <ele>65.1</ele>
        <time>2011-07-28T14:14:10Z</time>
      </trkpt>
      <trkpt lat="47.29654" lon="-1.6759">
        <ele>65.1</ele>
        <time>2011-07-28T14:14:11Z</time>
      </trkpt>
      <trkpt lat="47.29658" lon="-1.67597">
        <ele>65</ele>
        <time>2011-07-28T14:14:12Z</time>
      </trkpt>
      <trkpt lat="47.29662" lon="-1.67603">
        <ele>65</ele>
        <time>2011-07-28T14:14:13Z</time>
      </trkpt>
      <trkpt lat="47.29666" lon="-1.67609">
        <ele>64.5</ele>
        <time>2011-07-28T14:14:14Z</time>
      </trkpt>
      <trkpt lat="47.29671" lon="-1.67614">
        <ele>64.1</ele>
        <time>2011-07-28T14:14:15Z</time>
      </trkpt>
      <trkpt lat="47.29676" lon="-1.67618">
        <ele>63.8</ele>
        <time>2011-07-28T14:14:16Z</time>
      </trkpt>
      <trkpt lat="47.29681" lon="-1.67622">
        <ele>63.5</ele>
        <time>2011-07-28T14:14:17Z</time>
      </trkpt>
      <trkpt lat="47.29686" lon="-1.67626">
        <ele>63.3</ele>
        <time>2011-07-28T14:14:18Z</time>
      </trkpt>
      <trkpt lat="47.29692" lon="-1.67629">
        <ele>63.1</ele>
        <time>2011-07-28T14:14:19Z</time>
      </trkpt>
      <trkpt lat="47.29697" lon="-1.67632">
        <ele>63</ele>
        <time>2011-07-28T14:14:20Z</time>
      </trkpt>
      <trkpt lat="47.29702" lon="-1.67636">
        <ele>63</ele>
        <time>2011-07-28T14:14:21Z</time>
      </trkpt>
      <trkpt lat="47.29707" lon="-1.67639">
        <ele>63</ele>
        <time>2011-07-28T14:14:22Z</time>
      </trkpt>
      <trkpt lat="47.29712" lon="-1.67643">
        <ele>62.9</ele>
        <time>2011-07-28T14:14:23Z</time>
      </trkpt>
      <trkpt lat="47.29716" lon="-1.67647">
        <ele>62.8</ele>
        <time>2011-07-28T14:14:24Z</time>
      </trkpt>
      <trkpt lat="47.29719" lon="-1.67651">
        <ele>62.7</ele>
        <time>2011-07-28T14:14:25Z</time>
      </trkpt>
      <trkpt lat="47.29723" lon="-1.67656">
        <ele>62.8</ele>
        <time>2011-07-28T14:14:26Z</time>
      </trkpt>
      <trkpt lat="47.29726" lon="-1.6766">
        <ele>63</ele>
        <time>2011-07-28T14:14:27Z</time>
      </trkpt>
      <trkpt lat="47.29729" lon="-1.67664">
        <ele>63</ele>
        <time>2011-07-28T14:14:28Z</time>
      </trkpt>
      <trkpt lat="47.29731" lon="-1.67668">
        <ele>63.1</ele>
        <time>2011-07-28T14:14:29Z</time>
      </trkpt>
      <trkpt lat="47.29734" lon="-1.67673">
        <ele>63.2</ele>
        <time>2011-07-28T14:14:30Z</time>
      </trkpt>
      <trkpt lat="47.29736" lon="-1.67677">
        <ele>63.3</ele>
        <time>2011-07-28T14:14:31Z</time>
      </trkpt>
      <trkpt lat="47.29738" lon="-1.67682">
        <ele>63.3</ele>
        <time>2011-07-28T14:14:32Z</time>
      </trkpt>
      <trkpt lat="47.2974" lon="-1.67687">
        <ele>63.1</ele>
        <time>2011-07-28T14:14:33Z</time>
      </trkpt>
      <trkpt lat="47.29743" lon="-1.67691">
        <ele>62.9</ele>
        <time>2011-07-28T14:14:34Z</time>
      </trkpt>
      <trkpt lat="47.29745" lon="-1.67696">
        <ele>62.7</ele>
        <time>2011-07-28T14:14:35Z</time>
      </trkpt>
      <trkpt lat="47.29747" lon="-1.677">
        <ele>63.3</ele>
        <time>2011-07-28T14:14:36Z</time>
      </trkpt>
      <trkpt lat="47.2975" lon="-1.67705">
        <ele>63.7</ele>
        <time>2011-07-28T14:14:37Z</time>
      </trkpt>
      <trkpt lat="47.29752" lon="-1.6771">
        <ele>64</ele>
        <time>2011-07-28T14:14:38Z</time>
      </trkpt>
      <trkpt lat="47.29755" lon="-1.67715">
        <ele>64.8</ele>
        <time>2011-07-28T14:14:39Z</time>
      </trkpt>
      <trkpt lat="47.29758" lon="-1.6772">
        <ele>65.3</ele>
        <time>2011-07-28T14:14:40Z</time>
      </trkpt>
      <trkpt lat="47.2976" lon="-1.67726">
        <ele>65.7</ele>
        <time>2011-07-28T14:14:41Z</time>
      </trkpt>
      <trkpt lat="47.29763" lon="-1.67731">
        <ele>66.1</ele>
        <time>2011-07-28T14:14:42Z</time>
      </trkpt>
      <trkpt lat="47.29766" lon="-1.67737">
        <ele>66.4</ele>
        <time>2011-07-28T14:14:43Z</time>
      </trkpt>
      <trkpt lat="47.29768" lon="-1.67742">
        <ele>66.6</ele>
        <time>2011-07-28T14:14:44Z</time>
      </trkpt>
      <trkpt lat="47.29771" lon="-1.67748">
        <ele>66.8</ele>
        <time>2011-07-28T14:14:45Z</time>
      </trkpt>
      <trkpt lat="47.29773" lon="-1.67753">
        <ele>67.3</ele>
        <time>2011-07-28T14:14:46Z</time>
      </trkpt>
      <trkpt lat="47.29776" lon="-1.67759">
        <ele>67.7</ele>
        <time>2011-07-28T14:14:47Z</time>
      </trkpt>
      <trkpt lat="47.29778" lon="-1.67764">
        <ele>68</ele>
        <time>2011-07-28T14:14:48Z</time>
      </trkpt>
      <trkpt lat="47.29781" lon="-1.6777">
        <ele>68.4</ele>
        <time>2011-07-28T14:14:49Z</time>
      </trkpt>
      <trkpt lat="47.29783" lon="-1.67776">
        <ele>68.7</ele>
        <time>2011-07-28T14:14:50Z</time>
      </trkpt>
      <trkpt lat="47.29785" lon="-1.67782">
        <ele>69</ele>
        <time>2011-07-28T14:14:51Z</time>
      </trkpt>
      <trkpt lat="47.29787" lon="-1.67788">
        <ele>69.1</ele>
        <time>2011-07-28T14:14:52Z</time>
      </trkpt>
      <trkpt lat="47.29789" lon="-1.67794">
        <ele>69.2</ele>
        <time>2011-07-28T14:14:53Z</time>
      </trkpt>
      <trkpt lat="47.2979" lon="-1.678">
        <ele>69.3</ele>
        <time>2011-07-28T14:14:54Z</time>
      </trkpt>
      <trkpt lat="47.29792" lon="-1.67806">
        <ele>69.7</ele>
        <time>2011-07-28T14:14:55Z</time>
      </trkpt>
      <trkpt lat="47.29794" lon="-1.67811">
        <ele>69.9</ele>
        <time>2011-07-28T14:14:56Z</time>
      </trkpt>
      <trkpt lat="47.29796" lon="-1.67817">
        <ele>70.2</ele>
        <time>2011-07-28T14:14:57Z</time>
      </trkpt>
      <trkpt lat="47.29798" lon="-1.67824">
        <ele>70.5</ele>
        <time>2011-07-28T14:14:58Z</time>
      </trkpt>
      <trkpt lat="47.298" lon="-1.67829">
        <ele>70.8</ele>
        <time>2011-07-28T14:14:59Z</time>
      </trkpt>
      <trkpt lat="47.29802" lon="-1.67835">
        <ele>71</ele>
        <time>2011-07-28T14:15:00Z</time>
      </trkpt>
      <trkpt lat="47.29804" lon="-1.6784">
        <ele>71.1</ele>
        <time>2011-07-28T14:15:01Z</time>
      </trkpt>
      <trkpt lat="47.29805" lon="-1.67846">
        <ele>71.2</ele>
        <time>2011-07-28T14:15:02Z</time>
      </trkpt>
      <trkpt lat="47.29807" lon="-1.67851">
        <ele>71.2</ele>
        <time>2011-07-28T14:15:03Z</time>
      </trkpt>
      <trkpt lat="47.29809" lon="-1.67857">
        <ele>71.3</ele>
        <time>2011-07-28T14:15:04Z</time>
      </trkpt>
      <trkpt lat="47.29811" lon="-1.67862">
        <ele>71.1</ele>
        <time>2011-07-28T14:15:05Z</time>
      </trkpt>
      <trkpt lat="47.29814" lon="-1.67867">
        <ele>71</ele>
        <time>2011-07-28T14:15:06Z</time>
      </trkpt>
      <trkpt lat="47.29816" lon="-1.67872">
        <ele>70.9</ele>
        <time>2011-07-28T14:15:07Z</time>
      </trkpt>
      <trkpt lat="47.29818" lon="-1.67877">
        <ele>70.7</ele>
        <time>2011-07-28T14:15:08Z</time>
      </trkpt>
      <trkpt lat="47.2982" lon="-1.67882">
        <ele>70.6</ele>
        <time>2011-07-28T14:15:09Z</time>
      </trkpt>
      <trkpt lat="47.29822" lon="-1.67887">
        <ele>70.5</ele>
        <time>2011-07-28T14:15:10Z</time>
      </trkpt>
      <trkpt lat="47.29824" lon="-1.67892">
        <ele>70.8</ele>
        <time>2011-07-28T14:15:11Z</time>
      </trkpt>
      <trkpt lat="47.29826" lon="-1.67897">
        <ele>71</ele>
        <time>2011-07-28T14:15:12Z</time>
      </trkpt>
      <trkpt lat="47.29828" lon="-1.67902">
        <ele>71.2</ele>
        <time>2011-07-28T14:15:13Z</time>
      </trkpt>
      <trkpt lat="47.2983" lon="-1.67907">
        <ele>71.2</ele>
        <time>2011-07-28T14:15:14Z</time>
      </trkpt>
      <trkpt lat="47.29832" lon="-1.67912">
        <ele>71.1</ele>
        <time>2011-07-28T14:15:15Z</time>
      </trkpt>
      <trkpt lat="47.29834" lon="-1.67917">
        <ele>71.1</ele>
        <time>2011-07-28T14:15:16Z</time>
      </trkpt>
      <trkpt lat="47.29836" lon="-1.67922">
        <ele>71.1</ele>
        <time>2011-07-28T14:15:17Z</time>
      </trkpt>
      <trkpt lat="47.29839" lon="-1.67927">
        <ele>71.3</ele>
        <time>2011-07-28T14:15:18Z</time>
      </trkpt>
      <trkpt lat="47.29841" lon="-1.67932">
        <ele>71.5</ele>
        <time>2011-07-28T14:15:19Z</time>
      </trkpt>
      <trkpt lat="47.29843" lon="-1.67938">
        <ele>71.6</ele>
        <time>2011-07-28T14:15:20Z</time>
      </trkpt>
      <trkpt lat="47.29844" lon="-1.67943">
        <ele>71.5</ele>
        <time>2011-07-28T14:15:21Z</time>
      </trkpt>
      <trkpt lat="47.29846" lon="-1.67948">
        <ele>71.4</ele>
        <time>2011-07-28T14:15:22Z</time>
      </trkpt>
      <trkpt lat="47.29848" lon="-1.67954">
        <ele>71.4</ele>
        <time>2011-07-28T14:15:23Z</time>
      </trkpt>
      <trkpt lat="47.2985" lon="-1.67959">
        <ele>71.5</ele>
        <time>2011-07-28T14:15:24Z</time>
      </trkpt>
      <trkpt lat="47.29851" lon="-1.67965">
        <ele>71.6</ele>
        <time>2011-07-28T14:15:25Z</time>
      </trkpt>
      <trkpt lat="47.29853" lon="-1.6797">
        <ele>71.6</ele>
        <time>2011-07-28T14:15:26Z</time>
      </trkpt>
      <trkpt lat="47.29854" lon="-1.67976">
        <ele>71.6</ele>
        <time>2011-07-28T14:15:27Z</time>
      </trkpt>
      <trkpt lat="47.29856" lon="-1.6798">
        <ele>71.5</ele>
        <time>2011-07-28T14:15:28Z</time>
      </trkpt>
      <trkpt lat="47.29857" lon="-1.67985">
        <ele>71.5</ele>
        <time>2011-07-28T14:15:29Z</time>
      </trkpt>
      <trkpt lat="47.29858" lon="-1.6799">
        <ele>71.6</ele>
        <time>2011-07-28T14:15:30Z</time>
      </trkpt>
      <trkpt lat="47.2986" lon="-1.67995">
        <ele>71.7</ele>
        <time>2011-07-28T14:15:31Z</time>
      </trkpt>
      <trkpt lat="47.29861" lon="-1.68001">
        <ele>71.7</ele>
        <time>2011-07-28T14:15:32Z</time>
      </trkpt>
      <trkpt lat="47.29862" lon="-1.68006">
        <ele>72.1</ele>
        <time>2011-07-28T14:15:33Z</time>
      </trkpt>
      <trkpt lat="47.29864" lon="-1.68012">
        <ele>72.3</ele>
        <time>2011-07-28T14:15:34Z</time>
      </trkpt>
      <trkpt lat="47.29865" lon="-1.68017">
        <ele>72.5</ele>
        <time>2011-07-28T14:15:35Z</time>
      </trkpt>
      <trkpt lat="47.29867" lon="-1.68023">
        <ele>72.6</ele>
        <time>2011-07-28T14:15:36Z</time>
      </trkpt>
      <trkpt lat="47.29869" lon="-1.68028">
        <ele>72.3</ele>
        <time>2011-07-28T14:15:37Z</time>
      </trkpt>
      <trkpt lat="47.2987" lon="-1.68033">
        <ele>72</ele>
        <time>2011-07-28T14:15:38Z</time>
      </trkpt>
      <trkpt lat="47.29872" lon="-1.68038">
        <ele>71.8</ele>
        <time>2011-07-28T14:15:39Z</time>
      </trkpt>
      <trkpt lat="47.29874" lon="-1.68044">
        <ele>71.9</ele>
        <time>2011-07-28T14:15:40Z</time>
      </trkpt>
      <trkpt lat="47.29877" lon="-1.68049">
        <ele>72</ele>
        <time>2011-07-28T14:15:41Z</time>
      </trkpt>
      <trkpt lat="47.29879" lon="-1.68054">
        <ele>72.1</ele>
        <time>2011-07-28T14:15:42Z</time>
      </trkpt>
      <trkpt lat="47.29881" lon="-1.6806">
        <ele>72</ele>
        <time>2011-07-28T14:15:43Z</time>
      </trkpt>
      <trkpt lat="47.29883" lon="-1.68065">
        <ele>72</ele>
        <time>2011-07-28T14:15:44Z</time>
      </trkpt>
      <trkpt lat="47.29884" lon="-1.68071">
        <ele>72</ele>
        <time>2011-07-28T14:15:45Z</time>
      </trkpt>
      <trkpt lat="47.29886" lon="-1.68077">
        <ele>72.2</ele>
        <time>2011-07-28T14:15:46Z</time>
      </trkpt>
      <trkpt lat="47.29888" lon="-1.68083">
        <ele>72.4</ele>
        <time>2011-07-28T14:15:47Z</time>
      </trkpt>
      <trkpt lat="47.2989" lon="-1.68088">
        <ele>72.6</ele>
        <time>2011-07-28T14:15:48Z</time>
      </trkpt>
      <trkpt lat="47.29893" lon="-1.68093">
        <ele>72.4</ele>
        <time>2011-07-28T14:15:49Z</time>
      </trkpt>
      <trkpt lat="47.29895" lon="-1.68098">
        <ele>72.2</ele>
        <time>2011-07-28T14:15:50Z</time>
      </trkpt>
      <trkpt lat="47.29898" lon="-1.68103">
        <ele>72.1</ele>
        <time>2011-07-28T14:15:51Z</time>
      </trkpt>
      <trkpt lat="47.299" lon="-1.68109">
        <ele>72</ele>
        <time>2011-07-28T14:15:52Z</time>
      </trkpt>
      <trkpt lat="47.29903" lon="-1.68114">
        <ele>72.3</ele>
        <time>2011-07-28T14:15:53Z</time>
      </trkpt>
      <trkpt lat="47.29905" lon="-1.68119">
        <ele>72.5</ele>
        <time>2011-07-28T14:15:54Z</time>
      </trkpt>
      <trkpt lat="47.29908" lon="-1.68124">
        <ele>72.6</ele>
        <time>2011-07-28T14:15:55Z</time>
      </trkpt>
      <trkpt lat="47.29911" lon="-1.68128">
        <ele>72.3</ele>
        <time>2011-07-28T14:15:56Z</time>
      </trkpt>
      <trkpt lat="47.29914" lon="-1.68132">
        <ele>72.1</ele>
        <time>2011-07-28T14:15:57Z</time>
      </trkpt>
      <trkpt lat="47.29917" lon="-1.68136">
        <ele>71.9</ele>
        <time>2011-07-28T14:15:58Z</time>
      </trkpt>
      <trkpt lat="47.29921" lon="-1.68139">
        <ele>71.9</ele>
        <time>2011-07-28T14:15:59Z</time>
      </trkpt>
      <trkpt lat="47.29924" lon="-1.68142">
        <ele>71.9</ele>
        <time>2011-07-28T14:16:00Z</time>
      </trkpt>
      <trkpt lat="47.29927" lon="-1.68145">
        <ele>72</ele>
        <time>2011-07-28T14:16:01Z</time>
      </trkpt>
      <trkpt lat="47.29931" lon="-1.68148">
        <ele>71.9</ele>
        <time>2011-07-28T14:16:02Z</time>
      </trkpt>
      <trkpt lat="47.29934" lon="-1.6815">
        <ele>71.8</ele>
        <time>2011-07-28T14:16:03Z</time>
      </trkpt>
      <trkpt lat="47.29938" lon="-1.68152">
        <ele>71.7</ele>
        <time>2011-07-28T14:16:04Z</time>
      </trkpt>
      <trkpt lat="47.29942" lon="-1.68154">
        <ele>71.9</ele>
        <time>2011-07-28T14:16:05Z</time>
      </trkpt>
      <trkpt lat="47.29945" lon="-1.68156">
        <ele>72</ele>
        <time>2011-07-28T14:16:06Z</time>
      </trkpt>
      <trkpt lat="47.29949" lon="-1.68157">
        <ele>72</ele>
        <time>2011-07-28T14:16:07Z</time>
      </trkpt>
      <trkpt lat="47.29953" lon="-1.68158">
        <ele>72.1</ele>
        <time>2011-07-28T14:16:08Z</time>
      </trkpt>
      <trkpt lat="47.29957" lon="-1.68159">
        <ele>72.1</ele>
        <time>2011-07-28T14:16:09Z</time>
      </trkpt>
      <trkpt lat="47.29961" lon="-1.68159">
        <ele>72.2</ele>
        <time>2011-07-28T14:16:10Z</time>
      </trkpt>
      <trkpt lat="47.29965" lon="-1.6816">
        <ele>72.2</ele>
        <time>2011-07-28T14:16:11Z</time>
      </trkpt>
      <trkpt lat="47.29968" lon="-1.6816">
        <ele>72.3</ele>
        <time>2011-07-28T14:16:12Z</time>
      </trkpt>
      <trkpt lat="47.29972" lon="-1.6816">
        <ele>72.4</ele>
        <time>2011-07-28T14:16:13Z</time>
      </trkpt>
      <trkpt lat="47.29975" lon="-1.68159">
        <ele>72.5</ele>
        <time>2011-07-28T14:16:14Z</time>
      </trkpt>
      <trkpt lat="47.29978" lon="-1.68158">
        <ele>72.3</ele>
        <time>2011-07-28T14:16:15Z</time>
      </trkpt>
      <trkpt lat="47.29981" lon="-1.68157">
        <ele>72.2</ele>
        <time>2011-07-28T14:16:16Z</time>
      </trkpt>
      <trkpt lat="47.29984" lon="-1.68158">
        <ele>72.1</ele>
        <time>2011-07-28T14:16:17Z</time>
      </trkpt>
      <trkpt lat="47.29987" lon="-1.68159">
        <ele>72.1</ele>
        <time>2011-07-28T14:16:18Z</time>
      </trkpt>
      <trkpt lat="47.29989" lon="-1.6816">
        <ele>72.1</ele>
        <time>2011-07-28T14:16:19Z</time>
      </trkpt>
      <trkpt lat="47.29993" lon="-1.68161">
        <ele>71.7</ele>
        <time>2011-07-28T14:16:21Z</time>
      </trkpt>
      <trkpt lat="47.29991" lon="-1.68167">
        <ele>72.3</ele>
        <time>2011-07-28T14:16:53Z</time>
      </trkpt>
      <trkpt lat="47.29991" lon="-1.68167">
        <ele>72.3</ele>
        <time>2011-07-28T14:16:54Z</time>
      </trkpt>
      <trkpt lat="47.29988" lon="-1.68163">
        <ele>72.2</ele>
        <time>2011-07-28T14:18:51Z</time>
      </trkpt>
      <trkpt lat="47.29995" lon="-1.68168">
        <ele>71.8</ele>
        <time>2011-07-28T14:19:07Z</time>
      </trkpt>
      <trkpt lat="47.29999" lon="-1.68169">
        <ele>71</ele>
        <time>2011-07-28T14:19:15Z</time>
      </trkpt>
      <trkpt lat="47.30002" lon="-1.68172">
        <ele>72.7</ele>
        <time>2011-07-28T14:20:42Z</time>
      </trkpt>
      <trkpt lat="47.30004" lon="-1.68173">
        <ele>73</ele>
        <time>2011-07-28T14:20:43Z</time>
      </trkpt>
      <trkpt lat="47.30007" lon="-1.68175">
        <ele>73.1</ele>
        <time>2011-07-28T14:20:44Z</time>
      </trkpt>
      <trkpt lat="47.30009" lon="-1.68176">
        <ele>73.3</ele>
        <time>2011-07-28T14:20:45Z</time>
      </trkpt>
      <trkpt lat="47.30011" lon="-1.68178">
        <ele>72.7</ele>
        <time>2011-07-28T14:20:46Z</time>
      </trkpt>
      <trkpt lat="47.30014" lon="-1.68179">
        <ele>72.3</ele>
        <time>2011-07-28T14:20:47Z</time>
      </trkpt>
      <trkpt lat="47.30016" lon="-1.68181">
        <ele>72</ele>
        <time>2011-07-28T14:20:48Z</time>
      </trkpt>
      <trkpt lat="47.30019" lon="-1.68183">
        <ele>71.7</ele>
        <time>2011-07-28T14:20:49Z</time>
      </trkpt>
      <trkpt lat="47.30021" lon="-1.68185">
        <ele>71.8</ele>
        <time>2011-07-28T14:20:50Z</time>
      </trkpt>
      <trkpt lat="47.30023" lon="-1.68187">
        <ele>71.9</ele>
        <time>2011-07-28T14:20:51Z</time>
      </trkpt>
      <trkpt lat="47.30025" lon="-1.68189">
        <ele>72</ele>
        <time>2011-07-28T14:20:52Z</time>
      </trkpt>
      <trkpt lat="47.30027" lon="-1.68192">
        <ele>71.6</ele>
        <time>2011-07-28T14:20:53Z</time>
      </trkpt>
      <trkpt lat="47.30028" lon="-1.68195">
        <ele>71.4</ele>
        <time>2011-07-28T14:20:54Z</time>
      </trkpt>
      <trkpt lat="47.3003" lon="-1.68198">
        <ele>71.2</ele>
        <time>2011-07-28T14:20:55Z</time>
      </trkpt>
      <trkpt lat="47.30031" lon="-1.68201">
        <ele>71.4</ele>
        <time>2011-07-28T14:20:56Z</time>
      </trkpt>
      <trkpt lat="47.30033" lon="-1.68205">
        <ele>71.5</ele>
        <time>2011-07-28T14:20:57Z</time>
      </trkpt>
      <trkpt lat="47.30034" lon="-1.6821">
        <ele>71.6</ele>
        <time>2011-07-28T14:20:58Z</time>
      </trkpt>
      <trkpt lat="47.30036" lon="-1.68214">
        <ele>71.6</ele>
        <time>2011-07-28T14:20:59Z</time>
      </trkpt>
      <trkpt lat="47.30037" lon="-1.68218">
        <ele>71.6</ele>
        <time>2011-07-28T14:21:00Z</time>
      </trkpt>
      <trkpt lat="47.30039" lon="-1.68223">
        <ele>71.6</ele>
        <time>2011-07-28T14:21:01Z</time>
      </trkpt>
      <trkpt lat="47.3004" lon="-1.68228">
        <ele>71.5</ele>
        <time>2011-07-28T14:21:02Z</time>
      </trkpt>
      <trkpt lat="47.30042" lon="-1.68232">
        <ele>71.4</ele>
        <time>2011-07-28T14:21:03Z</time>
      </trkpt>
      <trkpt lat="47.30044" lon="-1.68236">
        <ele>71.3</ele>
        <time>2011-07-28T14:21:04Z</time>
      </trkpt>
      <trkpt lat="47.30045" lon="-1.6824">
        <ele>71.2</ele>
        <time>2011-07-28T14:21:05Z</time>
      </trkpt>
      <trkpt lat="47.30047" lon="-1.68244">
        <ele>71.3</ele>
        <time>2011-07-28T14:21:06Z</time>
      </trkpt>
      <trkpt lat="47.30049" lon="-1.68248">
        <ele>71.4</ele>
        <time>2011-07-28T14:21:07Z</time>
      </trkpt>
      <trkpt lat="47.30052" lon="-1.68252">
        <ele>71.5</ele>
        <time>2011-07-28T14:21:08Z</time>
      </trkpt>
      <trkpt lat="47.30054" lon="-1.68255">
        <ele>71.6</ele>
        <time>2011-07-28T14:21:09Z</time>
      </trkpt>
      <trkpt lat="47.30057" lon="-1.68258">
        <ele>71.7</ele>
        <time>2011-07-28T14:21:10Z</time>
      </trkpt>
      <trkpt lat="47.3006" lon="-1.68261">
        <ele>71.7</ele>
        <time>2011-07-28T14:21:11Z</time>
      </trkpt>
      <trkpt lat="47.30063" lon="-1.68262">
        <ele>71.5</ele>
        <time>2011-07-28T14:21:12Z</time>
      </trkpt>
      <trkpt lat="47.30066" lon="-1.68263">
        <ele>71.4</ele>
        <time>2011-07-28T14:21:13Z</time>
      </trkpt>
      <trkpt lat="47.30069" lon="-1.68264">
        <ele>71.2</ele>
        <time>2011-07-28T14:21:14Z</time>
      </trkpt>
      <trkpt lat="47.30072" lon="-1.68265">
        <ele>71.1</ele>
        <time>2011-07-28T14:21:15Z</time>
      </trkpt>
      <trkpt lat="47.30076" lon="-1.68265">
        <ele>71</ele>
        <time>2011-07-28T14:21:16Z</time>
      </trkpt>
      <trkpt lat="47.30079" lon="-1.68266">
        <ele>70.9</ele>
        <time>2011-07-28T14:21:17Z</time>
      </trkpt>
      <trkpt lat="47.30082" lon="-1.68267">
        <ele>71.2</ele>
        <time>2011-07-28T14:21:18Z</time>
      </trkpt>
      <trkpt lat="47.30085" lon="-1.68269">
        <ele>71.4</ele>
        <time>2011-07-28T14:21:19Z</time>
      </trkpt>
      <trkpt lat="47.30088" lon="-1.68271">
        <ele>71.6</ele>
        <time>2011-07-28T14:21:20Z</time>
      </trkpt>
      <trkpt lat="47.30091" lon="-1.68273">
        <ele>71.9</ele>
        <time>2011-07-28T14:21:21Z</time>
      </trkpt>
      <trkpt lat="47.30094" lon="-1.68275">
        <ele>72.1</ele>
        <time>2011-07-28T14:21:22Z</time>
      </trkpt>
      <trkpt lat="47.30097" lon="-1.68279">
        <ele>72.3</ele>
        <time>2011-07-28T14:21:23Z</time>
      </trkpt>
      <trkpt lat="47.301" lon="-1.68282">
        <ele>72.4</ele>
        <time>2011-07-28T14:21:24Z</time>
      </trkpt>
      <trkpt lat="47.30102" lon="-1.68286">
        <ele>72.6</ele>
        <time>2011-07-28T14:21:25Z</time>
      </trkpt>
      <trkpt lat="47.30105" lon="-1.6829">
        <ele>72.7</ele>
        <time>2011-07-28T14:21:26Z</time>
      </trkpt>
      <trkpt lat="47.30107" lon="-1.68295">
        <ele>72.8</ele>
        <time>2011-07-28T14:21:27Z</time>
      </trkpt>
      <trkpt lat="47.30109" lon="-1.68299">
        <ele>72.6</ele>
        <time>2011-07-28T14:21:28Z</time>
      </trkpt>
      <trkpt lat="47.30112" lon="-1.68304">
        <ele>72.5</ele>
        <time>2011-07-28T14:21:29Z</time>
      </trkpt>
      <trkpt lat="47.30113" lon="-1.6831">
        <ele>72.4</ele>
        <time>2011-07-28T14:21:30Z</time>
      </trkpt>
      <trkpt lat="47.30115" lon="-1.68317">
        <ele>72.6</ele>
        <time>2011-07-28T14:21:31Z</time>
      </trkpt>
      <trkpt lat="47.30117" lon="-1.68325">
        <ele>72.8</ele>
        <time>2011-07-28T14:21:32Z</time>
      </trkpt>
      <trkpt lat="47.3012" lon="-1.68333">
        <ele>72.9</ele>
        <time>2011-07-28T14:21:33Z</time>
      </trkpt>
      <trkpt lat="47.30123" lon="-1.68341">
        <ele>72.4</ele>
        <time>2011-07-28T14:21:34Z</time>
      </trkpt>
      <trkpt lat="47.30127" lon="-1.68349">
        <ele>72</ele>
        <time>2011-07-28T14:21:35Z</time>
      </trkpt>
      <trkpt lat="47.30131" lon="-1.68357">
        <ele>71.7</ele>
        <time>2011-07-28T14:21:36Z</time>
      </trkpt>
      <trkpt lat="47.30135" lon="-1.68366">
        <ele>72.1</ele>
        <time>2011-07-28T14:21:37Z</time>
      </trkpt>
      <trkpt lat="47.30139" lon="-1.68376">
        <ele>72.4</ele>
        <time>2011-07-28T14:21:38Z</time>
      </trkpt>
      <trkpt lat="47.30143" lon="-1.68385">
        <ele>72.6</ele>
        <time>2011-07-28T14:21:39Z</time>
      </trkpt>
      <trkpt lat="47.30147" lon="-1.68395">
        <ele>72.7</ele>
        <time>2011-07-28T14:21:40Z</time>
      </trkpt>
      <trkpt lat="47.30149" lon="-1.68403">
        <ele>72.5</ele>
        <time>2011-07-28T14:21:41Z</time>
      </trkpt>
      <trkpt lat="47.3015" lon="-1.68409">
        <ele>72.3</ele>
        <time>2011-07-28T14:21:42Z</time>
      </trkpt>
      <trkpt lat="47.30148" lon="-1.68413">
        <ele>72.2</ele>
        <time>2011-07-28T14:21:43Z</time>
      </trkpt>
      <trkpt lat="47.30146" lon="-1.68417">
        <ele>72.1</ele>
        <time>2011-07-28T14:21:44Z</time>
      </trkpt>
      <trkpt lat="47.30144" lon="-1.68421">
        <ele>72.1</ele>
        <time>2011-07-28T14:21:45Z</time>
      </trkpt>
      <trkpt lat="47.30142" lon="-1.68425">
        <ele>72.1</ele>
        <time>2011-07-28T14:21:46Z</time>
      </trkpt>
      <trkpt lat="47.30139" lon="-1.68428">
        <ele>71.9</ele>
        <time>2011-07-28T14:21:47Z</time>
      </trkpt>
      <trkpt lat="47.30136" lon="-1.68432">
        <ele>71.8</ele>
        <time>2011-07-28T14:21:48Z</time>
      </trkpt>
      <trkpt lat="47.30134" lon="-1.68436">
        <ele>71.8</ele>
        <time>2011-07-28T14:21:49Z</time>
      </trkpt>
      <trkpt lat="47.30132" lon="-1.68439">
        <ele>72</ele>
        <time>2011-07-28T14:21:50Z</time>
      </trkpt>
      <trkpt lat="47.3013" lon="-1.68445">
        <ele>72.3</ele>
        <time>2011-07-28T14:21:52Z</time>
      </trkpt>
      <trkpt lat="47.30126" lon="-1.68449">
        <ele>72.7</ele>
        <time>2011-07-28T14:21:54Z</time>
      </trkpt>
      <trkpt lat="47.30123" lon="-1.68453">
        <ele>72.9</ele>
        <time>2011-07-28T14:21:56Z</time>
      </trkpt>
      <trkpt lat="47.30123" lon="-1.6846">
        <ele>71.6</ele>
        <time>2011-07-28T14:22:04Z</time>
      </trkpt>
      <trkpt lat="47.30126" lon="-1.68464">
        <ele>71.4</ele>
        <time>2011-07-28T14:22:39Z</time>
      </trkpt>
      <trkpt lat="47.30124" lon="-1.68467">
        <ele>71.1</ele>
        <time>2011-07-28T14:22:44Z</time>
      </trkpt>
      <trkpt lat="47.30122" lon="-1.68469">
        <ele>70.9</ele>
        <time>2011-07-28T14:22:45Z</time>
      </trkpt>
      <trkpt lat="47.30119" lon="-1.68471">
        <ele>70.9</ele>
        <time>2011-07-28T14:22:46Z</time>
      </trkpt>
      <trkpt lat="47.30116" lon="-1.68473">
        <ele>70.8</ele>
        <time>2011-07-28T14:22:47Z</time>
      </trkpt>
      <trkpt lat="47.30113" lon="-1.68475">
        <ele>70.7</ele>
        <time>2011-07-28T14:22:48Z</time>
      </trkpt>
      <trkpt lat="47.3011" lon="-1.68477">
        <ele>70.6</ele>
        <time>2011-07-28T14:22:49Z</time>
      </trkpt>
      <trkpt lat="47.30107" lon="-1.68479">
        <ele>70.6</ele>
        <time>2011-07-28T14:22:50Z</time>
      </trkpt>
      <trkpt lat="47.30104" lon="-1.68481">
        <ele>70.3</ele>
        <time>2011-07-28T14:22:51Z</time>
      </trkpt>
      <trkpt lat="47.30101" lon="-1.68484">
        <ele>70.1</ele>
        <time>2011-07-28T14:22:52Z</time>
      </trkpt>
      <trkpt lat="47.30098" lon="-1.68487">
        <ele>69.9</ele>
        <time>2011-07-28T14:22:53Z</time>
      </trkpt>
      <trkpt lat="47.30094" lon="-1.68488">
        <ele>70.2</ele>
        <time>2011-07-28T14:22:54Z</time>
      </trkpt>
      <trkpt lat="47.3009" lon="-1.68491">
        <ele>70.4</ele>
        <time>2011-07-28T14:22:55Z</time>
      </trkpt>
      <trkpt lat="47.30086" lon="-1.68494">
        <ele>70.5</ele>
        <time>2011-07-28T14:22:56Z</time>
      </trkpt>
      <trkpt lat="47.30082" lon="-1.68496">
        <ele>70.4</ele>
        <time>2011-07-28T14:22:57Z</time>
      </trkpt>
      <trkpt lat="47.30078" lon="-1.68499">
        <ele>70.2</ele>
        <time>2011-07-28T14:22:58Z</time>
      </trkpt>
      <trkpt lat="47.30075" lon="-1.68502">
        <ele>70.1</ele>
        <time>2011-07-28T14:22:59Z</time>
      </trkpt>
      <trkpt lat="47.30071" lon="-1.68504">
        <ele>69.8</ele>
        <time>2011-07-28T14:23:00Z</time>
      </trkpt>
      <trkpt lat="47.30067" lon="-1.68507">
        <ele>69.5</ele>
        <time>2011-07-28T14:23:01Z</time>
      </trkpt>
      <trkpt lat="47.30063" lon="-1.68509">
        <ele>69.3</ele>
        <time>2011-07-28T14:23:02Z</time>
      </trkpt>
      <trkpt lat="47.30059" lon="-1.68511">
        <ele>69.2</ele>
        <time>2011-07-28T14:23:03Z</time>
      </trkpt>
      <trkpt lat="47.30055" lon="-1.68514">
        <ele>68.9</ele>
        <time>2011-07-28T14:23:04Z</time>
      </trkpt>
      <trkpt lat="47.30051" lon="-1.68517">
        <ele>68.6</ele>
        <time>2011-07-28T14:23:05Z</time>
      </trkpt>
      <trkpt lat="47.30047" lon="-1.68519">
        <ele>68.5</ele>
        <time>2011-07-28T14:23:06Z</time>
      </trkpt>
      <trkpt lat="47.30043" lon="-1.68521">
        <ele>68.8</ele>
        <time>2011-07-28T14:23:07Z</time>
      </trkpt>
      <trkpt lat="47.3004" lon="-1.68524">
        <ele>69</ele>
        <time>2011-07-28T14:23:08Z</time>
      </trkpt>
      <trkpt lat="47.30036" lon="-1.68526">
        <ele>69.2</ele>
        <time>2011-07-28T14:23:09Z</time>
      </trkpt>
      <trkpt lat="47.30032" lon="-1.68528">
        <ele>68.9</ele>
        <time>2011-07-28T14:23:10Z</time>
      </trkpt>
      <trkpt lat="47.30029" lon="-1.6853">
        <ele>68.7</ele>
        <time>2011-07-28T14:23:11Z</time>
      </trkpt>
      <trkpt lat="47.30025" lon="-1.68532">
        <ele>68.6</ele>
        <time>2011-07-28T14:23:12Z</time>
      </trkpt>
      <trkpt lat="47.30021" lon="-1.68534">
        <ele>68.3</ele>
        <time>2011-07-28T14:23:13Z</time>
      </trkpt>
      <trkpt lat="47.30018" lon="-1.68536">
        <ele>68.1</ele>
        <time>2011-07-28T14:23:14Z</time>
      </trkpt>
      <trkpt lat="47.30014" lon="-1.68538">
        <ele>68</ele>
        <time>2011-07-28T14:23:15Z</time>
      </trkpt>
      <trkpt lat="47.30011" lon="-1.68539">
        <ele>68.2</ele>
        <time>2011-07-28T14:23:16Z</time>
      </trkpt>
      <trkpt lat="47.30008" lon="-1.6854">
        <ele>68.5</ele>
        <time>2011-07-28T14:23:17Z</time>
      </trkpt>
      <trkpt lat="47.30005" lon="-1.68541">
        <ele>68.6</ele>
        <time>2011-07-28T14:23:18Z</time>
      </trkpt>
      <trkpt lat="47.30003" lon="-1.68542">
        <ele>68.7</ele>
        <time>2011-07-28T14:23:19Z</time>
      </trkpt>
      <trkpt lat="47.29999" lon="-1.68544">
        <ele>67.9</ele>
        <time>2011-07-28T14:23:21Z</time>
      </trkpt>
      <trkpt lat="47.29995" lon="-1.68548">
        <ele>67.1</ele>
        <time>2011-07-28T14:23:26Z</time>
      </trkpt>
      <trkpt lat="47.29994" lon="-1.68554">
        <ele>67.5</ele>
        <time>2011-07-28T14:23:29Z</time>
      </trkpt>
      <trkpt lat="47.29996" lon="-1.68558">
        <ele>67.8</ele>
        <time>2011-07-28T14:23:31Z</time>
      </trkpt>
      <trkpt lat="47.29998" lon="-1.68563">
        <ele>67.3</ele>
        <time>2011-07-28T14:23:33Z</time>
      </trkpt>
      <trkpt lat="47.30001" lon="-1.68566">
        <ele>67.1</ele>
        <time>2011-07-28T14:23:35Z</time>
      </trkpt>
      <trkpt lat="47.30003" lon="-1.6857">
        <ele>66.8</ele>
        <time>2011-07-28T14:23:37Z</time>
      </trkpt>
      <trkpt lat="47.30005" lon="-1.68575">
        <ele>66.9</ele>
        <time>2011-07-28T14:23:39Z</time>
      </trkpt>
      <trkpt lat="47.30008" lon="-1.6858">
        <ele>67.1</ele>
        <time>2011-07-28T14:23:41Z</time>
      </trkpt>
      <trkpt lat="47.3001" lon="-1.68585">
        <ele>67.5</ele>
        <time>2011-07-28T14:23:43Z</time>
      </trkpt>
      <trkpt lat="47.30011" lon="-1.6859">
        <ele>67.7</ele>
        <time>2011-07-28T14:23:45Z</time>
      </trkpt>
      <trkpt lat="47.30012" lon="-1.68593">
        <ele>67.7</ele>
        <time>2011-07-28T14:23:46Z</time>
      </trkpt>
      <trkpt lat="47.30015" lon="-1.686">
        <ele>67.6</ele>
        <time>2011-07-28T14:23:49Z</time>
      </trkpt>
      <trkpt lat="47.30016" lon="-1.68603">
        <ele>67.5</ele>
        <time>2011-07-28T14:23:50Z</time>
      </trkpt>
      <trkpt lat="47.30018" lon="-1.68606">
        <ele>67.7</ele>
        <time>2011-07-28T14:23:51Z</time>
      </trkpt>
      <trkpt lat="47.30019" lon="-1.68609">
        <ele>67.8</ele>
        <time>2011-07-28T14:23:52Z</time>
      </trkpt>
      <trkpt lat="47.3002" lon="-1.68612">
        <ele>67.9</ele>
        <time>2011-07-28T14:23:53Z</time>
      </trkpt>
      <trkpt lat="47.30021" lon="-1.68615">
        <ele>67.9</ele>
        <time>2011-07-28T14:23:54Z</time>
      </trkpt>
      <trkpt lat="47.30022" lon="-1.68618">
        <ele>68.3</ele>
        <time>2011-07-28T14:23:55Z</time>
      </trkpt>
      <trkpt lat="47.30023" lon="-1.68621">
        <ele>68.6</ele>
        <time>2011-07-28T14:23:56Z</time>
      </trkpt>
      <trkpt lat="47.30025" lon="-1.68625">
        <ele>68.8</ele>
        <time>2011-07-28T14:23:57Z</time>
      </trkpt>
      <trkpt lat="47.30026" lon="-1.68628">
        <ele>68.5</ele>
        <time>2011-07-28T14:23:58Z</time>
      </trkpt>
      <trkpt lat="47.30027" lon="-1.68632">
        <ele>68.3</ele>
        <time>2011-07-28T14:23:59Z</time>
      </trkpt>
      <trkpt lat="47.30028" lon="-1.68635">
        <ele>68.1</ele>
        <time>2011-07-28T14:24:00Z</time>
      </trkpt>
      <trkpt lat="47.30029" lon="-1.68639">
        <ele>67.9</ele>
        <time>2011-07-28T14:24:01Z</time>
      </trkpt>
      <trkpt lat="47.30029" lon="-1.68643">
        <ele>67.8</ele>
        <time>2011-07-28T14:24:02Z</time>
      </trkpt>
      <trkpt lat="47.30031" lon="-1.68646">
        <ele>67.8</ele>
        <time>2011-07-28T14:24:03Z</time>
      </trkpt>
      <trkpt lat="47.30032" lon="-1.6865">
        <ele>67.8</ele>
        <time>2011-07-28T14:24:04Z</time>
      </trkpt>
      <trkpt lat="47.30033" lon="-1.68654">
        <ele>67.8</ele>
        <time>2011-07-28T14:24:05Z</time>
      </trkpt>
      <trkpt lat="47.30034" lon="-1.68658">
        <ele>67.8</ele>
        <time>2011-07-28T14:24:06Z</time>
      </trkpt>
      <trkpt lat="47.30035" lon="-1.68662">
        <ele>67.8</ele>
        <time>2011-07-28T14:24:07Z</time>
      </trkpt>
      <trkpt lat="47.30036" lon="-1.68666">
        <ele>67.8</ele>
        <time>2011-07-28T14:24:08Z</time>
      </trkpt>
      <trkpt lat="47.30037" lon="-1.68669">
        <ele>67.8</ele>
        <time>2011-07-28T14:24:09Z</time>
      </trkpt>
      <trkpt lat="47.30038" lon="-1.68673">
        <ele>67.8</ele>
        <time>2011-07-28T14:24:10Z</time>
      </trkpt>
      <trkpt lat="47.30039" lon="-1.68677">
        <ele>67.6</ele>
        <time>2011-07-28T14:24:11Z</time>
      </trkpt>
      <trkpt lat="47.3004" lon="-1.68681">
        <ele>67.4</ele>
        <time>2011-07-28T14:24:12Z</time>
      </trkpt>
      <trkpt lat="47.30042" lon="-1.68685">
        <ele>67.2</ele>
        <time>2011-07-28T14:24:13Z</time>
      </trkpt>
      <trkpt lat="47.30043" lon="-1.68689">
        <ele>66.9</ele>
        <time>2011-07-28T14:24:14Z</time>
      </trkpt>
      <trkpt lat="47.30044" lon="-1.68694">
        <ele>66.7</ele>
        <time>2011-07-28T14:24:15Z</time>
      </trkpt>
      <trkpt lat="47.30045" lon="-1.68698">
        <ele>66.5</ele>
        <time>2011-07-28T14:24:16Z</time>
      </trkpt>
      <trkpt lat="47.30046" lon="-1.68701">
        <ele>66.6</ele>
        <time>2011-07-28T14:24:17Z</time>
      </trkpt>
      <trkpt lat="47.30048" lon="-1.68705">
        <ele>66.6</ele>
        <time>2011-07-28T14:24:18Z</time>
      </trkpt>
      <trkpt lat="47.30049" lon="-1.68709">
        <ele>66.6</ele>
        <time>2011-07-28T14:24:19Z</time>
      </trkpt>
      <trkpt lat="47.30051" lon="-1.68712">
        <ele>67</ele>
        <time>2011-07-28T14:24:20Z</time>
      </trkpt>
      <trkpt lat="47.30052" lon="-1.68716">
        <ele>67.3</ele>
        <time>2011-07-28T14:24:21Z</time>
      </trkpt>
      <trkpt lat="47.30053" lon="-1.6872">
        <ele>67.5</ele>
        <time>2011-07-28T14:24:22Z</time>
      </trkpt>
      <trkpt lat="47.30055" lon="-1.68724">
        <ele>67.3</ele>
        <time>2011-07-28T14:24:23Z</time>
      </trkpt>
      <trkpt lat="47.30056" lon="-1.68728">
        <ele>67.1</ele>
        <time>2011-07-28T14:24:24Z</time>
      </trkpt>
      <trkpt lat="47.30057" lon="-1.68732">
        <ele>67</ele>
        <time>2011-07-28T14:24:25Z</time>
      </trkpt>
      <trkpt lat="47.30058" lon="-1.68735">
        <ele>66.9</ele>
        <time>2011-07-28T14:24:26Z</time>
      </trkpt>
      <trkpt lat="47.30059" lon="-1.68739">
        <ele>66.7</ele>
        <time>2011-07-28T14:24:27Z</time>
      </trkpt>
      <trkpt lat="47.3006" lon="-1.68742">
        <ele>66.6</ele>
        <time>2011-07-28T14:24:28Z</time>
      </trkpt>
      <trkpt lat="47.30061" lon="-1.68746">
        <ele>66.5</ele>
        <time>2011-07-28T14:24:29Z</time>
      </trkpt>
      <trkpt lat="47.30062" lon="-1.6875">
        <ele>66.7</ele>
        <time>2011-07-28T14:24:30Z</time>
      </trkpt>
      <trkpt lat="47.30064" lon="-1.68753">
        <ele>66.9</ele>
        <time>2011-07-28T14:24:31Z</time>
      </trkpt>
      <trkpt lat="47.30065" lon="-1.68757">
        <ele>67</ele>
        <time>2011-07-28T14:24:32Z</time>
      </trkpt>
      <trkpt lat="47.30066" lon="-1.6876">
        <ele>67.2</ele>
        <time>2011-07-28T14:24:33Z</time>
      </trkpt>
      <trkpt lat="47.30067" lon="-1.68763">
        <ele>67.4</ele>
        <time>2011-07-28T14:24:34Z</time>
      </trkpt>
      <trkpt lat="47.30069" lon="-1.68767">
        <ele>67.5</ele>
        <time>2011-07-28T14:24:35Z</time>
      </trkpt>
      <trkpt lat="47.3007" lon="-1.6877">
        <ele>67.6</ele>
        <time>2011-07-28T14:24:36Z</time>
      </trkpt>
      <trkpt lat="47.30071" lon="-1.68773">
        <ele>67.6</ele>
        <time>2011-07-28T14:24:37Z</time>
      </trkpt>
      <trkpt lat="47.30073" lon="-1.68776">
        <ele>67.7</ele>
        <time>2011-07-28T14:24:38Z</time>
      </trkpt>
      <trkpt lat="47.30074" lon="-1.68779">
        <ele>67.4</ele>
        <time>2011-07-28T14:24:39Z</time>
      </trkpt>
      <trkpt lat="47.30075" lon="-1.68782">
        <ele>67.3</ele>
        <time>2011-07-28T14:24:40Z</time>
      </trkpt>
      <trkpt lat="47.30077" lon="-1.68785">
        <ele>67.2</ele>
        <time>2011-07-28T14:24:41Z</time>
      </trkpt>
      <trkpt lat="47.30078" lon="-1.68789">
        <ele>67.1</ele>
        <time>2011-07-28T14:24:42Z</time>
      </trkpt>
      <trkpt lat="47.30079" lon="-1.68792">
        <ele>66.9</ele>
        <time>2011-07-28T14:24:43Z</time>
      </trkpt>
      <trkpt lat="47.30081" lon="-1.68795">
        <ele>66.7</ele>
        <time>2011-07-28T14:24:44Z</time>
      </trkpt>
      <trkpt lat="47.30083" lon="-1.68797">
        <ele>66.6</ele>
        <time>2011-07-28T14:24:45Z</time>
      </trkpt>
      <trkpt lat="47.30084" lon="-1.688">
        <ele>67</ele>
        <time>2011-07-28T14:24:46Z</time>
      </trkpt>
      <trkpt lat="47.30086" lon="-1.68803">
        <ele>67.2</ele>
        <time>2011-07-28T14:24:47Z</time>
      </trkpt>
      <trkpt lat="47.30088" lon="-1.68806">
        <ele>67.4</ele>
        <time>2011-07-28T14:24:48Z</time>
      </trkpt>
      <trkpt lat="47.3009" lon="-1.68808">
        <ele>67.4</ele>
        <time>2011-07-28T14:24:49Z</time>
      </trkpt>
      <trkpt lat="47.30091" lon="-1.68811">
        <ele>67.5</ele>
        <time>2011-07-28T14:24:50Z</time>
      </trkpt>
      <trkpt lat="47.30093" lon="-1.68813">
        <ele>67.5</ele>
        <time>2011-07-28T14:24:51Z</time>
      </trkpt>
      <trkpt lat="47.30095" lon="-1.68816">
        <ele>67.7</ele>
        <time>2011-07-28T14:24:52Z</time>
      </trkpt>
      <trkpt lat="47.30097" lon="-1.68818">
        <ele>67.9</ele>
        <time>2011-07-28T14:24:53Z</time>
      </trkpt>
      <trkpt lat="47.30099" lon="-1.68821">
        <ele>68</ele>
        <time>2011-07-28T14:24:54Z</time>
      </trkpt>
      <trkpt lat="47.30101" lon="-1.68823">
        <ele>67.8</ele>
        <time>2011-07-28T14:24:55Z</time>
      </trkpt>
      <trkpt lat="47.30103" lon="-1.68826">
        <ele>67.6</ele>
        <time>2011-07-28T14:24:56Z</time>
      </trkpt>
      <trkpt lat="47.30105" lon="-1.68828">
        <ele>67.4</ele>
        <time>2011-07-28T14:24:57Z</time>
      </trkpt>
      <trkpt lat="47.30107" lon="-1.6883">
        <ele>67.2</ele>
        <time>2011-07-28T14:24:58Z</time>
      </trkpt>
      <trkpt lat="47.30109" lon="-1.68833">
        <ele>67</ele>
        <time>2011-07-28T14:24:59Z</time>
      </trkpt>
      <trkpt lat="47.30111" lon="-1.68835">
        <ele>66.8</ele>
        <time>2011-07-28T14:25:00Z</time>
      </trkpt>
      <trkpt lat="47.30112" lon="-1.68837">
        <ele>66.7</ele>
        <time>2011-07-28T14:25:01Z</time>
      </trkpt>
      <trkpt lat="47.30114" lon="-1.6884">
        <ele>67.1</ele>
        <time>2011-07-28T14:25:02Z</time>
      </trkpt>
      <trkpt lat="47.30116" lon="-1.68842">
        <ele>67.5</ele>
        <time>2011-07-28T14:25:03Z</time>
      </trkpt>
      <trkpt lat="47.30118" lon="-1.68845">
        <ele>67.7</ele>
        <time>2011-07-28T14:25:04Z</time>
      </trkpt>
      <trkpt lat="47.30121" lon="-1.68847">
        <ele>68.2</ele>
        <time>2011-07-28T14:25:05Z</time>
      </trkpt>
      <trkpt lat="47.30122" lon="-1.6885">
        <ele>68.6</ele>
        <time>2011-07-28T14:25:06Z</time>
      </trkpt>
      <trkpt lat="47.30125" lon="-1.68852">
        <ele>68.8</ele>
        <time>2011-07-28T14:25:07Z</time>
      </trkpt>
      <trkpt lat="47.30127" lon="-1.68855">
        <ele>68.9</ele>
        <time>2011-07-28T14:25:08Z</time>
      </trkpt>
      <trkpt lat="47.30129" lon="-1.68857">
        <ele>68.9</ele>
        <time>2011-07-28T14:25:09Z</time>
      </trkpt>
      <trkpt lat="47.3013" lon="-1.6886">
        <ele>69</ele>
        <time>2011-07-28T14:25:10Z</time>
      </trkpt>
      <trkpt lat="47.30132" lon="-1.68863">
        <ele>68.8</ele>
        <time>2011-07-28T14:25:11Z</time>
      </trkpt>
      <trkpt lat="47.30134" lon="-1.68866">
        <ele>68.8</ele>
        <time>2011-07-28T14:25:12Z</time>
      </trkpt>
      <trkpt lat="47.30136" lon="-1.68869">
        <ele>68.7</ele>
        <time>2011-07-28T14:25:13Z</time>
      </trkpt>
      <trkpt lat="47.30138" lon="-1.68872">
        <ele>68.6</ele>
        <time>2011-07-28T14:25:14Z</time>
      </trkpt>
      <trkpt lat="47.3014" lon="-1.68876">
        <ele>68.8</ele>
        <time>2011-07-28T14:25:15Z</time>
      </trkpt>
      <trkpt lat="47.30142" lon="-1.6888">
        <ele>68.9</ele>
        <time>2011-07-28T14:25:16Z</time>
      </trkpt>
      <trkpt lat="47.30144" lon="-1.68884">
        <ele>69</ele>
        <time>2011-07-28T14:25:17Z</time>
      </trkpt>
      <trkpt lat="47.30146" lon="-1.68887">
        <ele>69.1</ele>
        <time>2011-07-28T14:25:18Z</time>
      </trkpt>
      <trkpt lat="47.30147" lon="-1.6889">
        <ele>69.1</ele>
        <time>2011-07-28T14:25:19Z</time>
      </trkpt>
      <trkpt lat="47.30149" lon="-1.68893">
        <ele>69.2</ele>
        <time>2011-07-28T14:25:20Z</time>
      </trkpt>
      <trkpt lat="47.3015" lon="-1.68896">
        <ele>69.3</ele>
        <time>2011-07-28T14:25:21Z</time>
      </trkpt>
      <trkpt lat="47.30151" lon="-1.68899">
        <ele>69.5</ele>
        <time>2011-07-28T14:25:22Z</time>
      </trkpt>
      <trkpt lat="47.30152" lon="-1.68903">
        <ele>69.6</ele>
        <time>2011-07-28T14:25:23Z</time>
      </trkpt>
      <trkpt lat="47.30153" lon="-1.68906">
        <ele>69.6</ele>
        <time>2011-07-28T14:25:24Z</time>
      </trkpt>
      <trkpt lat="47.30154" lon="-1.6891">
        <ele>69.6</ele>
        <time>2011-07-28T14:25:25Z</time>
      </trkpt>
      <trkpt lat="47.30156" lon="-1.68914">
        <ele>69.7</ele>
        <time>2011-07-28T14:25:26Z</time>
      </trkpt>
      <trkpt lat="47.30157" lon="-1.68918">
        <ele>69.6</ele>
        <time>2011-07-28T14:25:27Z</time>
      </trkpt>
      <trkpt lat="47.30158" lon="-1.68921">
        <ele>69.5</ele>
        <time>2011-07-28T14:25:28Z</time>
      </trkpt>
      <trkpt lat="47.3016" lon="-1.68925">
        <ele>69.4</ele>
        <time>2011-07-28T14:25:29Z</time>
      </trkpt>
      <trkpt lat="47.30161" lon="-1.68929">
        <ele>69.7</ele>
        <time>2011-07-28T14:25:30Z</time>
      </trkpt>
      <trkpt lat="47.30162" lon="-1.68932">
        <ele>69.8</ele>
        <time>2011-07-28T14:25:31Z</time>
      </trkpt>
      <trkpt lat="47.30163" lon="-1.68936">
        <ele>70</ele>
        <time>2011-07-28T14:25:32Z</time>
      </trkpt>
      <trkpt lat="47.30164" lon="-1.68939">
        <ele>70.1</ele>
        <time>2011-07-28T14:25:33Z</time>
      </trkpt>
      <trkpt lat="47.30165" lon="-1.68943">
        <ele>70.2</ele>
        <time>2011-07-28T14:25:34Z</time>
      </trkpt>
      <trkpt lat="47.30166" lon="-1.68947">
        <ele>70.2</ele>
        <time>2011-07-28T14:25:35Z</time>
      </trkpt>
      <trkpt lat="47.30168" lon="-1.68951">
        <ele>70.3</ele>
        <time>2011-07-28T14:25:36Z</time>
      </trkpt>
      <trkpt lat="47.30169" lon="-1.68955">
        <ele>70.1</ele>
        <time>2011-07-28T14:25:37Z</time>
      </trkpt>
      <trkpt lat="47.30171" lon="-1.68958">
        <ele>70</ele>
        <time>2011-07-28T14:25:38Z</time>
      </trkpt>
      <trkpt lat="47.30172" lon="-1.68962">
        <ele>69.9</ele>
        <time>2011-07-28T14:25:39Z</time>
      </trkpt>
      <trkpt lat="47.30173" lon="-1.68966">
        <ele>69.8</ele>
        <time>2011-07-28T14:25:40Z</time>
      </trkpt>
      <trkpt lat="47.30175" lon="-1.6897">
        <ele>69.7</ele>
        <time>2011-07-28T14:25:41Z</time>
      </trkpt>
      <trkpt lat="47.30176" lon="-1.68974">
        <ele>69.6</ele>
        <time>2011-07-28T14:25:42Z</time>
      </trkpt>
      <trkpt lat="47.30178" lon="-1.68978">
        <ele>69.9</ele>
        <time>2011-07-28T14:25:43Z</time>
      </trkpt>
      <trkpt lat="47.30179" lon="-1.68983">
        <ele>70</ele>
        <time>2011-07-28T14:25:44Z</time>
      </trkpt>
      <trkpt lat="47.3018" lon="-1.68987">
        <ele>70.2</ele>
        <time>2011-07-28T14:25:45Z</time>
      </trkpt>
      <trkpt lat="47.30182" lon="-1.68991">
        <ele>70.2</ele>
        <time>2011-07-28T14:25:46Z</time>
      </trkpt>
      <trkpt lat="47.30183" lon="-1.68995">
        <ele>70.1</ele>
        <time>2011-07-28T14:25:47Z</time>
      </trkpt>
      <trkpt lat="47.30184" lon="-1.68999">
        <ele>70.1</ele>
        <time>2011-07-28T14:25:48Z</time>
      </trkpt>
      <trkpt lat="47.30185" lon="-1.69003">
        <ele>70.1</ele>
        <time>2011-07-28T14:25:49Z</time>
      </trkpt>
      <trkpt lat="47.30187" lon="-1.69007">
        <ele>70.1</ele>
        <time>2011-07-28T14:25:50Z</time>
      </trkpt>
      <trkpt lat="47.30188" lon="-1.69011">
        <ele>70.1</ele>
        <time>2011-07-28T14:25:51Z</time>
      </trkpt>
      <trkpt lat="47.30189" lon="-1.69016">
        <ele>70.1</ele>
        <time>2011-07-28T14:25:52Z</time>
      </trkpt>
      <trkpt lat="47.3019" lon="-1.6902">
        <ele>70.1</ele>
        <time>2011-07-28T14:25:53Z</time>
      </trkpt>
      <trkpt lat="47.30191" lon="-1.69024">
        <ele>70.1</ele>
        <time>2011-07-28T14:25:54Z</time>
      </trkpt>
      <trkpt lat="47.30192" lon="-1.69028">
        <ele>70.1</ele>
        <time>2011-07-28T14:25:55Z</time>
      </trkpt>
      <trkpt lat="47.30192" lon="-1.69033">
        <ele>69.7</ele>
        <time>2011-07-28T14:25:56Z</time>
      </trkpt>
      <trkpt lat="47.30193" lon="-1.69037">
        <ele>69.4</ele>
        <time>2011-07-28T14:25:57Z</time>
      </trkpt>
      <trkpt lat="47.30193" lon="-1.69041">
        <ele>69.3</ele>
        <time>2011-07-28T14:25:58Z</time>
      </trkpt>
      <trkpt lat="47.30193" lon="-1.69045">
        <ele>69.3</ele>
        <time>2011-07-28T14:25:59Z</time>
      </trkpt>
      <trkpt lat="47.30193" lon="-1.69049">
        <ele>69.4</ele>
        <time>2011-07-28T14:26:00Z</time>
      </trkpt>
      <trkpt lat="47.30193" lon="-1.69054">
        <ele>69.4</ele>
        <time>2011-07-28T14:26:01Z</time>
      </trkpt>
      <trkpt lat="47.30193" lon="-1.69058">
        <ele>69.3</ele>
        <time>2011-07-28T14:26:02Z</time>
      </trkpt>
      <trkpt lat="47.30193" lon="-1.69063">
        <ele>69.2</ele>
        <time>2011-07-28T14:26:03Z</time>
      </trkpt>
      <trkpt lat="47.30192" lon="-1.69069">
        <ele>69.2</ele>
        <time>2011-07-28T14:26:04Z</time>
      </trkpt>
      <trkpt lat="47.30192" lon="-1.69075">
        <ele>69.1</ele>
        <time>2011-07-28T14:26:05Z</time>
      </trkpt>
      <trkpt lat="47.30193" lon="-1.69082">
        <ele>69.3</ele>
        <time>2011-07-28T14:26:06Z</time>
      </trkpt>
      <trkpt lat="47.30193" lon="-1.69091">
        <ele>69.4</ele>
        <time>2011-07-28T14:26:07Z</time>
      </trkpt>
      <trkpt lat="47.30193" lon="-1.691">
        <ele>69.5</ele>
        <time>2011-07-28T14:26:08Z</time>
      </trkpt>
      <trkpt lat="47.30195" lon="-1.6911">
        <ele>69.3</ele>
        <time>2011-07-28T14:26:09Z</time>
      </trkpt>
      <trkpt lat="47.30198" lon="-1.6912">
        <ele>69.2</ele>
        <time>2011-07-28T14:26:10Z</time>
      </trkpt>
      <trkpt lat="47.302" lon="-1.6913">
        <ele>69.1</ele>
        <time>2011-07-28T14:26:11Z</time>
      </trkpt>
      <trkpt lat="47.30203" lon="-1.69141">
        <ele>69.4</ele>
        <time>2011-07-28T14:26:12Z</time>
      </trkpt>
      <trkpt lat="47.30205" lon="-1.69152">
        <ele>69.6</ele>
        <time>2011-07-28T14:26:13Z</time>
      </trkpt>
      <trkpt lat="47.30208" lon="-1.69162">
        <ele>69.8</ele>
        <time>2011-07-28T14:26:14Z</time>
      </trkpt>
      <trkpt lat="47.30211" lon="-1.69172">
        <ele>69.8</ele>
        <time>2011-07-28T14:26:15Z</time>
      </trkpt>
      <trkpt lat="47.30213" lon="-1.69181">
        <ele>69.8</ele>
        <time>2011-07-28T14:26:16Z</time>
      </trkpt>
      <trkpt lat="47.30216" lon="-1.6919">
        <ele>69.8</ele>
        <time>2011-07-28T14:26:17Z</time>
      </trkpt>
      <trkpt lat="47.30218" lon="-1.69199">
        <ele>70.3</ele>
        <time>2011-07-28T14:26:18Z</time>
      </trkpt>
      <trkpt lat="47.3022" lon="-1.69208">
        <ele>70.6</ele>
        <time>2011-07-28T14:26:19Z</time>
      </trkpt>
      <trkpt lat="47.30222" lon="-1.69216">
        <ele>70.9</ele>
        <time>2011-07-28T14:26:20Z</time>
      </trkpt>
      <trkpt lat="47.30225" lon="-1.69223">
        <ele>70.7</ele>
        <time>2011-07-28T14:26:21Z</time>
      </trkpt>
      <trkpt lat="47.30228" lon="-1.6923">
        <ele>70.6</ele>
        <time>2011-07-28T14:26:22Z</time>
      </trkpt>
      <trkpt lat="47.3023" lon="-1.69238">
        <ele>70.5</ele>
        <time>2011-07-28T14:26:23Z</time>
      </trkpt>
      <trkpt lat="47.30232" lon="-1.69246">
        <ele>70.5</ele>
        <time>2011-07-28T14:26:24Z</time>
      </trkpt>
      <trkpt lat="47.30234" lon="-1.69253">
        <ele>70.7</ele>
        <time>2011-07-28T14:26:25Z</time>
      </trkpt>
      <trkpt lat="47.30237" lon="-1.69261">
        <ele>70.9</ele>
        <time>2011-07-28T14:26:26Z</time>
      </trkpt>
      <trkpt lat="47.30239" lon="-1.69269">
        <ele>71.1</ele>
        <time>2011-07-28T14:26:27Z</time>
      </trkpt>
      <trkpt lat="47.30241" lon="-1.69277">
        <ele>71.5</ele>
        <time>2011-07-28T14:26:28Z</time>
      </trkpt>
      <trkpt lat="47.30244" lon="-1.69285">
        <ele>71.7</ele>
        <time>2011-07-28T14:26:29Z</time>
      </trkpt>
      <trkpt lat="47.30246" lon="-1.69293">
        <ele>71.9</ele>
        <time>2011-07-28T14:26:30Z</time>
      </trkpt>
      <trkpt lat="47.30249" lon="-1.69302">
        <ele>71.9</ele>
        <time>2011-07-28T14:26:31Z</time>
      </trkpt>
      <trkpt lat="47.30251" lon="-1.6931">
        <ele>71.8</ele>
        <time>2011-07-28T14:26:32Z</time>
      </trkpt>
      <trkpt lat="47.30254" lon="-1.69318">
        <ele>71.8</ele>
        <time>2011-07-28T14:26:33Z</time>
      </trkpt>
      <trkpt lat="47.30256" lon="-1.69326">
        <ele>71.7</ele>
        <time>2011-07-28T14:26:34Z</time>
      </trkpt>
      <trkpt lat="47.30258" lon="-1.69334">
        <ele>71.7</ele>
        <time>2011-07-28T14:26:35Z</time>
      </trkpt>
      <trkpt lat="47.30261" lon="-1.69342">
        <ele>71.7</ele>
        <time>2011-07-28T14:26:36Z</time>
      </trkpt>
      <trkpt lat="47.30263" lon="-1.69351">
        <ele>71.3</ele>
        <time>2011-07-28T14:26:37Z</time>
      </trkpt>
      <trkpt lat="47.30266" lon="-1.6936">
        <ele>71</ele>
        <time>2011-07-28T14:26:38Z</time>
      </trkpt>
      <trkpt lat="47.30268" lon="-1.69369">
        <ele>70.8</ele>
        <time>2011-07-28T14:26:39Z</time>
      </trkpt>
      <trkpt lat="47.30271" lon="-1.69378">
        <ele>70.7</ele>
        <time>2011-07-28T14:26:40Z</time>
      </trkpt>
      <trkpt lat="47.30273" lon="-1.69387">
        <ele>70.3</ele>
        <time>2011-07-28T14:26:41Z</time>
      </trkpt>
      <trkpt lat="47.30276" lon="-1.69395">
        <ele>70.1</ele>
        <time>2011-07-28T14:26:42Z</time>
      </trkpt>
      <trkpt lat="47.3028" lon="-1.69402">
        <ele>69.9</ele>
        <time>2011-07-28T14:26:43Z</time>
      </trkpt>
      <trkpt lat="47.30283" lon="-1.69411">
        <ele>69.6</ele>
        <time>2011-07-28T14:26:44Z</time>
      </trkpt>
      <trkpt lat="47.30286" lon="-1.69421">
        <ele>69.4</ele>
        <time>2011-07-28T14:26:45Z</time>
      </trkpt>
      <trkpt lat="47.30289" lon="-1.69432">
        <ele>69.2</ele>
        <time>2011-07-28T14:26:46Z</time>
      </trkpt>
      <trkpt lat="47.30293" lon="-1.69443">
        <ele>68.7</ele>
        <time>2011-07-28T14:26:47Z</time>
      </trkpt>
      <trkpt lat="47.30297" lon="-1.69454">
        <ele>68.3</ele>
        <time>2011-07-28T14:26:48Z</time>
      </trkpt>
      <trkpt lat="47.30302" lon="-1.69465">
        <ele>68</ele>
        <time>2011-07-28T14:26:49Z</time>
      </trkpt>
      <trkpt lat="47.30307" lon="-1.69477">
        <ele>67.1</ele>
        <time>2011-07-28T14:26:50Z</time>
      </trkpt>
      <trkpt lat="47.30312" lon="-1.69489">
        <ele>66.4</ele>
        <time>2011-07-28T14:26:51Z</time>
      </trkpt>
      <trkpt lat="47.30318" lon="-1.69502">
        <ele>65.9</ele>
        <time>2011-07-28T14:26:52Z</time>
      </trkpt>
      <trkpt lat="47.30323" lon="-1.69514">
        <ele>65.1</ele>
        <time>2011-07-28T14:26:53Z</time>
      </trkpt>
      <trkpt lat="47.30329" lon="-1.69526">
        <ele>64.5</ele>
        <time>2011-07-28T14:26:54Z</time>
      </trkpt>
      <trkpt lat="47.30335" lon="-1.69539">
        <ele>64.1</ele>
        <time>2011-07-28T14:26:55Z</time>
      </trkpt>
      <trkpt lat="47.30341" lon="-1.69552">
        <ele>63.8</ele>
        <time>2011-07-28T14:26:56Z</time>
      </trkpt>
      <trkpt lat="47.30347" lon="-1.69566">
        <ele>63.2</ele>
        <time>2011-07-28T14:26:57Z</time>
      </trkpt>
      <trkpt lat="47.30352" lon="-1.6958">
        <ele>62.7</ele>
        <time>2011-07-28T14:26:58Z</time>
      </trkpt>
      <trkpt lat="47.30356" lon="-1.69595">
        <ele>62.4</ele>
        <time>2011-07-28T14:26:59Z</time>
      </trkpt>
      <trkpt lat="47.30359" lon="-1.6961">
        <ele>61.6</ele>
        <time>2011-07-28T14:27:00Z</time>
      </trkpt>
      <trkpt lat="47.30359" lon="-1.69625">
        <ele>61</ele>
        <time>2011-07-28T14:27:01Z</time>
      </trkpt>
      <trkpt lat="47.30359" lon="-1.69638">
        <ele>60.5</ele>
        <time>2011-07-28T14:27:02Z</time>
      </trkpt>
      <trkpt lat="47.30357" lon="-1.69651">
        <ele>60.5</ele>
        <time>2011-07-28T14:27:03Z</time>
      </trkpt>
      <trkpt lat="47.30356" lon="-1.69664">
        <ele>60.5</ele>
        <time>2011-07-28T14:27:04Z</time>
      </trkpt>
      <trkpt lat="47.30355" lon="-1.69675">
        <ele>60.5</ele>
        <time>2011-07-28T14:27:05Z</time>
      </trkpt>
      <trkpt lat="47.30354" lon="-1.69685">
        <ele>60.5</ele>
        <time>2011-07-28T14:27:06Z</time>
      </trkpt>
      <trkpt lat="47.30353" lon="-1.69694">
        <ele>60.4</ele>
        <time>2011-07-28T14:27:07Z</time>
      </trkpt>
      <trkpt lat="47.30352" lon="-1.69702">
        <ele>60.4</ele>
        <time>2011-07-28T14:27:08Z</time>
      </trkpt>
      <trkpt lat="47.30351" lon="-1.69709">
        <ele>60.9</ele>
        <time>2011-07-28T14:27:09Z</time>
      </trkpt>
      <trkpt lat="47.3035" lon="-1.69715">
        <ele>61.3</ele>
        <time>2011-07-28T14:27:10Z</time>
      </trkpt>
      <trkpt lat="47.30349" lon="-1.6972">
        <ele>61.6</ele>
        <time>2011-07-28T14:27:11Z</time>
      </trkpt>
      <trkpt lat="47.30348" lon="-1.69726">
        <ele>61.9</ele>
        <time>2011-07-28T14:27:12Z</time>
      </trkpt>
      <trkpt lat="47.30347" lon="-1.69731">
        <ele>61.9</ele>
        <time>2011-07-28T14:27:13Z</time>
      </trkpt>
      <trkpt lat="47.30346" lon="-1.69736">
        <ele>62</ele>
        <time>2011-07-28T14:27:14Z</time>
      </trkpt>
      <trkpt lat="47.30339" lon="-1.69767">
        <ele>62.5</ele>
        <time>2011-07-28T14:27:21Z</time>
      </trkpt>
      <trkpt lat="47.30338" lon="-1.69771">
        <ele>63.1</ele>
        <time>2011-07-28T14:27:22Z</time>
      </trkpt>
      <trkpt lat="47.30337" lon="-1.69775">
        <ele>63.6</ele>
        <time>2011-07-28T14:27:23Z</time>
      </trkpt>
      <trkpt lat="47.30336" lon="-1.69778">
        <ele>64</ele>
        <time>2011-07-28T14:27:24Z</time>
      </trkpt>
      <trkpt lat="47.30335" lon="-1.69781">
        <ele>63.9</ele>
        <time>2011-07-28T14:27:25Z</time>
      </trkpt>
      <trkpt lat="47.30333" lon="-1.69784">
        <ele>63.8</ele>
        <time>2011-07-28T14:27:26Z</time>
      </trkpt>
      <trkpt lat="47.30332" lon="-1.69788">
        <ele>63.7</ele>
        <time>2011-07-28T14:27:27Z</time>
      </trkpt>
      <trkpt lat="47.30331" lon="-1.69791">
        <ele>63.7</ele>
        <time>2011-07-28T14:27:28Z</time>
      </trkpt>
      <trkpt lat="47.30331" lon="-1.69794">
        <ele>64.2</ele>
        <time>2011-07-28T14:27:29Z</time>
      </trkpt>
      <trkpt lat="47.30329" lon="-1.69798">
        <ele>64.5</ele>
        <time>2011-07-28T14:27:30Z</time>
      </trkpt>
      <trkpt lat="47.30327" lon="-1.69804">
        <ele>64.8</ele>
        <time>2011-07-28T14:27:32Z</time>
      </trkpt>
      <trkpt lat="47.30326" lon="-1.69807">
        <ele>65</ele>
        <time>2011-07-28T14:27:33Z</time>
      </trkpt>
      <trkpt lat="47.30325" lon="-1.6981">
        <ele>65.1</ele>
        <time>2011-07-28T14:27:34Z</time>
      </trkpt>
      <trkpt lat="47.30324" lon="-1.69813">
        <ele>65.5</ele>
        <time>2011-07-28T14:27:35Z</time>
      </trkpt>
      <trkpt lat="47.30323" lon="-1.69816">
        <ele>65.7</ele>
        <time>2011-07-28T14:27:36Z</time>
      </trkpt>
      <trkpt lat="47.30321" lon="-1.69819">
        <ele>65.9</ele>
        <time>2011-07-28T14:27:37Z</time>
      </trkpt>
      <trkpt lat="47.3032" lon="-1.69822">
        <ele>65.6</ele>
        <time>2011-07-28T14:27:38Z</time>
      </trkpt>
      <trkpt lat="47.30319" lon="-1.69825">
        <ele>65.3</ele>
        <time>2011-07-28T14:27:39Z</time>
      </trkpt>
      <trkpt lat="47.30318" lon="-1.69828">
        <ele>65.2</ele>
        <time>2011-07-28T14:27:40Z</time>
      </trkpt>
      <trkpt lat="47.30317" lon="-1.69831">
        <ele>65.6</ele>
        <time>2011-07-28T14:27:41Z</time>
      </trkpt>
      <trkpt lat="47.30316" lon="-1.69834">
        <ele>65.9</ele>
        <time>2011-07-28T14:27:42Z</time>
      </trkpt>
      <trkpt lat="47.30315" lon="-1.69837">
        <ele>66.2</ele>
        <time>2011-07-28T14:27:43Z</time>
      </trkpt>
      <trkpt lat="47.30313" lon="-1.69843">
        <ele>66.5</ele>
        <time>2011-07-28T14:27:45Z</time>
      </trkpt>
      <trkpt lat="47.30312" lon="-1.69846">
        <ele>66.5</ele>
        <time>2011-07-28T14:27:46Z</time>
      </trkpt>
      <trkpt lat="47.3031" lon="-1.69848">
        <ele>66.6</ele>
        <time>2011-07-28T14:27:47Z</time>
      </trkpt>
      <trkpt lat="47.30309" lon="-1.69851">
        <ele>66.5</ele>
        <time>2011-07-28T14:27:48Z</time>
      </trkpt>
      <trkpt lat="47.30307" lon="-1.69854">
        <ele>66.4</ele>
        <time>2011-07-28T14:27:49Z</time>
      </trkpt>
      <trkpt lat="47.30306" lon="-1.69857">
        <ele>66.4</ele>
        <time>2011-07-28T14:27:50Z</time>
      </trkpt>
      <trkpt lat="47.30305" lon="-1.6986">
        <ele>66.9</ele>
        <time>2011-07-28T14:27:51Z</time>
      </trkpt>
      <trkpt lat="47.30303" lon="-1.69862">
        <ele>67.2</ele>
        <time>2011-07-28T14:27:52Z</time>
      </trkpt>
      <trkpt lat="47.30301" lon="-1.69865">
        <ele>67.5</ele>
        <time>2011-07-28T14:27:53Z</time>
      </trkpt>
      <trkpt lat="47.30298" lon="-1.6987">
        <ele>67.8</ele>
        <time>2011-07-28T14:27:55Z</time>
      </trkpt>
      <trkpt lat="47.30295" lon="-1.69873">
        <ele>67.8</ele>
        <time>2011-07-28T14:27:57Z</time>
      </trkpt>
      <trkpt lat="47.30292" lon="-1.69877">
        <ele>67.8</ele>
        <time>2011-07-28T14:27:59Z</time>
      </trkpt>
      <trkpt lat="47.30289" lon="-1.69881">
        <ele>67.2</ele>
        <time>2011-07-28T14:28:01Z</time>
      </trkpt>
      <trkpt lat="47.30286" lon="-1.69885">
        <ele>66.8</ele>
        <time>2011-07-28T14:28:03Z</time>
      </trkpt>
      <trkpt lat="47.30283" lon="-1.69889">
        <ele>67</ele>
        <time>2011-07-28T14:28:05Z</time>
      </trkpt>
      <trkpt lat="47.3028" lon="-1.69894">
        <ele>67.3</ele>
        <time>2011-07-28T14:28:07Z</time>
      </trkpt>
      <trkpt lat="47.30277" lon="-1.69898">
        <ele>67.4</ele>
        <time>2011-07-28T14:28:09Z</time>
      </trkpt>
      <trkpt lat="47.30274" lon="-1.69902">
        <ele>67.8</ele>
        <time>2011-07-28T14:28:11Z</time>
      </trkpt>
      <trkpt lat="47.30272" lon="-1.69904">
        <ele>67.9</ele>
        <time>2011-07-28T14:28:12Z</time>
      </trkpt>
      <trkpt lat="47.3027" lon="-1.69907">
        <ele>68</ele>
        <time>2011-07-28T14:28:13Z</time>
      </trkpt>
      <trkpt lat="47.30269" lon="-1.69909">
        <ele>68</ele>
        <time>2011-07-28T14:28:14Z</time>
      </trkpt>
      <trkpt lat="47.30267" lon="-1.69911">
        <ele>68.1</ele>
        <time>2011-07-28T14:28:15Z</time>
      </trkpt>
      <trkpt lat="47.30263" lon="-1.69914">
        <ele>68</ele>
        <time>2011-07-28T14:28:17Z</time>
      </trkpt>
      <trkpt lat="47.3026" lon="-1.69919">
        <ele>68</ele>
        <time>2011-07-28T14:28:19Z</time>
      </trkpt>
      <trkpt lat="47.30257" lon="-1.69923">
        <ele>67.4</ele>
        <time>2011-07-28T14:28:21Z</time>
      </trkpt>
      <trkpt lat="47.30253" lon="-1.69927">
        <ele>66.9</ele>
        <time>2011-07-28T14:28:23Z</time>
      </trkpt>
      <trkpt lat="47.3025" lon="-1.69931">
        <ele>66.4</ele>
        <time>2011-07-28T14:28:25Z</time>
      </trkpt>
      <trkpt lat="47.30247" lon="-1.69934">
        <ele>66.8</ele>
        <time>2011-07-28T14:28:27Z</time>
      </trkpt>
      <trkpt lat="47.30245" lon="-1.69937">
        <ele>66.9</ele>
        <time>2011-07-28T14:28:28Z</time>
      </trkpt>
      <trkpt lat="47.30243" lon="-1.69939">
        <ele>66.9</ele>
        <time>2011-07-28T14:28:29Z</time>
      </trkpt>
      <trkpt lat="47.3024" lon="-1.69941">
        <ele>67</ele>
        <time>2011-07-28T14:28:30Z</time>
      </trkpt>
      <trkpt lat="47.30238" lon="-1.69944">
        <ele>67</ele>
        <time>2011-07-28T14:28:31Z</time>
      </trkpt>
      <trkpt lat="47.30235" lon="-1.69947">
        <ele>67</ele>
        <time>2011-07-28T14:28:32Z</time>
      </trkpt>
      <trkpt lat="47.30233" lon="-1.6995">
        <ele>67</ele>
        <time>2011-07-28T14:28:33Z</time>
      </trkpt>
      <trkpt lat="47.3023" lon="-1.69953">
        <ele>67</ele>
        <time>2011-07-28T14:28:34Z</time>
      </trkpt>
      <trkpt lat="47.30227" lon="-1.69957">
        <ele>67</ele>
        <time>2011-07-28T14:28:35Z</time>
      </trkpt>
      <trkpt lat="47.30225" lon="-1.6996">
        <ele>66.8</ele>
        <time>2011-07-28T14:28:36Z</time>
      </trkpt>
      <trkpt lat="47.30222" lon="-1.69963">
        <ele>66.7</ele>
        <time>2011-07-28T14:28:37Z</time>
      </trkpt>
      <trkpt lat="47.30219" lon="-1.69965">
        <ele>66.6</ele>
        <time>2011-07-28T14:28:38Z</time>
      </trkpt>
      <trkpt lat="47.30217" lon="-1.69967">
        <ele>66.7</ele>
        <time>2011-07-28T14:28:39Z</time>
      </trkpt>
      <trkpt lat="47.30214" lon="-1.6997">
        <ele>66.8</ele>
        <time>2011-07-28T14:28:40Z</time>
      </trkpt>
      <trkpt lat="47.30212" lon="-1.69972">
        <ele>66.9</ele>
        <time>2011-07-28T14:28:41Z</time>
      </trkpt>
      <trkpt lat="47.30209" lon="-1.69975">
        <ele>67.1</ele>
        <time>2011-07-28T14:28:42Z</time>
      </trkpt>
      <trkpt lat="47.30207" lon="-1.69978">
        <ele>67.2</ele>
        <time>2011-07-28T14:28:43Z</time>
      </trkpt>
      <trkpt lat="47.30205" lon="-1.69981">
        <ele>67.3</ele>
        <time>2011-07-28T14:28:44Z</time>
      </trkpt>
      <trkpt lat="47.30203" lon="-1.69984">
        <ele>66.9</ele>
        <time>2011-07-28T14:28:45Z</time>
      </trkpt>
      <trkpt lat="47.302" lon="-1.69987">
        <ele>66.7</ele>
        <time>2011-07-28T14:28:46Z</time>
      </trkpt>
      <trkpt lat="47.30198" lon="-1.6999">
        <ele>66.5</ele>
        <time>2011-07-28T14:28:47Z</time>
      </trkpt>
      <trkpt lat="47.30196" lon="-1.69993">
        <ele>66.7</ele>
        <time>2011-07-28T14:28:48Z</time>
      </trkpt>
      <trkpt lat="47.30194" lon="-1.69996">
        <ele>66.9</ele>
        <time>2011-07-28T14:28:49Z</time>
      </trkpt>
      <trkpt lat="47.30191" lon="-1.69998">
        <ele>67.1</ele>
        <time>2011-07-28T14:28:50Z</time>
      </trkpt>
      <trkpt lat="47.30189" lon="-1.70001">
        <ele>67.2</ele>
        <time>2011-07-28T14:28:51Z</time>
      </trkpt>
      <trkpt lat="47.30186" lon="-1.70004">
        <ele>67.1</ele>
        <time>2011-07-28T14:28:52Z</time>
      </trkpt>
      <trkpt lat="47.30184" lon="-1.70007">
        <ele>67.1</ele>
        <time>2011-07-28T14:28:53Z</time>
      </trkpt>
      <trkpt lat="47.30181" lon="-1.70009">
        <ele>67.1</ele>
        <time>2011-07-28T14:28:54Z</time>
      </trkpt>
      <trkpt lat="47.30179" lon="-1.70012">
        <ele>67.3</ele>
        <time>2011-07-28T14:28:55Z</time>
      </trkpt>
      <trkpt lat="47.30176" lon="-1.70015">
        <ele>67.4</ele>
        <time>2011-07-28T14:28:56Z</time>
      </trkpt>
      <trkpt lat="47.30174" lon="-1.70018">
        <ele>67.5</ele>
        <time>2011-07-28T14:28:57Z</time>
      </trkpt>
      <trkpt lat="47.30171" lon="-1.70021">
        <ele>67.4</ele>
        <time>2011-07-28T14:28:58Z</time>
      </trkpt>
      <trkpt lat="47.30169" lon="-1.70024">
        <ele>67.3</ele>
        <time>2011-07-28T14:28:59Z</time>
      </trkpt>
      <trkpt lat="47.30166" lon="-1.70027">
        <ele>67.3</ele>
        <time>2011-07-28T14:29:00Z</time>
      </trkpt>
      <trkpt lat="47.30164" lon="-1.7003">
        <ele>67.2</ele>
        <time>2011-07-28T14:29:01Z</time>
      </trkpt>
      <trkpt lat="47.30161" lon="-1.70034">
        <ele>67.2</ele>
        <time>2011-07-28T14:29:02Z</time>
      </trkpt>
      <trkpt lat="47.30159" lon="-1.70037">
        <ele>67.1</ele>
        <time>2011-07-28T14:29:03Z</time>
      </trkpt>
      <trkpt lat="47.30157" lon="-1.70041">
        <ele>66.5</ele>
        <time>2011-07-28T14:29:04Z</time>
      </trkpt>
      <trkpt lat="47.30155" lon="-1.70044">
        <ele>66.1</ele>
        <time>2011-07-28T14:29:05Z</time>
      </trkpt>
      <trkpt lat="47.30153" lon="-1.70047">
        <ele>65.8</ele>
        <time>2011-07-28T14:29:06Z</time>
      </trkpt>
      <trkpt lat="47.30151" lon="-1.70051">
        <ele>66</ele>
        <time>2011-07-28T14:29:07Z</time>
      </trkpt>
      <trkpt lat="47.30149" lon="-1.70054">
        <ele>66.2</ele>
        <time>2011-07-28T14:29:08Z</time>
      </trkpt>
      <trkpt lat="47.30147" lon="-1.70057">
        <ele>66.3</ele>
        <time>2011-07-28T14:29:09Z</time>
      </trkpt>
      <trkpt lat="47.30145" lon="-1.7006">
        <ele>66.4</ele>
        <time>2011-07-28T14:29:10Z</time>
      </trkpt>
      <trkpt lat="47.30144" lon="-1.70063">
        <ele>66.3</ele>
        <time>2011-07-28T14:29:11Z</time>
      </trkpt>
      <trkpt lat="47.30142" lon="-1.70066">
        <ele>66.2</ele>
        <time>2011-07-28T14:29:12Z</time>
      </trkpt>
      <trkpt lat="47.3014" lon="-1.70069">
        <ele>66.1</ele>
        <time>2011-07-28T14:29:13Z</time>
      </trkpt>
      <trkpt lat="47.30139" lon="-1.70072">
        <ele>66.5</ele>
        <time>2011-07-28T14:29:14Z</time>
      </trkpt>
      <trkpt lat="47.30138" lon="-1.70075">
        <ele>66.8</ele>
        <time>2011-07-28T14:29:15Z</time>
      </trkpt>
      <trkpt lat="47.30136" lon="-1.70078">
        <ele>67</ele>
        <time>2011-07-28T14:29:16Z</time>
      </trkpt>
      <trkpt lat="47.30135" lon="-1.70081">
        <ele>67.1</ele>
        <time>2011-07-28T14:29:17Z</time>
      </trkpt>
      <trkpt lat="47.30134" lon="-1.70084">
        <ele>67.2</ele>
        <time>2011-07-28T14:29:18Z</time>
      </trkpt>
      <trkpt lat="47.30131" lon="-1.70089">
        <ele>67.3</ele>
        <time>2011-07-28T14:29:20Z</time>
      </trkpt>
      <trkpt lat="47.30129" lon="-1.70094">
        <ele>67.4</ele>
        <time>2011-07-28T14:29:22Z</time>
      </trkpt>
      <trkpt lat="47.30127" lon="-1.70098">
        <ele>66.6</ele>
        <time>2011-07-28T14:29:24Z</time>
      </trkpt>
      <trkpt lat="47.30125" lon="-1.70102">
        <ele>66.1</ele>
        <time>2011-07-28T14:29:26Z</time>
      </trkpt>
      <trkpt lat="47.30123" lon="-1.70107">
        <ele>65.8</ele>
        <time>2011-07-28T14:29:29Z</time>
      </trkpt>
      <trkpt lat="47.30121" lon="-1.70111">
        <ele>66.4</ele>
        <time>2011-07-28T14:29:31Z</time>
      </trkpt>
      <trkpt lat="47.30119" lon="-1.70115">
        <ele>66.9</ele>
        <time>2011-07-28T14:29:33Z</time>
      </trkpt>
      <trkpt lat="47.30117" lon="-1.70119">
        <ele>67.3</ele>
        <time>2011-07-28T14:29:35Z</time>
      </trkpt>
      <trkpt lat="47.30114" lon="-1.70123">
        <ele>67.3</ele>
        <time>2011-07-28T14:29:38Z</time>
      </trkpt>
      <trkpt lat="47.30111" lon="-1.70127">
        <ele>67.4</ele>
        <time>2011-07-28T14:29:41Z</time>
      </trkpt>
      <trkpt lat="47.3011" lon="-1.70133">
        <ele>67.4</ele>
        <time>2011-07-28T14:29:44Z</time>
      </trkpt>
      <trkpt lat="47.30107" lon="-1.70138">
        <ele>67.1</ele>
        <time>2011-07-28T14:29:47Z</time>
      </trkpt>
      <trkpt lat="47.30104" lon="-1.70142">
        <ele>66.9</ele>
        <time>2011-07-28T14:29:49Z</time>
      </trkpt>
      <trkpt lat="47.30103" lon="-1.70145">
        <ele>66.6</ele>
        <time>2011-07-28T14:29:51Z</time>
      </trkpt>
      <trkpt lat="47.30102" lon="-1.70147">
        <ele>66.7</ele>
        <time>2011-07-28T14:29:52Z</time>
      </trkpt>
      <trkpt lat="47.30099" lon="-1.70153">
        <ele>66.8</ele>
        <time>2011-07-28T14:29:55Z</time>
      </trkpt>
      <trkpt lat="47.30097" lon="-1.70156">
        <ele>66.6</ele>
        <time>2011-07-28T14:29:57Z</time>
      </trkpt>
      <trkpt lat="47.30095" lon="-1.7016">
        <ele>66.7</ele>
        <time>2011-07-28T14:29:59Z</time>
      </trkpt>
      <trkpt lat="47.30093" lon="-1.70164">
        <ele>67</ele>
        <time>2011-07-28T14:30:01Z</time>
      </trkpt>
      <trkpt lat="47.30091" lon="-1.70167">
        <ele>67.2</ele>
        <time>2011-07-28T14:30:03Z</time>
      </trkpt>
      <trkpt lat="47.30089" lon="-1.70173">
        <ele>68</ele>
        <time>2011-07-28T14:30:06Z</time>
      </trkpt>
      <trkpt lat="47.30086" lon="-1.70178">
        <ele>68.3</ele>
        <time>2011-07-28T14:30:09Z</time>
      </trkpt>
      <trkpt lat="47.30084" lon="-1.70183">
        <ele>69</ele>
        <time>2011-07-28T14:30:12Z</time>
      </trkpt>
      <trkpt lat="47.30082" lon="-1.70187">
        <ele>69.3</ele>
        <time>2011-07-28T14:30:14Z</time>
      </trkpt>
      <trkpt lat="47.30079" lon="-1.70192">
        <ele>69.4</ele>
        <time>2011-07-28T14:30:17Z</time>
      </trkpt>
      <trkpt lat="47.30077" lon="-1.70197">
        <ele>68.7</ele>
        <time>2011-07-28T14:30:20Z</time>
      </trkpt>
      <trkpt lat="47.30075" lon="-1.70201">
        <ele>69.4</ele>
        <time>2011-07-28T14:30:22Z</time>
      </trkpt>
      <trkpt lat="47.30073" lon="-1.70204">
        <ele>69.6</ele>
        <time>2011-07-28T14:30:24Z</time>
      </trkpt>
      <trkpt lat="47.30072" lon="-1.70208">
        <ele>69.6</ele>
        <time>2011-07-28T14:30:26Z</time>
      </trkpt>
      <trkpt lat="47.30069" lon="-1.70212">
        <ele>70.3</ele>
        <time>2011-07-28T14:30:28Z</time>
      </trkpt>
      <trkpt lat="47.30067" lon="-1.70216">
        <ele>71</ele>
        <time>2011-07-28T14:30:30Z</time>
      </trkpt>
      <trkpt lat="47.30065" lon="-1.7022">
        <ele>71.5</ele>
        <time>2011-07-28T14:30:32Z</time>
      </trkpt>
      <trkpt lat="47.30064" lon="-1.70224">
        <ele>71.5</ele>
        <time>2011-07-28T14:30:34Z</time>
      </trkpt>
      <trkpt lat="47.30061" lon="-1.70229">
        <ele>71.1</ele>
        <time>2011-07-28T14:30:37Z</time>
      </trkpt>
      <trkpt lat="47.3006" lon="-1.70235">
        <ele>71.1</ele>
        <time>2011-07-28T14:30:40Z</time>
      </trkpt>
      <trkpt lat="47.30058" lon="-1.7024">
        <ele>71.5</ele>
        <time>2011-07-28T14:30:43Z</time>
      </trkpt>
      <trkpt lat="47.30055" lon="-1.70243">
        <ele>71.7</ele>
        <time>2011-07-28T14:30:46Z</time>
      </trkpt>
      <trkpt lat="47.30053" lon="-1.70247">
        <ele>71.9</ele>
        <time>2011-07-28T14:30:48Z</time>
      </trkpt>
      <trkpt lat="47.30051" lon="-1.70252">
        <ele>72.3</ele>
        <time>2011-07-28T14:30:50Z</time>
      </trkpt>
      <trkpt lat="47.3005" lon="-1.70256">
        <ele>72.5</ele>
        <time>2011-07-28T14:30:51Z</time>
      </trkpt>
      <trkpt lat="47.3005" lon="-1.70259">
        <ele>72.6</ele>
        <time>2011-07-28T14:30:52Z</time>
      </trkpt>
      <trkpt lat="47.30049" lon="-1.70263">
        <ele>72.8</ele>
        <time>2011-07-28T14:30:53Z</time>
      </trkpt>
      <trkpt lat="47.30049" lon="-1.70267">
        <ele>72.9</ele>
        <time>2011-07-28T14:30:54Z</time>
      </trkpt>
      <trkpt lat="47.30049" lon="-1.70272">
        <ele>73</ele>
        <time>2011-07-28T14:30:55Z</time>
      </trkpt>
      <trkpt lat="47.30048" lon="-1.70276">
        <ele>72.9</ele>
        <time>2011-07-28T14:30:56Z</time>
      </trkpt>
      <trkpt lat="47.30048" lon="-1.70281">
        <ele>72.8</ele>
        <time>2011-07-28T14:30:57Z</time>
      </trkpt>
      <trkpt lat="47.30048" lon="-1.70285">
        <ele>72.8</ele>
        <time>2011-07-28T14:30:58Z</time>
      </trkpt>
      <trkpt lat="47.30049" lon="-1.70289">
        <ele>72.9</ele>
        <time>2011-07-28T14:30:59Z</time>
      </trkpt>
      <trkpt lat="47.30049" lon="-1.70293">
        <ele>73.1</ele>
        <time>2011-07-28T14:31:00Z</time>
      </trkpt>
      <trkpt lat="47.3005" lon="-1.70296">
        <ele>73.2</ele>
        <time>2011-07-28T14:31:01Z</time>
      </trkpt>
      <trkpt lat="47.30051" lon="-1.703">
        <ele>73.4</ele>
        <time>2011-07-28T14:31:02Z</time>
      </trkpt>
      <trkpt lat="47.30052" lon="-1.70303">
        <ele>73.7</ele>
        <time>2011-07-28T14:31:03Z</time>
      </trkpt>
      <trkpt lat="47.30053" lon="-1.70309">
        <ele>73.9</ele>
        <time>2011-07-28T14:31:05Z</time>
      </trkpt>
      <trkpt lat="47.30055" lon="-1.70314">
        <ele>74</ele>
        <time>2011-07-28T14:31:07Z</time>
      </trkpt>
      <trkpt lat="47.30058" lon="-1.70317">
        <ele>74.2</ele>
        <time>2011-07-28T14:31:09Z</time>
      </trkpt>
      <trkpt lat="47.30061" lon="-1.70321">
        <ele>74.5</ele>
        <time>2011-07-28T14:31:11Z</time>
      </trkpt>
      <trkpt lat="47.30063" lon="-1.70325">
        <ele>74.7</ele>
        <time>2011-07-28T14:31:13Z</time>
      </trkpt>
      <trkpt lat="47.30065" lon="-1.70328">
        <ele>74.8</ele>
        <time>2011-07-28T14:31:14Z</time>
      </trkpt>
      <trkpt lat="47.30066" lon="-1.7033">
        <ele>74.7</ele>
        <time>2011-07-28T14:31:15Z</time>
      </trkpt>
      <trkpt lat="47.30068" lon="-1.70333">
        <ele>74.6</ele>
        <time>2011-07-28T14:31:16Z</time>
      </trkpt>
      <trkpt lat="47.30069" lon="-1.70336">
        <ele>74.5</ele>
        <time>2011-07-28T14:31:17Z</time>
      </trkpt>
      <trkpt lat="47.30071" lon="-1.70339">
        <ele>74.7</ele>
        <time>2011-07-28T14:31:18Z</time>
      </trkpt>
      <trkpt lat="47.30073" lon="-1.70342">
        <ele>74.8</ele>
        <time>2011-07-28T14:31:19Z</time>
      </trkpt>
      <trkpt lat="47.30075" lon="-1.70345">
        <ele>75</ele>
        <time>2011-07-28T14:31:20Z</time>
      </trkpt>
      <trkpt lat="47.30077" lon="-1.70348">
        <ele>75.1</ele>
        <time>2011-07-28T14:31:21Z</time>
      </trkpt>
      <trkpt lat="47.30079" lon="-1.70352">
        <ele>75.2</ele>
        <time>2011-07-28T14:31:22Z</time>
      </trkpt>
      <trkpt lat="47.30081" lon="-1.70355">
        <ele>75.3</ele>
        <time>2011-07-28T14:31:23Z</time>
      </trkpt>
      <trkpt lat="47.30083" lon="-1.70358">
        <ele>75.4</ele>
        <time>2011-07-28T14:31:24Z</time>
      </trkpt>
      <trkpt lat="47.30085" lon="-1.70361">
        <ele>75.5</ele>
        <time>2011-07-28T14:31:25Z</time>
      </trkpt>
      <trkpt lat="47.30087" lon="-1.70364">
        <ele>75.7</ele>
        <time>2011-07-28T14:31:26Z</time>
      </trkpt>
      <trkpt lat="47.30089" lon="-1.70367">
        <ele>75.8</ele>
        <time>2011-07-28T14:31:27Z</time>
      </trkpt>
      <trkpt lat="47.3009" lon="-1.7037">
        <ele>75.6</ele>
        <time>2011-07-28T14:31:28Z</time>
      </trkpt>
      <trkpt lat="47.30092" lon="-1.70373">
        <ele>75.5</ele>
        <time>2011-07-28T14:31:29Z</time>
      </trkpt>
      <trkpt lat="47.30094" lon="-1.70376">
        <ele>75.4</ele>
        <time>2011-07-28T14:31:30Z</time>
      </trkpt>
      <trkpt lat="47.30095" lon="-1.70379">
        <ele>75.4</ele>
        <time>2011-07-28T14:31:31Z</time>
      </trkpt>
      <trkpt lat="47.30097" lon="-1.70382">
        <ele>75.4</ele>
        <time>2011-07-28T14:31:32Z</time>
      </trkpt>
      <trkpt lat="47.30098" lon="-1.70385">
        <ele>75.4</ele>
        <time>2011-07-28T14:31:33Z</time>
      </trkpt>
      <trkpt lat="47.30097" lon="-1.70389">
        <ele>75.3</ele>
        <time>2011-07-28T14:31:34Z</time>
      </trkpt>
      <trkpt lat="47.30097" lon="-1.70395">
        <ele>74.9</ele>
        <time>2011-07-28T14:36:22Z</time>
      </trkpt>
      <trkpt lat="47.30096" lon="-1.70396">
        <ele>74.7</ele>
        <time>2011-07-28T14:36:23Z</time>
      </trkpt>
      <trkpt lat="47.30091" lon="-1.70401">
        <ele>75.5</ele>
        <time>2011-07-28T14:36:28Z</time>
      </trkpt>
      <trkpt lat="47.30088" lon="-1.70405">
        <ele>75.9</ele>
        <time>2011-07-28T14:36:30Z</time>
      </trkpt>
      <trkpt lat="47.30086" lon="-1.70408">
        <ele>75.6</ele>
        <time>2011-07-28T14:36:32Z</time>
      </trkpt>
      <trkpt lat="47.30083" lon="-1.70412">
        <ele>75.7</ele>
        <time>2011-07-28T14:36:34Z</time>
      </trkpt>
      <trkpt lat="47.30081" lon="-1.70415">
        <ele>75.9</ele>
        <time>2011-07-28T14:36:35Z</time>
      </trkpt>
      <trkpt lat="47.30079" lon="-1.70417">
        <ele>76</ele>
        <time>2011-07-28T14:36:36Z</time>
      </trkpt>
      <trkpt lat="47.30078" lon="-1.7042">
        <ele>75.9</ele>
        <time>2011-07-28T14:36:37Z</time>
      </trkpt>
      <trkpt lat="47.30076" lon="-1.70422">
        <ele>75.9</ele>
        <time>2011-07-28T14:36:38Z</time>
      </trkpt>
      <trkpt lat="47.30074" lon="-1.70425">
        <ele>75.9</ele>
        <time>2011-07-28T14:36:39Z</time>
      </trkpt>
      <trkpt lat="47.30072" lon="-1.70428">
        <ele>75.8</ele>
        <time>2011-07-28T14:36:40Z</time>
      </trkpt>
      <trkpt lat="47.3007" lon="-1.70431">
        <ele>76.2</ele>
        <time>2011-07-28T14:36:41Z</time>
      </trkpt>
      <trkpt lat="47.30068" lon="-1.70434">
        <ele>76.5</ele>
        <time>2011-07-28T14:36:42Z</time>
      </trkpt>
      <trkpt lat="47.30067" lon="-1.70438">
        <ele>76.7</ele>
        <time>2011-07-28T14:36:43Z</time>
      </trkpt>
      <trkpt lat="47.30065" lon="-1.70441">
        <ele>76.3</ele>
        <time>2011-07-28T14:36:44Z</time>
      </trkpt>
      <trkpt lat="47.30063" lon="-1.70444">
        <ele>76</ele>
        <time>2011-07-28T14:36:45Z</time>
      </trkpt>
      <trkpt lat="47.30061" lon="-1.70447">
        <ele>75.8</ele>
        <time>2011-07-28T14:36:46Z</time>
      </trkpt>
      <trkpt lat="47.30058" lon="-1.70449">
        <ele>75.7</ele>
        <time>2011-07-28T14:36:47Z</time>
      </trkpt>
      <trkpt lat="47.30056" lon="-1.70451">
        <ele>75.6</ele>
        <time>2011-07-28T14:36:48Z</time>
      </trkpt>
      <trkpt lat="47.30054" lon="-1.70453">
        <ele>75.6</ele>
        <time>2011-07-28T14:36:49Z</time>
      </trkpt>
      <trkpt lat="47.30051" lon="-1.70455">
        <ele>75.5</ele>
        <time>2011-07-28T14:36:50Z</time>
      </trkpt>
      <trkpt lat="47.30048" lon="-1.70458">
        <ele>75.5</ele>
        <time>2011-07-28T14:36:51Z</time>
      </trkpt>
      <trkpt lat="47.30045" lon="-1.7046">
        <ele>75.5</ele>
        <time>2011-07-28T14:36:52Z</time>
      </trkpt>
      <trkpt lat="47.30042" lon="-1.70462">
        <ele>75.7</ele>
        <time>2011-07-28T14:36:53Z</time>
      </trkpt>
      <trkpt lat="47.30039" lon="-1.70463">
        <ele>75.8</ele>
        <time>2011-07-28T14:36:54Z</time>
      </trkpt>
      <trkpt lat="47.30036" lon="-1.70464">
        <ele>75.9</ele>
        <time>2011-07-28T14:36:55Z</time>
      </trkpt>
      <trkpt lat="47.30033" lon="-1.70465">
        <ele>76</ele>
        <time>2011-07-28T14:36:56Z</time>
      </trkpt>
      <trkpt lat="47.30029" lon="-1.70466">
        <ele>75.9</ele>
        <time>2011-07-28T14:36:57Z</time>
      </trkpt>
      <trkpt lat="47.30026" lon="-1.70467">
        <ele>75.8</ele>
        <time>2011-07-28T14:36:58Z</time>
      </trkpt>
      <trkpt lat="47.30023" lon="-1.70468">
        <ele>75.8</ele>
        <time>2011-07-28T14:36:59Z</time>
      </trkpt>
      <trkpt lat="47.3002" lon="-1.70468">
        <ele>76</ele>
        <time>2011-07-28T14:37:00Z</time>
      </trkpt>
      <trkpt lat="47.30017" lon="-1.70468">
        <ele>76.2</ele>
        <time>2011-07-28T14:37:01Z</time>
      </trkpt>
      <trkpt lat="47.30014" lon="-1.70468">
        <ele>76.4</ele>
        <time>2011-07-28T14:37:02Z</time>
      </trkpt>
      <trkpt lat="47.3001" lon="-1.70469">
        <ele>76</ele>
        <time>2011-07-28T14:37:03Z</time>
      </trkpt>
      <trkpt lat="47.30007" lon="-1.70469">
        <ele>75.7</ele>
        <time>2011-07-28T14:37:04Z</time>
      </trkpt>
      <trkpt lat="47.30003" lon="-1.7047">
        <ele>75.5</ele>
        <time>2011-07-28T14:37:05Z</time>
      </trkpt>
      <trkpt lat="47.3" lon="-1.7047">
        <ele>76.1</ele>
        <time>2011-07-28T14:37:06Z</time>
      </trkpt>
      <trkpt lat="47.29996" lon="-1.7047">
        <ele>76.5</ele>
        <time>2011-07-28T14:37:07Z</time>
      </trkpt>
      <trkpt lat="47.29993" lon="-1.70471">
        <ele>76.8</ele>
        <time>2011-07-28T14:37:08Z</time>
      </trkpt>
      <trkpt lat="47.2999" lon="-1.70471">
        <ele>76.4</ele>
        <time>2011-07-28T14:37:09Z</time>
      </trkpt>
      <trkpt lat="47.29986" lon="-1.70472">
        <ele>76.1</ele>
        <time>2011-07-28T14:37:10Z</time>
      </trkpt>
      <trkpt lat="47.29983" lon="-1.70473">
        <ele>75.9</ele>
        <time>2011-07-28T14:37:11Z</time>
      </trkpt>
      <trkpt lat="47.2998" lon="-1.70474">
        <ele>75.7</ele>
        <time>2011-07-28T14:37:12Z</time>
      </trkpt>
      <trkpt lat="47.29976" lon="-1.70474">
        <ele>75.8</ele>
        <time>2011-07-28T14:37:13Z</time>
      </trkpt>
      <trkpt lat="47.29973" lon="-1.70476">
        <ele>75.9</ele>
        <time>2011-07-28T14:37:14Z</time>
      </trkpt>
      <trkpt lat="47.29969" lon="-1.70477">
        <ele>75.9</ele>
        <time>2011-07-28T14:37:15Z</time>
      </trkpt>
      <trkpt lat="47.29966" lon="-1.70479">
        <ele>75.9</ele>
        <time>2011-07-28T14:37:16Z</time>
      </trkpt>
      <trkpt lat="47.29963" lon="-1.7048">
        <ele>75.9</ele>
        <time>2011-07-28T14:37:17Z</time>
      </trkpt>
      <trkpt lat="47.29959" lon="-1.70482">
        <ele>75.9</ele>
        <time>2011-07-28T14:37:18Z</time>
      </trkpt>
      <trkpt lat="47.29956" lon="-1.70483">
        <ele>75.9</ele>
        <time>2011-07-28T14:37:19Z</time>
      </trkpt>
      <trkpt lat="47.29953" lon="-1.70485">
        <ele>75.9</ele>
        <time>2011-07-28T14:37:20Z</time>
      </trkpt>
      <trkpt lat="47.2995" lon="-1.70487">
        <ele>75.9</ele>
        <time>2011-07-28T14:37:21Z</time>
      </trkpt>
      <trkpt lat="47.29946" lon="-1.70488">
        <ele>75.8</ele>
        <time>2011-07-28T14:37:22Z</time>
      </trkpt>
      <trkpt lat="47.29943" lon="-1.70488">
        <ele>75.7</ele>
        <time>2011-07-28T14:37:23Z</time>
      </trkpt>
      <trkpt lat="47.29939" lon="-1.70486">
        <ele>75.7</ele>
        <time>2011-07-28T14:37:24Z</time>
      </trkpt>
      <trkpt lat="47.29936" lon="-1.70484">
        <ele>75.8</ele>
        <time>2011-07-28T14:37:25Z</time>
      </trkpt>
      <trkpt lat="47.29933" lon="-1.70481">
        <ele>75.9</ele>
        <time>2011-07-28T14:37:26Z</time>
      </trkpt>
      <trkpt lat="47.29929" lon="-1.70479">
        <ele>76</ele>
        <time>2011-07-28T14:37:27Z</time>
      </trkpt>
      <trkpt lat="47.29926" lon="-1.70476">
        <ele>76</ele>
        <time>2011-07-28T14:37:28Z</time>
      </trkpt>
      <trkpt lat="47.29923" lon="-1.70472">
        <ele>76.1</ele>
        <time>2011-07-28T14:37:29Z</time>
      </trkpt>
      <trkpt lat="47.29919" lon="-1.70469">
        <ele>76.1</ele>
        <time>2011-07-28T14:37:30Z</time>
      </trkpt>
      <trkpt lat="47.29916" lon="-1.70466">
        <ele>76.1</ele>
        <time>2011-07-28T14:37:31Z</time>
      </trkpt>
      <trkpt lat="47.29912" lon="-1.70462">
        <ele>75.9</ele>
        <time>2011-07-28T14:37:32Z</time>
      </trkpt>
      <trkpt lat="47.29909" lon="-1.70459">
        <ele>75.7</ele>
        <time>2011-07-28T14:37:33Z</time>
      </trkpt>
      <trkpt lat="47.29905" lon="-1.70455">
        <ele>75.5</ele>
        <time>2011-07-28T14:37:34Z</time>
      </trkpt>
      <trkpt lat="47.29903" lon="-1.70451">
        <ele>75.5</ele>
        <time>2011-07-28T14:37:35Z</time>
      </trkpt>
      <trkpt lat="47.299" lon="-1.70447">
        <ele>75.6</ele>
        <time>2011-07-28T14:37:36Z</time>
      </trkpt>
      <trkpt lat="47.29897" lon="-1.70443">
        <ele>75.6</ele>
        <time>2011-07-28T14:37:37Z</time>
      </trkpt>
      <trkpt lat="47.29894" lon="-1.70439">
        <ele>75.2</ele>
        <time>2011-07-28T14:37:38Z</time>
      </trkpt>
      <trkpt lat="47.29891" lon="-1.70434">
        <ele>74.9</ele>
        <time>2011-07-28T14:37:39Z</time>
      </trkpt>
      <trkpt lat="47.29889" lon="-1.70429">
        <ele>74.6</ele>
        <time>2011-07-28T14:37:40Z</time>
      </trkpt>
      <trkpt lat="47.29886" lon="-1.70424">
        <ele>74.7</ele>
        <time>2011-07-28T14:37:41Z</time>
      </trkpt>
      <trkpt lat="47.29884" lon="-1.70419">
        <ele>74.8</ele>
        <time>2011-07-28T14:37:42Z</time>
      </trkpt>
      <trkpt lat="47.29882" lon="-1.70414">
        <ele>74.9</ele>
        <time>2011-07-28T14:37:43Z</time>
      </trkpt>
      <trkpt lat="47.29879" lon="-1.70409">
        <ele>74.9</ele>
        <time>2011-07-28T14:37:44Z</time>
      </trkpt>
      <trkpt lat="47.29877" lon="-1.70404">
        <ele>74.9</ele>
        <time>2011-07-28T14:37:45Z</time>
      </trkpt>
      <trkpt lat="47.29874" lon="-1.70399">
        <ele>74.9</ele>
        <time>2011-07-28T14:37:46Z</time>
      </trkpt>
      <trkpt lat="47.29872" lon="-1.70394">
        <ele>74.9</ele>
        <time>2011-07-28T14:37:47Z</time>
      </trkpt>
      <trkpt lat="47.2987" lon="-1.70389">
        <ele>74.8</ele>
        <time>2011-07-28T14:37:48Z</time>
      </trkpt>
      <trkpt lat="47.29868" lon="-1.70383">
        <ele>74.7</ele>
        <time>2011-07-28T14:37:49Z</time>
      </trkpt>
      <trkpt lat="47.29866" lon="-1.70378">
        <ele>74.7</ele>
        <time>2011-07-28T14:37:50Z</time>
      </trkpt>
      <trkpt lat="47.29864" lon="-1.70373">
        <ele>74.9</ele>
        <time>2011-07-28T14:37:51Z</time>
      </trkpt>
      <trkpt lat="47.29863" lon="-1.70367">
        <ele>75</ele>
        <time>2011-07-28T14:37:52Z</time>
      </trkpt>
      <trkpt lat="47.29861" lon="-1.70362">
        <ele>75.1</ele>
        <time>2011-07-28T14:37:53Z</time>
      </trkpt>
      <trkpt lat="47.29859" lon="-1.70356">
        <ele>75.2</ele>
        <time>2011-07-28T14:37:54Z</time>
      </trkpt>
      <trkpt lat="47.29857" lon="-1.70351">
        <ele>75.3</ele>
        <time>2011-07-28T14:37:55Z</time>
      </trkpt>
      <trkpt lat="47.29856" lon="-1.70346">
        <ele>75.4</ele>
        <time>2011-07-28T14:37:56Z</time>
      </trkpt>
      <trkpt lat="47.29854" lon="-1.70341">
        <ele>75.4</ele>
        <time>2011-07-28T14:37:57Z</time>
      </trkpt>
      <trkpt lat="47.29852" lon="-1.70336">
        <ele>75.4</ele>
        <time>2011-07-28T14:37:58Z</time>
      </trkpt>
      <trkpt lat="47.29851" lon="-1.70331">
        <ele>75.4</ele>
        <time>2011-07-28T14:37:59Z</time>
      </trkpt>
      <trkpt lat="47.29849" lon="-1.70326">
        <ele>74.8</ele>
        <time>2011-07-28T14:38:00Z</time>
      </trkpt>
      <trkpt lat="47.29848" lon="-1.70321">
        <ele>74.3</ele>
        <time>2011-07-28T14:38:01Z</time>
      </trkpt>
      <trkpt lat="47.29846" lon="-1.70316">
        <ele>74</ele>
        <time>2011-07-28T14:38:02Z</time>
      </trkpt>
      <trkpt lat="47.29845" lon="-1.70311">
        <ele>73.7</ele>
        <time>2011-07-28T14:38:03Z</time>
      </trkpt>
      <trkpt lat="47.29843" lon="-1.70306">
        <ele>74.2</ele>
        <time>2011-07-28T14:38:04Z</time>
      </trkpt>
      <trkpt lat="47.29842" lon="-1.703">
        <ele>74.6</ele>
        <time>2011-07-28T14:38:05Z</time>
      </trkpt>
      <trkpt lat="47.2984" lon="-1.70295">
        <ele>74.9</ele>
        <time>2011-07-28T14:38:06Z</time>
      </trkpt>
      <trkpt lat="47.29839" lon="-1.7029">
        <ele>75.1</ele>
        <time>2011-07-28T14:38:07Z</time>
      </trkpt>
      <trkpt lat="47.29838" lon="-1.70284">
        <ele>75.3</ele>
        <time>2011-07-28T14:38:08Z</time>
      </trkpt>
      <trkpt lat="47.29837" lon="-1.70279">
        <ele>75.4</ele>
        <time>2011-07-28T14:38:09Z</time>
      </trkpt>
      <trkpt lat="47.29836" lon="-1.70274">
        <ele>75.6</ele>
        <time>2011-07-28T14:38:10Z</time>
      </trkpt>
      <trkpt lat="47.29836" lon="-1.70269">
        <ele>75.7</ele>
        <time>2011-07-28T14:38:11Z</time>
      </trkpt>
      <trkpt lat="47.29836" lon="-1.70264">
        <ele>75.8</ele>
        <time>2011-07-28T14:38:12Z</time>
      </trkpt>
      <trkpt lat="47.29835" lon="-1.7026">
        <ele>76.1</ele>
        <time>2011-07-28T14:38:13Z</time>
      </trkpt>
      <trkpt lat="47.29834" lon="-1.70255">
        <ele>76.2</ele>
        <time>2011-07-28T14:38:14Z</time>
      </trkpt>
      <trkpt lat="47.29834" lon="-1.7025">
        <ele>76.3</ele>
        <time>2011-07-28T14:38:15Z</time>
      </trkpt>
      <trkpt lat="47.29834" lon="-1.70246">
        <ele>76.4</ele>
        <time>2011-07-28T14:38:16Z</time>
      </trkpt>
      <trkpt lat="47.29835" lon="-1.70241">
        <ele>76.4</ele>
        <time>2011-07-28T14:38:17Z</time>
      </trkpt>
      <trkpt lat="47.29836" lon="-1.70237">
        <ele>76.5</ele>
        <time>2011-07-28T14:38:18Z</time>
      </trkpt>
      <trkpt lat="47.29837" lon="-1.70232">
        <ele>76.5</ele>
        <time>2011-07-28T14:38:19Z</time>
      </trkpt>
      <trkpt lat="47.29838" lon="-1.70227">
        <ele>76.9</ele>
        <time>2011-07-28T14:38:20Z</time>
      </trkpt>
      <trkpt lat="47.29838" lon="-1.70222">
        <ele>77.1</ele>
        <time>2011-07-28T14:38:21Z</time>
      </trkpt>
      <trkpt lat="47.29839" lon="-1.70218">
        <ele>77.3</ele>
        <time>2011-07-28T14:38:22Z</time>
      </trkpt>
      <trkpt lat="47.2984" lon="-1.70214">
        <ele>77.5</ele>
        <time>2011-07-28T14:38:23Z</time>
      </trkpt>
      <trkpt lat="47.2984" lon="-1.7021">
        <ele>77.6</ele>
        <time>2011-07-28T14:38:24Z</time>
      </trkpt>
      <trkpt lat="47.2984" lon="-1.70205">
        <ele>77.6</ele>
        <time>2011-07-28T14:38:25Z</time>
      </trkpt>
      <trkpt lat="47.29839" lon="-1.70201">
        <ele>78.1</ele>
        <time>2011-07-28T14:38:26Z</time>
      </trkpt>
      <trkpt lat="47.29837" lon="-1.70196">
        <ele>78.5</ele>
        <time>2011-07-28T14:38:27Z</time>
      </trkpt>
      <trkpt lat="47.29836" lon="-1.70192">
        <ele>78.7</ele>
        <time>2011-07-28T14:38:28Z</time>
      </trkpt>
      <trkpt lat="47.29834" lon="-1.70189">
        <ele>78.7</ele>
        <time>2011-07-28T14:38:29Z</time>
      </trkpt>
      <trkpt lat="47.29832" lon="-1.70186">
        <ele>78.7</ele>
        <time>2011-07-28T14:38:30Z</time>
      </trkpt>
      <trkpt lat="47.29829" lon="-1.70183">
        <ele>78.6</ele>
        <time>2011-07-28T14:38:31Z</time>
      </trkpt>
      <trkpt lat="47.29827" lon="-1.7018">
        <ele>78.9</ele>
        <time>2011-07-28T14:38:32Z</time>
      </trkpt>
      <trkpt lat="47.29824" lon="-1.70178">
        <ele>79.1</ele>
        <time>2011-07-28T14:38:33Z</time>
      </trkpt>
      <trkpt lat="47.29821" lon="-1.70175">
        <ele>79.3</ele>
        <time>2011-07-28T14:38:34Z</time>
      </trkpt>
      <trkpt lat="47.29818" lon="-1.70173">
        <ele>79.4</ele>
        <time>2011-07-28T14:38:35Z</time>
      </trkpt>
      <trkpt lat="47.29815" lon="-1.70171">
        <ele>79.1</ele>
        <time>2011-07-28T14:38:36Z</time>
      </trkpt>
      <trkpt lat="47.29812" lon="-1.70169">
        <ele>79</ele>
        <time>2011-07-28T14:38:37Z</time>
      </trkpt>
      <trkpt lat="47.29809" lon="-1.70168">
        <ele>78.8</ele>
        <time>2011-07-28T14:38:38Z</time>
      </trkpt>
      <trkpt lat="47.29806" lon="-1.70166">
        <ele>78.2</ele>
        <time>2011-07-28T14:38:39Z</time>
      </trkpt>
      <trkpt lat="47.29803" lon="-1.70164">
        <ele>77.7</ele>
        <time>2011-07-28T14:38:40Z</time>
      </trkpt>
      <trkpt lat="47.298" lon="-1.70162">
        <ele>77.3</ele>
        <time>2011-07-28T14:38:41Z</time>
      </trkpt>
      <trkpt lat="47.29796" lon="-1.70161">
        <ele>77.4</ele>
        <time>2011-07-28T14:38:42Z</time>
      </trkpt>
      <trkpt lat="47.29793" lon="-1.70159">
        <ele>77.4</ele>
        <time>2011-07-28T14:38:43Z</time>
      </trkpt>
      <trkpt lat="47.29789" lon="-1.70157">
        <ele>77.4</ele>
        <time>2011-07-28T14:38:44Z</time>
      </trkpt>
      <trkpt lat="47.29785" lon="-1.70155">
        <ele>77.2</ele>
        <time>2011-07-28T14:38:45Z</time>
      </trkpt>
      <trkpt lat="47.29781" lon="-1.70153">
        <ele>77</ele>
        <time>2011-07-28T14:38:46Z</time>
      </trkpt>
      <trkpt lat="47.29777" lon="-1.70151">
        <ele>76.9</ele>
        <time>2011-07-28T14:38:47Z</time>
      </trkpt>
      <trkpt lat="47.29772" lon="-1.70151">
        <ele>76.8</ele>
        <time>2011-07-28T14:38:48Z</time>
      </trkpt>
      <trkpt lat="47.29767" lon="-1.70151">
        <ele>76.7</ele>
        <time>2011-07-28T14:38:49Z</time>
      </trkpt>
      <trkpt lat="47.29761" lon="-1.70152">
        <ele>76.6</ele>
        <time>2011-07-28T14:38:50Z</time>
      </trkpt>
      <trkpt lat="47.29756" lon="-1.70151">
        <ele>76.5</ele>
        <time>2011-07-28T14:38:51Z</time>
      </trkpt>
      <trkpt lat="47.29751" lon="-1.70149">
        <ele>76.3</ele>
        <time>2011-07-28T14:38:52Z</time>
      </trkpt>
      <trkpt lat="47.29745" lon="-1.70148">
        <ele>76.2</ele>
        <time>2011-07-28T14:38:53Z</time>
      </trkpt>
      <trkpt lat="47.2974" lon="-1.70147">
        <ele>76.1</ele>
        <time>2011-07-28T14:38:54Z</time>
      </trkpt>
      <trkpt lat="47.29734" lon="-1.70147">
        <ele>75.8</ele>
        <time>2011-07-28T14:38:55Z</time>
      </trkpt>
      <trkpt lat="47.29728" lon="-1.70147">
        <ele>75.6</ele>
        <time>2011-07-28T14:38:56Z</time>
      </trkpt>
      <trkpt lat="47.29722" lon="-1.70148">
        <ele>75.4</ele>
        <time>2011-07-28T14:38:57Z</time>
      </trkpt>
      <trkpt lat="47.29717" lon="-1.7015">
        <ele>75</ele>
        <time>2011-07-28T14:38:58Z</time>
      </trkpt>
      <trkpt lat="47.29711" lon="-1.70153">
        <ele>74.8</ele>
        <time>2011-07-28T14:38:59Z</time>
      </trkpt>
      <trkpt lat="47.29706" lon="-1.70157">
        <ele>74.6</ele>
        <time>2011-07-28T14:39:00Z</time>
      </trkpt>
      <trkpt lat="47.29702" lon="-1.70162">
        <ele>74.4</ele>
        <time>2011-07-28T14:39:01Z</time>
      </trkpt>
      <trkpt lat="47.29699" lon="-1.70168">
        <ele>74.3</ele>
        <time>2011-07-28T14:39:02Z</time>
      </trkpt>
      <trkpt lat="47.29696" lon="-1.70174">
        <ele>74.3</ele>
        <time>2011-07-28T14:39:03Z</time>
      </trkpt>
      <trkpt lat="47.29693" lon="-1.70181">
        <ele>74</ele>
        <time>2011-07-28T14:39:04Z</time>
      </trkpt>
      <trkpt lat="47.29689" lon="-1.70188">
        <ele>73.7</ele>
        <time>2011-07-28T14:39:05Z</time>
      </trkpt>
      <trkpt lat="47.29684" lon="-1.70193">
        <ele>73.5</ele>
        <time>2011-07-28T14:39:06Z</time>
      </trkpt>
      <trkpt lat="47.29678" lon="-1.70197">
        <ele>73.4</ele>
        <time>2011-07-28T14:39:07Z</time>
      </trkpt>
      <trkpt lat="47.29672" lon="-1.70202">
        <ele>72.7</ele>
        <time>2011-07-28T14:39:08Z</time>
      </trkpt>
      <trkpt lat="47.29667" lon="-1.70206">
        <ele>72.2</ele>
        <time>2011-07-28T14:39:09Z</time>
      </trkpt>
      <trkpt lat="47.29661" lon="-1.7021">
        <ele>71.8</ele>
        <time>2011-07-28T14:39:10Z</time>
      </trkpt>
      <trkpt lat="47.29656" lon="-1.70214">
        <ele>71.7</ele>
        <time>2011-07-28T14:39:11Z</time>
      </trkpt>
      <trkpt lat="47.29652" lon="-1.70218">
        <ele>71.5</ele>
        <time>2011-07-28T14:39:12Z</time>
      </trkpt>
      <trkpt lat="47.29648" lon="-1.70222">
        <ele>71.5</ele>
        <time>2011-07-28T14:39:13Z</time>
      </trkpt>
      <trkpt lat="47.29644" lon="-1.70225">
        <ele>71.6</ele>
        <time>2011-07-28T14:39:14Z</time>
      </trkpt>
      <trkpt lat="47.29642" lon="-1.70227">
        <ele>71.7</ele>
        <time>2011-07-28T14:39:15Z</time>
      </trkpt>
      <trkpt lat="47.29637" lon="-1.70227">
        <ele>71.5</ele>
        <time>2011-07-28T14:39:18Z</time>
      </trkpt>
      <trkpt lat="47.29633" lon="-1.70229">
        <ele>70.2</ele>
        <time>2011-07-28T14:39:30Z</time>
      </trkpt>
      <trkpt lat="47.29633" lon="-1.70229">
        <ele>70.5</ele>
        <time>2011-07-28T14:39:31Z</time>
      </trkpt>
      <trkpt lat="47.29625" lon="-1.70232">
        <ele>71</ele>
        <time>2011-07-28T14:40:07Z</time>
      </trkpt>
      <trkpt lat="47.29621" lon="-1.70229">
        <ele>70.8</ele>
        <time>2011-07-28T14:40:39Z</time>
      </trkpt>
      <trkpt lat="47.29621" lon="-1.70228">
        <ele>70.8</ele>
        <time>2011-07-28T14:40:40Z</time>
      </trkpt>
      <trkpt lat="47.29619" lon="-1.70223">
        <ele>70.8</ele>
        <time>2011-07-28T14:40:42Z</time>
      </trkpt>
      <trkpt lat="47.29616" lon="-1.70218">
        <ele>70.9</ele>
        <time>2011-07-28T14:40:43Z</time>
      </trkpt>
      <trkpt lat="47.29613" lon="-1.70212">
        <ele>70.9</ele>
        <time>2011-07-28T14:40:44Z</time>
      </trkpt>
      <trkpt lat="47.29609" lon="-1.70205">
        <ele>70.9</ele>
        <time>2011-07-28T14:40:45Z</time>
      </trkpt>
      <trkpt lat="47.29605" lon="-1.70197">
        <ele>71</ele>
        <time>2011-07-28T14:40:46Z</time>
      </trkpt>
      <trkpt lat="47.29586" lon="-1.69753">
        <ele>66.3</ele>
        <time>2011-07-28T14:41:15Z</time>
      </trkpt>
      <trkpt lat="47.29591" lon="-1.69743">
        <ele>62.8</ele>
        <time>2011-07-28T14:41:16Z</time>
      </trkpt>
      <trkpt lat="47.29596" lon="-1.69734">
        <ele>60.2</ele>
        <time>2011-07-28T14:41:17Z</time>
      </trkpt>
      <trkpt lat="47.29602" lon="-1.69725">
        <ele>58.3</ele>
        <time>2011-07-28T14:41:18Z</time>
      </trkpt>
      <trkpt lat="47.29608" lon="-1.69715">
        <ele>56.8</ele>
        <time>2011-07-28T14:41:19Z</time>
      </trkpt>
      <trkpt lat="47.29613" lon="-1.69706">
        <ele>55.8</ele>
        <time>2011-07-28T14:41:20Z</time>
      </trkpt>
      <trkpt lat="47.29619" lon="-1.69696">
        <ele>54.9</ele>
        <time>2011-07-28T14:41:21Z</time>
      </trkpt>
      <trkpt lat="47.29624" lon="-1.69686">
        <ele>54.4</ele>
        <time>2011-07-28T14:41:22Z</time>
      </trkpt>
      <trkpt lat="47.29629" lon="-1.69676">
        <ele>53.9</ele>
        <time>2011-07-28T14:41:23Z</time>
      </trkpt>
      <trkpt lat="47.29634" lon="-1.69668">
        <ele>53.6</ele>
        <time>2011-07-28T14:41:24Z</time>
      </trkpt>
      <trkpt lat="47.29639" lon="-1.69661">
        <ele>53.4</ele>
        <time>2011-07-28T14:41:25Z</time>
      </trkpt>
      <trkpt lat="47.29641" lon="-1.69654">
        <ele>53.2</ele>
        <time>2011-07-28T14:41:26Z</time>
      </trkpt>
      <trkpt lat="47.29642" lon="-1.69647">
        <ele>53</ele>
        <time>2011-07-28T14:41:27Z</time>
      </trkpt>
      <trkpt lat="47.29642" lon="-1.6964">
        <ele>52.7</ele>
        <time>2011-07-28T14:41:28Z</time>
      </trkpt>
      <trkpt lat="47.29642" lon="-1.69632">
        <ele>52.5</ele>
        <time>2011-07-28T14:41:29Z</time>
      </trkpt>
      <trkpt lat="47.29643" lon="-1.69625">
        <ele>52.3</ele>
        <time>2011-07-28T14:41:30Z</time>
      </trkpt>
      <trkpt lat="47.29642" lon="-1.69618">
        <ele>52.3</ele>
        <time>2011-07-28T14:41:31Z</time>
      </trkpt>
      <trkpt lat="47.29641" lon="-1.69611">
        <ele>52.2</ele>
        <time>2011-07-28T14:41:32Z</time>
      </trkpt>
      <trkpt lat="47.29641" lon="-1.69604">
        <ele>52.2</ele>
        <time>2011-07-28T14:41:33Z</time>
      </trkpt>
      <trkpt lat="47.2964" lon="-1.69598">
        <ele>51.9</ele>
        <time>2011-07-28T14:41:34Z</time>
      </trkpt>
      <trkpt lat="47.29639" lon="-1.69593">
        <ele>51.6</ele>
        <time>2011-07-28T14:41:35Z</time>
      </trkpt>
      <trkpt lat="47.29639" lon="-1.69589">
        <ele>51.4</ele>
        <time>2011-07-28T14:41:36Z</time>
      </trkpt>
      <trkpt lat="47.29638" lon="-1.69584">
        <ele>51.3</ele>
        <time>2011-07-28T14:41:37Z</time>
      </trkpt>
      <trkpt lat="47.29637" lon="-1.69581">
        <ele>51.5</ele>
        <time>2011-07-28T14:41:38Z</time>
      </trkpt>
      <trkpt lat="47.29636" lon="-1.69577">
        <ele>51.6</ele>
        <time>2011-07-28T14:41:39Z</time>
      </trkpt>
      <trkpt lat="47.29635" lon="-1.69574">
        <ele>51.7</ele>
        <time>2011-07-28T14:41:40Z</time>
      </trkpt>
      <trkpt lat="47.29634" lon="-1.6957">
        <ele>51.8</ele>
        <time>2011-07-28T14:41:41Z</time>
      </trkpt>
      <trkpt lat="47.29633" lon="-1.69566">
        <ele>51.9</ele>
        <time>2011-07-28T14:41:42Z</time>
      </trkpt>
      <trkpt lat="47.29631" lon="-1.6956">
        <ele>51.9</ele>
        <time>2011-07-28T14:41:44Z</time>
      </trkpt>
      <trkpt lat="47.2963" lon="-1.69556">
        <ele>51.8</ele>
        <time>2011-07-28T14:41:45Z</time>
      </trkpt>
      <trkpt lat="47.29628" lon="-1.69552">
        <ele>51.8</ele>
        <time>2011-07-28T14:41:46Z</time>
      </trkpt>
      <trkpt lat="47.29626" lon="-1.69547">
        <ele>51.8</ele>
        <time>2011-07-28T14:41:47Z</time>
      </trkpt>
      <trkpt lat="47.29625" lon="-1.69543">
        <ele>51.8</ele>
        <time>2011-07-28T14:41:48Z</time>
      </trkpt>
      <trkpt lat="47.29623" lon="-1.69538">
        <ele>51.8</ele>
        <time>2011-07-28T14:41:49Z</time>
      </trkpt>
      <trkpt lat="47.29622" lon="-1.69533">
        <ele>52</ele>
        <time>2011-07-28T14:41:50Z</time>
      </trkpt>
      <trkpt lat="47.2962" lon="-1.69529">
        <ele>52.2</ele>
        <time>2011-07-28T14:41:51Z</time>
      </trkpt>
      <trkpt lat="47.29619" lon="-1.69524">
        <ele>52.4</ele>
        <time>2011-07-28T14:41:52Z</time>
      </trkpt>
      <trkpt lat="47.29617" lon="-1.6952">
        <ele>52.5</ele>
        <time>2011-07-28T14:41:53Z</time>
      </trkpt>
      <trkpt lat="47.29615" lon="-1.69515">
        <ele>52.8</ele>
        <time>2011-07-28T14:41:54Z</time>
      </trkpt>
      <trkpt lat="47.29613" lon="-1.69511">
        <ele>53</ele>
        <time>2011-07-28T14:41:55Z</time>
      </trkpt>
      <trkpt lat="47.29612" lon="-1.69507">
        <ele>53.1</ele>
        <time>2011-07-28T14:41:56Z</time>
      </trkpt>
      <trkpt lat="47.29611" lon="-1.69503">
        <ele>53.2</ele>
        <time>2011-07-28T14:41:57Z</time>
      </trkpt>
      <trkpt lat="47.2961" lon="-1.69499">
        <ele>53.3</ele>
        <time>2011-07-28T14:41:58Z</time>
      </trkpt>
      <trkpt lat="47.29609" lon="-1.69496">
        <ele>53.4</ele>
        <time>2011-07-28T14:41:59Z</time>
      </trkpt>
      <trkpt lat="47.29608" lon="-1.69492">
        <ele>53.7</ele>
        <time>2011-07-28T14:42:00Z</time>
      </trkpt>
      <trkpt lat="47.29607" lon="-1.69488">
        <ele>53.9</ele>
        <time>2011-07-28T14:42:01Z</time>
      </trkpt>
      <trkpt lat="47.29605" lon="-1.69484">
        <ele>54.1</ele>
        <time>2011-07-28T14:42:02Z</time>
      </trkpt>
      <trkpt lat="47.29603" lon="-1.6948">
        <ele>54.1</ele>
        <time>2011-07-28T14:42:03Z</time>
      </trkpt>
      <trkpt lat="47.29602" lon="-1.69475">
        <ele>54.2</ele>
        <time>2011-07-28T14:42:04Z</time>
      </trkpt>
      <trkpt lat="47.296" lon="-1.69471">
        <ele>54.2</ele>
        <time>2011-07-28T14:42:05Z</time>
      </trkpt>
      <trkpt lat="47.29599" lon="-1.69466">
        <ele>54.6</ele>
        <time>2011-07-28T14:42:06Z</time>
      </trkpt>
      <trkpt lat="47.29597" lon="-1.69461">
        <ele>54.9</ele>
        <time>2011-07-28T14:42:07Z</time>
      </trkpt>
      <trkpt lat="47.29597" lon="-1.69457">
        <ele>55.1</ele>
        <time>2011-07-28T14:42:08Z</time>
      </trkpt>
      <trkpt lat="47.29597" lon="-1.69453">
        <ele>55.2</ele>
        <time>2011-07-28T14:42:09Z</time>
      </trkpt>
      <trkpt lat="47.29597" lon="-1.69449">
        <ele>55.3</ele>
        <time>2011-07-28T14:42:10Z</time>
      </trkpt>
      <trkpt lat="47.29597" lon="-1.69446">
        <ele>55.4</ele>
        <time>2011-07-28T14:42:11Z</time>
      </trkpt>
      <trkpt lat="47.29596" lon="-1.69441">
        <ele>55.5</ele>
        <time>2011-07-28T14:42:12Z</time>
      </trkpt>
      <trkpt lat="47.29597" lon="-1.69437">
        <ele>55.4</ele>
        <time>2011-07-28T14:42:13Z</time>
      </trkpt>
      <trkpt lat="47.29598" lon="-1.69433">
        <ele>55.3</ele>
        <time>2011-07-28T14:42:14Z</time>
      </trkpt>
      <trkpt lat="47.29598" lon="-1.69428">
        <ele>55.3</ele>
        <time>2011-07-28T14:42:15Z</time>
      </trkpt>
      <trkpt lat="47.29598" lon="-1.69423">
        <ele>55.8</ele>
        <time>2011-07-28T14:42:16Z</time>
      </trkpt>
      <trkpt lat="47.29598" lon="-1.69417">
        <ele>56.1</ele>
        <time>2011-07-28T14:42:17Z</time>
      </trkpt>
      <trkpt lat="47.29597" lon="-1.69412">
        <ele>56.3</ele>
        <time>2011-07-28T14:42:18Z</time>
      </trkpt>
      <trkpt lat="47.29597" lon="-1.69407">
        <ele>56.3</ele>
        <time>2011-07-28T14:42:19Z</time>
      </trkpt>
      <trkpt lat="47.29596" lon="-1.69401">
        <ele>56.2</ele>
        <time>2011-07-28T14:42:20Z</time>
      </trkpt>
      <trkpt lat="47.29597" lon="-1.69397">
        <ele>56.1</ele>
        <time>2011-07-28T14:42:21Z</time>
      </trkpt>
      <trkpt lat="47.29596" lon="-1.69392">
        <ele>56.2</ele>
        <time>2011-07-28T14:42:22Z</time>
      </trkpt>
      <trkpt lat="47.29595" lon="-1.69386">
        <ele>56.3</ele>
        <time>2011-07-28T14:42:23Z</time>
      </trkpt>
      <trkpt lat="47.29595" lon="-1.69381">
        <ele>56.3</ele>
        <time>2011-07-28T14:42:24Z</time>
      </trkpt>
      <trkpt lat="47.29595" lon="-1.69378">
        <ele>56</ele>
        <time>2011-07-28T14:42:25Z</time>
      </trkpt>
      <trkpt lat="47.29594" lon="-1.69374">
        <ele>55.8</ele>
        <time>2011-07-28T14:42:26Z</time>
      </trkpt>
      <trkpt lat="47.29593" lon="-1.69369">
        <ele>55.6</ele>
        <time>2011-07-28T14:42:27Z</time>
      </trkpt>
      <trkpt lat="47.29592" lon="-1.69364">
        <ele>55.5</ele>
        <time>2011-07-28T14:42:28Z</time>
      </trkpt>
      <trkpt lat="47.29592" lon="-1.6936">
        <ele>55.9</ele>
        <time>2011-07-28T14:42:29Z</time>
      </trkpt>
      <trkpt lat="47.29593" lon="-1.69354">
        <ele>56.4</ele>
        <time>2011-07-28T14:42:31Z</time>
      </trkpt>
      <trkpt lat="47.29593" lon="-1.6935">
        <ele>56.8</ele>
        <time>2011-07-28T14:42:32Z</time>
      </trkpt>
      <trkpt lat="47.29594" lon="-1.69347">
        <ele>57.1</ele>
        <time>2011-07-28T14:42:33Z</time>
      </trkpt>
      <trkpt lat="47.29595" lon="-1.69343">
        <ele>57.3</ele>
        <time>2011-07-28T14:42:34Z</time>
      </trkpt>
      <trkpt lat="47.29596" lon="-1.69337">
        <ele>56.8</ele>
        <time>2011-07-28T14:42:36Z</time>
      </trkpt>
      <trkpt lat="47.29596" lon="-1.69333">
        <ele>56.6</ele>
        <time>2011-07-28T14:42:37Z</time>
      </trkpt>
      <trkpt lat="47.29596" lon="-1.69328">
        <ele>56.9</ele>
        <time>2011-07-28T14:42:38Z</time>
      </trkpt>
      <trkpt lat="47.29595" lon="-1.69324">
        <ele>57.1</ele>
        <time>2011-07-28T14:42:39Z</time>
      </trkpt>
      <trkpt lat="47.29596" lon="-1.6932">
        <ele>57.3</ele>
        <time>2011-07-28T14:42:40Z</time>
      </trkpt>
      <trkpt lat="47.29596" lon="-1.69317">
        <ele>57.6</ele>
        <time>2011-07-28T14:42:41Z</time>
      </trkpt>
      <trkpt lat="47.29597" lon="-1.69313">
        <ele>57.9</ele>
        <time>2011-07-28T14:42:42Z</time>
      </trkpt>
      <trkpt lat="47.29599" lon="-1.69309">
        <ele>58.1</ele>
        <time>2011-07-28T14:42:43Z</time>
      </trkpt>
      <trkpt lat="47.296" lon="-1.69305">
        <ele>58.2</ele>
        <time>2011-07-28T14:42:44Z</time>
      </trkpt>
      <trkpt lat="47.29601" lon="-1.69301">
        <ele>58.2</ele>
        <time>2011-07-28T14:42:45Z</time>
      </trkpt>
      <trkpt lat="47.29602" lon="-1.69297">
        <ele>58.2</ele>
        <time>2011-07-28T14:42:46Z</time>
      </trkpt>
      <trkpt lat="47.29602" lon="-1.69293">
        <ele>58.3</ele>
        <time>2011-07-28T14:42:47Z</time>
      </trkpt>
      <trkpt lat="47.29603" lon="-1.69289">
        <ele>58.3</ele>
        <time>2011-07-28T14:42:48Z</time>
      </trkpt>
      <trkpt lat="47.29605" lon="-1.69283">
        <ele>58.5</ele>
        <time>2011-07-28T14:42:50Z</time>
      </trkpt>
      <trkpt lat="47.29606" lon="-1.6928">
        <ele>58.5</ele>
        <time>2011-07-28T14:42:51Z</time>
      </trkpt>
      <trkpt lat="47.29607" lon="-1.69276">
        <ele>58.4</ele>
        <time>2011-07-28T14:42:52Z</time>
      </trkpt>
      <trkpt lat="47.29607" lon="-1.69273">
        <ele>58.4</ele>
        <time>2011-07-28T14:42:53Z</time>
      </trkpt>
      <trkpt lat="47.29608" lon="-1.6927">
        <ele>58.7</ele>
        <time>2011-07-28T14:42:54Z</time>
      </trkpt>
      <trkpt lat="47.29608" lon="-1.69266">
        <ele>58.9</ele>
        <time>2011-07-28T14:42:55Z</time>
      </trkpt>
      <trkpt lat="47.29609" lon="-1.69263">
        <ele>59.1</ele>
        <time>2011-07-28T14:42:56Z</time>
      </trkpt>
      <trkpt lat="47.29611" lon="-1.6926">
        <ele>58.9</ele>
        <time>2011-07-28T14:42:57Z</time>
      </trkpt>
      <trkpt lat="47.29611" lon="-1.69257">
        <ele>58.7</ele>
        <time>2011-07-28T14:42:58Z</time>
      </trkpt>
      <trkpt lat="47.29613" lon="-1.69251">
        <ele>58.5</ele>
        <time>2011-07-28T14:43:00Z</time>
      </trkpt>
      <trkpt lat="47.29614" lon="-1.69245">
        <ele>58.4</ele>
        <time>2011-07-28T14:43:02Z</time>
      </trkpt>
      <trkpt lat="47.29614" lon="-1.6924">
        <ele>58.5</ele>
        <time>2011-07-28T14:43:04Z</time>
      </trkpt>
      <trkpt lat="47.29614" lon="-1.69235">
        <ele>58.7</ele>
        <time>2011-07-28T14:43:06Z</time>
      </trkpt>
      <trkpt lat="47.29612" lon="-1.69229">
        <ele>58.3</ele>
        <time>2011-07-28T14:43:09Z</time>
      </trkpt>
      <trkpt lat="47.2961" lon="-1.69224">
        <ele>58.5</ele>
        <time>2011-07-28T14:43:12Z</time>
      </trkpt>
      <trkpt lat="47.29609" lon="-1.69218">
        <ele>58.2</ele>
        <time>2011-07-28T14:43:15Z</time>
      </trkpt>
      <trkpt lat="47.29607" lon="-1.69213">
        <ele>58.4</ele>
        <time>2011-07-28T14:43:18Z</time>
      </trkpt>
      <trkpt lat="47.29605" lon="-1.69209">
        <ele>58</ele>
        <time>2011-07-28T14:43:20Z</time>
      </trkpt>
      <trkpt lat="47.29603" lon="-1.69203">
        <ele>57.7</ele>
        <time>2011-07-28T14:43:25Z</time>
      </trkpt>
      <trkpt lat="47.29602" lon="-1.69198">
        <ele>58.2</ele>
        <time>2011-07-28T14:44:41Z</time>
      </trkpt>
      <trkpt lat="47.29602" lon="-1.69197">
        <ele>58.2</ele>
        <time>2011-07-28T14:44:42Z</time>
      </trkpt>
      <trkpt lat="47.29598" lon="-1.69191">
        <ele>58.7</ele>
        <time>2011-07-28T14:44:46Z</time>
      </trkpt>
      <trkpt lat="47.29595" lon="-1.69187">
        <ele>58.8</ele>
        <time>2011-07-28T14:44:48Z</time>
      </trkpt>
      <trkpt lat="47.29592" lon="-1.69184">
        <ele>59.2</ele>
        <time>2011-07-28T14:44:50Z</time>
      </trkpt>
      <trkpt lat="47.2959" lon="-1.6918">
        <ele>59.5</ele>
        <time>2011-07-28T14:44:53Z</time>
      </trkpt>
      <trkpt lat="47.29586" lon="-1.69176">
        <ele>59.1</ele>
        <time>2011-07-28T14:45:13Z</time>
      </trkpt>
      <trkpt lat="47.29583" lon="-1.69171">
        <ele>60.4</ele>
        <time>2011-07-28T14:45:31Z</time>
      </trkpt>
      <trkpt lat="47.2958" lon="-1.69167">
        <ele>59.7</ele>
        <time>2011-07-28T14:46:37Z</time>
      </trkpt>
      <trkpt lat="47.2958" lon="-1.69166">
        <ele>59.7</ele>
        <time>2011-07-28T14:46:38Z</time>
      </trkpt>
      <trkpt lat="47.29577" lon="-1.69155">
        <ele>59</ele>
        <time>2011-07-28T14:48:04Z</time>
      </trkpt>
      <trkpt lat="47.29577" lon="-1.69155">
        <ele>58.8</ele>
        <time>2011-07-28T14:48:05Z</time>
      </trkpt>
      <trkpt lat="47.29573" lon="-1.69155">
        <ele>60.4</ele>
        <time>2011-07-28T14:49:15Z</time>
      </trkpt>
      <trkpt lat="47.29575" lon="-1.69157">
        <ele>58.4</ele>
        <time>2011-07-28T14:50:30Z</time>
      </trkpt>
      <trkpt lat="47.29575" lon="-1.69157">
        <ele>58.7</ele>
        <time>2011-07-28T14:50:31Z</time>
      </trkpt>
      <trkpt lat="47.29576" lon="-1.69157">
        <ele>61</ele>
        <time>2011-07-28T14:52:09Z</time>
      </trkpt>
      <trkpt lat="47.29575" lon="-1.69156">
        <ele>60.9</ele>
        <time>2011-07-28T14:52:10Z</time>
      </trkpt>
      <trkpt lat="47.29569" lon="-1.69149">
        <ele>62.7</ele>
        <time>2011-07-28T14:52:26Z</time>
      </trkpt>
      <trkpt lat="47.29567" lon="-1.69144">
        <ele>61.5</ele>
        <time>2011-07-28T14:52:30Z</time>
      </trkpt>
      <trkpt lat="47.29564" lon="-1.6914">
        <ele>62</ele>
        <time>2011-07-28T14:52:33Z</time>
      </trkpt>
      <trkpt lat="47.29562" lon="-1.69136">
        <ele>61.9</ele>
        <time>2011-07-28T14:52:35Z</time>
      </trkpt>
      <trkpt lat="47.2956" lon="-1.69133">
        <ele>61.4</ele>
        <time>2011-07-28T14:52:37Z</time>
      </trkpt>
      <trkpt lat="47.29557" lon="-1.6913">
        <ele>62</ele>
        <time>2011-07-28T14:52:39Z</time>
      </trkpt>
      <trkpt lat="47.29554" lon="-1.69126">
        <ele>62.3</ele>
        <time>2011-07-28T14:52:41Z</time>
      </trkpt>
      <trkpt lat="47.29551" lon="-1.69121">
        <ele>62.5</ele>
        <time>2011-07-28T14:52:43Z</time>
      </trkpt>
      <trkpt lat="47.29549" lon="-1.69117">
        <ele>62.4</ele>
        <time>2011-07-28T14:52:45Z</time>
      </trkpt>
      <trkpt lat="47.29548" lon="-1.69114">
        <ele>62.3</ele>
        <time>2011-07-28T14:52:46Z</time>
      </trkpt>
      <trkpt lat="47.29546" lon="-1.69111">
        <ele>62.2</ele>
        <time>2011-07-28T14:52:47Z</time>
      </trkpt>
      <trkpt lat="47.29545" lon="-1.69109">
        <ele>62.6</ele>
        <time>2011-07-28T14:52:48Z</time>
      </trkpt>
      <trkpt lat="47.29542" lon="-1.69104">
        <ele>63</ele>
        <time>2011-07-28T14:52:50Z</time>
      </trkpt>
      <trkpt lat="47.29539" lon="-1.69099">
        <ele>63.3</ele>
        <time>2011-07-28T14:52:52Z</time>
      </trkpt>
      <trkpt lat="47.29536" lon="-1.69095">
        <ele>63.5</ele>
        <time>2011-07-28T14:52:54Z</time>
      </trkpt>
      <trkpt lat="47.29534" lon="-1.69091">
        <ele>63.6</ele>
        <time>2011-07-28T14:52:56Z</time>
      </trkpt>
      <trkpt lat="47.29531" lon="-1.69087">
        <ele>64</ele>
        <time>2011-07-28T14:52:58Z</time>
      </trkpt>
      <trkpt lat="47.2953" lon="-1.69085">
        <ele>64.3</ele>
        <time>2011-07-28T14:52:59Z</time>
      </trkpt>
      <trkpt lat="47.29528" lon="-1.69082">
        <ele>64.5</ele>
        <time>2011-07-28T14:53:00Z</time>
      </trkpt>
      <trkpt lat="47.29526" lon="-1.69079">
        <ele>64.4</ele>
        <time>2011-07-28T14:53:01Z</time>
      </trkpt>
      <trkpt lat="47.29524" lon="-1.69077">
        <ele>64.3</ele>
        <time>2011-07-28T14:53:02Z</time>
      </trkpt>
      <trkpt lat="47.29523" lon="-1.69074">
        <ele>64.2</ele>
        <time>2011-07-28T14:53:03Z</time>
      </trkpt>
      <trkpt lat="47.29521" lon="-1.69072">
        <ele>64.5</ele>
        <time>2011-07-28T14:53:04Z</time>
      </trkpt>
      <trkpt lat="47.29517" lon="-1.69068">
        <ele>64.9</ele>
        <time>2011-07-28T14:53:06Z</time>
      </trkpt>
      <trkpt lat="47.29515" lon="-1.69066">
        <ele>65.2</ele>
        <time>2011-07-28T14:53:07Z</time>
      </trkpt>
      <trkpt lat="47.29513" lon="-1.69064">
        <ele>65.4</ele>
        <time>2011-07-28T14:53:08Z</time>
      </trkpt>
      <trkpt lat="47.29511" lon="-1.69062">
        <ele>65.5</ele>
        <time>2011-07-28T14:53:09Z</time>
      </trkpt>
      <trkpt lat="47.29509" lon="-1.69059">
        <ele>65.5</ele>
        <time>2011-07-28T14:53:10Z</time>
      </trkpt>
      <trkpt lat="47.29507" lon="-1.69057">
        <ele>65.5</ele>
        <time>2011-07-28T14:53:11Z</time>
      </trkpt>
      <trkpt lat="47.29504" lon="-1.69053">
        <ele>65.3</ele>
        <time>2011-07-28T14:53:13Z</time>
      </trkpt>
      <trkpt lat="47.29502" lon="-1.69051">
        <ele>65.2</ele>
        <time>2011-07-28T14:53:14Z</time>
      </trkpt>
      <trkpt lat="47.29499" lon="-1.69048">
        <ele>65.1</ele>
        <time>2011-07-28T14:53:16Z</time>
      </trkpt>
      <trkpt lat="47.29496" lon="-1.69044">
        <ele>65.4</ele>
        <time>2011-07-28T14:53:18Z</time>
      </trkpt>
      <trkpt lat="47.29493" lon="-1.69041">
        <ele>65.2</ele>
        <time>2011-07-28T14:53:20Z</time>
      </trkpt>
      <trkpt lat="47.2949" lon="-1.69039">
        <ele>65</ele>
        <time>2011-07-28T14:53:21Z</time>
      </trkpt>
      <trkpt lat="47.29487" lon="-1.69036">
        <ele>65.2</ele>
        <time>2011-07-28T14:53:23Z</time>
      </trkpt>
      <trkpt lat="47.29485" lon="-1.69033">
        <ele>65.7</ele>
        <time>2011-07-28T14:53:25Z</time>
      </trkpt>
      <trkpt lat="47.29481" lon="-1.6903">
        <ele>67.3</ele>
        <time>2011-07-28T14:53:28Z</time>
      </trkpt>
      <trkpt lat="47.29479" lon="-1.69026">
        <ele>67</ele>
        <time>2011-07-28T14:53:30Z</time>
      </trkpt>
      <trkpt lat="47.29477" lon="-1.69022">
        <ele>66.8</ele>
        <time>2011-07-28T14:53:32Z</time>
      </trkpt>
      <trkpt lat="47.29474" lon="-1.69017">
        <ele>66.7</ele>
        <time>2011-07-28T14:53:35Z</time>
      </trkpt>
      <trkpt lat="47.29471" lon="-1.69014">
        <ele>67.1</ele>
        <time>2011-07-28T14:53:37Z</time>
      </trkpt>
      <trkpt lat="47.29468" lon="-1.6901">
        <ele>67</ele>
        <time>2011-07-28T14:53:39Z</time>
      </trkpt>
      <trkpt lat="47.29466" lon="-1.69008">
        <ele>66.8</ele>
        <time>2011-07-28T14:53:40Z</time>
      </trkpt>
      <trkpt lat="47.29465" lon="-1.69005">
        <ele>66.6</ele>
        <time>2011-07-28T14:53:41Z</time>
      </trkpt>
      <trkpt lat="47.29462" lon="-1.69003">
        <ele>66.8</ele>
        <time>2011-07-28T14:53:42Z</time>
      </trkpt>
      <trkpt lat="47.2946" lon="-1.69001">
        <ele>66.9</ele>
        <time>2011-07-28T14:53:43Z</time>
      </trkpt>
      <trkpt lat="47.29458" lon="-1.68999">
        <ele>66.9</ele>
        <time>2011-07-28T14:53:44Z</time>
      </trkpt>
      <trkpt lat="47.29455" lon="-1.68994">
        <ele>67.1</ele>
        <time>2011-07-28T14:53:46Z</time>
      </trkpt>
      <trkpt lat="47.29452" lon="-1.6899">
        <ele>67.2</ele>
        <time>2011-07-28T14:53:48Z</time>
      </trkpt>
      <trkpt lat="47.2945" lon="-1.68988">
        <ele>67.3</ele>
        <time>2011-07-28T14:53:49Z</time>
      </trkpt>
      <trkpt lat="47.29448" lon="-1.68985">
        <ele>67.3</ele>
        <time>2011-07-28T14:53:50Z</time>
      </trkpt>
      <trkpt lat="47.29446" lon="-1.68983">
        <ele>67.4</ele>
        <time>2011-07-28T14:53:51Z</time>
      </trkpt>
      <trkpt lat="47.29443" lon="-1.6898">
        <ele>67.3</ele>
        <time>2011-07-28T14:53:52Z</time>
      </trkpt>
      <trkpt lat="47.29441" lon="-1.68977">
        <ele>67.3</ele>
        <time>2011-07-28T14:53:53Z</time>
      </trkpt>
      <trkpt lat="47.29438" lon="-1.68973">
        <ele>67.3</ele>
        <time>2011-07-28T14:53:54Z</time>
      </trkpt>
      <trkpt lat="47.29436" lon="-1.68969">
        <ele>67.2</ele>
        <time>2011-07-28T14:53:55Z</time>
      </trkpt>
      <trkpt lat="47.29433" lon="-1.68966">
        <ele>67.1</ele>
        <time>2011-07-28T14:53:56Z</time>
      </trkpt>
      <trkpt lat="47.29431" lon="-1.68962">
        <ele>67.1</ele>
        <time>2011-07-28T14:53:57Z</time>
      </trkpt>
      <trkpt lat="47.29428" lon="-1.68958">
        <ele>67</ele>
        <time>2011-07-28T14:53:58Z</time>
      </trkpt>
      <trkpt lat="47.29424" lon="-1.68954">
        <ele>66.8</ele>
        <time>2011-07-28T14:53:59Z</time>
      </trkpt>
      <trkpt lat="47.2942" lon="-1.68949">
        <ele>66.8</ele>
        <time>2011-07-28T14:54:00Z</time>
      </trkpt>
      <trkpt lat="47.29417" lon="-1.68944">
        <ele>66.9</ele>
        <time>2011-07-28T14:54:01Z</time>
      </trkpt>
      <trkpt lat="47.29413" lon="-1.68939">
        <ele>67</ele>
        <time>2011-07-28T14:54:02Z</time>
      </trkpt>
      <trkpt lat="47.2941" lon="-1.68934">
        <ele>67</ele>
        <time>2011-07-28T14:54:03Z</time>
      </trkpt>
      <trkpt lat="47.29407" lon="-1.68929">
        <ele>67.1</ele>
        <time>2011-07-28T14:54:04Z</time>
      </trkpt>
      <trkpt lat="47.29404" lon="-1.68925">
        <ele>67.2</ele>
        <time>2011-07-28T14:54:05Z</time>
      </trkpt>
      <trkpt lat="47.29401" lon="-1.68921">
        <ele>67.2</ele>
        <time>2011-07-28T14:54:06Z</time>
      </trkpt>
      <trkpt lat="47.29399" lon="-1.68916">
        <ele>67.3</ele>
        <time>2011-07-28T14:54:07Z</time>
      </trkpt>
      <trkpt lat="47.29396" lon="-1.68912">
        <ele>67.2</ele>
        <time>2011-07-28T14:54:08Z</time>
      </trkpt>
      <trkpt lat="47.29394" lon="-1.68907">
        <ele>67.2</ele>
        <time>2011-07-28T14:54:09Z</time>
      </trkpt>
      <trkpt lat="47.29391" lon="-1.68904">
        <ele>67.1</ele>
        <time>2011-07-28T14:54:12Z</time>
      </trkpt>
      <trkpt lat="47.2939" lon="-1.68904">
        <ele>67.1</ele>
        <time>2011-07-28T14:54:13Z</time>
      </trkpt>
      <trkpt lat="47.29384" lon="-1.68898">
        <ele>67.5</ele>
        <time>2011-07-28T14:54:26Z</time>
      </trkpt>
      <trkpt lat="47.2938" lon="-1.68895">
        <ele>67.1</ele>
        <time>2011-07-28T14:54:39Z</time>
      </trkpt>
      <trkpt lat="47.29378" lon="-1.68892">
        <ele>67.5</ele>
        <time>2011-07-28T14:54:53Z</time>
      </trkpt>
      <trkpt lat="47.29374" lon="-1.68891">
        <ele>67.7</ele>
        <time>2011-07-28T14:54:56Z</time>
      </trkpt>
      <trkpt lat="47.2937" lon="-1.68895">
        <ele>67.5</ele>
        <time>2011-07-28T14:54:58Z</time>
      </trkpt>
      <trkpt lat="47.29368" lon="-1.68897">
        <ele>67.3</ele>
        <time>2011-07-28T14:54:59Z</time>
      </trkpt>
      <trkpt lat="47.29366" lon="-1.68901">
        <ele>67.1</ele>
        <time>2011-07-28T14:55:00Z</time>
      </trkpt>
      <trkpt lat="47.29364" lon="-1.68903">
        <ele>67</ele>
        <time>2011-07-28T14:55:01Z</time>
      </trkpt>
      <trkpt lat="47.29362" lon="-1.68906">
        <ele>67</ele>
        <time>2011-07-28T14:55:02Z</time>
      </trkpt>
      <trkpt lat="47.29358" lon="-1.68909">
        <ele>67</ele>
        <time>2011-07-28T14:55:03Z</time>
      </trkpt>
      <trkpt lat="47.29355" lon="-1.68913">
        <ele>67</ele>
        <time>2011-07-28T14:55:04Z</time>
      </trkpt>
      <trkpt lat="47.29352" lon="-1.68917">
        <ele>67.1</ele>
        <time>2011-07-28T14:55:05Z</time>
      </trkpt>
      <trkpt lat="47.29348" lon="-1.6892">
        <ele>67.1</ele>
        <time>2011-07-28T14:55:06Z</time>
      </trkpt>
      <trkpt lat="47.29344" lon="-1.68924">
        <ele>67.2</ele>
        <time>2011-07-28T14:55:07Z</time>
      </trkpt>
      <trkpt lat="47.2934" lon="-1.68928">
        <ele>66.9</ele>
        <time>2011-07-28T14:55:08Z</time>
      </trkpt>
      <trkpt lat="47.29335" lon="-1.68932">
        <ele>66.6</ele>
        <time>2011-07-28T14:55:09Z</time>
      </trkpt>
      <trkpt lat="47.29331" lon="-1.68936">
        <ele>66.5</ele>
        <time>2011-07-28T14:55:10Z</time>
      </trkpt>
      <trkpt lat="47.29326" lon="-1.68939">
        <ele>66.3</ele>
        <time>2011-07-28T14:55:11Z</time>
      </trkpt>
      <trkpt lat="47.29321" lon="-1.68943">
        <ele>66.5</ele>
        <time>2011-07-28T14:55:12Z</time>
      </trkpt>
      <trkpt lat="47.29317" lon="-1.68947">
        <ele>66.7</ele>
        <time>2011-07-28T14:55:13Z</time>
      </trkpt>
      <trkpt lat="47.29313" lon="-1.68951">
        <ele>66.8</ele>
        <time>2011-07-28T14:55:14Z</time>
      </trkpt>
      <trkpt lat="47.29309" lon="-1.68955">
        <ele>66.5</ele>
        <time>2011-07-28T14:55:15Z</time>
      </trkpt>
      <trkpt lat="47.29305" lon="-1.68959">
        <ele>66.4</ele>
        <time>2011-07-28T14:55:16Z</time>
      </trkpt>
      <trkpt lat="47.29301" lon="-1.68964">
        <ele>66.2</ele>
        <time>2011-07-28T14:55:17Z</time>
      </trkpt>
      <trkpt lat="47.29297" lon="-1.68967">
        <ele>65.9</ele>
        <time>2011-07-28T14:55:18Z</time>
      </trkpt>
      <trkpt lat="47.29293" lon="-1.68971">
        <ele>65.6</ele>
        <time>2011-07-28T14:55:19Z</time>
      </trkpt>
      <trkpt lat="47.2929" lon="-1.68974">
        <ele>65.4</ele>
        <time>2011-07-28T14:55:20Z</time>
      </trkpt>
      <trkpt lat="47.29286" lon="-1.68977">
        <ele>65.1</ele>
        <time>2011-07-28T14:55:21Z</time>
      </trkpt>
      <trkpt lat="47.29283" lon="-1.6898">
        <ele>64.9</ele>
        <time>2011-07-28T14:55:22Z</time>
      </trkpt>
      <trkpt lat="47.2928" lon="-1.68984">
        <ele>64.7</ele>
        <time>2011-07-28T14:55:23Z</time>
      </trkpt>
      <trkpt lat="47.29276" lon="-1.68987">
        <ele>64.5</ele>
        <time>2011-07-28T14:55:24Z</time>
      </trkpt>
      <trkpt lat="47.29271" lon="-1.6899">
        <ele>64.3</ele>
        <time>2011-07-28T14:55:25Z</time>
      </trkpt>
      <trkpt lat="47.29266" lon="-1.68992">
        <ele>64.1</ele>
        <time>2011-07-28T14:55:26Z</time>
      </trkpt>
      <trkpt lat="47.29261" lon="-1.68995">
        <ele>64</ele>
        <time>2011-07-28T14:55:27Z</time>
      </trkpt>
      <trkpt lat="47.29256" lon="-1.68997">
        <ele>63.9</ele>
        <time>2011-07-28T14:55:28Z</time>
      </trkpt>
      <trkpt lat="47.2925" lon="-1.69">
        <ele>63.7</ele>
        <time>2011-07-28T14:55:29Z</time>
      </trkpt>
      <trkpt lat="47.29244" lon="-1.69002">
        <ele>63.7</ele>
        <time>2011-07-28T14:55:30Z</time>
      </trkpt>
      <trkpt lat="47.29237" lon="-1.69005">
        <ele>63.4</ele>
        <time>2011-07-28T14:55:31Z</time>
      </trkpt>
      <trkpt lat="47.29231" lon="-1.69008">
        <ele>63.2</ele>
        <time>2011-07-28T14:55:32Z</time>
      </trkpt>
      <trkpt lat="47.29225" lon="-1.69011">
        <ele>63.1</ele>
        <time>2011-07-28T14:55:33Z</time>
      </trkpt>
      <trkpt lat="47.29218" lon="-1.69012">
        <ele>63</ele>
        <time>2011-07-28T14:55:34Z</time>
      </trkpt>
      <trkpt lat="47.29211" lon="-1.69014">
        <ele>62.9</ele>
        <time>2011-07-28T14:55:35Z</time>
      </trkpt>
      <trkpt lat="47.29204" lon="-1.69016">
        <ele>62.9</ele>
        <time>2011-07-28T14:55:36Z</time>
      </trkpt>
      <trkpt lat="47.29197" lon="-1.69017">
        <ele>61.9</ele>
        <time>2011-07-28T14:55:37Z</time>
      </trkpt>
      <trkpt lat="47.29191" lon="-1.69017">
        <ele>61.1</ele>
        <time>2011-07-28T14:55:38Z</time>
      </trkpt>
      <trkpt lat="47.29184" lon="-1.69016">
        <ele>60.6</ele>
        <time>2011-07-28T14:55:39Z</time>
      </trkpt>
      <trkpt lat="47.29177" lon="-1.69015">
        <ele>60.1</ele>
        <time>2011-07-28T14:55:40Z</time>
      </trkpt>
      <trkpt lat="47.29172" lon="-1.69012">
        <ele>59.7</ele>
        <time>2011-07-28T14:55:41Z</time>
      </trkpt>
      <trkpt lat="47.29165" lon="-1.6901">
        <ele>59.5</ele>
        <time>2011-07-28T14:55:42Z</time>
      </trkpt>
      <trkpt lat="47.29159" lon="-1.69008">
        <ele>59.4</ele>
        <time>2011-07-28T14:55:43Z</time>
      </trkpt>
      <trkpt lat="47.29154" lon="-1.69006">
        <ele>59.4</ele>
        <time>2011-07-28T14:55:44Z</time>
      </trkpt>
      <trkpt lat="47.29148" lon="-1.69005">
        <ele>59.4</ele>
        <time>2011-07-28T14:55:45Z</time>
      </trkpt>
      <trkpt lat="47.29141" lon="-1.69003">
        <ele>59.4</ele>
        <time>2011-07-28T14:55:46Z</time>
      </trkpt>
      <trkpt lat="47.29135" lon="-1.69003">
        <ele>59.7</ele>
        <time>2011-07-28T14:55:47Z</time>
      </trkpt>
      <trkpt lat="47.29129" lon="-1.69001">
        <ele>60</ele>
        <time>2011-07-28T14:55:48Z</time>
      </trkpt>
      <trkpt lat="47.29123" lon="-1.69001">
        <ele>60.2</ele>
        <time>2011-07-28T14:55:49Z</time>
      </trkpt>
      <trkpt lat="47.29117" lon="-1.69002">
        <ele>59.9</ele>
        <time>2011-07-28T14:55:50Z</time>
      </trkpt>
      <trkpt lat="47.2911" lon="-1.69002">
        <ele>59.6</ele>
        <time>2011-07-28T14:55:51Z</time>
      </trkpt>
      <trkpt lat="47.29103" lon="-1.69004">
        <ele>59.5</ele>
        <time>2011-07-28T14:55:52Z</time>
      </trkpt>
      <trkpt lat="47.29097" lon="-1.69005">
        <ele>59.2</ele>
        <time>2011-07-28T14:55:53Z</time>
      </trkpt>
      <trkpt lat="47.29091" lon="-1.69006">
        <ele>59</ele>
        <time>2011-07-28T14:55:54Z</time>
      </trkpt>
      <trkpt lat="47.29086" lon="-1.69007">
        <ele>58.9</ele>
        <time>2011-07-28T14:55:55Z</time>
      </trkpt>
      <trkpt lat="47.29081" lon="-1.69008">
        <ele>58.5</ele>
        <time>2011-07-28T14:55:56Z</time>
      </trkpt>
      <trkpt lat="47.29075" lon="-1.69008">
        <ele>58.3</ele>
        <time>2011-07-28T14:55:57Z</time>
      </trkpt>
      <trkpt lat="47.29068" lon="-1.69009">
        <ele>58.1</ele>
        <time>2011-07-28T14:55:58Z</time>
      </trkpt>
      <trkpt lat="47.29062" lon="-1.69009">
        <ele>58.1</ele>
        <time>2011-07-28T14:55:59Z</time>
      </trkpt>
      <trkpt lat="47.29057" lon="-1.69011">
        <ele>58</ele>
        <time>2011-07-28T14:56:00Z</time>
      </trkpt>
      <trkpt lat="47.29051" lon="-1.69011">
        <ele>58</ele>
        <time>2011-07-28T14:56:01Z</time>
      </trkpt>
      <trkpt lat="47.29045" lon="-1.69012">
        <ele>58</ele>
        <time>2011-07-28T14:56:02Z</time>
      </trkpt>
      <trkpt lat="47.29038" lon="-1.69012">
        <ele>57.3</ele>
        <time>2011-07-28T14:56:03Z</time>
      </trkpt>
      <trkpt lat="47.29032" lon="-1.69012">
        <ele>56.9</ele>
        <time>2011-07-28T14:56:04Z</time>
      </trkpt>
      <trkpt lat="47.29026" lon="-1.69013">
        <ele>56.5</ele>
        <time>2011-07-28T14:56:05Z</time>
      </trkpt>
      <trkpt lat="47.2902" lon="-1.69013">
        <ele>56.3</ele>
        <time>2011-07-28T14:56:06Z</time>
      </trkpt>
      <trkpt lat="47.29014" lon="-1.69013">
        <ele>56.2</ele>
        <time>2011-07-28T14:56:07Z</time>
      </trkpt>
      <trkpt lat="47.29007" lon="-1.69013">
        <ele>56.1</ele>
        <time>2011-07-28T14:56:08Z</time>
      </trkpt>
      <trkpt lat="47.29001" lon="-1.69013">
        <ele>55.6</ele>
        <time>2011-07-28T14:56:09Z</time>
      </trkpt>
      <trkpt lat="47.28993" lon="-1.69013">
        <ele>55.3</ele>
        <time>2011-07-28T14:56:10Z</time>
      </trkpt>
      <trkpt lat="47.28987" lon="-1.6901">
        <ele>55</ele>
        <time>2011-07-28T14:56:11Z</time>
      </trkpt>
      <trkpt lat="47.28981" lon="-1.69008">
        <ele>54.6</ele>
        <time>2011-07-28T14:56:12Z</time>
      </trkpt>
      <trkpt lat="47.28977" lon="-1.69003">
        <ele>54.4</ele>
        <time>2011-07-28T14:56:13Z</time>
      </trkpt>
      <trkpt lat="47.28972" lon="-1.68999">
        <ele>54.2</ele>
        <time>2011-07-28T14:56:14Z</time>
      </trkpt>
      <trkpt lat="47.28967" lon="-1.68996">
        <ele>53.2</ele>
        <time>2011-07-28T14:56:15Z</time>
      </trkpt>
      <trkpt lat="47.2896" lon="-1.68992">
        <ele>52.4</ele>
        <time>2011-07-28T14:56:16Z</time>
      </trkpt>
      <trkpt lat="47.28955" lon="-1.68985">
        <ele>51.9</ele>
        <time>2011-07-28T14:56:17Z</time>
      </trkpt>
      <trkpt lat="47.28953" lon="-1.6898">
        <ele>51.4</ele>
        <time>2011-07-28T14:56:18Z</time>
      </trkpt>
      <trkpt lat="47.28949" lon="-1.68976">
        <ele>51</ele>
        <time>2011-07-28T14:56:20Z</time>
      </trkpt>
      <trkpt lat="47.28947" lon="-1.68975">
        <ele>50.9</ele>
        <time>2011-07-28T14:56:22Z</time>
      </trkpt>
      <trkpt lat="47.28944" lon="-1.68974">
        <ele>51</ele>
        <time>2011-07-28T14:56:24Z</time>
      </trkpt>
      <trkpt lat="47.2894" lon="-1.68974">
        <ele>52.1</ele>
        <time>2011-07-28T14:56:27Z</time>
      </trkpt>
      <trkpt lat="47.28936" lon="-1.68972">
        <ele>50.5</ele>
        <time>2011-07-28T14:56:31Z</time>
      </trkpt>
      <trkpt lat="47.28933" lon="-1.6897">
        <ele>51</ele>
        <time>2011-07-28T14:56:36Z</time>
      </trkpt>
      <trkpt lat="47.28928" lon="-1.68969">
        <ele>51.5</ele>
        <time>2011-07-28T14:56:44Z</time>
      </trkpt>
      <trkpt lat="47.28924" lon="-1.68968">
        <ele>51.4</ele>
        <time>2011-07-28T14:57:17Z</time>
      </trkpt>
      <trkpt lat="47.28924" lon="-1.68968">
        <ele>51.6</ele>
        <time>2011-07-28T14:57:18Z</time>
      </trkpt>
      <trkpt lat="47.28924" lon="-1.68966">
        <ele>51.5</ele>
        <time>2011-07-28T14:59:36Z</time>
      </trkpt>
      <trkpt lat="47.28924" lon="-1.68966">
        <ele>51.8</ele>
        <time>2011-07-28T14:59:37Z</time>
      </trkpt>
      <trkpt lat="47.28929" lon="-1.68975">
        <ele>49.9</ele>
        <time>2011-07-28T15:01:02Z</time>
      </trkpt>
      <trkpt lat="47.28929" lon="-1.68976">
        <ele>50.4</ele>
        <time>2011-07-28T15:01:03Z</time>
      </trkpt>
      <trkpt lat="47.28934" lon="-1.68968">
        <ele>51.2</ele>
        <time>2011-07-28T15:01:31Z</time>
      </trkpt>
      <trkpt lat="47.28937" lon="-1.68972">
        <ele>51.3</ele>
        <time>2011-07-28T15:01:41Z</time>
      </trkpt>
      <trkpt lat="47.28933" lon="-1.6897">
        <ele>50.2</ele>
        <time>2011-07-28T15:01:57Z</time>
      </trkpt>
      <trkpt lat="47.28929" lon="-1.68967">
        <ele>51.2</ele>
        <time>2011-07-28T15:02:05Z</time>
      </trkpt>
      <trkpt lat="47.28929" lon="-1.68968">
        <ele>51.3</ele>
        <time>2011-07-28T15:02:06Z</time>
      </trkpt>
      <trkpt lat="47.28921" lon="-1.68965">
        <ele>50.8</ele>
        <time>2011-07-28T15:05:12Z</time>
      </trkpt>
      <trkpt lat="47.28921" lon="-1.68964">
        <ele>50.7</ele>
        <time>2011-07-28T15:05:13Z</time>
      </trkpt>
      <trkpt lat="47.28918" lon="-1.6896">
        <ele>51.6</ele>
        <time>2011-07-28T15:08:56Z</time>
      </trkpt>
      <trkpt lat="47.28914" lon="-1.68959">
        <ele>51.6</ele>
        <time>2011-07-28T15:10:03Z</time>
      </trkpt>
      <trkpt lat="47.28916" lon="-1.68965">
        <ele>52.3</ele>
        <time>2011-07-28T15:13:54Z</time>
      </trkpt>
      <trkpt lat="47.2892" lon="-1.6896">
        <ele>52.1</ele>
        <time>2011-07-28T15:14:06Z</time>
      </trkpt>
      <trkpt lat="47.28921" lon="-1.68956">
        <ele>52.1</ele>
        <time>2011-07-28T15:14:08Z</time>
      </trkpt>
      <trkpt lat="47.28923" lon="-1.68951">
        <ele>52.3</ele>
        <time>2011-07-28T15:14:10Z</time>
      </trkpt>
      <trkpt lat="47.28927" lon="-1.6895">
        <ele>52.8</ele>
        <time>2011-07-28T15:14:13Z</time>
      </trkpt>
      <trkpt lat="47.28928" lon="-1.68952">
        <ele>53.5</ele>
        <time>2011-07-28T15:14:14Z</time>
      </trkpt>
      <trkpt lat="47.28929" lon="-1.68955">
        <ele>54.1</ele>
        <time>2011-07-28T15:14:15Z</time>
      </trkpt>
      <trkpt lat="47.28931" lon="-1.68961">
        <ele>54.8</ele>
        <time>2011-07-28T15:14:17Z</time>
      </trkpt>
      <trkpt lat="47.28929" lon="-1.68967">
        <ele>54.8</ele>
        <time>2011-07-28T15:14:19Z</time>
      </trkpt>
      <trkpt lat="47.28928" lon="-1.6897">
        <ele>54.2</ele>
        <time>2011-07-28T15:14:42Z</time>
      </trkpt>
      <trkpt lat="47.28925" lon="-1.68971">
        <ele>54.1</ele>
        <time>2011-07-28T15:14:43Z</time>
      </trkpt>
      <trkpt lat="47.28921" lon="-1.68972">
        <ele>54.1</ele>
        <time>2011-07-28T15:14:44Z</time>
      </trkpt>
      <trkpt lat="47.28918" lon="-1.68974">
        <ele>54</ele>
        <time>2011-07-28T15:14:45Z</time>
      </trkpt>
      <trkpt lat="47.28914" lon="-1.68974">
        <ele>53.5</ele>
        <time>2011-07-28T15:14:46Z</time>
      </trkpt>
      <trkpt lat="47.28912" lon="-1.68968">
        <ele>52.7</ele>
        <time>2011-07-28T15:14:48Z</time>
      </trkpt>
      <trkpt lat="47.28916" lon="-1.6897">
        <ele>52.7</ele>
        <time>2011-07-28T15:15:18Z</time>
      </trkpt>
      <trkpt lat="47.28917" lon="-1.68972">
        <ele>52.8</ele>
        <time>2011-07-28T15:15:19Z</time>
      </trkpt>
      <trkpt lat="47.28922" lon="-1.68977">
        <ele>52.9</ele>
        <time>2011-07-28T15:15:21Z</time>
      </trkpt>
      <trkpt lat="47.28925" lon="-1.6898">
        <ele>53</ele>
        <time>2011-07-28T15:15:22Z</time>
      </trkpt>
      <trkpt lat="47.28927" lon="-1.68984">
        <ele>53.1</ele>
        <time>2011-07-28T15:15:24Z</time>
      </trkpt>
      <trkpt lat="47.28926" lon="-1.6899">
        <ele>52.8</ele>
        <time>2011-07-28T15:15:26Z</time>
      </trkpt>
      <trkpt lat="47.28924" lon="-1.68993">
        <ele>52.7</ele>
        <time>2011-07-28T15:15:27Z</time>
      </trkpt>
      <trkpt lat="47.28922" lon="-1.68996">
        <ele>52.5</ele>
        <time>2011-07-28T15:15:28Z</time>
      </trkpt>
      <trkpt lat="47.28919" lon="-1.69001">
        <ele>52.4</ele>
        <time>2011-07-28T15:15:29Z</time>
      </trkpt>
      <trkpt lat="47.28917" lon="-1.69007">
        <ele>52.3</ele>
        <time>2011-07-28T15:15:30Z</time>
      </trkpt>
      <trkpt lat="47.28915" lon="-1.69013">
        <ele>51.7</ele>
        <time>2011-07-28T15:15:31Z</time>
      </trkpt>
      <trkpt lat="47.28912" lon="-1.69018">
        <ele>51.2</ele>
        <time>2011-07-28T15:15:32Z</time>
      </trkpt>
      <trkpt lat="47.28909" lon="-1.69021">
        <ele>50.8</ele>
        <time>2011-07-28T15:15:33Z</time>
      </trkpt>
      <trkpt lat="47.28906" lon="-1.69024">
        <ele>50.4</ele>
        <time>2011-07-28T15:15:34Z</time>
      </trkpt>
      <trkpt lat="47.28903" lon="-1.69027">
        <ele>50.2</ele>
        <time>2011-07-28T15:15:35Z</time>
      </trkpt>
      <trkpt lat="47.289" lon="-1.69029">
        <ele>50</ele>
        <time>2011-07-28T15:15:36Z</time>
      </trkpt>
      <trkpt lat="47.28898" lon="-1.6903">
        <ele>50</ele>
        <time>2011-07-28T15:15:37Z</time>
      </trkpt>
      <trkpt lat="47.28895" lon="-1.69031">
        <ele>50</ele>
        <time>2011-07-28T15:15:38Z</time>
      </trkpt>
      <trkpt lat="47.28891" lon="-1.69031">
        <ele>50</ele>
        <time>2011-07-28T15:15:40Z</time>
      </trkpt>
      <trkpt lat="47.28888" lon="-1.69031">
        <ele>50.6</ele>
        <time>2011-07-28T15:15:42Z</time>
      </trkpt>
      <trkpt lat="47.28884" lon="-1.69028">
        <ele>50.7</ele>
        <time>2011-07-28T15:15:45Z</time>
      </trkpt>
      <trkpt lat="47.28881" lon="-1.69025">
        <ele>50.7</ele>
        <time>2011-07-28T15:15:47Z</time>
      </trkpt>
      <trkpt lat="47.28879" lon="-1.69022">
        <ele>50.6</ele>
        <time>2011-07-28T15:15:49Z</time>
      </trkpt>
      <trkpt lat="47.28876" lon="-1.69019">
        <ele>51.1</ele>
        <time>2011-07-28T15:15:51Z</time>
      </trkpt>
      <trkpt lat="47.28874" lon="-1.69016">
        <ele>51.1</ele>
        <time>2011-07-28T15:15:53Z</time>
      </trkpt>
      <trkpt lat="47.28871" lon="-1.69016">
        <ele>51</ele>
        <time>2011-07-28T15:15:55Z</time>
      </trkpt>
      <trkpt lat="47.28868" lon="-1.69017">
        <ele>50.9</ele>
        <time>2011-07-28T15:15:57Z</time>
      </trkpt>
      <trkpt lat="47.28863" lon="-1.69017">
        <ele>51.2</ele>
        <time>2011-07-28T15:16:00Z</time>
      </trkpt>
      <trkpt lat="47.2886" lon="-1.69019">
        <ele>51.5</ele>
        <time>2011-07-28T15:16:02Z</time>
      </trkpt>
      <trkpt lat="47.28857" lon="-1.69022">
        <ele>51.8</ele>
        <time>2011-07-28T15:16:04Z</time>
      </trkpt>
      <trkpt lat="47.28853" lon="-1.69025">
        <ele>52.1</ele>
        <time>2011-07-28T15:16:06Z</time>
      </trkpt>
      <trkpt lat="47.28852" lon="-1.69027">
        <ele>52.2</ele>
        <time>2011-07-28T15:16:07Z</time>
      </trkpt>
      <trkpt lat="47.28848" lon="-1.69032">
        <ele>52.6</ele>
        <time>2011-07-28T15:16:09Z</time>
      </trkpt>
      <trkpt lat="47.28846" lon="-1.69036">
        <ele>53</ele>
        <time>2011-07-28T15:16:11Z</time>
      </trkpt>
      <trkpt lat="47.28844" lon="-1.69041">
        <ele>52.6</ele>
        <time>2011-07-28T15:16:13Z</time>
      </trkpt>
      <trkpt lat="47.28842" lon="-1.69047">
        <ele>52.3</ele>
        <time>2011-07-28T15:16:15Z</time>
      </trkpt>
      <trkpt lat="47.2884" lon="-1.69052">
        <ele>53</ele>
        <time>2011-07-28T15:16:17Z</time>
      </trkpt>
      <trkpt lat="47.28838" lon="-1.69057">
        <ele>53.1</ele>
        <time>2011-07-28T15:16:19Z</time>
      </trkpt>
      <trkpt lat="47.28837" lon="-1.69059">
        <ele>53.1</ele>
        <time>2011-07-28T15:16:20Z</time>
      </trkpt>
      <trkpt lat="47.28835" lon="-1.69066">
        <ele>53.5</ele>
        <time>2011-07-28T15:16:23Z</time>
      </trkpt>
      <trkpt lat="47.28832" lon="-1.69071">
        <ele>53.9</ele>
        <time>2011-07-28T15:16:25Z</time>
      </trkpt>
      <trkpt lat="47.2883" lon="-1.69075">
        <ele>54.3</ele>
        <time>2011-07-28T15:16:27Z</time>
      </trkpt>
      <trkpt lat="47.28827" lon="-1.69078">
        <ele>54.9</ele>
        <time>2011-07-28T15:16:29Z</time>
      </trkpt>
      <trkpt lat="47.28824" lon="-1.69082">
        <ele>55.2</ele>
        <time>2011-07-28T15:16:31Z</time>
      </trkpt>
      <trkpt lat="47.2882" lon="-1.69085">
        <ele>55.6</ele>
        <time>2011-07-28T15:16:33Z</time>
      </trkpt>
      <trkpt lat="47.28818" lon="-1.69089">
        <ele>56.1</ele>
        <time>2011-07-28T15:16:35Z</time>
      </trkpt>
      <trkpt lat="47.28815" lon="-1.69093">
        <ele>56.5</ele>
        <time>2011-07-28T15:16:37Z</time>
      </trkpt>
      <trkpt lat="47.28812" lon="-1.69098">
        <ele>56.6</ele>
        <time>2011-07-28T15:16:39Z</time>
      </trkpt>
      <trkpt lat="47.28809" lon="-1.69102">
        <ele>56.7</ele>
        <time>2011-07-28T15:16:41Z</time>
      </trkpt>
      <trkpt lat="47.28808" lon="-1.69104">
        <ele>56.7</ele>
        <time>2011-07-28T15:16:42Z</time>
      </trkpt>
      <trkpt lat="47.28806" lon="-1.69107">
        <ele>56.7</ele>
        <time>2011-07-28T15:16:43Z</time>
      </trkpt>
      <trkpt lat="47.28804" lon="-1.6911">
        <ele>56.8</ele>
        <time>2011-07-28T15:16:44Z</time>
      </trkpt>
      <trkpt lat="47.28801" lon="-1.69114">
        <ele>57</ele>
        <time>2011-07-28T15:16:46Z</time>
      </trkpt>
      <trkpt lat="47.28799" lon="-1.69116">
        <ele>57.1</ele>
        <time>2011-07-28T15:16:47Z</time>
      </trkpt>
      <trkpt lat="47.28797" lon="-1.69118">
        <ele>57.3</ele>
        <time>2011-07-28T15:16:48Z</time>
      </trkpt>
      <trkpt lat="47.28795" lon="-1.6912">
        <ele>57.5</ele>
        <time>2011-07-28T15:16:49Z</time>
      </trkpt>
      <trkpt lat="47.28793" lon="-1.69122">
        <ele>57.6</ele>
        <time>2011-07-28T15:16:50Z</time>
      </trkpt>
      <trkpt lat="47.28791" lon="-1.69125">
        <ele>57.5</ele>
        <time>2011-07-28T15:16:51Z</time>
      </trkpt>
      <trkpt lat="47.28789" lon="-1.69127">
        <ele>57.5</ele>
        <time>2011-07-28T15:16:52Z</time>
      </trkpt>
      <trkpt lat="47.28787" lon="-1.6913">
        <ele>57.4</ele>
        <time>2011-07-28T15:16:53Z</time>
      </trkpt>
      <trkpt lat="47.28784" lon="-1.69134">
        <ele>57.5</ele>
        <time>2011-07-28T15:16:55Z</time>
      </trkpt>
      <trkpt lat="47.28782" lon="-1.69137">
        <ele>57.5</ele>
        <time>2011-07-28T15:16:56Z</time>
      </trkpt>
      <trkpt lat="47.28781" lon="-1.6914">
        <ele>57.9</ele>
        <time>2011-07-28T15:16:57Z</time>
      </trkpt>
      <trkpt lat="47.28779" lon="-1.69142">
        <ele>58.2</ele>
        <time>2011-07-28T15:16:58Z</time>
      </trkpt>
      <trkpt lat="47.28777" lon="-1.69145">
        <ele>58.4</ele>
        <time>2011-07-28T15:16:59Z</time>
      </trkpt>
      <trkpt lat="47.28775" lon="-1.69148">
        <ele>58.5</ele>
        <time>2011-07-28T15:17:00Z</time>
      </trkpt>
      <trkpt lat="47.28773" lon="-1.69151">
        <ele>58.5</ele>
        <time>2011-07-28T15:17:01Z</time>
      </trkpt>
      <trkpt lat="47.28772" lon="-1.69154">
        <ele>58.5</ele>
        <time>2011-07-28T15:17:02Z</time>
      </trkpt>
      <trkpt lat="47.2877" lon="-1.69157">
        <ele>58.6</ele>
        <time>2011-07-28T15:17:03Z</time>
      </trkpt>
      <trkpt lat="47.28768" lon="-1.6916">
        <ele>58.7</ele>
        <time>2011-07-28T15:17:04Z</time>
      </trkpt>
      <trkpt lat="47.28765" lon="-1.69164">
        <ele>59</ele>
        <time>2011-07-28T15:17:06Z</time>
      </trkpt>
      <trkpt lat="47.28762" lon="-1.69166">
        <ele>58.5</ele>
        <time>2011-07-28T15:17:08Z</time>
      </trkpt>
      <trkpt lat="47.28759" lon="-1.69167">
        <ele>58.4</ele>
        <time>2011-07-28T15:17:09Z</time>
      </trkpt>
      <trkpt lat="47.28756" lon="-1.69168">
        <ele>58</ele>
        <time>2011-07-28T15:17:10Z</time>
      </trkpt>
      <trkpt lat="47.28754" lon="-1.69169">
        <ele>57.7</ele>
        <time>2011-07-28T15:17:11Z</time>
      </trkpt>
      <trkpt lat="47.28751" lon="-1.69169">
        <ele>57.4</ele>
        <time>2011-07-28T15:17:12Z</time>
      </trkpt>
      <trkpt lat="47.28747" lon="-1.69172">
        <ele>58.2</ele>
        <time>2011-07-28T15:17:14Z</time>
      </trkpt>
      <trkpt lat="47.28744" lon="-1.69174">
        <ele>58.4</ele>
        <time>2011-07-28T15:17:15Z</time>
      </trkpt>
      <trkpt lat="47.28742" lon="-1.69175">
        <ele>58.8</ele>
        <time>2011-07-28T15:17:16Z</time>
      </trkpt>
      <trkpt lat="47.2874" lon="-1.69177">
        <ele>59.1</ele>
        <time>2011-07-28T15:17:17Z</time>
      </trkpt>
      <trkpt lat="47.28736" lon="-1.6918">
        <ele>59.5</ele>
        <time>2011-07-28T15:17:19Z</time>
      </trkpt>
      <trkpt lat="47.28732" lon="-1.69184">
        <ele>59.8</ele>
        <time>2011-07-28T15:17:21Z</time>
      </trkpt>
      <trkpt lat="47.2873" lon="-1.69185">
        <ele>59.9</ele>
        <time>2011-07-28T15:17:22Z</time>
      </trkpt>
      <trkpt lat="47.28726" lon="-1.69188">
        <ele>59.9</ele>
        <time>2011-07-28T15:17:24Z</time>
      </trkpt>
      <trkpt lat="47.28723" lon="-1.6919">
        <ele>60.2</ele>
        <time>2011-07-28T15:17:26Z</time>
      </trkpt>
      <trkpt lat="47.2872" lon="-1.69193">
        <ele>60.7</ele>
        <time>2011-07-28T15:17:28Z</time>
      </trkpt>
      <trkpt lat="47.28718" lon="-1.69195">
        <ele>61</ele>
        <time>2011-07-28T15:17:29Z</time>
      </trkpt>
      <trkpt lat="47.28716" lon="-1.69197">
        <ele>61.2</ele>
        <time>2011-07-28T15:17:30Z</time>
      </trkpt>
      <trkpt lat="47.28713" lon="-1.69201">
        <ele>61.5</ele>
        <time>2011-07-28T15:17:32Z</time>
      </trkpt>
      <trkpt lat="47.2871" lon="-1.69202">
        <ele>61.7</ele>
        <time>2011-07-28T15:17:33Z</time>
      </trkpt>
      <trkpt lat="47.28707" lon="-1.69204">
        <ele>61.8</ele>
        <time>2011-07-28T15:17:34Z</time>
      </trkpt>
      <trkpt lat="47.28704" lon="-1.69206">
        <ele>61.9</ele>
        <time>2011-07-28T15:17:35Z</time>
      </trkpt>
      <trkpt lat="47.28702" lon="-1.69208">
        <ele>62.4</ele>
        <time>2011-07-28T15:17:36Z</time>
      </trkpt>
      <trkpt lat="47.28699" lon="-1.6921">
        <ele>62.7</ele>
        <time>2011-07-28T15:17:37Z</time>
      </trkpt>
      <trkpt lat="47.28697" lon="-1.69212">
        <ele>62.9</ele>
        <time>2011-07-28T15:17:38Z</time>
      </trkpt>
      <trkpt lat="47.28694" lon="-1.69214">
        <ele>63</ele>
        <time>2011-07-28T15:17:39Z</time>
      </trkpt>
      <trkpt lat="47.28692" lon="-1.69216">
        <ele>63</ele>
        <time>2011-07-28T15:17:40Z</time>
      </trkpt>
      <trkpt lat="47.2869" lon="-1.69218">
        <ele>63</ele>
        <time>2011-07-28T15:17:41Z</time>
      </trkpt>
      <trkpt lat="47.28688" lon="-1.6922">
        <ele>63.2</ele>
        <time>2011-07-28T15:17:42Z</time>
      </trkpt>
      <trkpt lat="47.28684" lon="-1.69224">
        <ele>63.6</ele>
        <time>2011-07-28T15:17:45Z</time>
      </trkpt>
      <trkpt lat="47.2868" lon="-1.69224">
        <ele>64</ele>
        <time>2011-07-28T15:17:49Z</time>
      </trkpt>
      <trkpt lat="47.28677" lon="-1.69224">
        <ele>63.7</ele>
        <time>2011-07-28T15:17:53Z</time>
      </trkpt>
      <trkpt lat="47.28672" lon="-1.69224">
        <ele>64</ele>
        <time>2011-07-28T15:17:58Z</time>
      </trkpt>
      <trkpt lat="47.28668" lon="-1.69225">
        <ele>64</ele>
        <time>2011-07-28T15:18:03Z</time>
      </trkpt>
      <trkpt lat="47.28664" lon="-1.69225">
        <ele>62.8</ele>
        <time>2011-07-28T15:18:10Z</time>
      </trkpt>
      <trkpt lat="47.2866" lon="-1.69226">
        <ele>63.6</ele>
        <time>2011-07-28T15:18:17Z</time>
      </trkpt>
      <trkpt lat="47.28656" lon="-1.69226">
        <ele>63.4</ele>
        <time>2011-07-28T15:18:25Z</time>
      </trkpt>
      <trkpt lat="47.28655" lon="-1.69226">
        <ele>63.3</ele>
        <time>2011-07-28T15:18:26Z</time>
      </trkpt>
      <trkpt lat="47.28648" lon="-1.69229">
        <ele>65.1</ele>
        <time>2011-07-28T15:18:42Z</time>
      </trkpt>
      <trkpt lat="47.28648" lon="-1.69235">
        <ele>64.6</ele>
        <time>2011-07-28T15:18:47Z</time>
      </trkpt>
      <trkpt lat="47.28649" lon="-1.6924">
        <ele>65</ele>
        <time>2011-07-28T15:18:51Z</time>
      </trkpt>
      <trkpt lat="47.28648" lon="-1.69245">
        <ele>64.8</ele>
        <time>2011-07-28T15:18:54Z</time>
      </trkpt>
      <trkpt lat="47.28647" lon="-1.69252">
        <ele>64.7</ele>
        <time>2011-07-28T15:18:58Z</time>
      </trkpt>
      <trkpt lat="47.28643" lon="-1.69253">
        <ele>64.6</ele>
        <time>2011-07-28T15:19:02Z</time>
      </trkpt>
      <trkpt lat="47.28639" lon="-1.69255">
        <ele>65.1</ele>
        <time>2011-07-28T15:19:05Z</time>
      </trkpt>
      <trkpt lat="47.28635" lon="-1.69256">
        <ele>65.2</ele>
        <time>2011-07-28T15:19:08Z</time>
      </trkpt>
      <trkpt lat="47.28632" lon="-1.69257">
        <ele>65</ele>
        <time>2011-07-28T15:19:10Z</time>
      </trkpt>
      <trkpt lat="47.28629" lon="-1.69258">
        <ele>65</ele>
        <time>2011-07-28T15:19:12Z</time>
      </trkpt>
      <trkpt lat="47.28625" lon="-1.69259">
        <ele>64.9</ele>
        <time>2011-07-28T15:19:14Z</time>
      </trkpt>
      <trkpt lat="47.28622" lon="-1.69261">
        <ele>64.8</ele>
        <time>2011-07-28T15:19:16Z</time>
      </trkpt>
      <trkpt lat="47.28618" lon="-1.69263">
        <ele>64.6</ele>
        <time>2011-07-28T15:19:18Z</time>
      </trkpt>
      <trkpt lat="47.28614" lon="-1.69264">
        <ele>64.5</ele>
        <time>2011-07-28T15:19:20Z</time>
      </trkpt>
      <trkpt lat="47.2861" lon="-1.69266">
        <ele>64.2</ele>
        <time>2011-07-28T15:19:22Z</time>
      </trkpt>
      <trkpt lat="47.28606" lon="-1.69268">
        <ele>64.7</ele>
        <time>2011-07-28T15:19:24Z</time>
      </trkpt>
      <trkpt lat="47.28602" lon="-1.6927">
        <ele>65.4</ele>
        <time>2011-07-28T15:19:26Z</time>
      </trkpt>
      <trkpt lat="47.286" lon="-1.69271">
        <ele>65.6</ele>
        <time>2011-07-28T15:19:27Z</time>
      </trkpt>
      <trkpt lat="47.28595" lon="-1.69272">
        <ele>65.7</ele>
        <time>2011-07-28T15:19:29Z</time>
      </trkpt>
      <trkpt lat="47.28593" lon="-1.69273">
        <ele>65.5</ele>
        <time>2011-07-28T15:19:30Z</time>
      </trkpt>
      <trkpt lat="47.28591" lon="-1.69274">
        <ele>65.3</ele>
        <time>2011-07-28T15:19:31Z</time>
      </trkpt>
      <trkpt lat="47.28588" lon="-1.69275">
        <ele>65.2</ele>
        <time>2011-07-28T15:19:32Z</time>
      </trkpt>
      <trkpt lat="47.28585" lon="-1.69276">
        <ele>65.1</ele>
        <time>2011-07-28T15:19:33Z</time>
      </trkpt>
      <trkpt lat="47.28583" lon="-1.69277">
        <ele>65.3</ele>
        <time>2011-07-28T15:19:34Z</time>
      </trkpt>
      <trkpt lat="47.2858" lon="-1.69278">
        <ele>65.4</ele>
        <time>2011-07-28T15:19:35Z</time>
      </trkpt>
      <trkpt lat="47.28577" lon="-1.69278">
        <ele>65.5</ele>
        <time>2011-07-28T15:19:36Z</time>
      </trkpt>
      <trkpt lat="47.28574" lon="-1.69279">
        <ele>65.8</ele>
        <time>2011-07-28T15:19:37Z</time>
      </trkpt>
      <trkpt lat="47.28572" lon="-1.69279">
        <ele>66</ele>
        <time>2011-07-28T15:19:38Z</time>
      </trkpt>
      <trkpt lat="47.28569" lon="-1.69279">
        <ele>66.1</ele>
        <time>2011-07-28T15:19:39Z</time>
      </trkpt>
      <trkpt lat="47.28566" lon="-1.6928">
        <ele>66.1</ele>
        <time>2011-07-28T15:19:40Z</time>
      </trkpt>
      <trkpt lat="47.28563" lon="-1.6928">
        <ele>66.1</ele>
        <time>2011-07-28T15:19:41Z</time>
      </trkpt>
      <trkpt lat="47.2856" lon="-1.69281">
        <ele>66.1</ele>
        <time>2011-07-28T15:19:42Z</time>
      </trkpt>
      <trkpt lat="47.28557" lon="-1.69281">
        <ele>66.6</ele>
        <time>2011-07-28T15:19:43Z</time>
      </trkpt>
      <trkpt lat="47.28554" lon="-1.69281">
        <ele>66.9</ele>
        <time>2011-07-28T15:19:44Z</time>
      </trkpt>
      <trkpt lat="47.28551" lon="-1.69281">
        <ele>67.1</ele>
        <time>2011-07-28T15:19:45Z</time>
      </trkpt>
      <trkpt lat="47.28548" lon="-1.69281">
        <ele>66.8</ele>
        <time>2011-07-28T15:19:46Z</time>
      </trkpt>
      <trkpt lat="47.28545" lon="-1.69281">
        <ele>66.5</ele>
        <time>2011-07-28T15:19:47Z</time>
      </trkpt>
      <trkpt lat="47.28542" lon="-1.6928">
        <ele>66.4</ele>
        <time>2011-07-28T15:19:48Z</time>
      </trkpt>
      <trkpt lat="47.28538" lon="-1.69279">
        <ele>66.2</ele>
        <time>2011-07-28T15:19:49Z</time>
      </trkpt>
      <trkpt lat="47.28534" lon="-1.69279">
        <ele>65.7</ele>
        <time>2011-07-28T15:19:50Z</time>
      </trkpt>
      <trkpt lat="47.2853" lon="-1.69278">
        <ele>65.3</ele>
        <time>2011-07-28T15:19:51Z</time>
      </trkpt>
      <trkpt lat="47.28525" lon="-1.69276">
        <ele>65</ele>
        <time>2011-07-28T15:19:52Z</time>
      </trkpt>
      <trkpt lat="47.2852" lon="-1.69275">
        <ele>65.2</ele>
        <time>2011-07-28T15:19:53Z</time>
      </trkpt>
      <trkpt lat="47.28514" lon="-1.69274">
        <ele>65.3</ele>
        <time>2011-07-28T15:19:54Z</time>
      </trkpt>
      <trkpt lat="47.28507" lon="-1.69272">
        <ele>65.4</ele>
        <time>2011-07-28T15:19:55Z</time>
      </trkpt>
      <trkpt lat="47.28499" lon="-1.6927">
        <ele>65.5</ele>
        <time>2011-07-28T15:19:56Z</time>
      </trkpt>
      <trkpt lat="47.28491" lon="-1.69268">
        <ele>65.6</ele>
        <time>2011-07-28T15:19:57Z</time>
      </trkpt>
      <trkpt lat="47.28483" lon="-1.69267">
        <ele>65.6</ele>
        <time>2011-07-28T15:19:58Z</time>
      </trkpt>
      <trkpt lat="47.28473" lon="-1.69265">
        <ele>65.5</ele>
        <time>2011-07-28T15:19:59Z</time>
      </trkpt>
      <trkpt lat="47.28463" lon="-1.69264">
        <ele>65.4</ele>
        <time>2011-07-28T15:20:00Z</time>
      </trkpt>
      <trkpt lat="47.28453" lon="-1.69262">
        <ele>65.4</ele>
        <time>2011-07-28T15:20:01Z</time>
      </trkpt>
      <trkpt lat="47.28443" lon="-1.69259">
        <ele>64.7</ele>
        <time>2011-07-28T15:20:02Z</time>
      </trkpt>
      <trkpt lat="47.28432" lon="-1.69257">
        <ele>64.1</ele>
        <time>2011-07-28T15:20:03Z</time>
      </trkpt>
      <trkpt lat="47.28421" lon="-1.69255">
        <ele>63.7</ele>
        <time>2011-07-28T15:20:04Z</time>
      </trkpt>
      <trkpt lat="47.2841" lon="-1.69252">
        <ele>63.4</ele>
        <time>2011-07-28T15:20:05Z</time>
      </trkpt>
      <trkpt lat="47.28399" lon="-1.69249">
        <ele>62.5</ele>
        <time>2011-07-28T15:20:06Z</time>
      </trkpt>
      <trkpt lat="47.28388" lon="-1.69247">
        <ele>61.9</ele>
        <time>2011-07-28T15:20:07Z</time>
      </trkpt>
      <trkpt lat="47.28376" lon="-1.69244">
        <ele>61.4</ele>
        <time>2011-07-28T15:20:08Z</time>
      </trkpt>
      <trkpt lat="47.28364" lon="-1.69242">
        <ele>60.5</ele>
        <time>2011-07-28T15:20:09Z</time>
      </trkpt>
      <trkpt lat="47.28353" lon="-1.69239">
        <ele>59.8</ele>
        <time>2011-07-28T15:20:10Z</time>
      </trkpt>
      <trkpt lat="47.28342" lon="-1.69237">
        <ele>59.3</ele>
        <time>2011-07-28T15:20:11Z</time>
      </trkpt>
      <trkpt lat="47.28331" lon="-1.69236">
        <ele>59.2</ele>
        <time>2011-07-28T15:20:12Z</time>
      </trkpt>
      <trkpt lat="47.28321" lon="-1.69234">
        <ele>59.1</ele>
        <time>2011-07-28T15:20:13Z</time>
      </trkpt>
      <trkpt lat="47.28312" lon="-1.69232">
        <ele>59</ele>
        <time>2011-07-28T15:20:14Z</time>
      </trkpt>
      <trkpt lat="47.28303" lon="-1.6923">
        <ele>58.6</ele>
        <time>2011-07-28T15:20:15Z</time>
      </trkpt>
      <trkpt lat="47.28294" lon="-1.69228">
        <ele>58.2</ele>
        <time>2011-07-28T15:20:16Z</time>
      </trkpt>
      <trkpt lat="47.28285" lon="-1.69227">
        <ele>58</ele>
        <time>2011-07-28T15:20:17Z</time>
      </trkpt>
      <trkpt lat="47.28276" lon="-1.69224">
        <ele>57.6</ele>
        <time>2011-07-28T15:20:18Z</time>
      </trkpt>
      <trkpt lat="47.28268" lon="-1.69222">
        <ele>57.4</ele>
        <time>2011-07-28T15:20:19Z</time>
      </trkpt>
      <trkpt lat="47.28259" lon="-1.6922">
        <ele>57.2</ele>
        <time>2011-07-28T15:20:20Z</time>
      </trkpt>
      <trkpt lat="47.28251" lon="-1.69219">
        <ele>57.5</ele>
        <time>2011-07-28T15:20:21Z</time>
      </trkpt>
      <trkpt lat="47.28243" lon="-1.69217">
        <ele>57.7</ele>
        <time>2011-07-28T15:20:22Z</time>
      </trkpt>
      <trkpt lat="47.28235" lon="-1.69216">
        <ele>57.8</ele>
        <time>2011-07-28T15:20:23Z</time>
      </trkpt>
      <trkpt lat="47.28227" lon="-1.69214">
        <ele>57.9</ele>
        <time>2011-07-28T15:20:24Z</time>
      </trkpt>
      <trkpt lat="47.2822" lon="-1.69214">
        <ele>57.9</ele>
        <time>2011-07-28T15:20:25Z</time>
      </trkpt>
      <trkpt lat="47.28213" lon="-1.69215">
        <ele>57.8</ele>
        <time>2011-07-28T15:20:26Z</time>
      </trkpt>
      <trkpt lat="47.28207" lon="-1.69217">
        <ele>57.7</ele>
        <time>2011-07-28T15:20:27Z</time>
      </trkpt>
      <trkpt lat="47.28203" lon="-1.69218">
        <ele>57.3</ele>
        <time>2011-07-28T15:20:28Z</time>
      </trkpt>
      <trkpt lat="47.28199" lon="-1.69217">
        <ele>56.9</ele>
        <time>2011-07-28T15:20:29Z</time>
      </trkpt>
      <trkpt lat="47.28197" lon="-1.69214">
        <ele>56.7</ele>
        <time>2011-07-28T15:20:30Z</time>
      </trkpt>
      <trkpt lat="47.28197" lon="-1.69208">
        <ele>56.9</ele>
        <time>2011-07-28T15:20:32Z</time>
      </trkpt>
      <trkpt lat="47.28197" lon="-1.69202">
        <ele>57.2</ele>
        <time>2011-07-28T15:20:34Z</time>
      </trkpt>
      <trkpt lat="47.28197" lon="-1.69197">
        <ele>57.4</ele>
        <time>2011-07-28T15:20:37Z</time>
      </trkpt>
      <trkpt lat="47.28195" lon="-1.69191">
        <ele>55.9</ele>
        <time>2011-07-28T15:21:32Z</time>
      </trkpt>
      <trkpt lat="47.28195" lon="-1.69191">
        <ele>55.8</ele>
        <time>2011-07-28T15:21:33Z</time>
      </trkpt>
      <trkpt lat="47.28194" lon="-1.6918">
        <ele>56.3</ele>
        <time>2011-07-28T15:21:42Z</time>
      </trkpt>
      <trkpt lat="47.28194" lon="-1.69173">
        <ele>57.4</ele>
        <time>2011-07-28T15:21:46Z</time>
      </trkpt>
      <trkpt lat="47.28194" lon="-1.69168">
        <ele>56.4</ele>
        <time>2011-07-28T15:21:49Z</time>
      </trkpt>
      <trkpt lat="47.28193" lon="-1.69162">
        <ele>56.2</ele>
        <time>2011-07-28T15:21:51Z</time>
      </trkpt>
      <trkpt lat="47.28193" lon="-1.69158">
        <ele>56.4</ele>
        <time>2011-07-28T15:21:52Z</time>
      </trkpt>
      <trkpt lat="47.28192" lon="-1.69154">
        <ele>56.6</ele>
        <time>2011-07-28T15:21:53Z</time>
      </trkpt>
      <trkpt lat="47.28191" lon="-1.6915">
        <ele>56.9</ele>
        <time>2011-07-28T15:21:54Z</time>
      </trkpt>
      <trkpt lat="47.2819" lon="-1.69147">
        <ele>57.2</ele>
        <time>2011-07-28T15:21:55Z</time>
      </trkpt>
      <trkpt lat="47.28188" lon="-1.69143">
        <ele>57.4</ele>
        <time>2011-07-28T15:21:56Z</time>
      </trkpt>
      <trkpt lat="47.28187" lon="-1.6914">
        <ele>57.3</ele>
        <time>2011-07-28T15:21:57Z</time>
      </trkpt>
      <trkpt lat="47.28185" lon="-1.69137">
        <ele>57.3</ele>
        <time>2011-07-28T15:21:58Z</time>
      </trkpt>
      <trkpt lat="47.28183" lon="-1.69135">
        <ele>57.2</ele>
        <time>2011-07-28T15:21:59Z</time>
      </trkpt>
      <trkpt lat="47.28181" lon="-1.69132">
        <ele>57</ele>
        <time>2011-07-28T15:22:00Z</time>
      </trkpt>
      <trkpt lat="47.28179" lon="-1.6913">
        <ele>56.7</ele>
        <time>2011-07-28T15:22:01Z</time>
      </trkpt>
      <trkpt lat="47.28177" lon="-1.69127">
        <ele>56.6</ele>
        <time>2011-07-28T15:22:02Z</time>
      </trkpt>
      <trkpt lat="47.28175" lon="-1.69125">
        <ele>56.5</ele>
        <time>2011-07-28T15:22:03Z</time>
      </trkpt>
      <trkpt lat="47.28173" lon="-1.69123">
        <ele>56.7</ele>
        <time>2011-07-28T15:22:04Z</time>
      </trkpt>
      <trkpt lat="47.28171" lon="-1.69121">
        <ele>56.9</ele>
        <time>2011-07-28T15:22:05Z</time>
      </trkpt>
      <trkpt lat="47.28169" lon="-1.69119">
        <ele>57</ele>
        <time>2011-07-28T15:22:06Z</time>
      </trkpt>
      <trkpt lat="47.28166" lon="-1.69118">
        <ele>56.8</ele>
        <time>2011-07-28T15:22:07Z</time>
      </trkpt>
      <trkpt lat="47.28164" lon="-1.69116">
        <ele>56.7</ele>
        <time>2011-07-28T15:22:08Z</time>
      </trkpt>
      <trkpt lat="47.28162" lon="-1.69114">
        <ele>56.6</ele>
        <time>2011-07-28T15:22:09Z</time>
      </trkpt>
      <trkpt lat="47.2816" lon="-1.69113">
        <ele>56.8</ele>
        <time>2011-07-28T15:22:10Z</time>
      </trkpt>
      <trkpt lat="47.28157" lon="-1.69111">
        <ele>57</ele>
        <time>2011-07-28T15:22:11Z</time>
      </trkpt>
      <trkpt lat="47.28155" lon="-1.6911">
        <ele>57.1</ele>
        <time>2011-07-28T15:22:12Z</time>
      </trkpt>
      <trkpt lat="47.28153" lon="-1.69109">
        <ele>56.6</ele>
        <time>2011-07-28T15:22:13Z</time>
      </trkpt>
      <trkpt lat="47.28151" lon="-1.69108">
        <ele>56.2</ele>
        <time>2011-07-28T15:22:14Z</time>
      </trkpt>
      <trkpt lat="47.28148" lon="-1.69107">
        <ele>55.9</ele>
        <time>2011-07-28T15:22:15Z</time>
      </trkpt>
      <trkpt lat="47.28146" lon="-1.69106">
        <ele>56</ele>
        <time>2011-07-28T15:22:16Z</time>
      </trkpt>
      <trkpt lat="47.28143" lon="-1.69105">
        <ele>56</ele>
        <time>2011-07-28T15:22:17Z</time>
      </trkpt>
      <trkpt lat="47.28141" lon="-1.69105">
        <ele>56</ele>
        <time>2011-07-28T15:22:18Z</time>
      </trkpt>
      <trkpt lat="47.28138" lon="-1.69105">
        <ele>56</ele>
        <time>2011-07-28T15:22:19Z</time>
      </trkpt>
      <trkpt lat="47.28136" lon="-1.69104">
        <ele>55.8</ele>
        <time>2011-07-28T15:22:20Z</time>
      </trkpt>
      <trkpt lat="47.28133" lon="-1.69104">
        <ele>55.6</ele>
        <time>2011-07-28T15:22:21Z</time>
      </trkpt>
      <trkpt lat="47.2813" lon="-1.69104">
        <ele>55.5</ele>
        <time>2011-07-28T15:22:22Z</time>
      </trkpt>
      <trkpt lat="47.28127" lon="-1.69104">
        <ele>55.6</ele>
        <time>2011-07-28T15:22:23Z</time>
      </trkpt>
      <trkpt lat="47.28124" lon="-1.69105">
        <ele>55.7</ele>
        <time>2011-07-28T15:22:24Z</time>
      </trkpt>
      <trkpt lat="47.28121" lon="-1.69105">
        <ele>55.8</ele>
        <time>2011-07-28T15:22:25Z</time>
      </trkpt>
      <trkpt lat="47.28118" lon="-1.69106">
        <ele>55.5</ele>
        <time>2011-07-28T15:22:26Z</time>
      </trkpt>
      <trkpt lat="47.28115" lon="-1.69107">
        <ele>55.3</ele>
        <time>2011-07-28T15:22:27Z</time>
      </trkpt>
      <trkpt lat="47.28111" lon="-1.69108">
        <ele>55.1</ele>
        <time>2011-07-28T15:22:28Z</time>
      </trkpt>
      <trkpt lat="47.28107" lon="-1.69109">
        <ele>55.5</ele>
        <time>2011-07-28T15:22:29Z</time>
      </trkpt>
      <trkpt lat="47.28103" lon="-1.6911">
        <ele>55.9</ele>
        <time>2011-07-28T15:22:30Z</time>
      </trkpt>
      <trkpt lat="47.28099" lon="-1.69111">
        <ele>56.1</ele>
        <time>2011-07-28T15:22:31Z</time>
      </trkpt>
      <trkpt lat="47.28095" lon="-1.69112">
        <ele>55.6</ele>
        <time>2011-07-28T15:22:32Z</time>
      </trkpt>
      <trkpt lat="47.28091" lon="-1.69113">
        <ele>55.3</ele>
        <time>2011-07-28T15:22:33Z</time>
      </trkpt>
      <trkpt lat="47.28087" lon="-1.69114">
        <ele>55</ele>
        <time>2011-07-28T15:22:34Z</time>
      </trkpt>
      <trkpt lat="47.28083" lon="-1.69114">
        <ele>54.8</ele>
        <time>2011-07-28T15:22:35Z</time>
      </trkpt>
      <trkpt lat="47.28079" lon="-1.69115">
        <ele>55.4</ele>
        <time>2011-07-28T15:22:36Z</time>
      </trkpt>
      <trkpt lat="47.28075" lon="-1.69115">
        <ele>55.9</ele>
        <time>2011-07-28T15:22:37Z</time>
      </trkpt>
      <trkpt lat="47.28071" lon="-1.69115">
        <ele>56.2</ele>
        <time>2011-07-28T15:22:38Z</time>
      </trkpt>
      <trkpt lat="47.28067" lon="-1.69115">
        <ele>55.8</ele>
        <time>2011-07-28T15:22:39Z</time>
      </trkpt>
      <trkpt lat="47.28063" lon="-1.69115">
        <ele>55.5</ele>
        <time>2011-07-28T15:22:40Z</time>
      </trkpt>
      <trkpt lat="47.28058" lon="-1.69116">
        <ele>55.2</ele>
        <time>2011-07-28T15:22:41Z</time>
      </trkpt>
      <trkpt lat="47.28054" lon="-1.69116">
        <ele>55.2</ele>
        <time>2011-07-28T15:22:42Z</time>
      </trkpt>
      <trkpt lat="47.28051" lon="-1.69117">
        <ele>55.2</ele>
        <time>2011-07-28T15:22:43Z</time>
      </trkpt>
      <trkpt lat="47.28047" lon="-1.69117">
        <ele>55.2</ele>
        <time>2011-07-28T15:22:44Z</time>
      </trkpt>
      <trkpt lat="47.28044" lon="-1.69116">
        <ele>54.7</ele>
        <time>2011-07-28T15:22:45Z</time>
      </trkpt>
      <trkpt lat="47.2804" lon="-1.69116">
        <ele>54.4</ele>
        <time>2011-07-28T15:22:46Z</time>
      </trkpt>
      <trkpt lat="47.28037" lon="-1.69115">
        <ele>54.1</ele>
        <time>2011-07-28T15:22:47Z</time>
      </trkpt>
      <trkpt lat="47.28034" lon="-1.69114">
        <ele>54.2</ele>
        <time>2011-07-28T15:22:48Z</time>
      </trkpt>
      <trkpt lat="47.2803" lon="-1.69112">
        <ele>54.2</ele>
        <time>2011-07-28T15:22:49Z</time>
      </trkpt>
      <trkpt lat="47.28028" lon="-1.69111">
        <ele>54.3</ele>
        <time>2011-07-28T15:22:50Z</time>
      </trkpt>
      <trkpt lat="47.28025" lon="-1.69109">
        <ele>54.3</ele>
        <time>2011-07-28T15:22:51Z</time>
      </trkpt>
      <trkpt lat="47.28023" lon="-1.69108">
        <ele>54</ele>
        <time>2011-07-28T15:22:52Z</time>
      </trkpt>
      <trkpt lat="47.28021" lon="-1.69107">
        <ele>53.7</ele>
        <time>2011-07-28T15:22:53Z</time>
      </trkpt>
      <trkpt lat="47.28018" lon="-1.69106">
        <ele>53.6</ele>
        <time>2011-07-28T15:22:54Z</time>
      </trkpt>
      <trkpt lat="47.28016" lon="-1.69104">
        <ele>53.9</ele>
        <time>2011-07-28T15:22:55Z</time>
      </trkpt>
      <trkpt lat="47.28013" lon="-1.69103">
        <ele>54.1</ele>
        <time>2011-07-28T15:22:56Z</time>
      </trkpt>
      <trkpt lat="47.28009" lon="-1.69101">
        <ele>54.2</ele>
        <time>2011-07-28T15:22:57Z</time>
      </trkpt>
      <trkpt lat="47.28006" lon="-1.691">
        <ele>54.6</ele>
        <time>2011-07-28T15:22:58Z</time>
      </trkpt>
      <trkpt lat="47.28002" lon="-1.69099">
        <ele>54.9</ele>
        <time>2011-07-28T15:22:59Z</time>
      </trkpt>
      <trkpt lat="47.27999" lon="-1.69098">
        <ele>55.1</ele>
        <time>2011-07-28T15:23:00Z</time>
      </trkpt>
      <trkpt lat="47.27995" lon="-1.69098">
        <ele>54.7</ele>
        <time>2011-07-28T15:23:01Z</time>
      </trkpt>
      <trkpt lat="47.27991" lon="-1.69098">
        <ele>54.5</ele>
        <time>2011-07-28T15:23:02Z</time>
      </trkpt>
      <trkpt lat="47.27986" lon="-1.69097">
        <ele>54.3</ele>
        <time>2011-07-28T15:23:03Z</time>
      </trkpt>
      <trkpt lat="47.27981" lon="-1.69097">
        <ele>53.7</ele>
        <time>2011-07-28T15:23:04Z</time>
      </trkpt>
      <trkpt lat="47.27975" lon="-1.69098">
        <ele>53.3</ele>
        <time>2011-07-28T15:23:05Z</time>
      </trkpt>
      <trkpt lat="47.27969" lon="-1.69099">
        <ele>52.9</ele>
        <time>2011-07-28T15:23:06Z</time>
      </trkpt>
      <trkpt lat="47.27962" lon="-1.691">
        <ele>52.5</ele>
        <time>2011-07-28T15:23:07Z</time>
      </trkpt>
      <trkpt lat="47.27955" lon="-1.69101">
        <ele>52.2</ele>
        <time>2011-07-28T15:23:08Z</time>
      </trkpt>
      <trkpt lat="47.27948" lon="-1.69102">
        <ele>52</ele>
        <time>2011-07-28T15:23:09Z</time>
      </trkpt>
      <trkpt lat="47.2794" lon="-1.69101">
        <ele>51.8</ele>
        <time>2011-07-28T15:23:10Z</time>
      </trkpt>
      <trkpt lat="47.27933" lon="-1.69099">
        <ele>50.9</ele>
        <time>2011-07-28T15:23:11Z</time>
      </trkpt>
      <trkpt lat="47.27925" lon="-1.69097">
        <ele>50.2</ele>
        <time>2011-07-28T15:23:12Z</time>
      </trkpt>
      <trkpt lat="47.27918" lon="-1.69093">
        <ele>49.6</ele>
        <time>2011-07-28T15:23:13Z</time>
      </trkpt>
      <trkpt lat="47.27911" lon="-1.69089">
        <ele>49.2</ele>
        <time>2011-07-28T15:23:14Z</time>
      </trkpt>
      <trkpt lat="47.27904" lon="-1.69084">
        <ele>48.9</ele>
        <time>2011-07-28T15:23:15Z</time>
      </trkpt>
      <trkpt lat="47.27897" lon="-1.69078">
        <ele>48.7</ele>
        <time>2011-07-28T15:23:16Z</time>
      </trkpt>
      <trkpt lat="47.2789" lon="-1.69071">
        <ele>49.1</ele>
        <time>2011-07-28T15:23:17Z</time>
      </trkpt>
      <trkpt lat="47.27883" lon="-1.69065">
        <ele>49.3</ele>
        <time>2011-07-28T15:23:18Z</time>
      </trkpt>
      <trkpt lat="47.27877" lon="-1.69059">
        <ele>49.6</ele>
        <time>2011-07-28T15:23:19Z</time>
      </trkpt>
      <trkpt lat="47.2787" lon="-1.69053">
        <ele>50</ele>
        <time>2011-07-28T15:23:20Z</time>
      </trkpt>
      <trkpt lat="47.27863" lon="-1.69047">
        <ele>50.3</ele>
        <time>2011-07-28T15:23:21Z</time>
      </trkpt>
      <trkpt lat="47.27857" lon="-1.69042">
        <ele>50.5</ele>
        <time>2011-07-28T15:23:22Z</time>
      </trkpt>
      <trkpt lat="47.27851" lon="-1.69036">
        <ele>51.3</ele>
        <time>2011-07-28T15:23:23Z</time>
      </trkpt>
      <trkpt lat="47.27845" lon="-1.6903">
        <ele>51.9</ele>
        <time>2011-07-28T15:23:24Z</time>
      </trkpt>
      <trkpt lat="47.27839" lon="-1.69024">
        <ele>52.3</ele>
        <time>2011-07-28T15:23:25Z</time>
      </trkpt>
      <trkpt lat="47.27833" lon="-1.69019">
        <ele>52.7</ele>
        <time>2011-07-28T15:23:26Z</time>
      </trkpt>
      <trkpt lat="47.27827" lon="-1.69014">
        <ele>52.9</ele>
        <time>2011-07-28T15:23:27Z</time>
      </trkpt>
      <trkpt lat="47.27821" lon="-1.69009">
        <ele>53</ele>
        <time>2011-07-28T15:23:28Z</time>
      </trkpt>
      <trkpt lat="47.27816" lon="-1.69004">
        <ele>53.2</ele>
        <time>2011-07-28T15:23:29Z</time>
      </trkpt>
      <trkpt lat="47.27811" lon="-1.69">
        <ele>54.3</ele>
        <time>2011-07-28T15:23:30Z</time>
      </trkpt>
      <trkpt lat="47.27806" lon="-1.68997">
        <ele>55.2</ele>
        <time>2011-07-28T15:23:31Z</time>
      </trkpt>
      <trkpt lat="47.27801" lon="-1.68994">
        <ele>55.8</ele>
        <time>2011-07-28T15:23:32Z</time>
      </trkpt>
      <trkpt lat="47.27796" lon="-1.6899">
        <ele>56.3</ele>
        <time>2011-07-28T15:23:33Z</time>
      </trkpt>
      <trkpt lat="47.27792" lon="-1.68985">
        <ele>56.7</ele>
        <time>2011-07-28T15:23:34Z</time>
      </trkpt>
      <trkpt lat="47.27788" lon="-1.68981">
        <ele>56.9</ele>
        <time>2011-07-28T15:23:35Z</time>
      </trkpt>
      <trkpt lat="47.27785" lon="-1.68979">
        <ele>57.6</ele>
        <time>2011-07-28T15:23:36Z</time>
      </trkpt>
      <trkpt lat="47.27782" lon="-1.68977">
        <ele>58.1</ele>
        <time>2011-07-28T15:23:37Z</time>
      </trkpt>
      <trkpt lat="47.27779" lon="-1.68975">
        <ele>58.4</ele>
        <time>2011-07-28T15:23:38Z</time>
      </trkpt>
      <trkpt lat="47.27776" lon="-1.68973">
        <ele>58.7</ele>
        <time>2011-07-28T15:23:39Z</time>
      </trkpt>
      <trkpt lat="47.27774" lon="-1.68971">
        <ele>58.9</ele>
        <time>2011-07-28T15:23:40Z</time>
      </trkpt>
      <trkpt lat="47.27771" lon="-1.68969">
        <ele>59.1</ele>
        <time>2011-07-28T15:23:41Z</time>
      </trkpt>
      <trkpt lat="47.27769" lon="-1.68968">
        <ele>59.2</ele>
        <time>2011-07-28T15:23:42Z</time>
      </trkpt>
      <trkpt lat="47.27767" lon="-1.68966">
        <ele>59.7</ele>
        <time>2011-07-28T15:23:43Z</time>
      </trkpt>
      <trkpt lat="47.27765" lon="-1.68964">
        <ele>60</ele>
        <time>2011-07-28T15:23:44Z</time>
      </trkpt>
      <trkpt lat="47.27763" lon="-1.68962">
        <ele>60.2</ele>
        <time>2011-07-28T15:23:45Z</time>
      </trkpt>
      <trkpt lat="47.27761" lon="-1.68961">
        <ele>60.8</ele>
        <time>2011-07-28T15:23:46Z</time>
      </trkpt>
      <trkpt lat="47.27759" lon="-1.68959">
        <ele>61.2</ele>
        <time>2011-07-28T15:23:47Z</time>
      </trkpt>
      <trkpt lat="47.27755" lon="-1.68956">
        <ele>61.8</ele>
        <time>2011-07-28T15:23:49Z</time>
      </trkpt>
      <trkpt lat="47.27752" lon="-1.68953">
        <ele>62.3</ele>
        <time>2011-07-28T15:23:51Z</time>
      </trkpt>
      <trkpt lat="47.2775" lon="-1.68948">
        <ele>61.5</ele>
        <time>2011-07-28T15:23:54Z</time>
      </trkpt>
      <trkpt lat="47.27746" lon="-1.68947">
        <ele>61.5</ele>
        <time>2011-07-28T15:24:00Z</time>
      </trkpt>
      <trkpt lat="47.27742" lon="-1.68944">
        <ele>61.8</ele>
        <time>2011-07-28T15:24:07Z</time>
      </trkpt>
      <trkpt lat="47.27738" lon="-1.68942">
        <ele>61.8</ele>
        <time>2011-07-28T15:24:17Z</time>
      </trkpt>
      <trkpt lat="47.27735" lon="-1.68938">
        <ele>61.9</ele>
        <time>2011-07-28T15:24:30Z</time>
      </trkpt>
      <trkpt lat="47.27735" lon="-1.68932">
        <ele>62.5</ele>
        <time>2011-07-28T15:24:40Z</time>
      </trkpt>
      <trkpt lat="47.27735" lon="-1.68931">
        <ele>62.7</ele>
        <time>2011-07-28T15:24:41Z</time>
      </trkpt>
      <trkpt lat="47.27741" lon="-1.68923">
        <ele>62</ele>
        <time>2011-07-28T15:26:11Z</time>
      </trkpt>
      <trkpt lat="47.27741" lon="-1.68922">
        <ele>62.2</ele>
        <time>2011-07-28T15:26:12Z</time>
      </trkpt>
      <trkpt lat="47.27744" lon="-1.68915">
        <ele>62.1</ele>
        <time>2011-07-28T15:26:15Z</time>
      </trkpt>
      <trkpt lat="47.27746" lon="-1.68913">
        <ele>62.4</ele>
        <time>2011-07-28T15:26:16Z</time>
      </trkpt>
      <trkpt lat="47.27747" lon="-1.68909">
        <ele>62.6</ele>
        <time>2011-07-28T15:26:17Z</time>
      </trkpt>
      <trkpt lat="47.27749" lon="-1.68903">
        <ele>62.8</ele>
        <time>2011-07-28T15:26:18Z</time>
      </trkpt>
      <trkpt lat="47.27751" lon="-1.68897">
        <ele>62.5</ele>
        <time>2011-07-28T15:26:19Z</time>
      </trkpt>
      <trkpt lat="47.27753" lon="-1.68889">
        <ele>62.2</ele>
        <time>2011-07-28T15:26:20Z</time>
      </trkpt>
      <trkpt lat="47.27756" lon="-1.68881">
        <ele>62.1</ele>
        <time>2011-07-28T15:26:21Z</time>
      </trkpt>
      <trkpt lat="47.27758" lon="-1.68874">
        <ele>61.8</ele>
        <time>2011-07-28T15:26:22Z</time>
      </trkpt>
      <trkpt lat="47.27761" lon="-1.68869">
        <ele>61.5</ele>
        <time>2011-07-28T15:26:23Z</time>
      </trkpt>
      <trkpt lat="47.27765" lon="-1.68864">
        <ele>61.4</ele>
        <time>2011-07-28T15:26:24Z</time>
      </trkpt>
      <trkpt lat="47.27769" lon="-1.68859">
        <ele>60.6</ele>
        <time>2011-07-28T15:26:25Z</time>
      </trkpt>
      <trkpt lat="47.27774" lon="-1.68855">
        <ele>59.9</ele>
        <time>2011-07-28T15:26:26Z</time>
      </trkpt>
      <trkpt lat="47.27778" lon="-1.68851">
        <ele>59.5</ele>
        <time>2011-07-28T15:26:27Z</time>
      </trkpt>
      <trkpt lat="47.2778" lon="-1.68845">
        <ele>59.1</ele>
        <time>2011-07-28T15:26:28Z</time>
      </trkpt>
      <trkpt lat="47.27782" lon="-1.68837">
        <ele>58.7</ele>
        <time>2011-07-28T15:26:29Z</time>
      </trkpt>
      <trkpt lat="47.27783" lon="-1.6883">
        <ele>58.4</ele>
        <time>2011-07-28T15:26:30Z</time>
      </trkpt>
      <trkpt lat="47.27783" lon="-1.68824">
        <ele>58.2</ele>
        <time>2011-07-28T15:26:31Z</time>
      </trkpt>
      <trkpt lat="47.27782" lon="-1.6882">
        <ele>57.3</ele>
        <time>2011-07-28T15:26:32Z</time>
      </trkpt>
      <trkpt lat="47.2778" lon="-1.68817">
        <ele>56.7</ele>
        <time>2011-07-28T15:26:33Z</time>
      </trkpt>
      <trkpt lat="47.27778" lon="-1.68813">
        <ele>56.2</ele>
        <time>2011-07-28T15:26:34Z</time>
      </trkpt>
      <trkpt lat="47.27776" lon="-1.6881">
        <ele>55.9</ele>
        <time>2011-07-28T15:26:35Z</time>
      </trkpt>
      <trkpt lat="47.27772" lon="-1.68807">
        <ele>55.4</ele>
        <time>2011-07-28T15:26:37Z</time>
      </trkpt>
      <trkpt lat="47.27769" lon="-1.68803">
        <ele>55.8</ele>
        <time>2011-07-28T15:26:42Z</time>
      </trkpt>
      <trkpt lat="47.27766" lon="-1.688">
        <ele>55.7</ele>
        <time>2011-07-28T15:26:46Z</time>
      </trkpt>
      <trkpt lat="47.27762" lon="-1.68798">
        <ele>55.2</ele>
        <time>2011-07-28T15:26:50Z</time>
      </trkpt>
      <trkpt lat="47.27758" lon="-1.68795">
        <ele>55.3</ele>
        <time>2011-07-28T15:26:54Z</time>
      </trkpt>
      <trkpt lat="47.27756" lon="-1.6879">
        <ele>55.3</ele>
        <time>2011-07-28T15:27:14Z</time>
      </trkpt>
      <trkpt lat="47.27755" lon="-1.68789">
        <ele>55.6</ele>
        <time>2011-07-28T15:27:15Z</time>
      </trkpt>
      <trkpt lat="47.2775" lon="-1.68787">
        <ele>55.8</ele>
        <time>2011-07-28T15:27:17Z</time>
      </trkpt>
      <trkpt lat="47.27748" lon="-1.68785">
        <ele>55.9</ele>
        <time>2011-07-28T15:27:18Z</time>
      </trkpt>
      <trkpt lat="47.27744" lon="-1.68784">
        <ele>56</ele>
        <time>2011-07-28T15:27:19Z</time>
      </trkpt>
      <trkpt lat="47.27741" lon="-1.68782">
        <ele>56.2</ele>
        <time>2011-07-28T15:27:20Z</time>
      </trkpt>
      <trkpt lat="47.27738" lon="-1.68782">
        <ele>56.4</ele>
        <time>2011-07-28T15:27:21Z</time>
      </trkpt>
      <trkpt lat="47.27734" lon="-1.68781">
        <ele>56.6</ele>
        <time>2011-07-28T15:27:22Z</time>
      </trkpt>
      <trkpt lat="47.2773" lon="-1.68781">
        <ele>56.5</ele>
        <time>2011-07-28T15:27:23Z</time>
      </trkpt>
      <trkpt lat="47.27727" lon="-1.6878">
        <ele>56.5</ele>
        <time>2011-07-28T15:27:24Z</time>
      </trkpt>
      <trkpt lat="47.27724" lon="-1.68781">
        <ele>56.4</ele>
        <time>2011-07-28T15:27:25Z</time>
      </trkpt>
      <trkpt lat="47.27725" lon="-1.68776">
        <ele>56.4</ele>
        <time>2011-07-28T15:27:33Z</time>
      </trkpt>
      <trkpt lat="47.27729" lon="-1.68775">
        <ele>56.3</ele>
        <time>2011-07-28T15:27:35Z</time>
      </trkpt>
      <trkpt lat="47.27732" lon="-1.68776">
        <ele>56.2</ele>
        <time>2011-07-28T15:27:36Z</time>
      </trkpt>
      <trkpt lat="47.27735" lon="-1.68777">
        <ele>56.1</ele>
        <time>2011-07-28T15:27:37Z</time>
      </trkpt>
      <trkpt lat="47.27738" lon="-1.68777">
        <ele>56.1</ele>
        <time>2011-07-28T15:27:38Z</time>
      </trkpt>
      <trkpt lat="47.27742" lon="-1.68778">
        <ele>56.7</ele>
        <time>2011-07-28T15:27:40Z</time>
      </trkpt>
      <trkpt lat="47.27746" lon="-1.68778">
        <ele>56.1</ele>
        <time>2011-07-28T15:27:53Z</time>
      </trkpt>
      <trkpt lat="47.27743" lon="-1.68777">
        <ele>56.6</ele>
        <time>2011-07-28T15:28:21Z</time>
      </trkpt>
      <trkpt lat="47.27741" lon="-1.68776">
        <ele>56.7</ele>
        <time>2011-07-28T15:28:22Z</time>
      </trkpt>
      <trkpt lat="47.27735" lon="-1.68774">
        <ele>56.3</ele>
        <time>2011-07-28T15:28:25Z</time>
      </trkpt>
      <trkpt lat="47.27732" lon="-1.68774">
        <ele>56.2</ele>
        <time>2011-07-28T15:28:26Z</time>
      </trkpt>
      <trkpt lat="47.2773" lon="-1.68774">
        <ele>56.2</ele>
        <time>2011-07-28T15:28:27Z</time>
      </trkpt>
      <trkpt lat="47.27727" lon="-1.68774">
        <ele>56.2</ele>
        <time>2011-07-28T15:28:28Z</time>
      </trkpt>
      <trkpt lat="47.27724" lon="-1.68774">
        <ele>56.2</ele>
        <time>2011-07-28T15:28:29Z</time>
      </trkpt>
      <trkpt lat="47.27722" lon="-1.68775">
        <ele>56.3</ele>
        <time>2011-07-28T15:28:30Z</time>
      </trkpt>
      <trkpt lat="47.27718" lon="-1.68773">
        <ele>56.4</ele>
        <time>2011-07-28T15:28:32Z</time>
      </trkpt>
      <trkpt lat="47.27717" lon="-1.68767">
        <ele>56.3</ele>
        <time>2011-07-28T15:28:34Z</time>
      </trkpt>
      <trkpt lat="47.27717" lon="-1.68761">
        <ele>55.7</ele>
        <time>2011-07-28T15:28:38Z</time>
      </trkpt>
      <trkpt lat="47.27719" lon="-1.68758">
        <ele>56</ele>
        <time>2011-07-28T15:28:40Z</time>
      </trkpt>
      <trkpt lat="47.2772" lon="-1.68756">
        <ele>56.1</ele>
        <time>2011-07-28T15:28:41Z</time>
      </trkpt>
      <trkpt lat="47.27721" lon="-1.68752">
        <ele>56.2</ele>
        <time>2011-07-28T15:28:42Z</time>
      </trkpt>
      <trkpt lat="47.27721" lon="-1.68747">
        <ele>55.8</ele>
        <time>2011-07-28T15:28:43Z</time>
      </trkpt>
      <trkpt lat="47.2772" lon="-1.68742">
        <ele>55.6</ele>
        <time>2011-07-28T15:28:44Z</time>
      </trkpt>
      <trkpt lat="47.27717" lon="-1.68739">
        <ele>55.4</ele>
        <time>2011-07-28T15:28:45Z</time>
      </trkpt>
      <trkpt lat="47.27714" lon="-1.68739">
        <ele>54.8</ele>
        <time>2011-07-28T15:28:46Z</time>
      </trkpt>
      <trkpt lat="47.27711" lon="-1.6874">
        <ele>54.4</ele>
        <time>2011-07-28T15:28:47Z</time>
      </trkpt>
      <trkpt lat="47.27708" lon="-1.68741">
        <ele>54.1</ele>
        <time>2011-07-28T15:28:48Z</time>
      </trkpt>
      <trkpt lat="47.27705" lon="-1.68741">
        <ele>53.5</ele>
        <time>2011-07-28T15:28:49Z</time>
      </trkpt>
      <trkpt lat="47.27703" lon="-1.68741">
        <ele>53</ele>
        <time>2011-07-28T15:28:50Z</time>
      </trkpt>
      <trkpt lat="47.277" lon="-1.68741">
        <ele>52.7</ele>
        <time>2011-07-28T15:28:51Z</time>
      </trkpt>
      <trkpt lat="47.27697" lon="-1.68739">
        <ele>52.1</ele>
        <time>2011-07-28T15:28:52Z</time>
      </trkpt>
      <trkpt lat="47.27694" lon="-1.68735">
        <ele>51.4</ele>
        <time>2011-07-28T15:28:54Z</time>
      </trkpt>
      <trkpt lat="47.27693" lon="-1.68729">
        <ele>49.3</ele>
        <time>2011-07-28T15:28:56Z</time>
      </trkpt>
      <trkpt lat="47.27691" lon="-1.68723">
        <ele>45</ele>
        <time>2011-07-28T15:29:06Z</time>
      </trkpt>
      <trkpt lat="47.27692" lon="-1.68717">
        <ele>44.9</ele>
        <time>2011-07-28T15:29:31Z</time>
      </trkpt>
      <trkpt lat="47.27692" lon="-1.68717">
        <ele>44.8</ele>
        <time>2011-07-28T15:29:32Z</time>
      </trkpt>
      <trkpt lat="47.27693" lon="-1.68707">
        <ele>45</ele>
        <time>2011-07-28T15:29:41Z</time>
      </trkpt>
      <trkpt lat="47.27692" lon="-1.68701">
        <ele>45.5</ele>
        <time>2011-07-28T15:29:44Z</time>
      </trkpt>
      <trkpt lat="47.27691" lon="-1.68694">
        <ele>45.8</ele>
        <time>2011-07-28T15:29:49Z</time>
      </trkpt>
      <trkpt lat="47.27689" lon="-1.68689">
        <ele>45.7</ele>
        <time>2011-07-28T15:30:01Z</time>
      </trkpt>
      <trkpt lat="47.27688" lon="-1.68684">
        <ele>46.1</ele>
        <time>2011-07-28T15:30:25Z</time>
      </trkpt>
      <trkpt lat="47.27688" lon="-1.6868">
        <ele>46.1</ele>
        <time>2011-07-28T15:30:27Z</time>
      </trkpt>
      <trkpt lat="47.27687" lon="-1.68673">
        <ele>45.5</ele>
        <time>2011-07-28T15:30:29Z</time>
      </trkpt>
      <trkpt lat="47.27685" lon="-1.6867">
        <ele>45.4</ele>
        <time>2011-07-28T15:30:30Z</time>
      </trkpt>
      <trkpt lat="47.27684" lon="-1.68667">
        <ele>45</ele>
        <time>2011-07-28T15:30:31Z</time>
      </trkpt>
      <trkpt lat="47.27682" lon="-1.68663">
        <ele>44.7</ele>
        <time>2011-07-28T15:30:32Z</time>
      </trkpt>
      <trkpt lat="47.2768" lon="-1.68661">
        <ele>44.5</ele>
        <time>2011-07-28T15:30:33Z</time>
      </trkpt>
      <trkpt lat="47.27678" lon="-1.6866">
        <ele>44.6</ele>
        <time>2011-07-28T15:30:34Z</time>
      </trkpt>
      <trkpt lat="47.27675" lon="-1.68656">
        <ele>44.8</ele>
        <time>2011-07-28T15:30:36Z</time>
      </trkpt>
      <trkpt lat="47.27677" lon="-1.68649">
        <ele>44.8</ele>
        <time>2011-07-28T15:30:39Z</time>
      </trkpt>
      <trkpt lat="47.27678" lon="-1.68643">
        <ele>45.4</ele>
        <time>2011-07-28T15:30:50Z</time>
      </trkpt>
      <trkpt lat="47.27682" lon="-1.68641">
        <ele>45.8</ele>
        <time>2011-07-28T15:30:58Z</time>
      </trkpt>
      <trkpt lat="47.27686" lon="-1.68638">
        <ele>46.1</ele>
        <time>2011-07-28T15:31:07Z</time>
      </trkpt>
      <trkpt lat="47.27682" lon="-1.68639">
        <ele>46</ele>
        <time>2011-07-28T15:31:34Z</time>
      </trkpt>
      <trkpt lat="47.27681" lon="-1.68639">
        <ele>45.9</ele>
        <time>2011-07-28T15:31:35Z</time>
      </trkpt>
      <trkpt lat="47.2768" lon="-1.68631">
        <ele>46.1</ele>
        <time>2011-07-28T15:32:04Z</time>
      </trkpt>
      <trkpt lat="47.27684" lon="-1.6863">
        <ele>45.7</ele>
        <time>2011-07-28T15:32:18Z</time>
      </trkpt>
      <trkpt lat="47.27687" lon="-1.68626">
        <ele>45.6</ele>
        <time>2011-07-28T15:32:35Z</time>
      </trkpt>
      <trkpt lat="47.27688" lon="-1.68625">
        <ele>45.9</ele>
        <time>2011-07-28T15:32:36Z</time>
      </trkpt>
      <trkpt lat="47.27692" lon="-1.68628">
        <ele>45.7</ele>
        <time>2011-07-28T15:33:04Z</time>
      </trkpt>
      <trkpt lat="47.2769" lon="-1.68633">
        <ele>45.9</ele>
        <time>2011-07-28T15:33:09Z</time>
      </trkpt>
      <trkpt lat="47.27688" lon="-1.68639">
        <ele>45.6</ele>
        <time>2011-07-28T15:33:14Z</time>
      </trkpt>
      <trkpt lat="47.27689" lon="-1.68634">
        <ele>45.5</ele>
        <time>2011-07-28T15:33:27Z</time>
      </trkpt>
      <trkpt lat="47.27692" lon="-1.68629">
        <ele>45.7</ele>
        <time>2011-07-28T15:33:31Z</time>
      </trkpt>
      <trkpt lat="47.27694" lon="-1.68625">
        <ele>46.1</ele>
        <time>2011-07-28T15:33:34Z</time>
      </trkpt>
      <trkpt lat="47.27697" lon="-1.68622">
        <ele>46.2</ele>
        <time>2011-07-28T15:33:36Z</time>
      </trkpt>
      <trkpt lat="47.27699" lon="-1.6862">
        <ele>46.1</ele>
        <time>2011-07-28T15:33:37Z</time>
      </trkpt>
      <trkpt lat="47.27704" lon="-1.68614">
        <ele>46.2</ele>
        <time>2011-07-28T15:33:40Z</time>
      </trkpt>
      <trkpt lat="47.27707" lon="-1.68609">
        <ele>46.5</ele>
        <time>2011-07-28T15:33:42Z</time>
      </trkpt>
      <trkpt lat="47.2771" lon="-1.68606">
        <ele>47.2</ele>
        <time>2011-07-28T15:33:44Z</time>
      </trkpt>
      <trkpt lat="47.27713" lon="-1.68603">
        <ele>48</ele>
        <time>2011-07-28T15:33:46Z</time>
      </trkpt>
      <trkpt lat="47.27716" lon="-1.68601">
        <ele>48.7</ele>
        <time>2011-07-28T15:33:48Z</time>
      </trkpt>
      <trkpt lat="47.27719" lon="-1.68598">
        <ele>48.7</ele>
        <time>2011-07-28T15:33:50Z</time>
      </trkpt>
      <trkpt lat="47.27722" lon="-1.68595">
        <ele>49.1</ele>
        <time>2011-07-28T15:33:52Z</time>
      </trkpt>
      <trkpt lat="47.27725" lon="-1.68593">
        <ele>49.6</ele>
        <time>2011-07-28T15:33:54Z</time>
      </trkpt>
      <trkpt lat="47.27728" lon="-1.6859">
        <ele>49.4</ele>
        <time>2011-07-28T15:33:56Z</time>
      </trkpt>
      <trkpt lat="47.2773" lon="-1.68587">
        <ele>49.3</ele>
        <time>2011-07-28T15:33:58Z</time>
      </trkpt>
      <trkpt lat="47.27733" lon="-1.68584">
        <ele>49.7</ele>
        <time>2011-07-28T15:34:00Z</time>
      </trkpt>
      <trkpt lat="47.27736" lon="-1.68581">
        <ele>49.9</ele>
        <time>2011-07-28T15:34:02Z</time>
      </trkpt>
      <trkpt lat="47.27739" lon="-1.68576">
        <ele>50.4</ele>
        <time>2011-07-28T15:34:05Z</time>
      </trkpt>
      <trkpt lat="47.27741" lon="-1.68572">
        <ele>51</ele>
        <time>2011-07-28T15:34:08Z</time>
      </trkpt>
      <trkpt lat="47.27744" lon="-1.68567">
        <ele>51.4</ele>
        <time>2011-07-28T15:34:11Z</time>
      </trkpt>
      <trkpt lat="47.27746" lon="-1.68562">
        <ele>52.5</ele>
        <time>2011-07-28T15:34:15Z</time>
      </trkpt>
      <trkpt lat="47.27746" lon="-1.68556">
        <ele>53.1</ele>
        <time>2011-07-28T15:34:19Z</time>
      </trkpt>
      <trkpt lat="47.27747" lon="-1.68551">
        <ele>53.4</ele>
        <time>2011-07-28T15:34:22Z</time>
      </trkpt>
      <trkpt lat="47.27747" lon="-1.68545">
        <ele>54.4</ele>
        <time>2011-07-28T15:34:26Z</time>
      </trkpt>
      <trkpt lat="47.27747" lon="-1.6854">
        <ele>55.4</ele>
        <time>2011-07-28T15:34:29Z</time>
      </trkpt>
      <trkpt lat="47.27746" lon="-1.68534">
        <ele>55.7</ele>
        <time>2011-07-28T15:34:33Z</time>
      </trkpt>
      <trkpt lat="47.27745" lon="-1.68528">
        <ele>56.7</ele>
        <time>2011-07-28T15:34:37Z</time>
      </trkpt>
      <trkpt lat="47.27744" lon="-1.68527">
        <ele>56.8</ele>
        <time>2011-07-28T15:34:38Z</time>
      </trkpt>
      <trkpt lat="47.27738" lon="-1.68523">
        <ele>58.8</ele>
        <time>2011-07-28T15:34:46Z</time>
      </trkpt>
      <trkpt lat="47.27737" lon="-1.68516">
        <ele>58.4</ele>
        <time>2011-07-28T15:34:56Z</time>
      </trkpt>
      <trkpt lat="47.27736" lon="-1.6851">
        <ele>58.8</ele>
        <time>2011-07-28T15:35:08Z</time>
      </trkpt>
      <trkpt lat="47.27732" lon="-1.68508">
        <ele>58.5</ele>
        <time>2011-07-28T15:36:18Z</time>
      </trkpt>
      <trkpt lat="47.27731" lon="-1.68507">
        <ele>58.6</ele>
        <time>2011-07-28T15:36:19Z</time>
      </trkpt>
      <trkpt lat="47.27727" lon="-1.68501">
        <ele>58.9</ele>
        <time>2011-07-28T15:36:25Z</time>
      </trkpt>
      <trkpt lat="47.27725" lon="-1.68497">
        <ele>58.5</ele>
        <time>2011-07-28T15:36:28Z</time>
      </trkpt>
      <trkpt lat="47.27722" lon="-1.68492">
        <ele>60</ele>
        <time>2011-07-28T15:36:31Z</time>
      </trkpt>
      <trkpt lat="47.27719" lon="-1.68487">
        <ele>60.2</ele>
        <time>2011-07-28T15:36:34Z</time>
      </trkpt>
      <trkpt lat="47.27717" lon="-1.68484">
        <ele>60.3</ele>
        <time>2011-07-28T15:36:37Z</time>
      </trkpt>
      <trkpt lat="47.27714" lon="-1.6848">
        <ele>61</ele>
        <time>2011-07-28T15:36:40Z</time>
      </trkpt>
      <trkpt lat="47.27712" lon="-1.68477">
        <ele>61.2</ele>
        <time>2011-07-28T15:36:42Z</time>
      </trkpt>
      <trkpt lat="47.27709" lon="-1.68473">
        <ele>61.3</ele>
        <time>2011-07-28T15:36:44Z</time>
      </trkpt>
      <trkpt lat="47.27707" lon="-1.68469">
        <ele>61.4</ele>
        <time>2011-07-28T15:36:46Z</time>
      </trkpt>
      <trkpt lat="47.27705" lon="-1.68466">
        <ele>61.4</ele>
        <time>2011-07-28T15:36:48Z</time>
      </trkpt>
      <trkpt lat="47.27702" lon="-1.68461">
        <ele>61.9</ele>
        <time>2011-07-28T15:36:51Z</time>
      </trkpt>
      <trkpt lat="47.277" lon="-1.68457">
        <ele>62.4</ele>
        <time>2011-07-28T15:36:53Z</time>
      </trkpt>
      <trkpt lat="47.27698" lon="-1.68453">
        <ele>62.6</ele>
        <time>2011-07-28T15:36:55Z</time>
      </trkpt>
      <trkpt lat="47.27696" lon="-1.68449">
        <ele>62.7</ele>
        <time>2011-07-28T15:36:57Z</time>
      </trkpt>
      <trkpt lat="47.27693" lon="-1.68444">
        <ele>62.6</ele>
        <time>2011-07-28T15:36:59Z</time>
      </trkpt>
      <trkpt lat="47.27691" lon="-1.68439">
        <ele>62.3</ele>
        <time>2011-07-28T15:37:01Z</time>
      </trkpt>
      <trkpt lat="47.27689" lon="-1.68434">
        <ele>61.9</ele>
        <time>2011-07-28T15:37:03Z</time>
      </trkpt>
      <trkpt lat="47.27687" lon="-1.68429">
        <ele>61.9</ele>
        <time>2011-07-28T15:37:05Z</time>
      </trkpt>
      <trkpt lat="47.27685" lon="-1.68423">
        <ele>62</ele>
        <time>2011-07-28T15:37:07Z</time>
      </trkpt>
      <trkpt lat="47.27684" lon="-1.68418">
        <ele>62</ele>
        <time>2011-07-28T15:37:09Z</time>
      </trkpt>
      <trkpt lat="47.27683" lon="-1.68411">
        <ele>62.4</ele>
        <time>2011-07-28T15:37:11Z</time>
      </trkpt>
      <trkpt lat="47.27683" lon="-1.68408">
        <ele>62.5</ele>
        <time>2011-07-28T15:37:12Z</time>
      </trkpt>
      <trkpt lat="47.27683" lon="-1.68404">
        <ele>62.3</ele>
        <time>2011-07-28T15:37:13Z</time>
      </trkpt>
      <trkpt lat="47.27682" lon="-1.68399">
        <ele>62.3</ele>
        <time>2011-07-28T15:37:14Z</time>
      </trkpt>
      <trkpt lat="47.27682" lon="-1.68395">
        <ele>62.2</ele>
        <time>2011-07-28T15:37:15Z</time>
      </trkpt>
      <trkpt lat="47.27681" lon="-1.68392">
        <ele>62.2</ele>
        <time>2011-07-28T15:37:16Z</time>
      </trkpt>
      <trkpt lat="47.2768" lon="-1.68387">
        <ele>62.4</ele>
        <time>2011-07-28T15:37:17Z</time>
      </trkpt>
      <trkpt lat="47.27679" lon="-1.68383">
        <ele>62.5</ele>
        <time>2011-07-28T15:37:18Z</time>
      </trkpt>
      <trkpt lat="47.27678" lon="-1.68379">
        <ele>62.6</ele>
        <time>2011-07-28T15:37:19Z</time>
      </trkpt>
      <trkpt lat="47.27677" lon="-1.68375">
        <ele>62.7</ele>
        <time>2011-07-28T15:37:20Z</time>
      </trkpt>
      <trkpt lat="47.27676" lon="-1.68372">
        <ele>62.7</ele>
        <time>2011-07-28T15:37:21Z</time>
      </trkpt>
      <trkpt lat="47.27676" lon="-1.68368">
        <ele>62.7</ele>
        <time>2011-07-28T15:37:22Z</time>
      </trkpt>
      <trkpt lat="47.27675" lon="-1.68364">
        <ele>62.9</ele>
        <time>2011-07-28T15:37:23Z</time>
      </trkpt>
      <trkpt lat="47.27674" lon="-1.68359">
        <ele>63</ele>
        <time>2011-07-28T15:37:24Z</time>
      </trkpt>
      <trkpt lat="47.27674" lon="-1.68354">
        <ele>63.1</ele>
        <time>2011-07-28T15:37:25Z</time>
      </trkpt>
      <trkpt lat="47.27673" lon="-1.6835">
        <ele>62.6</ele>
        <time>2011-07-28T15:37:26Z</time>
      </trkpt>
      <trkpt lat="47.27672" lon="-1.68344">
        <ele>61.8</ele>
        <time>2011-07-28T15:37:29Z</time>
      </trkpt>
      <trkpt lat="47.27669" lon="-1.68339">
        <ele>60.8</ele>
        <time>2011-07-28T15:37:35Z</time>
      </trkpt>
      <trkpt lat="47.27667" lon="-1.68333">
        <ele>61.5</ele>
        <time>2011-07-28T15:37:44Z</time>
      </trkpt>
      <trkpt lat="47.27666" lon="-1.68328">
        <ele>62.4</ele>
        <time>2011-07-28T15:37:54Z</time>
      </trkpt>
      <trkpt lat="47.27664" lon="-1.68322">
        <ele>60.9</ele>
        <time>2011-07-28T15:38:07Z</time>
      </trkpt>
      <trkpt lat="47.27664" lon="-1.68316">
        <ele>62.1</ele>
        <time>2011-07-28T15:38:54Z</time>
      </trkpt>
      <trkpt lat="47.27664" lon="-1.68314">
        <ele>62.2</ele>
        <time>2011-07-28T15:38:55Z</time>
      </trkpt>
      <trkpt lat="47.27659" lon="-1.68308">
        <ele>62.1</ele>
        <time>2011-07-28T15:39:30Z</time>
      </trkpt>
      <trkpt lat="47.27658" lon="-1.68302">
        <ele>62.9</ele>
        <time>2011-07-28T15:39:33Z</time>
      </trkpt>
      <trkpt lat="47.27658" lon="-1.68297">
        <ele>62.3</ele>
        <time>2011-07-28T15:39:35Z</time>
      </trkpt>
      <trkpt lat="47.27657" lon="-1.68292">
        <ele>62.3</ele>
        <time>2011-07-28T15:39:37Z</time>
      </trkpt>
      <trkpt lat="47.27657" lon="-1.68287">
        <ele>62.4</ele>
        <time>2011-07-28T15:39:39Z</time>
      </trkpt>
      <trkpt lat="47.27656" lon="-1.68281">
        <ele>62.5</ele>
        <time>2011-07-28T15:39:42Z</time>
      </trkpt>
      <trkpt lat="47.27655" lon="-1.68275">
        <ele>63.1</ele>
        <time>2011-07-28T15:39:45Z</time>
      </trkpt>
      <trkpt lat="47.27654" lon="-1.68269">
        <ele>63.5</ele>
        <time>2011-07-28T15:39:47Z</time>
      </trkpt>
      <trkpt lat="47.27654" lon="-1.68262">
        <ele>63.8</ele>
        <time>2011-07-28T15:39:49Z</time>
      </trkpt>
      <trkpt lat="47.27652" lon="-1.68257">
        <ele>64.1</ele>
        <time>2011-07-28T15:39:51Z</time>
      </trkpt>
      <trkpt lat="47.27651" lon="-1.68251">
        <ele>64</ele>
        <time>2011-07-28T15:39:53Z</time>
      </trkpt>
      <trkpt lat="47.2765" lon="-1.68245">
        <ele>63.8</ele>
        <time>2011-07-28T15:39:55Z</time>
      </trkpt>
      <trkpt lat="47.27649" lon="-1.68242">
        <ele>63.8</ele>
        <time>2011-07-28T15:39:56Z</time>
      </trkpt>
      <trkpt lat="47.27647" lon="-1.68234">
        <ele>63.7</ele>
        <time>2011-07-28T15:39:59Z</time>
      </trkpt>
      <trkpt lat="47.27645" lon="-1.68228">
        <ele>63.4</ele>
        <time>2011-07-28T15:40:01Z</time>
      </trkpt>
      <trkpt lat="47.27644" lon="-1.68226">
        <ele>63.3</ele>
        <time>2011-07-28T15:40:02Z</time>
      </trkpt>
      <trkpt lat="47.27643" lon="-1.68223">
        <ele>63.4</ele>
        <time>2011-07-28T15:40:03Z</time>
      </trkpt>
      <trkpt lat="47.27642" lon="-1.6822">
        <ele>63.4</ele>
        <time>2011-07-28T15:40:04Z</time>
      </trkpt>
      <trkpt lat="47.27639" lon="-1.68214">
        <ele>63.5</ele>
        <time>2011-07-28T15:40:06Z</time>
      </trkpt>
      <trkpt lat="47.27637" lon="-1.68209">
        <ele>63.7</ele>
        <time>2011-07-28T15:40:08Z</time>
      </trkpt>
      <trkpt lat="47.27634" lon="-1.68204">
        <ele>64</ele>
        <time>2011-07-28T15:40:10Z</time>
      </trkpt>
      <trkpt lat="47.27633" lon="-1.68201">
        <ele>64.1</ele>
        <time>2011-07-28T15:40:11Z</time>
      </trkpt>
      <trkpt lat="47.27632" lon="-1.68198">
        <ele>64.3</ele>
        <time>2011-07-28T15:40:12Z</time>
      </trkpt>
      <trkpt lat="47.27631" lon="-1.68195">
        <ele>64.5</ele>
        <time>2011-07-28T15:40:13Z</time>
      </trkpt>
      <trkpt lat="47.27629" lon="-1.68189">
        <ele>64.9</ele>
        <time>2011-07-28T15:40:15Z</time>
      </trkpt>
      <trkpt lat="47.27627" lon="-1.68183">
        <ele>65.3</ele>
        <time>2011-07-28T15:40:17Z</time>
      </trkpt>
      <trkpt lat="47.27627" lon="-1.68177">
        <ele>65.5</ele>
        <time>2011-07-28T15:40:19Z</time>
      </trkpt>
      <trkpt lat="47.27627" lon="-1.68173">
        <ele>65.6</ele>
        <time>2011-07-28T15:40:20Z</time>
      </trkpt>
      <trkpt lat="47.27628" lon="-1.68167">
        <ele>65.3</ele>
        <time>2011-07-28T15:40:22Z</time>
      </trkpt>
      <trkpt lat="47.27628" lon="-1.68164">
        <ele>65.1</ele>
        <time>2011-07-28T15:40:23Z</time>
      </trkpt>
      <trkpt lat="47.27629" lon="-1.6816">
        <ele>64.9</ele>
        <time>2011-07-28T15:40:24Z</time>
      </trkpt>
      <trkpt lat="47.27629" lon="-1.68157">
        <ele>65.3</ele>
        <time>2011-07-28T15:40:25Z</time>
      </trkpt>
      <trkpt lat="47.2763" lon="-1.68154">
        <ele>65.7</ele>
        <time>2011-07-28T15:40:26Z</time>
      </trkpt>
      <trkpt lat="47.27631" lon="-1.6815">
        <ele>65.9</ele>
        <time>2011-07-28T15:40:27Z</time>
      </trkpt>
      <trkpt lat="47.27631" lon="-1.68147">
        <ele>65.9</ele>
        <time>2011-07-28T15:40:28Z</time>
      </trkpt>
      <trkpt lat="47.27632" lon="-1.68144">
        <ele>65.8</ele>
        <time>2011-07-28T15:40:29Z</time>
      </trkpt>
      <trkpt lat="47.27633" lon="-1.68141">
        <ele>65.8</ele>
        <time>2011-07-28T15:40:30Z</time>
      </trkpt>
      <trkpt lat="47.27634" lon="-1.68138">
        <ele>65.9</ele>
        <time>2011-07-28T15:40:31Z</time>
      </trkpt>
      <trkpt lat="47.27635" lon="-1.68134">
        <ele>66</ele>
        <time>2011-07-28T15:40:32Z</time>
      </trkpt>
      <trkpt lat="47.27636" lon="-1.68131">
        <ele>66.1</ele>
        <time>2011-07-28T15:40:33Z</time>
      </trkpt>
      <trkpt lat="47.27636" lon="-1.68127">
        <ele>66.3</ele>
        <time>2011-07-28T15:40:34Z</time>
      </trkpt>
      <trkpt lat="47.27636" lon="-1.68123">
        <ele>66.4</ele>
        <time>2011-07-28T15:40:35Z</time>
      </trkpt>
      <trkpt lat="47.27636" lon="-1.6812">
        <ele>66.5</ele>
        <time>2011-07-28T15:40:36Z</time>
      </trkpt>
      <trkpt lat="47.27635" lon="-1.68113">
        <ele>66.6</ele>
        <time>2011-07-28T15:40:38Z</time>
      </trkpt>
      <trkpt lat="47.27634" lon="-1.68108">
        <ele>66.5</ele>
        <time>2011-07-28T15:40:40Z</time>
      </trkpt>
      <trkpt lat="47.27634" lon="-1.68104">
        <ele>66.9</ele>
        <time>2011-07-28T15:40:41Z</time>
      </trkpt>
      <trkpt lat="47.27633" lon="-1.681">
        <ele>67.1</ele>
        <time>2011-07-28T15:40:42Z</time>
      </trkpt>
      <trkpt lat="47.27632" lon="-1.68096">
        <ele>67.3</ele>
        <time>2011-07-28T15:40:43Z</time>
      </trkpt>
      <trkpt lat="47.27632" lon="-1.68092">
        <ele>67.2</ele>
        <time>2011-07-28T15:40:44Z</time>
      </trkpt>
      <trkpt lat="47.27631" lon="-1.68088">
        <ele>67</ele>
        <time>2011-07-28T15:40:45Z</time>
      </trkpt>
      <trkpt lat="47.2763" lon="-1.68085">
        <ele>67</ele>
        <time>2011-07-28T15:40:46Z</time>
      </trkpt>
      <trkpt lat="47.27629" lon="-1.68081">
        <ele>67</ele>
        <time>2011-07-28T15:40:47Z</time>
      </trkpt>
      <trkpt lat="47.27629" lon="-1.68078">
        <ele>67.1</ele>
        <time>2011-07-28T15:40:48Z</time>
      </trkpt>
      <trkpt lat="47.27628" lon="-1.68074">
        <ele>67.1</ele>
        <time>2011-07-28T15:40:49Z</time>
      </trkpt>
      <trkpt lat="47.27628" lon="-1.6807">
        <ele>66.9</ele>
        <time>2011-07-28T15:40:50Z</time>
      </trkpt>
      <trkpt lat="47.27628" lon="-1.68067">
        <ele>66.8</ele>
        <time>2011-07-28T15:40:51Z</time>
      </trkpt>
      <trkpt lat="47.27627" lon="-1.68063">
        <ele>66.7</ele>
        <time>2011-07-28T15:40:52Z</time>
      </trkpt>
      <trkpt lat="47.27627" lon="-1.68059">
        <ele>66.6</ele>
        <time>2011-07-28T15:40:53Z</time>
      </trkpt>
      <trkpt lat="47.27627" lon="-1.68055">
        <ele>66.3</ele>
        <time>2011-07-28T15:40:54Z</time>
      </trkpt>
      <trkpt lat="47.27626" lon="-1.68051">
        <ele>66.2</ele>
        <time>2011-07-28T15:40:55Z</time>
      </trkpt>
      <trkpt lat="47.27626" lon="-1.68047">
        <ele>66</ele>
        <time>2011-07-28T15:40:56Z</time>
      </trkpt>
      <trkpt lat="47.27625" lon="-1.68044">
        <ele>66.3</ele>
        <time>2011-07-28T15:40:57Z</time>
      </trkpt>
      <trkpt lat="47.27623" lon="-1.68039">
        <ele>66.6</ele>
        <time>2011-07-28T15:40:59Z</time>
      </trkpt>
      <trkpt lat="47.27621" lon="-1.68037">
        <ele>66.9</ele>
        <time>2011-07-28T15:41:01Z</time>
      </trkpt>
      <trkpt lat="47.27617" lon="-1.68036">
        <ele>66.6</ele>
        <time>2011-07-28T15:41:03Z</time>
      </trkpt>
      <trkpt lat="47.27612" lon="-1.68036">
        <ele>65.9</ele>
        <time>2011-07-28T15:41:05Z</time>
      </trkpt>
      <trkpt lat="47.2761" lon="-1.68036">
        <ele>66.2</ele>
        <time>2011-07-28T15:41:06Z</time>
      </trkpt>
      <trkpt lat="47.27608" lon="-1.68035">
        <ele>66.4</ele>
        <time>2011-07-28T15:41:07Z</time>
      </trkpt>
      <trkpt lat="47.27605" lon="-1.68035">
        <ele>66.5</ele>
        <time>2011-07-28T15:41:08Z</time>
      </trkpt>
      <trkpt lat="47.27603" lon="-1.68034">
        <ele>66.6</ele>
        <time>2011-07-28T15:41:09Z</time>
      </trkpt>
      <trkpt lat="47.276" lon="-1.68034">
        <ele>66.5</ele>
        <time>2011-07-28T15:41:10Z</time>
      </trkpt>
      <trkpt lat="47.27597" lon="-1.68034">
        <ele>66.5</ele>
        <time>2011-07-28T15:41:11Z</time>
      </trkpt>
      <trkpt lat="47.27595" lon="-1.68033">
        <ele>66.4</ele>
        <time>2011-07-28T15:41:12Z</time>
      </trkpt>
      <trkpt lat="47.27592" lon="-1.68033">
        <ele>66.6</ele>
        <time>2011-07-28T15:41:13Z</time>
      </trkpt>
      <trkpt lat="47.27589" lon="-1.68033">
        <ele>66.8</ele>
        <time>2011-07-28T15:41:14Z</time>
      </trkpt>
      <trkpt lat="47.27586" lon="-1.68033">
        <ele>67</ele>
        <time>2011-07-28T15:41:15Z</time>
      </trkpt>
      <trkpt lat="47.27584" lon="-1.68032">
        <ele>67.2</ele>
        <time>2011-07-28T15:41:16Z</time>
      </trkpt>
      <trkpt lat="47.27581" lon="-1.68032">
        <ele>67.3</ele>
        <time>2011-07-28T15:41:17Z</time>
      </trkpt>
      <trkpt lat="47.27578" lon="-1.68031">
        <ele>67.4</ele>
        <time>2011-07-28T15:41:18Z</time>
      </trkpt>
      <trkpt lat="47.27575" lon="-1.6803">
        <ele>67.7</ele>
        <time>2011-07-28T15:41:19Z</time>
      </trkpt>
      <trkpt lat="47.27572" lon="-1.68029">
        <ele>67.8</ele>
        <time>2011-07-28T15:41:20Z</time>
      </trkpt>
      <trkpt lat="47.2757" lon="-1.68027">
        <ele>67.9</ele>
        <time>2011-07-28T15:41:21Z</time>
      </trkpt>
      <trkpt lat="47.27567" lon="-1.68025">
        <ele>68.2</ele>
        <time>2011-07-28T15:41:22Z</time>
      </trkpt>
      <trkpt lat="47.27564" lon="-1.68023">
        <ele>68.4</ele>
        <time>2011-07-28T15:41:23Z</time>
      </trkpt>
      <trkpt lat="47.27562" lon="-1.68021">
        <ele>68.6</ele>
        <time>2011-07-28T15:41:24Z</time>
      </trkpt>
      <trkpt lat="47.27559" lon="-1.68018">
        <ele>68.7</ele>
        <time>2011-07-28T15:41:25Z</time>
      </trkpt>
      <trkpt lat="47.27557" lon="-1.68014">
        <ele>68.6</ele>
        <time>2011-07-28T15:41:26Z</time>
      </trkpt>
      <trkpt lat="47.27555" lon="-1.6801">
        <ele>68.6</ele>
        <time>2011-07-28T15:41:27Z</time>
      </trkpt>
      <trkpt lat="47.27554" lon="-1.68007">
        <ele>68.5</ele>
        <time>2011-07-28T15:41:28Z</time>
      </trkpt>
      <trkpt lat="47.27552" lon="-1.68003">
        <ele>68.4</ele>
        <time>2011-07-28T15:41:29Z</time>
      </trkpt>
      <trkpt lat="47.2755" lon="-1.67999">
        <ele>68.3</ele>
        <time>2011-07-28T15:41:30Z</time>
      </trkpt>
      <trkpt lat="47.27549" lon="-1.67996">
        <ele>68.3</ele>
        <time>2011-07-28T15:41:31Z</time>
      </trkpt>
      <trkpt lat="47.27547" lon="-1.67992">
        <ele>68</ele>
        <time>2011-07-28T15:41:32Z</time>
      </trkpt>
      <trkpt lat="47.27546" lon="-1.67989">
        <ele>67.7</ele>
        <time>2011-07-28T15:41:33Z</time>
      </trkpt>
      <trkpt lat="47.27544" lon="-1.67986">
        <ele>67.6</ele>
        <time>2011-07-28T15:41:34Z</time>
      </trkpt>
      <trkpt lat="47.27542" lon="-1.67981">
        <ele>67.9</ele>
        <time>2011-07-28T15:41:36Z</time>
      </trkpt>
      <trkpt lat="47.2754" lon="-1.67976">
        <ele>68.1</ele>
        <time>2011-07-28T15:41:38Z</time>
      </trkpt>
      <trkpt lat="47.27537" lon="-1.67971">
        <ele>68.2</ele>
        <time>2011-07-28T15:41:40Z</time>
      </trkpt>
      <trkpt lat="47.27536" lon="-1.67968">
        <ele>68.2</ele>
        <time>2011-07-28T15:41:41Z</time>
      </trkpt>
      <trkpt lat="47.27534" lon="-1.67966">
        <ele>68.2</ele>
        <time>2011-07-28T15:41:42Z</time>
      </trkpt>
      <trkpt lat="47.27532" lon="-1.67964">
        <ele>68.2</ele>
        <time>2011-07-28T15:41:43Z</time>
      </trkpt>
      <trkpt lat="47.27531" lon="-1.67961">
        <ele>68.2</ele>
        <time>2011-07-28T15:41:44Z</time>
      </trkpt>
      <trkpt lat="47.27529" lon="-1.67958">
        <ele>68.3</ele>
        <time>2011-07-28T15:41:45Z</time>
      </trkpt>
      <trkpt lat="47.27528" lon="-1.67955">
        <ele>68.3</ele>
        <time>2011-07-28T15:41:46Z</time>
      </trkpt>
      <trkpt lat="47.27525" lon="-1.6795">
        <ele>68.6</ele>
        <time>2011-07-28T15:41:48Z</time>
      </trkpt>
      <trkpt lat="47.27524" lon="-1.67948">
        <ele>68.7</ele>
        <time>2011-07-28T15:41:49Z</time>
      </trkpt>
      <trkpt lat="47.27522" lon="-1.67945">
        <ele>68.8</ele>
        <time>2011-07-28T15:41:50Z</time>
      </trkpt>
      <trkpt lat="47.2752" lon="-1.67942">
        <ele>68.6</ele>
        <time>2011-07-28T15:41:51Z</time>
      </trkpt>
      <trkpt lat="47.27519" lon="-1.6794">
        <ele>68.5</ele>
        <time>2011-07-28T15:41:52Z</time>
      </trkpt>
      <trkpt lat="47.27518" lon="-1.67936">
        <ele>68.4</ele>
        <time>2011-07-28T15:41:53Z</time>
      </trkpt>
      <trkpt lat="47.27517" lon="-1.67933">
        <ele>68</ele>
        <time>2011-07-28T15:41:54Z</time>
      </trkpt>
      <trkpt lat="47.27515" lon="-1.67927">
        <ele>67.5</ele>
        <time>2011-07-28T15:41:56Z</time>
      </trkpt>
      <trkpt lat="47.27513" lon="-1.67922">
        <ele>67.8</ele>
        <time>2011-07-28T15:41:58Z</time>
      </trkpt>
      <trkpt lat="47.27512" lon="-1.67919">
        <ele>68.2</ele>
        <time>2011-07-28T15:41:59Z</time>
      </trkpt>
      <trkpt lat="47.2751" lon="-1.67912">
        <ele>68.6</ele>
        <time>2011-07-28T15:42:02Z</time>
      </trkpt>
      <trkpt lat="47.27509" lon="-1.67905">
        <ele>69.2</ele>
        <time>2011-07-28T15:42:12Z</time>
      </trkpt>
      <trkpt lat="47.27507" lon="-1.67899">
        <ele>68.6</ele>
        <time>2011-07-28T15:43:00Z</time>
      </trkpt>
      <trkpt lat="47.27507" lon="-1.67899">
        <ele>68.5</ele>
        <time>2011-07-28T15:43:01Z</time>
      </trkpt>
      <trkpt lat="47.27505" lon="-1.67889">
        <ele>69</ele>
        <time>2011-07-28T15:43:12Z</time>
      </trkpt>
      <trkpt lat="47.27505" lon="-1.67885">
        <ele>69.1</ele>
        <time>2011-07-28T15:43:13Z</time>
      </trkpt>
      <trkpt lat="47.27504" lon="-1.67881">
        <ele>69</ele>
        <time>2011-07-28T15:43:14Z</time>
      </trkpt>
      <trkpt lat="47.27504" lon="-1.67877">
        <ele>68.9</ele>
        <time>2011-07-28T15:43:15Z</time>
      </trkpt>
      <trkpt lat="47.27503" lon="-1.67873">
        <ele>68.9</ele>
        <time>2011-07-28T15:43:16Z</time>
      </trkpt>
      <trkpt lat="47.27502" lon="-1.67868">
        <ele>69.4</ele>
        <time>2011-07-28T15:43:17Z</time>
      </trkpt>
      <trkpt lat="47.27502" lon="-1.67863">
        <ele>69.9</ele>
        <time>2011-07-28T15:43:18Z</time>
      </trkpt>
      <trkpt lat="47.27501" lon="-1.67858">
        <ele>70.2</ele>
        <time>2011-07-28T15:43:19Z</time>
      </trkpt>
      <trkpt lat="47.275" lon="-1.67853">
        <ele>70</ele>
        <time>2011-07-28T15:43:20Z</time>
      </trkpt>
      <trkpt lat="47.275" lon="-1.67847">
        <ele>69.8</ele>
        <time>2011-07-28T15:43:21Z</time>
      </trkpt>
      <trkpt lat="47.275" lon="-1.67842">
        <ele>69.7</ele>
        <time>2011-07-28T15:43:22Z</time>
      </trkpt>
      <trkpt lat="47.27499" lon="-1.67836">
        <ele>69.6</ele>
        <time>2011-07-28T15:43:23Z</time>
      </trkpt>
      <trkpt lat="47.27499" lon="-1.6783">
        <ele>69.3</ele>
        <time>2011-07-28T15:43:24Z</time>
      </trkpt>
      <trkpt lat="47.27498" lon="-1.67824">
        <ele>69.1</ele>
        <time>2011-07-28T15:43:25Z</time>
      </trkpt>
      <trkpt lat="47.27498" lon="-1.67819">
        <ele>68.9</ele>
        <time>2011-07-28T15:43:26Z</time>
      </trkpt>
      <trkpt lat="47.27497" lon="-1.67813">
        <ele>69.2</ele>
        <time>2011-07-28T15:43:27Z</time>
      </trkpt>
      <trkpt lat="47.27496" lon="-1.67807">
        <ele>69.4</ele>
        <time>2011-07-28T15:43:28Z</time>
      </trkpt>
      <trkpt lat="47.27495" lon="-1.67801">
        <ele>69.6</ele>
        <time>2011-07-28T15:43:29Z</time>
      </trkpt>
      <trkpt lat="47.27493" lon="-1.67795">
        <ele>70.1</ele>
        <time>2011-07-28T15:43:30Z</time>
      </trkpt>
      <trkpt lat="47.27491" lon="-1.67789">
        <ele>70.4</ele>
        <time>2011-07-28T15:43:31Z</time>
      </trkpt>
      <trkpt lat="47.27489" lon="-1.67782">
        <ele>70.7</ele>
        <time>2011-07-28T15:43:32Z</time>
      </trkpt>
      <trkpt lat="47.27487" lon="-1.67776">
        <ele>70.8</ele>
        <time>2011-07-28T15:43:33Z</time>
      </trkpt>
      <trkpt lat="47.27485" lon="-1.6777">
        <ele>70.9</ele>
        <time>2011-07-28T15:43:34Z</time>
      </trkpt>
      <trkpt lat="47.27482" lon="-1.67766">
        <ele>70.9</ele>
        <time>2011-07-28T15:43:35Z</time>
      </trkpt>
      <trkpt lat="47.27478" lon="-1.67762">
        <ele>71.1</ele>
        <time>2011-07-28T15:43:36Z</time>
      </trkpt>
      <trkpt lat="47.27475" lon="-1.67758">
        <ele>71.2</ele>
        <time>2011-07-28T15:43:37Z</time>
      </trkpt>
      <trkpt lat="47.27472" lon="-1.67753">
        <ele>71.2</ele>
        <time>2011-07-28T15:43:38Z</time>
      </trkpt>
      <trkpt lat="47.27469" lon="-1.67749">
        <ele>71.3</ele>
        <time>2011-07-28T15:43:39Z</time>
      </trkpt>
      <trkpt lat="47.27466" lon="-1.67744">
        <ele>70.9</ele>
        <time>2011-07-28T15:43:40Z</time>
      </trkpt>
      <trkpt lat="47.27463" lon="-1.67741">
        <ele>70.7</ele>
        <time>2011-07-28T15:43:41Z</time>
      </trkpt>
      <trkpt lat="47.2746" lon="-1.67736">
        <ele>70.4</ele>
        <time>2011-07-28T15:43:42Z</time>
      </trkpt>
      <trkpt lat="47.27457" lon="-1.67732">
        <ele>70.3</ele>
        <time>2011-07-28T15:43:43Z</time>
      </trkpt>
      <trkpt lat="47.27454" lon="-1.67728">
        <ele>70.2</ele>
        <time>2011-07-28T15:43:44Z</time>
      </trkpt>
      <trkpt lat="47.27451" lon="-1.67723">
        <ele>70.1</ele>
        <time>2011-07-28T15:43:45Z</time>
      </trkpt>
      <trkpt lat="47.27449" lon="-1.67718">
        <ele>70.4</ele>
        <time>2011-07-28T15:43:46Z</time>
      </trkpt>
      <trkpt lat="47.27447" lon="-1.67713">
        <ele>70.6</ele>
        <time>2011-07-28T15:43:47Z</time>
      </trkpt>
      <trkpt lat="47.27445" lon="-1.67707">
        <ele>70.8</ele>
        <time>2011-07-28T15:43:48Z</time>
      </trkpt>
      <trkpt lat="47.27445" lon="-1.677">
        <ele>70.5</ele>
        <time>2011-07-28T15:43:49Z</time>
      </trkpt>
      <trkpt lat="47.27444" lon="-1.67693">
        <ele>70.4</ele>
        <time>2011-07-28T15:43:50Z</time>
      </trkpt>
      <trkpt lat="47.27444" lon="-1.67686">
        <ele>70.2</ele>
        <time>2011-07-28T15:43:51Z</time>
      </trkpt>
      <trkpt lat="47.27444" lon="-1.6768">
        <ele>69.9</ele>
        <time>2011-07-28T15:43:52Z</time>
      </trkpt>
      <trkpt lat="47.27445" lon="-1.67673">
        <ele>69.6</ele>
        <time>2011-07-28T15:43:53Z</time>
      </trkpt>
      <trkpt lat="47.27445" lon="-1.67667">
        <ele>69.4</ele>
        <time>2011-07-28T15:43:54Z</time>
      </trkpt>
      <trkpt lat="47.27444" lon="-1.6766">
        <ele>69.3</ele>
        <time>2011-07-28T15:43:55Z</time>
      </trkpt>
      <trkpt lat="47.27443" lon="-1.67653">
        <ele>69.2</ele>
        <time>2011-07-28T15:43:56Z</time>
      </trkpt>
      <trkpt lat="47.27442" lon="-1.67647">
        <ele>69.1</ele>
        <time>2011-07-28T15:43:57Z</time>
      </trkpt>
      <trkpt lat="47.27441" lon="-1.67641">
        <ele>69.1</ele>
        <time>2011-07-28T15:43:58Z</time>
      </trkpt>
      <trkpt lat="47.27439" lon="-1.67634">
        <ele>68.9</ele>
        <time>2011-07-28T15:43:59Z</time>
      </trkpt>
      <trkpt lat="47.27438" lon="-1.67628">
        <ele>68.7</ele>
        <time>2011-07-28T15:44:00Z</time>
      </trkpt>
      <trkpt lat="47.27437" lon="-1.67623">
        <ele>68.6</ele>
        <time>2011-07-28T15:44:01Z</time>
      </trkpt>
      <trkpt lat="47.27436" lon="-1.67617">
        <ele>68.4</ele>
        <time>2011-07-28T15:44:02Z</time>
      </trkpt>
      <trkpt lat="47.27434" lon="-1.67612">
        <ele>68.2</ele>
        <time>2011-07-28T15:44:03Z</time>
      </trkpt>
      <trkpt lat="47.27432" lon="-1.67606">
        <ele>68.1</ele>
        <time>2011-07-28T15:44:04Z</time>
      </trkpt>
      <trkpt lat="47.2743" lon="-1.67601">
        <ele>67.9</ele>
        <time>2011-07-28T15:44:05Z</time>
      </trkpt>
      <trkpt lat="47.27428" lon="-1.67596">
        <ele>67.8</ele>
        <time>2011-07-28T15:44:06Z</time>
      </trkpt>
      <trkpt lat="47.27425" lon="-1.67591">
        <ele>67.7</ele>
        <time>2011-07-28T15:44:07Z</time>
      </trkpt>
      <trkpt lat="47.27423" lon="-1.67586">
        <ele>68.2</ele>
        <time>2011-07-28T15:44:08Z</time>
      </trkpt>
      <trkpt lat="47.27421" lon="-1.67582">
        <ele>68.5</ele>
        <time>2011-07-28T15:44:09Z</time>
      </trkpt>
      <trkpt lat="47.27418" lon="-1.67578">
        <ele>68.8</ele>
        <time>2011-07-28T15:44:10Z</time>
      </trkpt>
      <trkpt lat="47.27416" lon="-1.67574">
        <ele>69</ele>
        <time>2011-07-28T15:44:11Z</time>
      </trkpt>
      <trkpt lat="47.27414" lon="-1.6757">
        <ele>68.9</ele>
        <time>2011-07-28T15:44:12Z</time>
      </trkpt>
      <trkpt lat="47.27412" lon="-1.67567">
        <ele>68.9</ele>
        <time>2011-07-28T15:44:13Z</time>
      </trkpt>
      <trkpt lat="47.2741" lon="-1.67564">
        <ele>68.9</ele>
        <time>2011-07-28T15:44:14Z</time>
      </trkpt>
      <trkpt lat="47.27408" lon="-1.6756">
        <ele>68.7</ele>
        <time>2011-07-28T15:44:15Z</time>
      </trkpt>
      <trkpt lat="47.27405" lon="-1.67557">
        <ele>68.5</ele>
        <time>2011-07-28T15:44:16Z</time>
      </trkpt>
      <trkpt lat="47.27403" lon="-1.67555">
        <ele>68.4</ele>
        <time>2011-07-28T15:44:17Z</time>
      </trkpt>
      <trkpt lat="47.27401" lon="-1.67551">
        <ele>68.2</ele>
        <time>2011-07-28T15:44:18Z</time>
      </trkpt>
      <trkpt lat="47.27399" lon="-1.67547">
        <ele>68</ele>
        <time>2011-07-28T15:44:19Z</time>
      </trkpt>
      <trkpt lat="47.27397" lon="-1.67543">
        <ele>67.9</ele>
        <time>2011-07-28T15:44:20Z</time>
      </trkpt>
      <trkpt lat="47.27395" lon="-1.67539">
        <ele>68.1</ele>
        <time>2011-07-28T15:44:21Z</time>
      </trkpt>
      <trkpt lat="47.27393" lon="-1.67535">
        <ele>68.3</ele>
        <time>2011-07-28T15:44:22Z</time>
      </trkpt>
      <trkpt lat="47.27392" lon="-1.67531">
        <ele>68.4</ele>
        <time>2011-07-28T15:44:23Z</time>
      </trkpt>
      <trkpt lat="47.2739" lon="-1.67528">
        <ele>68.2</ele>
        <time>2011-07-28T15:44:24Z</time>
      </trkpt>
      <trkpt lat="47.27389" lon="-1.67524">
        <ele>68</ele>
        <time>2011-07-28T15:44:25Z</time>
      </trkpt>
      <trkpt lat="47.27387" lon="-1.6752">
        <ele>67.8</ele>
        <time>2011-07-28T15:44:26Z</time>
      </trkpt>
      <trkpt lat="47.27386" lon="-1.67516">
        <ele>67.7</ele>
        <time>2011-07-28T15:44:27Z</time>
      </trkpt>
      <trkpt lat="47.27384" lon="-1.67511">
        <ele>67.9</ele>
        <time>2011-07-28T15:44:28Z</time>
      </trkpt>
      <trkpt lat="47.27383" lon="-1.67506">
        <ele>68</ele>
        <time>2011-07-28T15:44:29Z</time>
      </trkpt>
      <trkpt lat="47.27381" lon="-1.67502">
        <ele>68.1</ele>
        <time>2011-07-28T15:44:30Z</time>
      </trkpt>
      <trkpt lat="47.27379" lon="-1.67497">
        <ele>68.2</ele>
        <time>2011-07-28T15:44:31Z</time>
      </trkpt>
      <trkpt lat="47.27377" lon="-1.67492">
        <ele>68.2</ele>
        <time>2011-07-28T15:44:32Z</time>
      </trkpt>
      <trkpt lat="47.27375" lon="-1.67486">
        <ele>68.2</ele>
        <time>2011-07-28T15:44:33Z</time>
      </trkpt>
      <trkpt lat="47.27373" lon="-1.6748">
        <ele>68.1</ele>
        <time>2011-07-28T15:44:34Z</time>
      </trkpt>
      <trkpt lat="47.27371" lon="-1.67475">
        <ele>68.1</ele>
        <time>2011-07-28T15:44:35Z</time>
      </trkpt>
      <trkpt lat="47.27368" lon="-1.67469">
        <ele>68</ele>
        <time>2011-07-28T15:44:36Z</time>
      </trkpt>
      <trkpt lat="47.27367" lon="-1.67463">
        <ele>67.7</ele>
        <time>2011-07-28T15:44:37Z</time>
      </trkpt>
      <trkpt lat="47.27365" lon="-1.67458">
        <ele>67.5</ele>
        <time>2011-07-28T15:44:38Z</time>
      </trkpt>
      <trkpt lat="47.27364" lon="-1.67455">
        <ele>67.3</ele>
        <time>2011-07-28T15:44:39Z</time>
      </trkpt>
      <trkpt lat="47.27362" lon="-1.6745">
        <ele>67.4</ele>
        <time>2011-07-28T15:44:40Z</time>
      </trkpt>
      <trkpt lat="47.2736" lon="-1.67446">
        <ele>67.4</ele>
        <time>2011-07-28T15:44:41Z</time>
      </trkpt>
      <trkpt lat="47.27359" lon="-1.67442">
        <ele>67.4</ele>
        <time>2011-07-28T15:44:42Z</time>
      </trkpt>
      <trkpt lat="47.27358" lon="-1.67437">
        <ele>67.4</ele>
        <time>2011-07-28T15:44:43Z</time>
      </trkpt>
      <trkpt lat="47.27357" lon="-1.67433">
        <ele>67.4</ele>
        <time>2011-07-28T15:44:44Z</time>
      </trkpt>
      <trkpt lat="47.27356" lon="-1.67428">
        <ele>67.4</ele>
        <time>2011-07-28T15:44:45Z</time>
      </trkpt>
      <trkpt lat="47.27355" lon="-1.67424">
        <ele>67.4</ele>
        <time>2011-07-28T15:44:46Z</time>
      </trkpt>
      <trkpt lat="47.27354" lon="-1.67418">
        <ele>67.5</ele>
        <time>2011-07-28T15:44:47Z</time>
      </trkpt>
      <trkpt lat="47.27354" lon="-1.67413">
        <ele>67.7</ele>
        <time>2011-07-28T15:44:48Z</time>
      </trkpt>
      <trkpt lat="47.27353" lon="-1.67408">
        <ele>67.8</ele>
        <time>2011-07-28T15:44:49Z</time>
      </trkpt>
      <trkpt lat="47.27353" lon="-1.67402">
        <ele>67.6</ele>
        <time>2011-07-28T15:44:50Z</time>
      </trkpt>
      <trkpt lat="47.27353" lon="-1.67396">
        <ele>67.5</ele>
        <time>2011-07-28T15:44:51Z</time>
      </trkpt>
      <trkpt lat="47.27353" lon="-1.67391">
        <ele>67.5</ele>
        <time>2011-07-28T15:44:52Z</time>
      </trkpt>
      <trkpt lat="47.27352" lon="-1.67385">
        <ele>67.5</ele>
        <time>2011-07-28T15:44:53Z</time>
      </trkpt>
      <trkpt lat="47.27352" lon="-1.6738">
        <ele>67.5</ele>
        <time>2011-07-28T15:44:54Z</time>
      </trkpt>
      <trkpt lat="47.27352" lon="-1.67374">
        <ele>67.5</ele>
        <time>2011-07-28T15:44:55Z</time>
      </trkpt>
      <trkpt lat="47.27352" lon="-1.67369">
        <ele>67.5</ele>
        <time>2011-07-28T15:44:56Z</time>
      </trkpt>
      <trkpt lat="47.27351" lon="-1.67363">
        <ele>67.4</ele>
        <time>2011-07-28T15:44:57Z</time>
      </trkpt>
      <trkpt lat="47.27351" lon="-1.67357">
        <ele>67.4</ele>
        <time>2011-07-28T15:44:58Z</time>
      </trkpt>
      <trkpt lat="47.2735" lon="-1.67351">
        <ele>67.1</ele>
        <time>2011-07-28T15:44:59Z</time>
      </trkpt>
      <trkpt lat="47.27349" lon="-1.67345">
        <ele>67</ele>
        <time>2011-07-28T15:45:00Z</time>
      </trkpt>
      <trkpt lat="47.27348" lon="-1.67339">
        <ele>66.8</ele>
        <time>2011-07-28T15:45:01Z</time>
      </trkpt>
      <trkpt lat="47.27347" lon="-1.67332">
        <ele>66.7</ele>
        <time>2011-07-28T15:45:02Z</time>
      </trkpt>
      <trkpt lat="47.27346" lon="-1.67326">
        <ele>66.7</ele>
        <time>2011-07-28T15:45:03Z</time>
      </trkpt>
      <trkpt lat="47.27345" lon="-1.67319">
        <ele>66.7</ele>
        <time>2011-07-28T15:45:04Z</time>
      </trkpt>
      <trkpt lat="47.27344" lon="-1.67313">
        <ele>66.7</ele>
        <time>2011-07-28T15:45:05Z</time>
      </trkpt>
      <trkpt lat="47.27344" lon="-1.67306">
        <ele>66.8</ele>
        <time>2011-07-28T15:45:06Z</time>
      </trkpt>
      <trkpt lat="47.27343" lon="-1.673">
        <ele>66.8</ele>
        <time>2011-07-28T15:45:07Z</time>
      </trkpt>
      <trkpt lat="47.27342" lon="-1.67294">
        <ele>66.8</ele>
        <time>2011-07-28T15:45:08Z</time>
      </trkpt>
      <trkpt lat="47.27341" lon="-1.67288">
        <ele>66.5</ele>
        <time>2011-07-28T15:45:09Z</time>
      </trkpt>
      <trkpt lat="47.2734" lon="-1.67281">
        <ele>66.4</ele>
        <time>2011-07-28T15:45:10Z</time>
      </trkpt>
      <trkpt lat="47.27339" lon="-1.67275">
        <ele>66.2</ele>
        <time>2011-07-28T15:45:11Z</time>
      </trkpt>
      <trkpt lat="47.27338" lon="-1.67269">
        <ele>66.5</ele>
        <time>2011-07-28T15:45:12Z</time>
      </trkpt>
      <trkpt lat="47.27337" lon="-1.67263">
        <ele>66.8</ele>
        <time>2011-07-28T15:45:13Z</time>
      </trkpt>
      <trkpt lat="47.27336" lon="-1.67257">
        <ele>67</ele>
        <time>2011-07-28T15:45:14Z</time>
      </trkpt>
      <trkpt lat="47.27335" lon="-1.67252">
        <ele>67.1</ele>
        <time>2011-07-28T15:45:15Z</time>
      </trkpt>
      <trkpt lat="47.27334" lon="-1.67246">
        <ele>67.2</ele>
        <time>2011-07-28T15:45:16Z</time>
      </trkpt>
      <trkpt lat="47.27333" lon="-1.67242">
        <ele>67.2</ele>
        <time>2011-07-28T15:45:17Z</time>
      </trkpt>
      <trkpt lat="47.27332" lon="-1.67238">
        <ele>67.3</ele>
        <time>2011-07-28T15:45:18Z</time>
      </trkpt>
      <trkpt lat="47.27332" lon="-1.67234">
        <ele>67.3</ele>
        <time>2011-07-28T15:45:19Z</time>
      </trkpt>
      <trkpt lat="47.27333" lon="-1.6723">
        <ele>67.3</ele>
        <time>2011-07-28T15:45:20Z</time>
      </trkpt>
      <trkpt lat="47.27334" lon="-1.67228">
        <ele>67.3</ele>
        <time>2011-07-28T15:45:21Z</time>
      </trkpt>
      <trkpt lat="47.27337" lon="-1.67226">
        <ele>66.6</ele>
        <time>2011-07-28T15:45:22Z</time>
      </trkpt>
      <trkpt lat="47.27339" lon="-1.67225">
        <ele>66</ele>
        <time>2011-07-28T15:45:23Z</time>
      </trkpt>
      <trkpt lat="47.27342" lon="-1.67222">
        <ele>65.8</ele>
        <time>2011-07-28T15:45:25Z</time>
      </trkpt>
      <trkpt lat="47.27345" lon="-1.6722">
        <ele>65.9</ele>
        <time>2011-07-28T15:45:26Z</time>
      </trkpt>
      <trkpt lat="47.27347" lon="-1.6722">
        <ele>65.9</ele>
        <time>2011-07-28T15:45:27Z</time>
      </trkpt>
      <trkpt lat="47.2735" lon="-1.67219">
        <ele>66.1</ele>
        <time>2011-07-28T15:45:28Z</time>
      </trkpt>
      <trkpt lat="47.27352" lon="-1.67218">
        <ele>66.3</ele>
        <time>2011-07-28T15:45:29Z</time>
      </trkpt>
      <trkpt lat="47.27355" lon="-1.67218">
        <ele>66.4</ele>
        <time>2011-07-28T15:45:30Z</time>
      </trkpt>
      <trkpt lat="47.27358" lon="-1.67217">
        <ele>66.8</ele>
        <time>2011-07-28T15:45:31Z</time>
      </trkpt>
      <trkpt lat="47.27361" lon="-1.67216">
        <ele>67.1</ele>
        <time>2011-07-28T15:45:32Z</time>
      </trkpt>
      <trkpt lat="47.27364" lon="-1.67214">
        <ele>67.3</ele>
        <time>2011-07-28T15:45:33Z</time>
      </trkpt>
      <trkpt lat="47.27366" lon="-1.67211">
        <ele>67.5</ele>
        <time>2011-07-28T15:45:34Z</time>
      </trkpt>
      <trkpt lat="47.27369" lon="-1.67209">
        <ele>67.3</ele>
        <time>2011-07-28T15:45:35Z</time>
      </trkpt>
      <trkpt lat="47.27372" lon="-1.67206">
        <ele>67.1</ele>
        <time>2011-07-28T15:45:36Z</time>
      </trkpt>
      <trkpt lat="47.27376" lon="-1.67203">
        <ele>67</ele>
        <time>2011-07-28T15:45:37Z</time>
      </trkpt>
      <trkpt lat="47.2738" lon="-1.67199">
        <ele>67.1</ele>
        <time>2011-07-28T15:45:38Z</time>
      </trkpt>
      <trkpt lat="47.27384" lon="-1.67196">
        <ele>67.1</ele>
        <time>2011-07-28T15:45:39Z</time>
      </trkpt>
      <trkpt lat="47.27387" lon="-1.67193">
        <ele>67.1</ele>
        <time>2011-07-28T15:45:40Z</time>
      </trkpt>
      <trkpt lat="47.2739" lon="-1.6719">
        <ele>67.3</ele>
        <time>2011-07-28T15:45:41Z</time>
      </trkpt>
      <trkpt lat="47.27393" lon="-1.67187">
        <ele>67.5</ele>
        <time>2011-07-28T15:45:42Z</time>
      </trkpt>
      <trkpt lat="47.27397" lon="-1.67184">
        <ele>67.6</ele>
        <time>2011-07-28T15:45:43Z</time>
      </trkpt>
      <trkpt lat="47.274" lon="-1.67181">
        <ele>67.6</ele>
        <time>2011-07-28T15:45:44Z</time>
      </trkpt>
      <trkpt lat="47.27403" lon="-1.67178">
        <ele>67.6</ele>
        <time>2011-07-28T15:45:45Z</time>
      </trkpt>
      <trkpt lat="47.27406" lon="-1.67175">
        <ele>67.6</ele>
        <time>2011-07-28T15:45:46Z</time>
      </trkpt>
      <trkpt lat="47.27408" lon="-1.67171">
        <ele>67.5</ele>
        <time>2011-07-28T15:45:47Z</time>
      </trkpt>
      <trkpt lat="47.27411" lon="-1.67169">
        <ele>67.5</ele>
        <time>2011-07-28T15:45:48Z</time>
      </trkpt>
      <trkpt lat="47.27414" lon="-1.67166">
        <ele>67.5</ele>
        <time>2011-07-28T15:45:49Z</time>
      </trkpt>
      <trkpt lat="47.27417" lon="-1.67163">
        <ele>68.1</ele>
        <time>2011-07-28T15:45:50Z</time>
      </trkpt>
      <trkpt lat="47.27421" lon="-1.6716">
        <ele>68.5</ele>
        <time>2011-07-28T15:45:51Z</time>
      </trkpt>
      <trkpt lat="47.27424" lon="-1.67157">
        <ele>68.8</ele>
        <time>2011-07-28T15:45:52Z</time>
      </trkpt>
      <trkpt lat="47.27428" lon="-1.67154">
        <ele>69</ele>
        <time>2011-07-28T15:45:53Z</time>
      </trkpt>
      <trkpt lat="47.27431" lon="-1.67151">
        <ele>69.2</ele>
        <time>2011-07-28T15:45:54Z</time>
      </trkpt>
      <trkpt lat="47.27434" lon="-1.67147">
        <ele>69.2</ele>
        <time>2011-07-28T15:45:55Z</time>
      </trkpt>
      <trkpt lat="47.27438" lon="-1.67144">
        <ele>69.3</ele>
        <time>2011-07-28T15:45:56Z</time>
      </trkpt>
      <trkpt lat="47.27442" lon="-1.67141">
        <ele>68.8</ele>
        <time>2011-07-28T15:45:57Z</time>
      </trkpt>
      <trkpt lat="47.27445" lon="-1.67138">
        <ele>68.4</ele>
        <time>2011-07-28T15:45:58Z</time>
      </trkpt>
      <trkpt lat="47.27449" lon="-1.67134">
        <ele>68.2</ele>
        <time>2011-07-28T15:45:59Z</time>
      </trkpt>
      <trkpt lat="47.27453" lon="-1.67131">
        <ele>68.7</ele>
        <time>2011-07-28T15:46:00Z</time>
      </trkpt>
      <trkpt lat="47.27456" lon="-1.67128">
        <ele>69.1</ele>
        <time>2011-07-28T15:46:01Z</time>
      </trkpt>
      <trkpt lat="47.2746" lon="-1.67124">
        <ele>69.3</ele>
        <time>2011-07-28T15:46:02Z</time>
      </trkpt>
      <trkpt lat="47.27464" lon="-1.67121">
        <ele>69.1</ele>
        <time>2011-07-28T15:46:03Z</time>
      </trkpt>
      <trkpt lat="47.27468" lon="-1.67117">
        <ele>68.9</ele>
        <time>2011-07-28T15:46:04Z</time>
      </trkpt>
      <trkpt lat="47.27472" lon="-1.67113">
        <ele>68.7</ele>
        <time>2011-07-28T15:46:05Z</time>
      </trkpt>
      <trkpt lat="47.27476" lon="-1.6711">
        <ele>68.6</ele>
        <time>2011-07-28T15:46:06Z</time>
      </trkpt>
      <trkpt lat="47.2748" lon="-1.67106">
        <ele>68.8</ele>
        <time>2011-07-28T15:46:07Z</time>
      </trkpt>
      <trkpt lat="47.27484" lon="-1.67103">
        <ele>69</ele>
        <time>2011-07-28T15:46:08Z</time>
      </trkpt>
      <trkpt lat="47.27487" lon="-1.67099">
        <ele>69.1</ele>
        <time>2011-07-28T15:46:09Z</time>
      </trkpt>
      <trkpt lat="47.27491" lon="-1.67096">
        <ele>69.1</ele>
        <time>2011-07-28T15:46:10Z</time>
      </trkpt>
      <trkpt lat="47.27494" lon="-1.67093">
        <ele>69.2</ele>
        <time>2011-07-28T15:46:11Z</time>
      </trkpt>
      <trkpt lat="47.27497" lon="-1.6709">
        <ele>69.2</ele>
        <time>2011-07-28T15:46:12Z</time>
      </trkpt>
      <trkpt lat="47.275" lon="-1.67087">
        <ele>69.6</ele>
        <time>2011-07-28T15:46:13Z</time>
      </trkpt>
      <trkpt lat="47.27503" lon="-1.67084">
        <ele>69.9</ele>
        <time>2011-07-28T15:46:14Z</time>
      </trkpt>
      <trkpt lat="47.27506" lon="-1.67082">
        <ele>70.1</ele>
        <time>2011-07-28T15:46:15Z</time>
      </trkpt>
      <trkpt lat="47.27509" lon="-1.67079">
        <ele>70.2</ele>
        <time>2011-07-28T15:46:16Z</time>
      </trkpt>
      <trkpt lat="47.27511" lon="-1.67076">
        <ele>70.3</ele>
        <time>2011-07-28T15:46:17Z</time>
      </trkpt>
      <trkpt lat="47.27513" lon="-1.67072">
        <ele>70.4</ele>
        <time>2011-07-28T15:46:18Z</time>
      </trkpt>
      <trkpt lat="47.27515" lon="-1.67069">
        <ele>69.8</ele>
        <time>2011-07-28T15:46:19Z</time>
      </trkpt>
      <trkpt lat="47.27516" lon="-1.67066">
        <ele>69.5</ele>
        <time>2011-07-28T15:46:20Z</time>
      </trkpt>
      <trkpt lat="47.27517" lon="-1.6706">
        <ele>69</ele>
        <time>2011-07-28T15:46:22Z</time>
      </trkpt>
      <trkpt lat="47.27517" lon="-1.67054">
        <ele>68.8</ele>
        <time>2011-07-28T15:46:24Z</time>
      </trkpt>
      <trkpt lat="47.27516" lon="-1.6705">
        <ele>68.9</ele>
        <time>2011-07-28T15:46:26Z</time>
      </trkpt>
      <trkpt lat="47.27513" lon="-1.67046">
        <ele>69.2</ele>
        <time>2011-07-28T15:46:28Z</time>
      </trkpt>
      <trkpt lat="47.27512" lon="-1.67043">
        <ele>69</ele>
        <time>2011-07-28T15:46:29Z</time>
      </trkpt>
      <trkpt lat="47.2751" lon="-1.67039">
        <ele>68.9</ele>
        <time>2011-07-28T15:46:30Z</time>
      </trkpt>
      <trkpt lat="47.27509" lon="-1.67036">
        <ele>68.7</ele>
        <time>2011-07-28T15:46:31Z</time>
      </trkpt>
      <trkpt lat="47.27508" lon="-1.67032">
        <ele>68.8</ele>
        <time>2011-07-28T15:46:32Z</time>
      </trkpt>
      <trkpt lat="47.27506" lon="-1.67027">
        <ele>68.9</ele>
        <time>2011-07-28T15:46:33Z</time>
      </trkpt>
      <trkpt lat="47.27505" lon="-1.67023">
        <ele>68.9</ele>
        <time>2011-07-28T15:46:34Z</time>
      </trkpt>
      <trkpt lat="47.27504" lon="-1.6702">
        <ele>69</ele>
        <time>2011-07-28T15:46:35Z</time>
      </trkpt>
      <trkpt lat="47.27503" lon="-1.67016">
        <ele>69.1</ele>
        <time>2011-07-28T15:46:36Z</time>
      </trkpt>
      <trkpt lat="47.27502" lon="-1.67012">
        <ele>69.1</ele>
        <time>2011-07-28T15:46:37Z</time>
      </trkpt>
      <trkpt lat="47.27501" lon="-1.67009">
        <ele>68.8</ele>
        <time>2011-07-28T15:46:38Z</time>
      </trkpt>
      <trkpt lat="47.275" lon="-1.67006">
        <ele>68.6</ele>
        <time>2011-07-28T15:46:39Z</time>
      </trkpt>
      <trkpt lat="47.27498" lon="-1.67001">
        <ele>68.4</ele>
        <time>2011-07-28T15:46:41Z</time>
      </trkpt>
      <trkpt lat="47.27495" lon="-1.66996">
        <ele>67.6</ele>
        <time>2011-07-28T15:47:11Z</time>
      </trkpt>
      <trkpt lat="47.27495" lon="-1.66996">
        <ele>67.8</ele>
        <time>2011-07-28T15:47:12Z</time>
      </trkpt>
      <trkpt lat="47.27498" lon="-1.66993">
        <ele>67.5</ele>
        <time>2011-07-28T15:48:21Z</time>
      </trkpt>
      <trkpt lat="47.27497" lon="-1.66991">
        <ele>67.4</ele>
        <time>2011-07-28T15:48:22Z</time>
      </trkpt>
      <trkpt lat="47.27495" lon="-1.66984">
        <ele>67.9</ele>
        <time>2011-07-28T15:48:25Z</time>
      </trkpt>
      <trkpt lat="47.27493" lon="-1.66979">
        <ele>68</ele>
        <time>2011-07-28T15:48:27Z</time>
      </trkpt>
      <trkpt lat="47.27491" lon="-1.66974">
        <ele>68</ele>
        <time>2011-07-28T15:48:29Z</time>
      </trkpt>
      <trkpt lat="47.27489" lon="-1.66968">
        <ele>67.5</ele>
        <time>2011-07-28T15:48:31Z</time>
      </trkpt>
      <trkpt lat="47.27487" lon="-1.66963">
        <ele>67.3</ele>
        <time>2011-07-28T15:48:33Z</time>
      </trkpt>
      <trkpt lat="47.27486" lon="-1.66961">
        <ele>67.3</ele>
        <time>2011-07-28T15:48:34Z</time>
      </trkpt>
      <trkpt lat="47.27484" lon="-1.66958">
        <ele>67.3</ele>
        <time>2011-07-28T15:48:35Z</time>
      </trkpt>
      <trkpt lat="47.27483" lon="-1.66954">
        <ele>67.1</ele>
        <time>2011-07-28T15:48:36Z</time>
      </trkpt>
      <trkpt lat="47.27482" lon="-1.66951">
        <ele>66.9</ele>
        <time>2011-07-28T15:48:37Z</time>
      </trkpt>
      <trkpt lat="47.2748" lon="-1.66947">
        <ele>66.7</ele>
        <time>2011-07-28T15:48:38Z</time>
      </trkpt>
      <trkpt lat="47.27478" lon="-1.66944">
        <ele>66.6</ele>
        <time>2011-07-28T15:48:39Z</time>
      </trkpt>
      <trkpt lat="47.27477" lon="-1.6694">
        <ele>66.5</ele>
        <time>2011-07-28T15:48:40Z</time>
      </trkpt>
      <trkpt lat="47.27476" lon="-1.66936">
        <ele>66.5</ele>
        <time>2011-07-28T15:48:41Z</time>
      </trkpt>
      <trkpt lat="47.27475" lon="-1.66931">
        <ele>66.4</ele>
        <time>2011-07-28T15:48:42Z</time>
      </trkpt>
      <trkpt lat="47.27474" lon="-1.66926">
        <ele>66.9</ele>
        <time>2011-07-28T15:48:43Z</time>
      </trkpt>
      <trkpt lat="47.27473" lon="-1.66921">
        <ele>67.3</ele>
        <time>2011-07-28T15:48:44Z</time>
      </trkpt>
      <trkpt lat="47.27471" lon="-1.66917">
        <ele>67.5</ele>
        <time>2011-07-28T15:48:45Z</time>
      </trkpt>
      <trkpt lat="47.27469" lon="-1.66913">
        <ele>67.5</ele>
        <time>2011-07-28T15:48:46Z</time>
      </trkpt>
      <trkpt lat="47.27468" lon="-1.66909">
        <ele>67.4</ele>
        <time>2011-07-28T15:48:47Z</time>
      </trkpt>
      <trkpt lat="47.27467" lon="-1.66904">
        <ele>67.4</ele>
        <time>2011-07-28T15:48:48Z</time>
      </trkpt>
      <trkpt lat="47.27465" lon="-1.66901">
        <ele>67.3</ele>
        <time>2011-07-28T15:48:49Z</time>
      </trkpt>
      <trkpt lat="47.27463" lon="-1.66897">
        <ele>67.2</ele>
        <time>2011-07-28T15:48:50Z</time>
      </trkpt>
      <trkpt lat="47.27461" lon="-1.66894">
        <ele>67.2</ele>
        <time>2011-07-28T15:48:51Z</time>
      </trkpt>
      <trkpt lat="47.27459" lon="-1.66891">
        <ele>67.2</ele>
        <time>2011-07-28T15:48:52Z</time>
      </trkpt>
      <trkpt lat="47.27457" lon="-1.66888">
        <ele>67.2</ele>
        <time>2011-07-28T15:48:53Z</time>
      </trkpt>
      <trkpt lat="47.27455" lon="-1.66885">
        <ele>67.2</ele>
        <time>2011-07-28T15:48:54Z</time>
      </trkpt>
      <trkpt lat="47.27454" lon="-1.66882">
        <ele>67.2</ele>
        <time>2011-07-28T15:48:55Z</time>
      </trkpt>
      <trkpt lat="47.27452" lon="-1.66879">
        <ele>67.2</ele>
        <time>2011-07-28T15:48:56Z</time>
      </trkpt>
      <trkpt lat="47.2745" lon="-1.66875">
        <ele>67.2</ele>
        <time>2011-07-28T15:48:57Z</time>
      </trkpt>
      <trkpt lat="47.27448" lon="-1.66871">
        <ele>67.2</ele>
        <time>2011-07-28T15:48:58Z</time>
      </trkpt>
      <trkpt lat="47.27447" lon="-1.66867">
        <ele>67.3</ele>
        <time>2011-07-28T15:48:59Z</time>
      </trkpt>
      <trkpt lat="47.27446" lon="-1.66864">
        <ele>67.3</ele>
        <time>2011-07-28T15:49:00Z</time>
      </trkpt>
      <trkpt lat="47.27444" lon="-1.6686">
        <ele>67.3</ele>
        <time>2011-07-28T15:49:01Z</time>
      </trkpt>
      <trkpt lat="47.27442" lon="-1.66857">
        <ele>67</ele>
        <time>2011-07-28T15:49:02Z</time>
      </trkpt>
      <trkpt lat="47.27441" lon="-1.66854">
        <ele>66.8</ele>
        <time>2011-07-28T15:49:03Z</time>
      </trkpt>
      <trkpt lat="47.27439" lon="-1.6685">
        <ele>66.7</ele>
        <time>2011-07-28T15:49:04Z</time>
      </trkpt>
      <trkpt lat="47.27437" lon="-1.66846">
        <ele>67.1</ele>
        <time>2011-07-28T15:49:05Z</time>
      </trkpt>
      <trkpt lat="47.27435" lon="-1.66842">
        <ele>67.5</ele>
        <time>2011-07-28T15:49:06Z</time>
      </trkpt>
      <trkpt lat="47.27434" lon="-1.66838">
        <ele>67.7</ele>
        <time>2011-07-28T15:49:07Z</time>
      </trkpt>
      <trkpt lat="47.27432" lon="-1.66834">
        <ele>67.5</ele>
        <time>2011-07-28T15:49:08Z</time>
      </trkpt>
      <trkpt lat="47.27431" lon="-1.66831">
        <ele>67.3</ele>
        <time>2011-07-28T15:49:09Z</time>
      </trkpt>
      <trkpt lat="47.27429" lon="-1.66828">
        <ele>67.2</ele>
        <time>2011-07-28T15:49:10Z</time>
      </trkpt>
      <trkpt lat="47.27427" lon="-1.66825">
        <ele>67.1</ele>
        <time>2011-07-28T15:49:11Z</time>
      </trkpt>
      <trkpt lat="47.27426" lon="-1.66822">
        <ele>67.3</ele>
        <time>2011-07-28T15:49:12Z</time>
      </trkpt>
      <trkpt lat="47.27424" lon="-1.66819">
        <ele>67.4</ele>
        <time>2011-07-28T15:49:13Z</time>
      </trkpt>
      <trkpt lat="47.27423" lon="-1.66816">
        <ele>67.5</ele>
        <time>2011-07-28T15:49:14Z</time>
      </trkpt>
      <trkpt lat="47.27421" lon="-1.66813">
        <ele>67.2</ele>
        <time>2011-07-28T15:49:15Z</time>
      </trkpt>
      <trkpt lat="47.2742" lon="-1.6681">
        <ele>66.9</ele>
        <time>2011-07-28T15:49:16Z</time>
      </trkpt>
      <trkpt lat="47.27418" lon="-1.66807">
        <ele>66.7</ele>
        <time>2011-07-28T15:49:17Z</time>
      </trkpt>
      <trkpt lat="47.27417" lon="-1.66803">
        <ele>66.7</ele>
        <time>2011-07-28T15:49:18Z</time>
      </trkpt>
      <trkpt lat="47.27415" lon="-1.668">
        <ele>66.7</ele>
        <time>2011-07-28T15:49:19Z</time>
      </trkpt>
      <trkpt lat="47.27412" lon="-1.66796">
        <ele>66.7</ele>
        <time>2011-07-28T15:49:20Z</time>
      </trkpt>
      <trkpt lat="47.2741" lon="-1.66792">
        <ele>66.6</ele>
        <time>2011-07-28T15:49:21Z</time>
      </trkpt>
      <trkpt lat="47.27408" lon="-1.66789">
        <ele>66.6</ele>
        <time>2011-07-28T15:49:22Z</time>
      </trkpt>
      <trkpt lat="47.27406" lon="-1.66785">
        <ele>66.5</ele>
        <time>2011-07-28T15:49:23Z</time>
      </trkpt>
      <trkpt lat="47.27403" lon="-1.66781">
        <ele>66.6</ele>
        <time>2011-07-28T15:49:24Z</time>
      </trkpt>
      <trkpt lat="47.27401" lon="-1.66778">
        <ele>66.7</ele>
        <time>2011-07-28T15:49:25Z</time>
      </trkpt>
      <trkpt lat="47.27399" lon="-1.66775">
        <ele>66.8</ele>
        <time>2011-07-28T15:49:26Z</time>
      </trkpt>
      <trkpt lat="47.27396" lon="-1.66771">
        <ele>66.8</ele>
        <time>2011-07-28T15:49:27Z</time>
      </trkpt>
      <trkpt lat="47.27393" lon="-1.66767">
        <ele>66.9</ele>
        <time>2011-07-28T15:49:28Z</time>
      </trkpt>
      <trkpt lat="47.27391" lon="-1.66764">
        <ele>67</ele>
        <time>2011-07-28T15:49:29Z</time>
      </trkpt>
      <trkpt lat="47.27388" lon="-1.6676">
        <ele>67</ele>
        <time>2011-07-28T15:49:30Z</time>
      </trkpt>
      <trkpt lat="47.27385" lon="-1.66756">
        <ele>67</ele>
        <time>2011-07-28T15:49:31Z</time>
      </trkpt>
      <trkpt lat="47.27382" lon="-1.66752">
        <ele>67</ele>
        <time>2011-07-28T15:49:32Z</time>
      </trkpt>
      <trkpt lat="47.2738" lon="-1.66749">
        <ele>67</ele>
        <time>2011-07-28T15:49:33Z</time>
      </trkpt>
      <trkpt lat="47.27377" lon="-1.66746">
        <ele>66.9</ele>
        <time>2011-07-28T15:49:34Z</time>
      </trkpt>
      <trkpt lat="47.27374" lon="-1.66744">
        <ele>66.8</ele>
        <time>2011-07-28T15:49:35Z</time>
      </trkpt>
      <trkpt lat="47.27372" lon="-1.66742">
        <ele>66.8</ele>
        <time>2011-07-28T15:49:36Z</time>
      </trkpt>
      <trkpt lat="47.27369" lon="-1.66739">
        <ele>67</ele>
        <time>2011-07-28T15:49:37Z</time>
      </trkpt>
      <trkpt lat="47.27367" lon="-1.66736">
        <ele>67.1</ele>
        <time>2011-07-28T15:49:38Z</time>
      </trkpt>
      <trkpt lat="47.27365" lon="-1.66733">
        <ele>67.2</ele>
        <time>2011-07-28T15:49:39Z</time>
      </trkpt>
      <trkpt lat="47.27362" lon="-1.66729">
        <ele>67.8</ele>
        <time>2011-07-28T15:49:40Z</time>
      </trkpt>
      <trkpt lat="47.2736" lon="-1.66726">
        <ele>68.2</ele>
        <time>2011-07-28T15:49:41Z</time>
      </trkpt>
      <trkpt lat="47.27357" lon="-1.66722">
        <ele>68.5</ele>
        <time>2011-07-28T15:49:42Z</time>
      </trkpt>
      <trkpt lat="47.27355" lon="-1.66719">
        <ele>68.7</ele>
        <time>2011-07-28T15:49:43Z</time>
      </trkpt>
      <trkpt lat="47.27352" lon="-1.66716">
        <ele>68.4</ele>
        <time>2011-07-28T15:49:44Z</time>
      </trkpt>
      <trkpt lat="47.2735" lon="-1.66713">
        <ele>68.1</ele>
        <time>2011-07-28T15:49:45Z</time>
      </trkpt>
      <trkpt lat="47.27348" lon="-1.66709">
        <ele>67.9</ele>
        <time>2011-07-28T15:49:46Z</time>
      </trkpt>
      <trkpt lat="47.27346" lon="-1.66706">
        <ele>67.8</ele>
        <time>2011-07-28T15:49:47Z</time>
      </trkpt>
      <trkpt lat="47.27344" lon="-1.66702">
        <ele>67.7</ele>
        <time>2011-07-28T15:49:48Z</time>
      </trkpt>
      <trkpt lat="47.27341" lon="-1.66699">
        <ele>67.6</ele>
        <time>2011-07-28T15:49:49Z</time>
      </trkpt>
      <trkpt lat="47.27339" lon="-1.66695">
        <ele>67.6</ele>
        <time>2011-07-28T15:49:50Z</time>
      </trkpt>
      <trkpt lat="47.27336" lon="-1.66692">
        <ele>67.6</ele>
        <time>2011-07-28T15:49:51Z</time>
      </trkpt>
      <trkpt lat="47.27334" lon="-1.66689">
        <ele>67.7</ele>
        <time>2011-07-28T15:49:52Z</time>
      </trkpt>
      <trkpt lat="47.27332" lon="-1.66686">
        <ele>67.7</ele>
        <time>2011-07-28T15:49:53Z</time>
      </trkpt>
      <trkpt lat="47.2733" lon="-1.66682">
        <ele>67.7</ele>
        <time>2011-07-28T15:49:54Z</time>
      </trkpt>
      <trkpt lat="47.27328" lon="-1.66679">
        <ele>67.7</ele>
        <time>2011-07-28T15:49:55Z</time>
      </trkpt>
      <trkpt lat="47.27326" lon="-1.66676">
        <ele>67.3</ele>
        <time>2011-07-28T15:49:56Z</time>
      </trkpt>
      <trkpt lat="47.27324" lon="-1.66673">
        <ele>67</ele>
        <time>2011-07-28T15:49:57Z</time>
      </trkpt>
      <trkpt lat="47.27323" lon="-1.6667">
        <ele>66.8</ele>
        <time>2011-07-28T15:49:58Z</time>
      </trkpt>
      <trkpt lat="47.27321" lon="-1.66666">
        <ele>66.6</ele>
        <time>2011-07-28T15:49:59Z</time>
      </trkpt>
      <trkpt lat="47.2732" lon="-1.66663">
        <ele>66.9</ele>
        <time>2011-07-28T15:50:00Z</time>
      </trkpt>
      <trkpt lat="47.27319" lon="-1.66659">
        <ele>67.2</ele>
        <time>2011-07-28T15:50:01Z</time>
      </trkpt>
      <trkpt lat="47.27316" lon="-1.66654">
        <ele>67.4</ele>
        <time>2011-07-28T15:50:03Z</time>
      </trkpt>
      <trkpt lat="47.27314" lon="-1.66648">
        <ele>67.4</ele>
        <time>2011-07-28T15:50:05Z</time>
      </trkpt>
      <trkpt lat="47.27313" lon="-1.66642">
        <ele>67.3</ele>
        <time>2011-07-28T15:50:07Z</time>
      </trkpt>
      <trkpt lat="47.27312" lon="-1.66639">
        <ele>67.3</ele>
        <time>2011-07-28T15:50:08Z</time>
      </trkpt>
      <trkpt lat="47.27311" lon="-1.66636">
        <ele>67.4</ele>
        <time>2011-07-28T15:50:09Z</time>
      </trkpt>
      <trkpt lat="47.27311" lon="-1.66632">
        <ele>67.5</ele>
        <time>2011-07-28T15:50:10Z</time>
      </trkpt>
      <trkpt lat="47.27311" lon="-1.66625">
        <ele>67.7</ele>
        <time>2011-07-28T15:50:12Z</time>
      </trkpt>
      <trkpt lat="47.27311" lon="-1.66622">
        <ele>67.8</ele>
        <time>2011-07-28T15:50:13Z</time>
      </trkpt>
      <trkpt lat="47.27311" lon="-1.66618">
        <ele>67.9</ele>
        <time>2011-07-28T15:50:14Z</time>
      </trkpt>
      <trkpt lat="47.27311" lon="-1.66614">
        <ele>68.1</ele>
        <time>2011-07-28T15:50:15Z</time>
      </trkpt>
      <trkpt lat="47.27311" lon="-1.6661">
        <ele>68.2</ele>
        <time>2011-07-28T15:50:16Z</time>
      </trkpt>
      <trkpt lat="47.27311" lon="-1.66606">
        <ele>68.3</ele>
        <time>2011-07-28T15:50:17Z</time>
      </trkpt>
      <trkpt lat="47.27311" lon="-1.66602">
        <ele>68.4</ele>
        <time>2011-07-28T15:50:18Z</time>
      </trkpt>
      <trkpt lat="47.27311" lon="-1.66598">
        <ele>68.6</ele>
        <time>2011-07-28T15:50:19Z</time>
      </trkpt>
      <trkpt lat="47.27311" lon="-1.66594">
        <ele>68.7</ele>
        <time>2011-07-28T15:50:20Z</time>
      </trkpt>
      <trkpt lat="47.27311" lon="-1.6659">
        <ele>68.8</ele>
        <time>2011-07-28T15:50:21Z</time>
      </trkpt>
      <trkpt lat="47.27311" lon="-1.66585">
        <ele>68.8</ele>
        <time>2011-07-28T15:50:22Z</time>
      </trkpt>
      <trkpt lat="47.27311" lon="-1.66581">
        <ele>68.7</ele>
        <time>2011-07-28T15:50:23Z</time>
      </trkpt>
      <trkpt lat="47.27311" lon="-1.66577">
        <ele>68.7</ele>
        <time>2011-07-28T15:50:24Z</time>
      </trkpt>
      <trkpt lat="47.27312" lon="-1.66573">
        <ele>68.9</ele>
        <time>2011-07-28T15:50:25Z</time>
      </trkpt>
      <trkpt lat="47.27312" lon="-1.66568">
        <ele>69</ele>
        <time>2011-07-28T15:50:26Z</time>
      </trkpt>
      <trkpt lat="47.27312" lon="-1.66564">
        <ele>69.1</ele>
        <time>2011-07-28T15:50:27Z</time>
      </trkpt>
      <trkpt lat="47.27312" lon="-1.6656">
        <ele>69.4</ele>
        <time>2011-07-28T15:50:28Z</time>
      </trkpt>
      <trkpt lat="47.27312" lon="-1.66555">
        <ele>69.6</ele>
        <time>2011-07-28T15:50:29Z</time>
      </trkpt>
      <trkpt lat="47.27312" lon="-1.66551">
        <ele>69.7</ele>
        <time>2011-07-28T15:50:30Z</time>
      </trkpt>
      <trkpt lat="47.27313" lon="-1.66546">
        <ele>69.7</ele>
        <time>2011-07-28T15:50:31Z</time>
      </trkpt>
      <trkpt lat="47.27313" lon="-1.66542">
        <ele>69.8</ele>
        <time>2011-07-28T15:50:32Z</time>
      </trkpt>
      <trkpt lat="47.27313" lon="-1.66537">
        <ele>69.8</ele>
        <time>2011-07-28T15:50:33Z</time>
      </trkpt>
      <trkpt lat="47.27313" lon="-1.66533">
        <ele>69.8</ele>
        <time>2011-07-28T15:50:34Z</time>
      </trkpt>
      <trkpt lat="47.27313" lon="-1.66528">
        <ele>69.6</ele>
        <time>2011-07-28T15:50:35Z</time>
      </trkpt>
      <trkpt lat="47.27313" lon="-1.66523">
        <ele>69.4</ele>
        <time>2011-07-28T15:50:36Z</time>
      </trkpt>
      <trkpt lat="47.27313" lon="-1.66518">
        <ele>69.3</ele>
        <time>2011-07-28T15:50:37Z</time>
      </trkpt>
      <trkpt lat="47.27314" lon="-1.66514">
        <ele>69.4</ele>
        <time>2011-07-28T15:50:38Z</time>
      </trkpt>
      <trkpt lat="47.27314" lon="-1.66509">
        <ele>69.4</ele>
        <time>2011-07-28T15:50:39Z</time>
      </trkpt>
      <trkpt lat="47.27314" lon="-1.66504">
        <ele>69.5</ele>
        <time>2011-07-28T15:50:40Z</time>
      </trkpt>
      <trkpt lat="47.27315" lon="-1.66499">
        <ele>70</ele>
        <time>2011-07-28T15:50:41Z</time>
      </trkpt>
      <trkpt lat="47.27315" lon="-1.66494">
        <ele>70.4</ele>
        <time>2011-07-28T15:50:42Z</time>
      </trkpt>
      <trkpt lat="47.27314" lon="-1.66489">
        <ele>70.6</ele>
        <time>2011-07-28T15:50:43Z</time>
      </trkpt>
      <trkpt lat="47.27315" lon="-1.66483">
        <ele>70.3</ele>
        <time>2011-07-28T15:50:44Z</time>
      </trkpt>
      <trkpt lat="47.27315" lon="-1.66478">
        <ele>70.1</ele>
        <time>2011-07-28T15:50:45Z</time>
      </trkpt>
      <trkpt lat="47.27316" lon="-1.66473">
        <ele>69.9</ele>
        <time>2011-07-28T15:50:46Z</time>
      </trkpt>
      <trkpt lat="47.27316" lon="-1.66467">
        <ele>70.1</ele>
        <time>2011-07-28T15:50:47Z</time>
      </trkpt>
      <trkpt lat="47.27316" lon="-1.66461">
        <ele>70.2</ele>
        <time>2011-07-28T15:50:48Z</time>
      </trkpt>
      <trkpt lat="47.27316" lon="-1.66456">
        <ele>70.2</ele>
        <time>2011-07-28T15:50:49Z</time>
      </trkpt>
      <trkpt lat="47.27317" lon="-1.6645">
        <ele>70.3</ele>
        <time>2011-07-28T15:50:50Z</time>
      </trkpt>
      <trkpt lat="47.27317" lon="-1.66444">
        <ele>70.4</ele>
        <time>2011-07-28T15:50:51Z</time>
      </trkpt>
      <trkpt lat="47.27318" lon="-1.66438">
        <ele>70.5</ele>
        <time>2011-07-28T15:50:52Z</time>
      </trkpt>
      <trkpt lat="47.27318" lon="-1.66431">
        <ele>70.6</ele>
        <time>2011-07-28T15:50:53Z</time>
      </trkpt>
      <trkpt lat="47.27318" lon="-1.66425">
        <ele>70.8</ele>
        <time>2011-07-28T15:50:54Z</time>
      </trkpt>
      <trkpt lat="47.27319" lon="-1.66418">
        <ele>70.9</ele>
        <time>2011-07-28T15:50:55Z</time>
      </trkpt>
      <trkpt lat="47.27319" lon="-1.66411">
        <ele>71</ele>
        <time>2011-07-28T15:50:56Z</time>
      </trkpt>
      <trkpt lat="47.2732" lon="-1.66404">
        <ele>70.9</ele>
        <time>2011-07-28T15:50:57Z</time>
      </trkpt>
      <trkpt lat="47.2732" lon="-1.66397">
        <ele>70.8</ele>
        <time>2011-07-28T15:50:58Z</time>
      </trkpt>
      <trkpt lat="47.27321" lon="-1.66389">
        <ele>70.7</ele>
        <time>2011-07-28T15:50:59Z</time>
      </trkpt>
      <trkpt lat="47.27322" lon="-1.66382">
        <ele>70.6</ele>
        <time>2011-07-28T15:51:00Z</time>
      </trkpt>
      <trkpt lat="47.27322" lon="-1.66374">
        <ele>70.5</ele>
        <time>2011-07-28T15:51:01Z</time>
      </trkpt>
      <trkpt lat="47.27323" lon="-1.66366">
        <ele>70.4</ele>
        <time>2011-07-28T15:51:02Z</time>
      </trkpt>
      <trkpt lat="47.27324" lon="-1.66357">
        <ele>70.5</ele>
        <time>2011-07-28T15:51:03Z</time>
      </trkpt>
      <trkpt lat="47.27325" lon="-1.66348">
        <ele>70.5</ele>
        <time>2011-07-28T15:51:04Z</time>
      </trkpt>
      <trkpt lat="47.27326" lon="-1.66339">
        <ele>70.6</ele>
        <time>2011-07-28T15:51:05Z</time>
      </trkpt>
      <trkpt lat="47.27327" lon="-1.66329">
        <ele>70.4</ele>
        <time>2011-07-28T15:51:06Z</time>
      </trkpt>
      <trkpt lat="47.27328" lon="-1.66319">
        <ele>70.2</ele>
        <time>2011-07-28T15:51:07Z</time>
      </trkpt>
      <trkpt lat="47.2733" lon="-1.66309">
        <ele>70.1</ele>
        <time>2011-07-28T15:51:08Z</time>
      </trkpt>
      <trkpt lat="47.27331" lon="-1.66298">
        <ele>70.1</ele>
        <time>2011-07-28T15:51:09Z</time>
      </trkpt>
      <trkpt lat="47.27333" lon="-1.66286">
        <ele>70.2</ele>
        <time>2011-07-28T15:51:10Z</time>
      </trkpt>
      <trkpt lat="47.27335" lon="-1.66275">
        <ele>70.3</ele>
        <time>2011-07-28T15:51:11Z</time>
      </trkpt>
      <trkpt lat="47.27336" lon="-1.66263">
        <ele>70.4</ele>
        <time>2011-07-28T15:51:12Z</time>
      </trkpt>
      <trkpt lat="47.27338" lon="-1.66252">
        <ele>70.1</ele>
        <time>2011-07-28T15:51:13Z</time>
      </trkpt>
      <trkpt lat="47.27341" lon="-1.6624">
        <ele>69.9</ele>
        <time>2011-07-28T15:51:14Z</time>
      </trkpt>
      <trkpt lat="47.27344" lon="-1.66229">
        <ele>69.8</ele>
        <time>2011-07-28T15:51:15Z</time>
      </trkpt>
      <trkpt lat="47.27347" lon="-1.66218">
        <ele>69.4</ele>
        <time>2011-07-28T15:51:16Z</time>
      </trkpt>
      <trkpt lat="47.2735" lon="-1.66206">
        <ele>69</ele>
        <time>2011-07-28T15:51:17Z</time>
      </trkpt>
      <trkpt lat="47.27354" lon="-1.66195">
        <ele>68.8</ele>
        <time>2011-07-28T15:51:18Z</time>
      </trkpt>
      <trkpt lat="47.27358" lon="-1.66183">
        <ele>68.4</ele>
        <time>2011-07-28T15:51:19Z</time>
      </trkpt>
      <trkpt lat="47.27362" lon="-1.66171">
        <ele>68.1</ele>
        <time>2011-07-28T15:51:20Z</time>
      </trkpt>
      <trkpt lat="47.27366" lon="-1.66159">
        <ele>67.9</ele>
        <time>2011-07-28T15:51:21Z</time>
      </trkpt>
      <trkpt lat="47.2737" lon="-1.66146">
        <ele>67.7</ele>
        <time>2011-07-28T15:51:22Z</time>
      </trkpt>
      <trkpt lat="47.27375" lon="-1.66133">
        <ele>67.2</ele>
        <time>2011-07-28T15:51:23Z</time>
      </trkpt>
      <trkpt lat="47.2738" lon="-1.6612">
        <ele>66.8</ele>
        <time>2011-07-28T15:51:24Z</time>
      </trkpt>
      <trkpt lat="47.27385" lon="-1.66106">
        <ele>66.5</ele>
        <time>2011-07-28T15:51:25Z</time>
      </trkpt>
      <trkpt lat="47.27389" lon="-1.66093">
        <ele>66.3</ele>
        <time>2011-07-28T15:51:26Z</time>
      </trkpt>
      <trkpt lat="47.27394" lon="-1.66079">
        <ele>66.3</ele>
        <time>2011-07-28T15:51:27Z</time>
      </trkpt>
      <trkpt lat="47.27398" lon="-1.66066">
        <ele>66.2</ele>
        <time>2011-07-28T15:51:28Z</time>
      </trkpt>
      <trkpt lat="47.27403" lon="-1.66052">
        <ele>66.1</ele>
        <time>2011-07-28T15:51:29Z</time>
      </trkpt>
      <trkpt lat="47.27408" lon="-1.66039">
        <ele>66</ele>
        <time>2011-07-28T15:51:30Z</time>
      </trkpt>
      <trkpt lat="47.27413" lon="-1.66025">
        <ele>66</ele>
        <time>2011-07-28T15:51:31Z</time>
      </trkpt>
      <trkpt lat="47.27417" lon="-1.66011">
        <ele>65.8</ele>
        <time>2011-07-28T15:51:32Z</time>
      </trkpt>
      <trkpt lat="47.27423" lon="-1.65998">
        <ele>65.7</ele>
        <time>2011-07-28T15:51:33Z</time>
      </trkpt>
      <trkpt lat="47.27428" lon="-1.65986">
        <ele>65.6</ele>
        <time>2011-07-28T15:51:34Z</time>
      </trkpt>
      <trkpt lat="47.27433" lon="-1.65974">
        <ele>66.1</ele>
        <time>2011-07-28T15:51:35Z</time>
      </trkpt>
      <trkpt lat="47.27438" lon="-1.65964">
        <ele>66.5</ele>
        <time>2011-07-28T15:51:36Z</time>
      </trkpt>
      <trkpt lat="47.27441" lon="-1.65956">
        <ele>66.8</ele>
        <time>2011-07-28T15:51:37Z</time>
      </trkpt>
      <trkpt lat="47.27444" lon="-1.65951">
        <ele>66.6</ele>
        <time>2011-07-28T15:51:38Z</time>
      </trkpt>
      <trkpt lat="47.27446" lon="-1.65946">
        <ele>66.4</ele>
        <time>2011-07-28T15:51:41Z</time>
      </trkpt>
      <trkpt lat="47.27444" lon="-1.6594">
        <ele>67</ele>
        <time>2011-07-28T15:51:54Z</time>
      </trkpt>
      <trkpt lat="47.2744" lon="-1.65937">
        <ele>67.2</ele>
        <time>2011-07-28T15:52:25Z</time>
      </trkpt>
      <trkpt lat="47.2744" lon="-1.65937">
        <ele>67.1</ele>
        <time>2011-07-28T15:52:26Z</time>
      </trkpt>
      <trkpt lat="47.27446" lon="-1.6593">
        <ele>67.2</ele>
        <time>2011-07-28T15:53:37Z</time>
      </trkpt>
      <trkpt lat="47.27445" lon="-1.65929">
        <ele>67.1</ele>
        <time>2011-07-28T15:53:38Z</time>
      </trkpt>
      <trkpt lat="47.27442" lon="-1.65923">
        <ele>66.8</ele>
        <time>2011-07-28T15:53:40Z</time>
      </trkpt>
      <trkpt lat="47.2744" lon="-1.65919">
        <ele>66.6</ele>
        <time>2011-07-28T15:53:41Z</time>
      </trkpt>
      <trkpt lat="47.27437" lon="-1.65915">
        <ele>66.5</ele>
        <time>2011-07-28T15:53:42Z</time>
      </trkpt>
      <trkpt lat="47.27434" lon="-1.6591">
        <ele>66.4</ele>
        <time>2011-07-28T15:53:43Z</time>
      </trkpt>
      <trkpt lat="47.27431" lon="-1.65905">
        <ele>66.3</ele>
        <time>2011-07-28T15:53:44Z</time>
      </trkpt>
      <trkpt lat="47.27427" lon="-1.65899">
        <ele>66.3</ele>
        <time>2011-07-28T15:53:45Z</time>
      </trkpt>
      <trkpt lat="47.27423" lon="-1.65893">
        <ele>66.1</ele>
        <time>2011-07-28T15:53:46Z</time>
      </trkpt>
      <trkpt lat="47.27419" lon="-1.65886">
        <ele>65.9</ele>
        <time>2011-07-28T15:53:47Z</time>
      </trkpt>
      <trkpt lat="47.27415" lon="-1.6588">
        <ele>65.8</ele>
        <time>2011-07-28T15:53:48Z</time>
      </trkpt>
      <trkpt lat="47.2741" lon="-1.65874">
        <ele>66.1</ele>
        <time>2011-07-28T15:53:49Z</time>
      </trkpt>
      <trkpt lat="47.27405" lon="-1.65868">
        <ele>66.2</ele>
        <time>2011-07-28T15:53:50Z</time>
      </trkpt>
      <trkpt lat="47.274" lon="-1.65861">
        <ele>66.4</ele>
        <time>2011-07-28T15:53:51Z</time>
      </trkpt>
      <trkpt lat="47.27394" lon="-1.65853">
        <ele>66.1</ele>
        <time>2011-07-28T15:53:52Z</time>
      </trkpt>
      <trkpt lat="47.27389" lon="-1.65845">
        <ele>65.9</ele>
        <time>2011-07-28T15:53:53Z</time>
      </trkpt>
      <trkpt lat="47.27383" lon="-1.65837">
        <ele>65.7</ele>
        <time>2011-07-28T15:53:54Z</time>
      </trkpt>
      <trkpt lat="47.27377" lon="-1.65829">
        <ele>65.6</ele>
        <time>2011-07-28T15:53:55Z</time>
      </trkpt>
      <trkpt lat="47.2737" lon="-1.6582">
        <ele>64.9</ele>
        <time>2011-07-28T15:53:56Z</time>
      </trkpt>
      <trkpt lat="47.27364" lon="-1.65811">
        <ele>64.4</ele>
        <time>2011-07-28T15:53:57Z</time>
      </trkpt>
      <trkpt lat="47.27357" lon="-1.65802">
        <ele>64</ele>
        <time>2011-07-28T15:53:58Z</time>
      </trkpt>
      <trkpt lat="47.27351" lon="-1.65793">
        <ele>63.5</ele>
        <time>2011-07-28T15:53:59Z</time>
      </trkpt>
      <trkpt lat="47.27345" lon="-1.65784">
        <ele>63.1</ele>
        <time>2011-07-28T15:54:00Z</time>
      </trkpt>
      <trkpt lat="47.27338" lon="-1.65775">
        <ele>62.8</ele>
        <time>2011-07-28T15:54:01Z</time>
      </trkpt>
      <trkpt lat="47.27331" lon="-1.65765">
        <ele>62.1</ele>
        <time>2011-07-28T15:54:02Z</time>
      </trkpt>
      <trkpt lat="47.27325" lon="-1.65755">
        <ele>61.5</ele>
        <time>2011-07-28T15:54:03Z</time>
      </trkpt>
      <trkpt lat="47.27319" lon="-1.65745">
        <ele>61.1</ele>
        <time>2011-07-28T15:54:04Z</time>
      </trkpt>
      <trkpt lat="47.27313" lon="-1.65735">
        <ele>60.6</ele>
        <time>2011-07-28T15:54:05Z</time>
      </trkpt>
      <trkpt lat="47.27307" lon="-1.65726">
        <ele>60.2</ele>
        <time>2011-07-28T15:54:06Z</time>
      </trkpt>
      <trkpt lat="47.27302" lon="-1.65717">
        <ele>60</ele>
        <time>2011-07-28T15:54:07Z</time>
      </trkpt>
      <trkpt lat="47.27296" lon="-1.65709">
        <ele>59.8</ele>
        <time>2011-07-28T15:54:08Z</time>
      </trkpt>
      <trkpt lat="47.2729" lon="-1.65701">
        <ele>60</ele>
        <time>2011-07-28T15:54:09Z</time>
      </trkpt>
      <trkpt lat="47.27284" lon="-1.65694">
        <ele>60.3</ele>
        <time>2011-07-28T15:54:10Z</time>
      </trkpt>
      <trkpt lat="47.27277" lon="-1.65686">
        <ele>60.4</ele>
        <time>2011-07-28T15:54:11Z</time>
      </trkpt>
      <trkpt lat="47.27271" lon="-1.65679">
        <ele>60.2</ele>
        <time>2011-07-28T15:54:12Z</time>
      </trkpt>
      <trkpt lat="47.27265" lon="-1.65672">
        <ele>60.1</ele>
        <time>2011-07-28T15:54:13Z</time>
      </trkpt>
      <trkpt lat="47.27259" lon="-1.65664">
        <ele>60</ele>
        <time>2011-07-28T15:54:14Z</time>
      </trkpt>
      <trkpt lat="47.27253" lon="-1.65657">
        <ele>59.8</ele>
        <time>2011-07-28T15:54:15Z</time>
      </trkpt>
      <trkpt lat="47.27249" lon="-1.65651">
        <ele>59.5</ele>
        <time>2011-07-28T15:54:16Z</time>
      </trkpt>
      <trkpt lat="47.27244" lon="-1.65646">
        <ele>59.4</ele>
        <time>2011-07-28T15:54:17Z</time>
      </trkpt>
      <trkpt lat="47.27239" lon="-1.65644">
        <ele>59.1</ele>
        <time>2011-07-28T15:54:18Z</time>
      </trkpt>
      <trkpt lat="47.27234" lon="-1.65646">
        <ele>58.8</ele>
        <time>2011-07-28T15:54:19Z</time>
      </trkpt>
      <trkpt lat="47.27229" lon="-1.65648">
        <ele>58.6</ele>
        <time>2011-07-28T15:54:20Z</time>
      </trkpt>
      <trkpt lat="47.27222" lon="-1.65649">
        <ele>58.4</ele>
        <time>2011-07-28T15:54:21Z</time>
      </trkpt>
      <trkpt lat="47.27215" lon="-1.65649">
        <ele>58.2</ele>
        <time>2011-07-28T15:54:22Z</time>
      </trkpt>
      <trkpt lat="47.27208" lon="-1.65648">
        <ele>58.1</ele>
        <time>2011-07-28T15:54:23Z</time>
      </trkpt>
      <trkpt lat="47.272" lon="-1.65646">
        <ele>57.6</ele>
        <time>2011-07-28T15:54:24Z</time>
      </trkpt>
      <trkpt lat="47.27193" lon="-1.65644">
        <ele>57.2</ele>
        <time>2011-07-28T15:54:25Z</time>
      </trkpt>
      <trkpt lat="47.27184" lon="-1.65642">
        <ele>57</ele>
        <time>2011-07-28T15:54:26Z</time>
      </trkpt>
      <trkpt lat="47.27176" lon="-1.65641">
        <ele>56.8</ele>
        <time>2011-07-28T15:54:27Z</time>
      </trkpt>
      <trkpt lat="47.27168" lon="-1.6564">
        <ele>57</ele>
        <time>2011-07-28T15:54:28Z</time>
      </trkpt>
      <trkpt lat="47.2716" lon="-1.65641">
        <ele>57.1</ele>
        <time>2011-07-28T15:54:29Z</time>
      </trkpt>
      <trkpt lat="47.27151" lon="-1.65642">
        <ele>57.3</ele>
        <time>2011-07-28T15:54:30Z</time>
      </trkpt>
      <trkpt lat="47.27144" lon="-1.65644">
        <ele>56.6</ele>
        <time>2011-07-28T15:54:31Z</time>
      </trkpt>
      <trkpt lat="47.27137" lon="-1.65647">
        <ele>56.1</ele>
        <time>2011-07-28T15:54:32Z</time>
      </trkpt>
      <trkpt lat="47.2713" lon="-1.6565">
        <ele>55.8</ele>
        <time>2011-07-28T15:54:33Z</time>
      </trkpt>
      <trkpt lat="47.27122" lon="-1.65651">
        <ele>55.4</ele>
        <time>2011-07-28T15:54:34Z</time>
      </trkpt>
      <trkpt lat="47.27114" lon="-1.65653">
        <ele>55.1</ele>
        <time>2011-07-28T15:54:35Z</time>
      </trkpt>
      <trkpt lat="47.27105" lon="-1.65656">
        <ele>54.9</ele>
        <time>2011-07-28T15:54:36Z</time>
      </trkpt>
      <trkpt lat="47.27096" lon="-1.65658">
        <ele>54.6</ele>
        <time>2011-07-28T15:54:37Z</time>
      </trkpt>
      <trkpt lat="47.27088" lon="-1.6566">
        <ele>54.4</ele>
        <time>2011-07-28T15:54:38Z</time>
      </trkpt>
      <trkpt lat="47.27079" lon="-1.65662">
        <ele>54.3</ele>
        <time>2011-07-28T15:54:39Z</time>
      </trkpt>
      <trkpt lat="47.2707" lon="-1.6566">
        <ele>54</ele>
        <time>2011-07-28T15:54:40Z</time>
      </trkpt>
      <trkpt lat="47.27063" lon="-1.65657">
        <ele>53.8</ele>
        <time>2011-07-28T15:54:41Z</time>
      </trkpt>
      <trkpt lat="47.27055" lon="-1.65654">
        <ele>53.7</ele>
        <time>2011-07-28T15:54:42Z</time>
      </trkpt>
      <trkpt lat="47.27047" lon="-1.65652">
        <ele>53.5</ele>
        <time>2011-07-28T15:54:43Z</time>
      </trkpt>
      <trkpt lat="47.27039" lon="-1.65651">
        <ele>53.2</ele>
        <time>2011-07-28T15:54:44Z</time>
      </trkpt>
      <trkpt lat="47.2703" lon="-1.65649">
        <ele>52.9</ele>
        <time>2011-07-28T15:54:45Z</time>
      </trkpt>
      <trkpt lat="47.27024" lon="-1.65649">
        <ele>52.7</ele>
        <time>2011-07-28T15:54:46Z</time>
      </trkpt>
      <trkpt lat="47.27017" lon="-1.6565">
        <ele>51.8</ele>
        <time>2011-07-28T15:54:47Z</time>
      </trkpt>
      <trkpt lat="47.27012" lon="-1.65649">
        <ele>51.1</ele>
        <time>2011-07-28T15:54:48Z</time>
      </trkpt>
      <trkpt lat="47.27006" lon="-1.65649">
        <ele>50.6</ele>
        <time>2011-07-28T15:54:49Z</time>
      </trkpt>
      <trkpt lat="47.27001" lon="-1.65649">
        <ele>49.9</ele>
        <time>2011-07-28T15:54:50Z</time>
      </trkpt>
      <trkpt lat="47.26997" lon="-1.65649">
        <ele>49.4</ele>
        <time>2011-07-28T15:54:51Z</time>
      </trkpt>
      <trkpt lat="47.26992" lon="-1.65648">
        <ele>49</ele>
        <time>2011-07-28T15:54:52Z</time>
      </trkpt>
      <trkpt lat="47.26987" lon="-1.65646">
        <ele>48.3</ele>
        <time>2011-07-28T15:54:53Z</time>
      </trkpt>
      <trkpt lat="47.26981" lon="-1.65643">
        <ele>47.8</ele>
        <time>2011-07-28T15:54:54Z</time>
      </trkpt>
      <trkpt lat="47.26976" lon="-1.6564">
        <ele>47.4</ele>
        <time>2011-07-28T15:54:55Z</time>
      </trkpt>
      <trkpt lat="47.26969" lon="-1.65639">
        <ele>46.4</ele>
        <time>2011-07-28T15:54:56Z</time>
      </trkpt>
      <trkpt lat="47.26964" lon="-1.65639">
        <ele>45.6</ele>
        <time>2011-07-28T15:54:57Z</time>
      </trkpt>
      <trkpt lat="47.26959" lon="-1.65638">
        <ele>45.1</ele>
        <time>2011-07-28T15:54:58Z</time>
      </trkpt>
      <trkpt lat="47.26956" lon="-1.65636">
        <ele>44.6</ele>
        <time>2011-07-28T15:54:59Z</time>
      </trkpt>
      <trkpt lat="47.26951" lon="-1.65632">
        <ele>43.5</ele>
        <time>2011-07-28T15:55:00Z</time>
      </trkpt>
      <trkpt lat="47.26947" lon="-1.65628">
        <ele>42.6</ele>
        <time>2011-07-28T15:55:01Z</time>
      </trkpt>
      <trkpt lat="47.26942" lon="-1.65625">
        <ele>41.9</ele>
        <time>2011-07-28T15:55:02Z</time>
      </trkpt>
      <trkpt lat="47.26937" lon="-1.65622">
        <ele>41.2</ele>
        <time>2011-07-28T15:55:03Z</time>
      </trkpt>
      <trkpt lat="47.26933" lon="-1.6562">
        <ele>40.2</ele>
        <time>2011-07-28T15:55:04Z</time>
      </trkpt>
      <trkpt lat="47.26928" lon="-1.65617">
        <ele>39.9</ele>
        <time>2011-07-28T15:55:05Z</time>
      </trkpt>
      <trkpt lat="47.26923" lon="-1.65614">
        <ele>38.6</ele>
        <time>2011-07-28T15:55:06Z</time>
      </trkpt>
      <trkpt lat="47.26919" lon="-1.65611">
        <ele>37.7</ele>
        <time>2011-07-28T15:55:07Z</time>
      </trkpt>
      <trkpt lat="47.26915" lon="-1.65608">
        <ele>37</ele>
        <time>2011-07-28T15:55:08Z</time>
      </trkpt>
      <trkpt lat="47.26909" lon="-1.65603">
        <ele>36.4</ele>
        <time>2011-07-28T15:55:09Z</time>
      </trkpt>
      <trkpt lat="47.26905" lon="-1.65598">
        <ele>36</ele>
        <time>2011-07-28T15:55:10Z</time>
      </trkpt>
      <trkpt lat="47.269" lon="-1.65592">
        <ele>35.7</ele>
        <time>2011-07-28T15:55:11Z</time>
      </trkpt>
      <trkpt lat="47.26895" lon="-1.65587">
        <ele>35.5</ele>
        <time>2011-07-28T15:55:12Z</time>
      </trkpt>
      <trkpt lat="47.26892" lon="-1.65583">
        <ele>35.3</ele>
        <time>2011-07-28T15:55:13Z</time>
      </trkpt>
      <trkpt lat="47.26889" lon="-1.6558">
        <ele>35.1</ele>
        <time>2011-07-28T15:55:14Z</time>
      </trkpt>
      <trkpt lat="47.26887" lon="-1.65579">
        <ele>34.7</ele>
        <time>2011-07-28T15:55:15Z</time>
      </trkpt>
      <trkpt lat="47.26882" lon="-1.65577">
        <ele>34</ele>
        <time>2011-07-28T15:55:18Z</time>
      </trkpt>
      <trkpt lat="47.26879" lon="-1.65575">
        <ele>33.7</ele>
        <time>2011-07-28T15:55:21Z</time>
      </trkpt>
      <trkpt lat="47.26876" lon="-1.65571">
        <ele>33.8</ele>
        <time>2011-07-28T15:55:24Z</time>
      </trkpt>
      <trkpt lat="47.26873" lon="-1.65568">
        <ele>33.4</ele>
        <time>2011-07-28T15:55:26Z</time>
      </trkpt>
      <trkpt lat="47.2687" lon="-1.65566">
        <ele>33.4</ele>
        <time>2011-07-28T15:55:28Z</time>
      </trkpt>
      <trkpt lat="47.26867" lon="-1.65563">
        <ele>33.5</ele>
        <time>2011-07-28T15:55:30Z</time>
      </trkpt>
      <trkpt lat="47.26865" lon="-1.65561">
        <ele>33.7</ele>
        <time>2011-07-28T15:55:32Z</time>
      </trkpt>
      <trkpt lat="47.26861" lon="-1.65559">
        <ele>33.9</ele>
        <time>2011-07-28T15:55:34Z</time>
      </trkpt>
      <trkpt lat="47.26859" lon="-1.65557">
        <ele>33.8</ele>
        <time>2011-07-28T15:55:36Z</time>
      </trkpt>
      <trkpt lat="47.26855" lon="-1.65554">
        <ele>34.3</ele>
        <time>2011-07-28T15:55:39Z</time>
      </trkpt>
      <trkpt lat="47.26855" lon="-1.65553">
        <ele>34.5</ele>
        <time>2011-07-28T15:55:40Z</time>
      </trkpt>
      <trkpt lat="47.26849" lon="-1.65546">
        <ele>34.7</ele>
        <time>2011-07-28T15:55:51Z</time>
      </trkpt>
      <trkpt lat="47.26846" lon="-1.65542">
        <ele>33.8</ele>
        <time>2011-07-28T15:55:59Z</time>
      </trkpt>
      <trkpt lat="47.26843" lon="-1.65537">
        <ele>34.1</ele>
        <time>2011-07-28T15:56:14Z</time>
      </trkpt>
      <trkpt lat="47.26839" lon="-1.6554">
        <ele>33.8</ele>
        <time>2011-07-28T15:57:55Z</time>
      </trkpt>
      <trkpt lat="47.26838" lon="-1.6554">
        <ele>34</ele>
        <time>2011-07-28T15:57:56Z</time>
      </trkpt>
      <trkpt lat="47.26832" lon="-1.65538">
        <ele>34.4</ele>
        <time>2011-07-28T15:58:00Z</time>
      </trkpt>
      <trkpt lat="47.2683" lon="-1.65537">
        <ele>34.4</ele>
        <time>2011-07-28T15:58:01Z</time>
      </trkpt>
      <trkpt lat="47.26827" lon="-1.65536">
        <ele>34.1</ele>
        <time>2011-07-28T15:58:02Z</time>
      </trkpt>
      <trkpt lat="47.26825" lon="-1.65537">
        <ele>33.9</ele>
        <time>2011-07-28T15:58:03Z</time>
      </trkpt>
      <trkpt lat="47.26822" lon="-1.65538">
        <ele>33.7</ele>
        <time>2011-07-28T15:58:04Z</time>
      </trkpt>
      <trkpt lat="47.2682" lon="-1.65538">
        <ele>33.8</ele>
        <time>2011-07-28T15:58:05Z</time>
      </trkpt>
      <trkpt lat="47.26816" lon="-1.65539">
        <ele>33.9</ele>
        <time>2011-07-28T15:58:08Z</time>
      </trkpt>
      <trkpt lat="47.26812" lon="-1.65535">
        <ele>33.7</ele>
        <time>2011-07-28T15:58:45Z</time>
      </trkpt>
      <trkpt lat="47.26816" lon="-1.65534">
        <ele>33.4</ele>
        <time>2011-07-28T15:59:58Z</time>
      </trkpt>
      <trkpt lat="47.26816" lon="-1.65533">
        <ele>33.4</ele>
        <time>2011-07-28T15:59:59Z</time>
      </trkpt>
      <trkpt lat="47.26812" lon="-1.65533">
        <ele>34.1</ele>
        <time>2011-07-28T16:01:13Z</time>
      </trkpt>
      <trkpt lat="47.26812" lon="-1.6554">
        <ele>34.1</ele>
        <time>2011-07-28T16:03:45Z</time>
      </trkpt>
      <trkpt lat="47.26808" lon="-1.65544">
        <ele>36.1</ele>
        <time>2011-07-28T16:05:28Z</time>
      </trkpt>
      <trkpt lat="47.26801" lon="-1.65546">
        <ele>35.9</ele>
        <time>2011-07-28T16:05:40Z</time>
      </trkpt>
      <trkpt lat="47.26798" lon="-1.65547">
        <ele>36.2</ele>
        <time>2011-07-28T16:05:42Z</time>
      </trkpt>
      <trkpt lat="47.26795" lon="-1.65548">
        <ele>36.2</ele>
        <time>2011-07-28T16:05:44Z</time>
      </trkpt>
      <trkpt lat="47.26791" lon="-1.65548">
        <ele>35.9</ele>
        <time>2011-07-28T16:05:46Z</time>
      </trkpt>
      <trkpt lat="47.26788" lon="-1.65548">
        <ele>36.3</ele>
        <time>2011-07-28T16:05:48Z</time>
      </trkpt>
      <trkpt lat="47.26784" lon="-1.65548">
        <ele>36.8</ele>
        <time>2011-07-28T16:05:50Z</time>
      </trkpt>
      <trkpt lat="47.2678" lon="-1.65546">
        <ele>37.5</ele>
        <time>2011-07-28T16:05:53Z</time>
      </trkpt>
      <trkpt lat="47.26779" lon="-1.65542">
        <ele>37.9</ele>
        <time>2011-07-28T16:05:56Z</time>
      </trkpt>
      <trkpt lat="47.26777" lon="-1.65537">
        <ele>38.4</ele>
        <time>2011-07-28T16:05:59Z</time>
      </trkpt>
      <trkpt lat="47.26774" lon="-1.65534">
        <ele>39</ele>
        <time>2011-07-28T16:06:02Z</time>
      </trkpt>
      <trkpt lat="47.26773" lon="-1.65527">
        <ele>39.1</ele>
        <time>2011-07-28T16:06:05Z</time>
      </trkpt>
      <trkpt lat="47.26772" lon="-1.65522">
        <ele>39.1</ele>
        <time>2011-07-28T16:06:07Z</time>
      </trkpt>
      <trkpt lat="47.26772" lon="-1.65517">
        <ele>39.4</ele>
        <time>2011-07-28T16:06:10Z</time>
      </trkpt>
      <trkpt lat="47.26773" lon="-1.65514">
        <ele>39.6</ele>
        <time>2011-07-28T16:06:11Z</time>
      </trkpt>
      <trkpt lat="47.26774" lon="-1.65508">
        <ele>39.5</ele>
        <time>2011-07-28T16:06:13Z</time>
      </trkpt>
      <trkpt lat="47.26773" lon="-1.65502">
        <ele>39.1</ele>
        <time>2011-07-28T16:06:15Z</time>
      </trkpt>
      <trkpt lat="47.26773" lon="-1.65498">
        <ele>38.8</ele>
        <time>2011-07-28T16:06:16Z</time>
      </trkpt>
      <trkpt lat="47.26772" lon="-1.65494">
        <ele>38.5</ele>
        <time>2011-07-28T16:06:17Z</time>
      </trkpt>
      <trkpt lat="47.26772" lon="-1.65487">
        <ele>38.5</ele>
        <time>2011-07-28T16:06:19Z</time>
      </trkpt>
      <trkpt lat="47.26771" lon="-1.65484">
        <ele>38.6</ele>
        <time>2011-07-28T16:06:20Z</time>
      </trkpt>
      <trkpt lat="47.26769" lon="-1.65478">
        <ele>38.7</ele>
        <time>2011-07-28T16:06:22Z</time>
      </trkpt>
      <trkpt lat="47.26769" lon="-1.65475">
        <ele>39.1</ele>
        <time>2011-07-28T16:06:23Z</time>
      </trkpt>
      <trkpt lat="47.26768" lon="-1.65471">
        <ele>39.5</ele>
        <time>2011-07-28T16:06:24Z</time>
      </trkpt>
      <trkpt lat="47.26768" lon="-1.65465">
        <ele>39.6</ele>
        <time>2011-07-28T16:06:26Z</time>
      </trkpt>
      <trkpt lat="47.26769" lon="-1.65462">
        <ele>39.4</ele>
        <time>2011-07-28T16:06:27Z</time>
      </trkpt>
      <trkpt lat="47.26769" lon="-1.65455">
        <ele>39.1</ele>
        <time>2011-07-28T16:06:29Z</time>
      </trkpt>
      <trkpt lat="47.26769" lon="-1.65452">
        <ele>38.9</ele>
        <time>2011-07-28T16:06:30Z</time>
      </trkpt>
      <trkpt lat="47.26768" lon="-1.65444">
        <ele>39.2</ele>
        <time>2011-07-28T16:06:33Z</time>
      </trkpt>
      <trkpt lat="47.26767" lon="-1.6544">
        <ele>39.3</ele>
        <time>2011-07-28T16:06:35Z</time>
      </trkpt>
      <trkpt lat="47.26767" lon="-1.65433">
        <ele>39.2</ele>
        <time>2011-07-28T16:06:38Z</time>
      </trkpt>
      <trkpt lat="47.26766" lon="-1.65428">
        <ele>38.8</ele>
        <time>2011-07-28T16:06:40Z</time>
      </trkpt>
      <trkpt lat="47.26765" lon="-1.65424">
        <ele>38.7</ele>
        <time>2011-07-28T16:06:42Z</time>
      </trkpt>
      <trkpt lat="47.26764" lon="-1.65418">
        <ele>38.8</ele>
        <time>2011-07-28T16:06:45Z</time>
      </trkpt>
      <trkpt lat="47.26764" lon="-1.65414">
        <ele>38.7</ele>
        <time>2011-07-28T16:06:47Z</time>
      </trkpt>
      <trkpt lat="47.26763" lon="-1.65409">
        <ele>39.4</ele>
        <time>2011-07-28T16:06:49Z</time>
      </trkpt>
      <trkpt lat="47.26761" lon="-1.65403">
        <ele>39.6</ele>
        <time>2011-07-28T16:06:52Z</time>
      </trkpt>
      <trkpt lat="47.26759" lon="-1.65398">
        <ele>39.7</ele>
        <time>2011-07-28T16:06:55Z</time>
      </trkpt>
      <trkpt lat="47.26758" lon="-1.65394">
        <ele>40.1</ele>
        <time>2011-07-28T16:06:57Z</time>
      </trkpt>
      <trkpt lat="47.26756" lon="-1.65388">
        <ele>40.7</ele>
        <time>2011-07-28T16:07:00Z</time>
      </trkpt>
      <trkpt lat="47.26755" lon="-1.65384">
        <ele>40.9</ele>
        <time>2011-07-28T16:07:02Z</time>
      </trkpt>
      <trkpt lat="47.26753" lon="-1.6538">
        <ele>40.9</ele>
        <time>2011-07-28T16:07:04Z</time>
      </trkpt>
      <trkpt lat="47.2675" lon="-1.65377">
        <ele>41</ele>
        <time>2011-07-28T16:07:06Z</time>
      </trkpt>
      <trkpt lat="47.26748" lon="-1.65373">
        <ele>41.3</ele>
        <time>2011-07-28T16:07:08Z</time>
      </trkpt>
      <trkpt lat="47.26745" lon="-1.6537">
        <ele>41.4</ele>
        <time>2011-07-28T16:07:10Z</time>
      </trkpt>
      <trkpt lat="47.26742" lon="-1.65366">
        <ele>41.3</ele>
        <time>2011-07-28T16:07:13Z</time>
      </trkpt>
      <trkpt lat="47.26738" lon="-1.65363">
        <ele>42</ele>
        <time>2011-07-28T16:07:16Z</time>
      </trkpt>
      <trkpt lat="47.26736" lon="-1.65357">
        <ele>43.1</ele>
        <time>2011-07-28T16:07:22Z</time>
      </trkpt>
      <trkpt lat="47.26733" lon="-1.65352">
        <ele>43.9</ele>
        <time>2011-07-28T16:07:31Z</time>
      </trkpt>
      <trkpt lat="47.26733" lon="-1.65351">
        <ele>43.9</ele>
        <time>2011-07-28T16:07:32Z</time>
      </trkpt>
      <trkpt lat="47.2674" lon="-1.65347">
        <ele>42.9</ele>
        <time>2011-07-28T16:07:42Z</time>
      </trkpt>
      <trkpt lat="47.26744" lon="-1.65344">
        <ele>42.2</ele>
        <time>2011-07-28T16:07:44Z</time>
      </trkpt>
      <trkpt lat="47.26747" lon="-1.6534">
        <ele>41.1</ele>
        <time>2011-07-28T16:07:46Z</time>
      </trkpt>
      <trkpt lat="47.26749" lon="-1.65337">
        <ele>39.9</ele>
        <time>2011-07-28T16:07:48Z</time>
      </trkpt>
      <trkpt lat="47.2675" lon="-1.65334">
        <ele>39.3</ele>
        <time>2011-07-28T16:07:49Z</time>
      </trkpt>
      <trkpt lat="47.26751" lon="-1.65329">
        <ele>38.8</ele>
        <time>2011-07-28T16:07:50Z</time>
      </trkpt>
      <trkpt lat="47.26753" lon="-1.65324">
        <ele>38</ele>
        <time>2011-07-28T16:07:52Z</time>
      </trkpt>
      <trkpt lat="47.26756" lon="-1.6532">
        <ele>35.9</ele>
        <time>2011-07-28T16:08:03Z</time>
      </trkpt>
      <trkpt lat="47.26759" lon="-1.65317">
        <ele>35.9</ele>
        <time>2011-07-28T16:08:15Z</time>
      </trkpt>
      <trkpt lat="47.26764" lon="-1.65315">
        <ele>35.9</ele>
        <time>2011-07-28T16:08:25Z</time>
      </trkpt>
      <trkpt lat="47.26767" lon="-1.65313">
        <ele>35.2</ele>
        <time>2011-07-28T16:08:38Z</time>
      </trkpt>
      <trkpt lat="47.26768" lon="-1.65313">
        <ele>35.1</ele>
        <time>2011-07-28T16:08:39Z</time>
      </trkpt>
      <trkpt lat="47.26771" lon="-1.65303">
        <ele>34.8</ele>
        <time>2011-07-28T16:09:29Z</time>
      </trkpt>
      <trkpt lat="47.26772" lon="-1.65297">
        <ele>35.3</ele>
        <time>2011-07-28T16:09:32Z</time>
      </trkpt>
      <trkpt lat="47.26772" lon="-1.65293">
        <ele>35.3</ele>
        <time>2011-07-28T16:09:34Z</time>
      </trkpt>
      <trkpt lat="47.26772" lon="-1.65287">
        <ele>35</ele>
        <time>2011-07-28T16:09:36Z</time>
      </trkpt>
      <trkpt lat="47.26773" lon="-1.65283">
        <ele>34.9</ele>
        <time>2011-07-28T16:09:37Z</time>
      </trkpt>
      <trkpt lat="47.26775" lon="-1.6528">
        <ele>34.9</ele>
        <time>2011-07-28T16:09:38Z</time>
      </trkpt>
      <trkpt lat="47.26778" lon="-1.65275">
        <ele>34.8</ele>
        <time>2011-07-28T16:09:39Z</time>
      </trkpt>
      <trkpt lat="47.26782" lon="-1.65271">
        <ele>34.8</ele>
        <time>2011-07-28T16:09:40Z</time>
      </trkpt>
      <trkpt lat="47.26786" lon="-1.65266">
        <ele>34.7</ele>
        <time>2011-07-28T16:09:41Z</time>
      </trkpt>
      <trkpt lat="47.26788" lon="-1.65259">
        <ele>34.6</ele>
        <time>2011-07-28T16:09:42Z</time>
      </trkpt>
      <trkpt lat="47.26788" lon="-1.65252">
        <ele>34.6</ele>
        <time>2011-07-28T16:09:43Z</time>
      </trkpt>
      <trkpt lat="47.26786" lon="-1.65247">
        <ele>34.1</ele>
        <time>2011-07-28T16:09:44Z</time>
      </trkpt>
      <trkpt lat="47.26784" lon="-1.65241">
        <ele>33.7</ele>
        <time>2011-07-28T16:09:45Z</time>
      </trkpt>
      <trkpt lat="47.26782" lon="-1.65236">
        <ele>33.4</ele>
        <time>2011-07-28T16:09:46Z</time>
      </trkpt>
      <trkpt lat="47.26781" lon="-1.65231">
        <ele>33.2</ele>
        <time>2011-07-28T16:09:47Z</time>
      </trkpt>
      <trkpt lat="47.2678" lon="-1.65226">
        <ele>33</ele>
        <time>2011-07-28T16:09:48Z</time>
      </trkpt>
      <trkpt lat="47.2678" lon="-1.65222">
        <ele>32.9</ele>
        <time>2011-07-28T16:09:49Z</time>
      </trkpt>
      <trkpt lat="47.26782" lon="-1.65218">
        <ele>32.8</ele>
        <time>2011-07-28T16:09:50Z</time>
      </trkpt>
      <trkpt lat="47.26784" lon="-1.65215">
        <ele>32.7</ele>
        <time>2011-07-28T16:09:51Z</time>
      </trkpt>
      <trkpt lat="47.26787" lon="-1.6521">
        <ele>32.6</ele>
        <time>2011-07-28T16:09:52Z</time>
      </trkpt>
      <trkpt lat="47.26789" lon="-1.65207">
        <ele>32.5</ele>
        <time>2011-07-28T16:09:53Z</time>
      </trkpt>
      <trkpt lat="47.26791" lon="-1.65202">
        <ele>32.4</ele>
        <time>2011-07-28T16:09:54Z</time>
      </trkpt>
      <trkpt lat="47.26792" lon="-1.65198">
        <ele>32.3</ele>
        <time>2011-07-28T16:09:55Z</time>
      </trkpt>
      <trkpt lat="47.26793" lon="-1.65194">
        <ele>32.3</ele>
        <time>2011-07-28T16:09:56Z</time>
      </trkpt>
      <trkpt lat="47.26795" lon="-1.6519">
        <ele>32.5</ele>
        <time>2011-07-28T16:09:57Z</time>
      </trkpt>
      <trkpt lat="47.26796" lon="-1.65185">
        <ele>32.6</ele>
        <time>2011-07-28T16:09:58Z</time>
      </trkpt>
      <trkpt lat="47.26798" lon="-1.65182">
        <ele>32.7</ele>
        <time>2011-07-28T16:09:59Z</time>
      </trkpt>
      <trkpt lat="47.268" lon="-1.65177">
        <ele>32.6</ele>
        <time>2011-07-28T16:10:00Z</time>
      </trkpt>
      <trkpt lat="47.26801" lon="-1.65173">
        <ele>32.5</ele>
        <time>2011-07-28T16:10:01Z</time>
      </trkpt>
      <trkpt lat="47.26802" lon="-1.65169">
        <ele>32.5</ele>
        <time>2011-07-28T16:10:02Z</time>
      </trkpt>
      <trkpt lat="47.26803" lon="-1.65166">
        <ele>32</ele>
        <time>2011-07-28T16:10:03Z</time>
      </trkpt>
      <trkpt lat="47.26805" lon="-1.65162">
        <ele>31.6</ele>
        <time>2011-07-28T16:10:04Z</time>
      </trkpt>
      <trkpt lat="47.26808" lon="-1.65158">
        <ele>31.4</ele>
        <time>2011-07-28T16:10:05Z</time>
      </trkpt>
      <trkpt lat="47.26811" lon="-1.65154">
        <ele>32</ele>
        <time>2011-07-28T16:10:06Z</time>
      </trkpt>
      <trkpt lat="47.26813" lon="-1.65149">
        <ele>32.4</ele>
        <time>2011-07-28T16:10:07Z</time>
      </trkpt>
      <trkpt lat="47.26814" lon="-1.65143">
        <ele>32.7</ele>
        <time>2011-07-28T16:10:08Z</time>
      </trkpt>
      <trkpt lat="47.26817" lon="-1.65138">
        <ele>32.8</ele>
        <time>2011-07-28T16:10:09Z</time>
      </trkpt>
      <trkpt lat="47.26819" lon="-1.65133">
        <ele>32.8</ele>
        <time>2011-07-28T16:10:10Z</time>
      </trkpt>
      <trkpt lat="47.26821" lon="-1.65128">
        <ele>32.8</ele>
        <time>2011-07-28T16:10:11Z</time>
      </trkpt>
      <trkpt lat="47.26823" lon="-1.65123">
        <ele>32.8</ele>
        <time>2011-07-28T16:10:12Z</time>
      </trkpt>
      <trkpt lat="47.26824" lon="-1.65118">
        <ele>32.8</ele>
        <time>2011-07-28T16:10:13Z</time>
      </trkpt>
      <trkpt lat="47.26826" lon="-1.65113">
        <ele>32.8</ele>
        <time>2011-07-28T16:10:14Z</time>
      </trkpt>
      <trkpt lat="47.26827" lon="-1.65108">
        <ele>32.7</ele>
        <time>2011-07-28T16:10:15Z</time>
      </trkpt>
      <trkpt lat="47.26829" lon="-1.65103">
        <ele>32.7</ele>
        <time>2011-07-28T16:10:16Z</time>
      </trkpt>
      <trkpt lat="47.2683" lon="-1.65098">
        <ele>32.7</ele>
        <time>2011-07-28T16:10:17Z</time>
      </trkpt>
      <trkpt lat="47.26832" lon="-1.65093">
        <ele>32.6</ele>
        <time>2011-07-28T16:10:18Z</time>
      </trkpt>
      <trkpt lat="47.26832" lon="-1.65088">
        <ele>32.8</ele>
        <time>2011-07-28T16:10:19Z</time>
      </trkpt>
      <trkpt lat="47.26833" lon="-1.65083">
        <ele>33</ele>
        <time>2011-07-28T16:10:20Z</time>
      </trkpt>
      <trkpt lat="47.26834" lon="-1.65077">
        <ele>33.1</ele>
        <time>2011-07-28T16:10:21Z</time>
      </trkpt>
      <trkpt lat="47.26835" lon="-1.65073">
        <ele>33.3</ele>
        <time>2011-07-28T16:10:22Z</time>
      </trkpt>
      <trkpt lat="47.26836" lon="-1.65068">
        <ele>33.5</ele>
        <time>2011-07-28T16:10:23Z</time>
      </trkpt>
      <trkpt lat="47.26837" lon="-1.65064">
        <ele>33.6</ele>
        <time>2011-07-28T16:10:24Z</time>
      </trkpt>
      <trkpt lat="47.26839" lon="-1.65058">
        <ele>33.1</ele>
        <time>2011-07-28T16:10:26Z</time>
      </trkpt>
      <trkpt lat="47.2684" lon="-1.65053">
        <ele>33.6</ele>
        <time>2011-07-28T16:10:30Z</time>
      </trkpt>
      <trkpt lat="47.26842" lon="-1.65048">
        <ele>33.2</ele>
        <time>2011-07-28T16:10:35Z</time>
      </trkpt>
      <trkpt lat="47.26844" lon="-1.65042">
        <ele>33.5</ele>
        <time>2011-07-28T16:10:42Z</time>
      </trkpt>
      <trkpt lat="47.26844" lon="-1.65041">
        <ele>33.6</ele>
        <time>2011-07-28T16:10:43Z</time>
      </trkpt>
      <trkpt lat="47.26848" lon="-1.65031">
        <ele>33.1</ele>
        <time>2011-07-28T16:11:02Z</time>
      </trkpt>
      <trkpt lat="47.26849" lon="-1.65025">
        <ele>33</ele>
        <time>2011-07-28T16:11:27Z</time>
      </trkpt>
      <trkpt lat="47.26849" lon="-1.65019">
        <ele>33.4</ele>
        <time>2011-07-28T16:11:45Z</time>
      </trkpt>
      <trkpt lat="47.26848" lon="-1.65018">
        <ele>33.4</ele>
        <time>2011-07-28T16:11:46Z</time>
      </trkpt>
      <trkpt lat="47.26849" lon="-1.65029">
        <ele>33.3</ele>
        <time>2011-07-28T16:11:59Z</time>
      </trkpt>
      <trkpt lat="47.26849" lon="-1.65033">
        <ele>33.1</ele>
        <time>2011-07-28T16:12:00Z</time>
      </trkpt>
      <trkpt lat="47.26848" lon="-1.65036">
        <ele>33.3</ele>
        <time>2011-07-28T16:12:01Z</time>
      </trkpt>
      <trkpt lat="47.26848" lon="-1.6504">
        <ele>33.4</ele>
        <time>2011-07-28T16:12:02Z</time>
      </trkpt>
      <trkpt lat="47.26847" lon="-1.65044">
        <ele>33.4</ele>
        <time>2011-07-28T16:12:03Z</time>
      </trkpt>
      <trkpt lat="47.26847" lon="-1.65047">
        <ele>33.3</ele>
        <time>2011-07-28T16:12:04Z</time>
      </trkpt>
      <trkpt lat="47.26845" lon="-1.65053">
        <ele>33.1</ele>
        <time>2011-07-28T16:12:06Z</time>
      </trkpt>
      <trkpt lat="47.26844" lon="-1.65058">
        <ele>33.3</ele>
        <time>2011-07-28T16:12:08Z</time>
      </trkpt>
      <trkpt lat="47.26843" lon="-1.65063">
        <ele>33.4</ele>
        <time>2011-07-28T16:12:10Z</time>
      </trkpt>
      <trkpt lat="47.26841" lon="-1.65069">
        <ele>32.6</ele>
        <time>2011-07-28T16:12:12Z</time>
      </trkpt>
      <trkpt lat="47.2684" lon="-1.65074">
        <ele>32.4</ele>
        <time>2011-07-28T16:12:14Z</time>
      </trkpt>
      <trkpt lat="47.26839" lon="-1.65077">
        <ele>32.5</ele>
        <time>2011-07-28T16:12:15Z</time>
      </trkpt>
      <trkpt lat="47.26837" lon="-1.65081">
        <ele>32.6</ele>
        <time>2011-07-28T16:12:16Z</time>
      </trkpt>
      <trkpt lat="47.26836" lon="-1.65084">
        <ele>32.8</ele>
        <time>2011-07-28T16:12:17Z</time>
      </trkpt>
      <trkpt lat="47.26835" lon="-1.65088">
        <ele>32.9</ele>
        <time>2011-07-28T16:12:18Z</time>
      </trkpt>
      <trkpt lat="47.26833" lon="-1.65093">
        <ele>32.9</ele>
        <time>2011-07-28T16:12:20Z</time>
      </trkpt>
      <trkpt lat="47.26832" lon="-1.65096">
        <ele>32.8</ele>
        <time>2011-07-28T16:12:21Z</time>
      </trkpt>
      <trkpt lat="47.2683" lon="-1.65099">
        <ele>32.7</ele>
        <time>2011-07-28T16:12:22Z</time>
      </trkpt>
      <trkpt lat="47.26829" lon="-1.65102">
        <ele>33</ele>
        <time>2011-07-28T16:12:23Z</time>
      </trkpt>
      <trkpt lat="47.26827" lon="-1.65105">
        <ele>33.2</ele>
        <time>2011-07-28T16:12:24Z</time>
      </trkpt>
      <trkpt lat="47.26825" lon="-1.65108">
        <ele>33.4</ele>
        <time>2011-07-28T16:12:26Z</time>
      </trkpt>
      <trkpt lat="47.26822" lon="-1.65104">
        <ele>34</ele>
        <time>2011-07-28T16:12:37Z</time>
      </trkpt>
      <trkpt lat="47.26824" lon="-1.65097">
        <ele>34.1</ele>
        <time>2011-07-28T16:12:41Z</time>
      </trkpt>
      <trkpt lat="47.26825" lon="-1.65092">
        <ele>34.3</ele>
        <time>2011-07-28T16:12:44Z</time>
      </trkpt>
      <trkpt lat="47.26826" lon="-1.65085">
        <ele>33.7</ele>
        <time>2011-07-28T16:12:48Z</time>
      </trkpt>
      <trkpt lat="47.26826" lon="-1.65084">
        <ele>34</ele>
        <time>2011-07-28T16:12:49Z</time>
      </trkpt>
      <trkpt lat="47.26828" lon="-1.65074">
        <ele>34.5</ele>
        <time>2011-07-28T16:12:58Z</time>
      </trkpt>
      <trkpt lat="47.26829" lon="-1.65068">
        <ele>35</ele>
        <time>2011-07-28T16:13:04Z</time>
      </trkpt>
      <trkpt lat="47.26829" lon="-1.65063">
        <ele>35</ele>
        <time>2011-07-28T16:13:10Z</time>
      </trkpt>
      <trkpt lat="47.2683" lon="-1.65057">
        <ele>35.2</ele>
        <time>2011-07-28T16:13:13Z</time>
      </trkpt>
      <trkpt lat="47.2683" lon="-1.65052">
        <ele>36</ele>
        <time>2011-07-28T16:13:15Z</time>
      </trkpt>
      <trkpt lat="47.2683" lon="-1.65047">
        <ele>36.5</ele>
        <time>2011-07-28T16:13:17Z</time>
      </trkpt>
      <trkpt lat="47.2683" lon="-1.65041">
        <ele>37.2</ele>
        <time>2011-07-28T16:13:21Z</time>
      </trkpt>
      <trkpt lat="47.2683" lon="-1.65035">
        <ele>37.5</ele>
        <time>2011-07-28T16:13:31Z</time>
      </trkpt>
      <trkpt lat="47.2683" lon="-1.65028">
        <ele>37.9</ele>
        <time>2011-07-28T16:13:41Z</time>
      </trkpt>
      <trkpt lat="47.26831" lon="-1.65023">
        <ele>38</ele>
        <time>2011-07-28T16:13:44Z</time>
      </trkpt>
      <trkpt lat="47.26831" lon="-1.65019">
        <ele>38</ele>
        <time>2011-07-28T16:13:46Z</time>
      </trkpt>
      <trkpt lat="47.2683" lon="-1.65012">
        <ele>38</ele>
        <time>2011-07-28T16:13:50Z</time>
      </trkpt>
      <trkpt lat="47.2683" lon="-1.65011">
        <ele>38.1</ele>
        <time>2011-07-28T16:13:51Z</time>
      </trkpt>
      <trkpt lat="47.26829" lon="-1.65">
        <ele>38.4</ele>
        <time>2011-07-28T16:14:13Z</time>
      </trkpt>
      <trkpt lat="47.26825" lon="-1.64998">
        <ele>38.2</ele>
        <time>2011-07-28T16:14:36Z</time>
      </trkpt>
      <trkpt lat="47.26822" lon="-1.64998">
        <ele>39.1</ele>
        <time>2011-07-28T16:14:38Z</time>
      </trkpt>
      <trkpt lat="47.26819" lon="-1.64998">
        <ele>39.6</ele>
        <time>2011-07-28T16:14:40Z</time>
      </trkpt>
      <trkpt lat="47.26815" lon="-1.64998">
        <ele>40.2</ele>
        <time>2011-07-28T16:14:42Z</time>
      </trkpt>
      <trkpt lat="47.26812" lon="-1.64999">
        <ele>40.7</ele>
        <time>2011-07-28T16:14:44Z</time>
      </trkpt>
      <trkpt lat="47.26809" lon="-1.64999">
        <ele>41</ele>
        <time>2011-07-28T16:14:46Z</time>
      </trkpt>
      <trkpt lat="47.26805" lon="-1.64999">
        <ele>42.5</ele>
        <time>2011-07-28T16:14:48Z</time>
      </trkpt>
      <trkpt lat="47.26801" lon="-1.64998">
        <ele>43.1</ele>
        <time>2011-07-28T16:14:50Z</time>
      </trkpt>
      <trkpt lat="47.26797" lon="-1.64997">
        <ele>43.2</ele>
        <time>2011-07-28T16:14:52Z</time>
      </trkpt>
      <trkpt lat="47.26795" lon="-1.64997">
        <ele>43.6</ele>
        <time>2011-07-28T16:14:53Z</time>
      </trkpt>
      <trkpt lat="47.2679" lon="-1.64996">
        <ele>44.3</ele>
        <time>2011-07-28T16:14:56Z</time>
      </trkpt>
      <trkpt lat="47.26786" lon="-1.64997">
        <ele>44.6</ele>
        <time>2011-07-28T16:14:58Z</time>
      </trkpt>
      <trkpt lat="47.26784" lon="-1.64996">
        <ele>44.7</ele>
        <time>2011-07-28T16:14:59Z</time>
      </trkpt>
      <trkpt lat="47.2678" lon="-1.64996">
        <ele>46</ele>
        <time>2011-07-28T16:15:01Z</time>
      </trkpt>
      <trkpt lat="47.26778" lon="-1.64996">
        <ele>46.4</ele>
        <time>2011-07-28T16:15:02Z</time>
      </trkpt>
      <trkpt lat="47.26774" lon="-1.64998">
        <ele>47.4</ele>
        <time>2011-07-28T16:15:04Z</time>
      </trkpt>
      <trkpt lat="47.2677" lon="-1.65">
        <ele>48.3</ele>
        <time>2011-07-28T16:15:06Z</time>
      </trkpt>
      <trkpt lat="47.26767" lon="-1.65003">
        <ele>49</ele>
        <time>2011-07-28T16:15:08Z</time>
      </trkpt>
      <trkpt lat="47.26764" lon="-1.65004">
        <ele>49.9</ele>
        <time>2011-07-28T16:15:10Z</time>
      </trkpt>
      <trkpt lat="47.26761" lon="-1.65005">
        <ele>50.3</ele>
        <time>2011-07-28T16:15:12Z</time>
      </trkpt>
      <trkpt lat="47.26757" lon="-1.65006">
        <ele>51.1</ele>
        <time>2011-07-28T16:15:14Z</time>
      </trkpt>
      <trkpt lat="47.26754" lon="-1.65006">
        <ele>51.8</ele>
        <time>2011-07-28T16:15:16Z</time>
      </trkpt>
      <trkpt lat="47.2675" lon="-1.65005">
        <ele>52.4</ele>
        <time>2011-07-28T16:15:18Z</time>
      </trkpt>
      <trkpt lat="47.26747" lon="-1.65003">
        <ele>52.7</ele>
        <time>2011-07-28T16:15:20Z</time>
      </trkpt>
      <trkpt lat="47.26743" lon="-1.65">
        <ele>53</ele>
        <time>2011-07-28T16:15:23Z</time>
      </trkpt>
      <trkpt lat="47.2674" lon="-1.64996">
        <ele>53.9</ele>
        <time>2011-07-28T16:15:26Z</time>
      </trkpt>
      <trkpt lat="47.26737" lon="-1.64993">
        <ele>54.7</ele>
        <time>2011-07-28T16:15:29Z</time>
      </trkpt>
      <trkpt lat="47.26733" lon="-1.64989">
        <ele>55.2</ele>
        <time>2011-07-28T16:15:32Z</time>
      </trkpt>
      <trkpt lat="47.2673" lon="-1.64987">
        <ele>55.4</ele>
        <time>2011-07-28T16:15:34Z</time>
      </trkpt>
      <trkpt lat="47.26727" lon="-1.64983">
        <ele>55.9</ele>
        <time>2011-07-28T16:15:37Z</time>
      </trkpt>
      <trkpt lat="47.26724" lon="-1.6498">
        <ele>55.5</ele>
        <time>2011-07-28T16:15:39Z</time>
      </trkpt>
      <trkpt lat="47.26722" lon="-1.64976">
        <ele>55.4</ele>
        <time>2011-07-28T16:15:41Z</time>
      </trkpt>
      <trkpt lat="47.26719" lon="-1.64973">
        <ele>55.4</ele>
        <time>2011-07-28T16:15:43Z</time>
      </trkpt>
      <trkpt lat="47.26716" lon="-1.6497">
        <ele>55.6</ele>
        <time>2011-07-28T16:15:45Z</time>
      </trkpt>
      <trkpt lat="47.26713" lon="-1.64967">
        <ele>56</ele>
        <time>2011-07-28T16:15:47Z</time>
      </trkpt>
      <trkpt lat="47.2671" lon="-1.64965">
        <ele>56.1</ele>
        <time>2011-07-28T16:15:49Z</time>
      </trkpt>
      <trkpt lat="47.26707" lon="-1.64962">
        <ele>56.6</ele>
        <time>2011-07-28T16:15:51Z</time>
      </trkpt>
      <trkpt lat="47.26704" lon="-1.6496">
        <ele>57.1</ele>
        <time>2011-07-28T16:15:53Z</time>
      </trkpt>
      <trkpt lat="47.26702" lon="-1.64958">
        <ele>57.2</ele>
        <time>2011-07-28T16:15:54Z</time>
      </trkpt>
      <trkpt lat="47.26698" lon="-1.64956">
        <ele>57.2</ele>
        <time>2011-07-28T16:15:57Z</time>
      </trkpt>
      <trkpt lat="47.26694" lon="-1.64955">
        <ele>57</ele>
        <time>2011-07-28T16:15:59Z</time>
      </trkpt>
      <trkpt lat="47.2669" lon="-1.64954">
        <ele>57.3</ele>
        <time>2011-07-28T16:16:47Z</time>
      </trkpt>
      <trkpt lat="47.26686" lon="-1.64952">
        <ele>58.5</ele>
        <time>2011-07-28T16:19:09Z</time>
      </trkpt>
      <trkpt lat="47.26686" lon="-1.64952">
        <ele>58.6</ele>
        <time>2011-07-28T16:19:10Z</time>
      </trkpt>
      <trkpt lat="47.26678" lon="-1.64949">
        <ele>59.4</ele>
        <time>2011-07-28T16:19:52Z</time>
      </trkpt>
      <trkpt lat="47.26675" lon="-1.64947">
        <ele>59.4</ele>
        <time>2011-07-28T16:19:54Z</time>
      </trkpt>
      <trkpt lat="47.26671" lon="-1.64944">
        <ele>59.4</ele>
        <time>2011-07-28T16:19:56Z</time>
      </trkpt>
      <trkpt lat="47.26668" lon="-1.64942">
        <ele>59.8</ele>
        <time>2011-07-28T16:19:58Z</time>
      </trkpt>
      <trkpt lat="47.26665" lon="-1.64938">
        <ele>59.7</ele>
        <time>2011-07-28T16:20:00Z</time>
      </trkpt>
      <trkpt lat="47.26662" lon="-1.64934">
        <ele>59.5</ele>
        <time>2011-07-28T16:20:02Z</time>
      </trkpt>
      <trkpt lat="47.26661" lon="-1.64932">
        <ele>59.9</ele>
        <time>2011-07-28T16:20:03Z</time>
      </trkpt>
      <trkpt lat="47.26659" lon="-1.64929">
        <ele>60.2</ele>
        <time>2011-07-28T16:20:04Z</time>
      </trkpt>
      <trkpt lat="47.26658" lon="-1.64926">
        <ele>60.4</ele>
        <time>2011-07-28T16:20:05Z</time>
      </trkpt>
      <trkpt lat="47.26656" lon="-1.64924">
        <ele>60.3</ele>
        <time>2011-07-28T16:20:06Z</time>
      </trkpt>
      <trkpt lat="47.26655" lon="-1.64921">
        <ele>60.2</ele>
        <time>2011-07-28T16:20:07Z</time>
      </trkpt>
      <trkpt lat="47.26653" lon="-1.64919">
        <ele>60.1</ele>
        <time>2011-07-28T16:20:08Z</time>
      </trkpt>
      <trkpt lat="47.26651" lon="-1.64916">
        <ele>60.4</ele>
        <time>2011-07-28T16:20:09Z</time>
      </trkpt>
      <trkpt lat="47.2665" lon="-1.64913">
        <ele>60.6</ele>
        <time>2011-07-28T16:20:10Z</time>
      </trkpt>
      <trkpt lat="47.26648" lon="-1.6491">
        <ele>60.7</ele>
        <time>2011-07-28T16:20:11Z</time>
      </trkpt>
      <trkpt lat="47.26646" lon="-1.64907">
        <ele>60.8</ele>
        <time>2011-07-28T16:20:12Z</time>
      </trkpt>
      <trkpt lat="47.26644" lon="-1.64905">
        <ele>61</ele>
        <time>2011-07-28T16:20:13Z</time>
      </trkpt>
      <trkpt lat="47.26642" lon="-1.64903">
        <ele>61.2</ele>
        <time>2011-07-28T16:20:14Z</time>
      </trkpt>
      <trkpt lat="47.26639" lon="-1.64902">
        <ele>61.4</ele>
        <time>2011-07-28T16:20:15Z</time>
      </trkpt>
      <trkpt lat="47.26637" lon="-1.649">
        <ele>61.2</ele>
        <time>2011-07-28T16:20:16Z</time>
      </trkpt>
      <trkpt lat="47.26635" lon="-1.64899">
        <ele>61.1</ele>
        <time>2011-07-28T16:20:17Z</time>
      </trkpt>
      <trkpt lat="47.26631" lon="-1.64897">
        <ele>61.2</ele>
        <time>2011-07-28T16:20:19Z</time>
      </trkpt>
      <trkpt lat="47.26628" lon="-1.64896">
        <ele>61.3</ele>
        <time>2011-07-28T16:20:20Z</time>
      </trkpt>
      <trkpt lat="47.26626" lon="-1.64895">
        <ele>61.4</ele>
        <time>2011-07-28T16:20:21Z</time>
      </trkpt>
      <trkpt lat="47.26622" lon="-1.64893">
        <ele>61.7</ele>
        <time>2011-07-28T16:20:23Z</time>
      </trkpt>
      <trkpt lat="47.26619" lon="-1.64893">
        <ele>62.1</ele>
        <time>2011-07-28T16:20:25Z</time>
      </trkpt>
      <trkpt lat="47.26616" lon="-1.64891">
        <ele>62.2</ele>
        <time>2011-07-28T16:20:26Z</time>
      </trkpt>
      <trkpt lat="47.26613" lon="-1.6489">
        <ele>62.4</ele>
        <time>2011-07-28T16:20:27Z</time>
      </trkpt>
      <trkpt lat="47.26611" lon="-1.64889">
        <ele>62.5</ele>
        <time>2011-07-28T16:20:28Z</time>
      </trkpt>
      <trkpt lat="47.26609" lon="-1.64888">
        <ele>62.8</ele>
        <time>2011-07-28T16:20:29Z</time>
      </trkpt>
      <trkpt lat="47.26606" lon="-1.64886">
        <ele>63</ele>
        <time>2011-07-28T16:20:30Z</time>
      </trkpt>
      <trkpt lat="47.26604" lon="-1.64885">
        <ele>63.1</ele>
        <time>2011-07-28T16:20:31Z</time>
      </trkpt>
      <trkpt lat="47.26602" lon="-1.64884">
        <ele>63.3</ele>
        <time>2011-07-28T16:20:32Z</time>
      </trkpt>
      <trkpt lat="47.26599" lon="-1.64883">
        <ele>63.4</ele>
        <time>2011-07-28T16:20:33Z</time>
      </trkpt>
      <trkpt lat="47.26596" lon="-1.64881">
        <ele>63.5</ele>
        <time>2011-07-28T16:20:34Z</time>
      </trkpt>
      <trkpt lat="47.26594" lon="-1.6488">
        <ele>63.5</ele>
        <time>2011-07-28T16:20:35Z</time>
      </trkpt>
      <trkpt lat="47.26591" lon="-1.64879">
        <ele>63.5</ele>
        <time>2011-07-28T16:20:36Z</time>
      </trkpt>
      <trkpt lat="47.26589" lon="-1.64878">
        <ele>63.5</ele>
        <time>2011-07-28T16:20:37Z</time>
      </trkpt>
      <trkpt lat="47.26586" lon="-1.64877">
        <ele>63.5</ele>
        <time>2011-07-28T16:20:38Z</time>
      </trkpt>
      <trkpt lat="47.26583" lon="-1.64875">
        <ele>63.5</ele>
        <time>2011-07-28T16:20:39Z</time>
      </trkpt>
      <trkpt lat="47.26581" lon="-1.64873">
        <ele>63.4</ele>
        <time>2011-07-28T16:20:40Z</time>
      </trkpt>
      <trkpt lat="47.26579" lon="-1.64872">
        <ele>63.7</ele>
        <time>2011-07-28T16:20:41Z</time>
      </trkpt>
      <trkpt lat="47.26576" lon="-1.64868">
        <ele>64</ele>
        <time>2011-07-28T16:20:43Z</time>
      </trkpt>
      <trkpt lat="47.26573" lon="-1.64863">
        <ele>64</ele>
        <time>2011-07-28T16:20:45Z</time>
      </trkpt>
      <trkpt lat="47.2657" lon="-1.64858">
        <ele>63.8</ele>
        <time>2011-07-28T16:20:47Z</time>
      </trkpt>
      <trkpt lat="47.26568" lon="-1.64854">
        <ele>64.1</ele>
        <time>2011-07-28T16:20:49Z</time>
      </trkpt>
      <trkpt lat="47.26566" lon="-1.64849">
        <ele>64.4</ele>
        <time>2011-07-28T16:20:51Z</time>
      </trkpt>
      <trkpt lat="47.26565" lon="-1.64845">
        <ele>64.5</ele>
        <time>2011-07-28T16:20:53Z</time>
      </trkpt>
      <trkpt lat="47.26563" lon="-1.64839">
        <ele>65.1</ele>
        <time>2011-07-28T16:20:56Z</time>
      </trkpt>
      <trkpt lat="47.26562" lon="-1.64833">
        <ele>64.9</ele>
        <time>2011-07-28T16:20:59Z</time>
      </trkpt>
      <trkpt lat="47.26561" lon="-1.64827">
        <ele>64.7</ele>
        <time>2011-07-28T16:21:01Z</time>
      </trkpt>
      <trkpt lat="47.26561" lon="-1.64823">
        <ele>64.5</ele>
        <time>2011-07-28T16:21:03Z</time>
      </trkpt>
      <trkpt lat="47.26561" lon="-1.64817">
        <ele>64.5</ele>
        <time>2011-07-28T16:21:05Z</time>
      </trkpt>
      <trkpt lat="47.26561" lon="-1.64811">
        <ele>64.5</ele>
        <time>2011-07-28T16:21:07Z</time>
      </trkpt>
      <trkpt lat="47.26561" lon="-1.64806">
        <ele>64.5</ele>
        <time>2011-07-28T16:21:09Z</time>
      </trkpt>
      <trkpt lat="47.26562" lon="-1.648">
        <ele>64.6</ele>
        <time>2011-07-28T16:21:12Z</time>
      </trkpt>
      <trkpt lat="47.26562" lon="-1.64797">
        <ele>64.9</ele>
        <time>2011-07-28T16:21:13Z</time>
      </trkpt>
      <trkpt lat="47.26562" lon="-1.64789">
        <ele>65.3</ele>
        <time>2011-07-28T16:21:16Z</time>
      </trkpt>
      <trkpt lat="47.26561" lon="-1.64782">
        <ele>65.3</ele>
        <time>2011-07-28T16:21:18Z</time>
      </trkpt>
      <trkpt lat="47.26561" lon="-1.64779">
        <ele>65.4</ele>
        <time>2011-07-28T16:21:19Z</time>
      </trkpt>
      <trkpt lat="47.26561" lon="-1.64776">
        <ele>65</ele>
        <time>2011-07-28T16:21:20Z</time>
      </trkpt>
      <trkpt lat="47.2656" lon="-1.64769">
        <ele>64.4</ele>
        <time>2011-07-28T16:21:22Z</time>
      </trkpt>
      <trkpt lat="47.2656" lon="-1.64763">
        <ele>64.2</ele>
        <time>2011-07-28T16:21:24Z</time>
      </trkpt>
      <trkpt lat="47.2656" lon="-1.6476">
        <ele>64.1</ele>
        <time>2011-07-28T16:21:25Z</time>
      </trkpt>
      <trkpt lat="47.2656" lon="-1.64756">
        <ele>64.5</ele>
        <time>2011-07-28T16:21:26Z</time>
      </trkpt>
      <trkpt lat="47.2656" lon="-1.64753">
        <ele>64.9</ele>
        <time>2011-07-28T16:21:27Z</time>
      </trkpt>
      <trkpt lat="47.2656" lon="-1.64749">
        <ele>65.2</ele>
        <time>2011-07-28T16:21:28Z</time>
      </trkpt>
      <trkpt lat="47.26561" lon="-1.64743">
        <ele>64.1</ele>
        <time>2011-07-28T16:21:30Z</time>
      </trkpt>
      <trkpt lat="47.26561" lon="-1.64737">
        <ele>63.9</ele>
        <time>2011-07-28T16:21:32Z</time>
      </trkpt>
      <trkpt lat="47.26563" lon="-1.64732">
        <ele>64</ele>
        <time>2011-07-28T16:21:34Z</time>
      </trkpt>
      <trkpt lat="47.26564" lon="-1.64726">
        <ele>63.8</ele>
        <time>2011-07-28T16:21:39Z</time>
      </trkpt>
      <trkpt lat="47.26567" lon="-1.64722">
        <ele>64.1</ele>
        <time>2011-07-28T16:21:44Z</time>
      </trkpt>
      <trkpt lat="47.2657" lon="-1.64716">
        <ele>64.9</ele>
        <time>2011-07-28T16:21:52Z</time>
      </trkpt>
      <trkpt lat="47.26574" lon="-1.64715">
        <ele>64.6</ele>
        <time>2011-07-28T16:21:55Z</time>
      </trkpt>
      <trkpt lat="47.26577" lon="-1.64717">
        <ele>64.6</ele>
        <time>2011-07-28T16:21:57Z</time>
      </trkpt>
      <trkpt lat="47.26579" lon="-1.64718">
        <ele>64.4</ele>
        <time>2011-07-28T16:21:58Z</time>
      </trkpt>
      <trkpt lat="47.26582" lon="-1.64719">
        <ele>64.3</ele>
        <time>2011-07-28T16:21:59Z</time>
      </trkpt>
      <trkpt lat="47.26584" lon="-1.64719">
        <ele>64.2</ele>
        <time>2011-07-28T16:22:00Z</time>
      </trkpt>
      <trkpt lat="47.26586" lon="-1.64717">
        <ele>64.2</ele>
        <time>2011-07-28T16:22:01Z</time>
      </trkpt>
      <trkpt lat="47.26588" lon="-1.64715">
        <ele>64.3</ele>
        <time>2011-07-28T16:22:02Z</time>
      </trkpt>
      <trkpt lat="47.2659" lon="-1.64713">
        <ele>64.3</ele>
        <time>2011-07-28T16:22:03Z</time>
      </trkpt>
      <trkpt lat="47.26592" lon="-1.6471">
        <ele>64.1</ele>
        <time>2011-07-28T16:22:04Z</time>
      </trkpt>
      <trkpt lat="47.26594" lon="-1.64706">
        <ele>63.9</ele>
        <time>2011-07-28T16:22:05Z</time>
      </trkpt>
      <trkpt lat="47.26595" lon="-1.64702">
        <ele>63.8</ele>
        <time>2011-07-28T16:22:06Z</time>
      </trkpt>
      <trkpt lat="47.26596" lon="-1.64698">
        <ele>63.7</ele>
        <time>2011-07-28T16:22:07Z</time>
      </trkpt>
      <trkpt lat="47.26597" lon="-1.64694">
        <ele>63.8</ele>
        <time>2011-07-28T16:22:08Z</time>
      </trkpt>
      <trkpt lat="47.266" lon="-1.6469">
        <ele>63.9</ele>
        <time>2011-07-28T16:22:09Z</time>
      </trkpt>
      <trkpt lat="47.26602" lon="-1.64688">
        <ele>63.9</ele>
        <time>2011-07-28T16:22:10Z</time>
      </trkpt>
      <trkpt lat="47.26605" lon="-1.64685">
        <ele>63.7</ele>
        <time>2011-07-28T16:22:11Z</time>
      </trkpt>
      <trkpt lat="47.26607" lon="-1.64683">
        <ele>63.5</ele>
        <time>2011-07-28T16:22:12Z</time>
      </trkpt>
      <trkpt lat="47.2661" lon="-1.6468">
        <ele>63.4</ele>
        <time>2011-07-28T16:22:13Z</time>
      </trkpt>
      <trkpt lat="47.26613" lon="-1.64678">
        <ele>63.9</ele>
        <time>2011-07-28T16:22:14Z</time>
      </trkpt>
      <trkpt lat="47.26616" lon="-1.64675">
        <ele>64.3</ele>
        <time>2011-07-28T16:22:15Z</time>
      </trkpt>
      <trkpt lat="47.26619" lon="-1.64672">
        <ele>64.5</ele>
        <time>2011-07-28T16:22:16Z</time>
      </trkpt>
      <trkpt lat="47.26621" lon="-1.64668">
        <ele>64.3</ele>
        <time>2011-07-28T16:22:17Z</time>
      </trkpt>
      <trkpt lat="47.26623" lon="-1.64664">
        <ele>64.1</ele>
        <time>2011-07-28T16:22:18Z</time>
      </trkpt>
      <trkpt lat="47.26625" lon="-1.64661">
        <ele>63.9</ele>
        <time>2011-07-28T16:22:19Z</time>
      </trkpt>
      <trkpt lat="47.26627" lon="-1.64659">
        <ele>63.6</ele>
        <time>2011-07-28T16:22:20Z</time>
      </trkpt>
      <trkpt lat="47.26629" lon="-1.64656">
        <ele>63.5</ele>
        <time>2011-07-28T16:22:21Z</time>
      </trkpt>
      <trkpt lat="47.2663" lon="-1.64653">
        <ele>63.3</ele>
        <time>2011-07-28T16:22:22Z</time>
      </trkpt>
      <trkpt lat="47.26632" lon="-1.64651">
        <ele>63.2</ele>
        <time>2011-07-28T16:22:23Z</time>
      </trkpt>
      <trkpt lat="47.26634" lon="-1.64648">
        <ele>62.9</ele>
        <time>2011-07-28T16:22:24Z</time>
      </trkpt>
      <trkpt lat="47.26636" lon="-1.64646">
        <ele>62.6</ele>
        <time>2011-07-28T16:22:25Z</time>
      </trkpt>
      <trkpt lat="47.26638" lon="-1.64643">
        <ele>62.4</ele>
        <time>2011-07-28T16:22:26Z</time>
      </trkpt>
      <trkpt lat="47.2664" lon="-1.6464">
        <ele>62.5</ele>
        <time>2011-07-28T16:22:27Z</time>
      </trkpt>
      <trkpt lat="47.26642" lon="-1.64637">
        <ele>62.5</ele>
        <time>2011-07-28T16:22:28Z</time>
      </trkpt>
      <trkpt lat="47.26644" lon="-1.64634">
        <ele>62.5</ele>
        <time>2011-07-28T16:22:29Z</time>
      </trkpt>
      <trkpt lat="47.26646" lon="-1.64631">
        <ele>62.5</ele>
        <time>2011-07-28T16:22:30Z</time>
      </trkpt>
      <trkpt lat="47.26648" lon="-1.64628">
        <ele>62.4</ele>
        <time>2011-07-28T16:22:31Z</time>
      </trkpt>
      <trkpt lat="47.2665" lon="-1.64624">
        <ele>62.4</ele>
        <time>2011-07-28T16:22:32Z</time>
      </trkpt>
      <trkpt lat="47.26652" lon="-1.64621">
        <ele>62.2</ele>
        <time>2011-07-28T16:22:33Z</time>
      </trkpt>
      <trkpt lat="47.26654" lon="-1.64618">
        <ele>62</ele>
        <time>2011-07-28T16:22:34Z</time>
      </trkpt>
      <trkpt lat="47.26656" lon="-1.64614">
        <ele>61.9</ele>
        <time>2011-07-28T16:22:35Z</time>
      </trkpt>
      <trkpt lat="47.26658" lon="-1.64611">
        <ele>62.1</ele>
        <time>2011-07-28T16:22:36Z</time>
      </trkpt>
      <trkpt lat="47.26659" lon="-1.64607">
        <ele>62.3</ele>
        <time>2011-07-28T16:22:37Z</time>
      </trkpt>
      <trkpt lat="47.26661" lon="-1.64603">
        <ele>62.4</ele>
        <time>2011-07-28T16:22:38Z</time>
      </trkpt>
      <trkpt lat="47.26662" lon="-1.64599">
        <ele>62.5</ele>
        <time>2011-07-28T16:22:39Z</time>
      </trkpt>
      <trkpt lat="47.26664" lon="-1.64595">
        <ele>62.3</ele>
        <time>2011-07-28T16:22:40Z</time>
      </trkpt>
      <trkpt lat="47.26665" lon="-1.64591">
        <ele>62.1</ele>
        <time>2011-07-28T16:22:41Z</time>
      </trkpt>
      <trkpt lat="47.26667" lon="-1.64587">
        <ele>62</ele>
        <time>2011-07-28T16:22:42Z</time>
      </trkpt>
      <trkpt lat="47.26668" lon="-1.64583">
        <ele>61.7</ele>
        <time>2011-07-28T16:22:43Z</time>
      </trkpt>
      <trkpt lat="47.2667" lon="-1.6458">
        <ele>61.5</ele>
        <time>2011-07-28T16:22:44Z</time>
      </trkpt>
      <trkpt lat="47.26672" lon="-1.64576">
        <ele>61.4</ele>
        <time>2011-07-28T16:22:45Z</time>
      </trkpt>
      <trkpt lat="47.26674" lon="-1.64572">
        <ele>61.6</ele>
        <time>2011-07-28T16:22:46Z</time>
      </trkpt>
      <trkpt lat="47.26675" lon="-1.64568">
        <ele>61.8</ele>
        <time>2011-07-28T16:22:47Z</time>
      </trkpt>
      <trkpt lat="47.26677" lon="-1.64565">
        <ele>61.9</ele>
        <time>2011-07-28T16:22:48Z</time>
      </trkpt>
      <trkpt lat="47.26678" lon="-1.64561">
        <ele>61.9</ele>
        <time>2011-07-28T16:22:49Z</time>
      </trkpt>
      <trkpt lat="47.2668" lon="-1.64558">
        <ele>61.9</ele>
        <time>2011-07-28T16:22:50Z</time>
      </trkpt>
      <trkpt lat="47.26681" lon="-1.64555">
        <ele>61.9</ele>
        <time>2011-07-28T16:22:51Z</time>
      </trkpt>
      <trkpt lat="47.26683" lon="-1.64552">
        <ele>61.7</ele>
        <time>2011-07-28T16:22:52Z</time>
      </trkpt>
      <trkpt lat="47.26684" lon="-1.64548">
        <ele>61.5</ele>
        <time>2011-07-28T16:22:53Z</time>
      </trkpt>
      <trkpt lat="47.26686" lon="-1.64543">
        <ele>61.3</ele>
        <time>2011-07-28T16:22:55Z</time>
      </trkpt>
      <trkpt lat="47.26687" lon="-1.6454">
        <ele>61.1</ele>
        <time>2011-07-28T16:22:56Z</time>
      </trkpt>
      <trkpt lat="47.26689" lon="-1.64536">
        <ele>60.9</ele>
        <time>2011-07-28T16:22:57Z</time>
      </trkpt>
      <trkpt lat="47.2669" lon="-1.64533">
        <ele>60.7</ele>
        <time>2011-07-28T16:22:58Z</time>
      </trkpt>
      <trkpt lat="47.26691" lon="-1.6453">
        <ele>60.5</ele>
        <time>2011-07-28T16:22:59Z</time>
      </trkpt>
      <trkpt lat="47.26692" lon="-1.64527">
        <ele>60.4</ele>
        <time>2011-07-28T16:23:00Z</time>
      </trkpt>
      <trkpt lat="47.26693" lon="-1.64524">
        <ele>60.3</ele>
        <time>2011-07-28T16:23:01Z</time>
      </trkpt>
      <trkpt lat="47.26694" lon="-1.6452">
        <ele>60.3</ele>
        <time>2011-07-28T16:23:02Z</time>
      </trkpt>
      <trkpt lat="47.26695" lon="-1.64516">
        <ele>60.3</ele>
        <time>2011-07-28T16:23:03Z</time>
      </trkpt>
      <trkpt lat="47.26696" lon="-1.64512">
        <ele>60.3</ele>
        <time>2011-07-28T16:23:04Z</time>
      </trkpt>
      <trkpt lat="47.26697" lon="-1.64509">
        <ele>60.2</ele>
        <time>2011-07-28T16:23:05Z</time>
      </trkpt>
      <trkpt lat="47.26698" lon="-1.64505">
        <ele>60</ele>
        <time>2011-07-28T16:23:06Z</time>
      </trkpt>
      <trkpt lat="47.267" lon="-1.64503">
        <ele>59.9</ele>
        <time>2011-07-28T16:23:07Z</time>
      </trkpt>
      <trkpt lat="47.26702" lon="-1.64501">
        <ele>59.8</ele>
        <time>2011-07-28T16:23:08Z</time>
      </trkpt>
      <trkpt lat="47.26704" lon="-1.64499">
        <ele>59.6</ele>
        <time>2011-07-28T16:23:09Z</time>
      </trkpt>
      <trkpt lat="47.26706" lon="-1.64498">
        <ele>59.5</ele>
        <time>2011-07-28T16:23:10Z</time>
      </trkpt>
      <trkpt lat="47.26708" lon="-1.64497">
        <ele>59.6</ele>
        <time>2011-07-28T16:23:11Z</time>
      </trkpt>
      <trkpt lat="47.26711" lon="-1.64497">
        <ele>59.6</ele>
        <time>2011-07-28T16:23:12Z</time>
      </trkpt>
      <trkpt lat="47.26715" lon="-1.64497">
        <ele>59.7</ele>
        <time>2011-07-28T16:23:14Z</time>
      </trkpt>
      <trkpt lat="47.26718" lon="-1.64497">
        <ele>59.7</ele>
        <time>2011-07-28T16:23:15Z</time>
      </trkpt>
      <trkpt lat="47.2672" lon="-1.64497">
        <ele>59.6</ele>
        <time>2011-07-28T16:23:16Z</time>
      </trkpt>
      <trkpt lat="47.26723" lon="-1.64497">
        <ele>59.6</ele>
        <time>2011-07-28T16:23:17Z</time>
      </trkpt>
      <trkpt lat="47.26725" lon="-1.64498">
        <ele>59.5</ele>
        <time>2011-07-28T16:23:18Z</time>
      </trkpt>
      <trkpt lat="47.26729" lon="-1.64498">
        <ele>59.3</ele>
        <time>2011-07-28T16:23:20Z</time>
      </trkpt>
      <trkpt lat="47.26733" lon="-1.64499">
        <ele>60.1</ele>
        <time>2011-07-28T16:23:22Z</time>
      </trkpt>
      <trkpt lat="47.26737" lon="-1.64498">
        <ele>60.5</ele>
        <time>2011-07-28T16:23:24Z</time>
      </trkpt>
      <trkpt lat="47.2674" lon="-1.64498">
        <ele>60.7</ele>
        <time>2011-07-28T16:23:26Z</time>
      </trkpt>
      <trkpt lat="47.26744" lon="-1.64499">
        <ele>60.5</ele>
        <time>2011-07-28T16:23:28Z</time>
      </trkpt>
      <trkpt lat="47.26748" lon="-1.645">
        <ele>60.3</ele>
        <time>2011-07-28T16:23:30Z</time>
      </trkpt>
      <trkpt lat="47.26752" lon="-1.645">
        <ele>60.2</ele>
        <time>2011-07-28T16:23:32Z</time>
      </trkpt>
      <trkpt lat="47.26755" lon="-1.645">
        <ele>60.2</ele>
        <time>2011-07-28T16:23:34Z</time>
      </trkpt>
      <trkpt lat="47.26758" lon="-1.645">
        <ele>60.3</ele>
        <time>2011-07-28T16:23:36Z</time>
      </trkpt>
      <trkpt lat="47.26761" lon="-1.645">
        <ele>60.1</ele>
        <time>2011-07-28T16:23:37Z</time>
      </trkpt>
      <trkpt lat="47.26763" lon="-1.64501">
        <ele>60</ele>
        <time>2011-07-28T16:23:38Z</time>
      </trkpt>
      <trkpt lat="47.26766" lon="-1.64501">
        <ele>60</ele>
        <time>2011-07-28T16:23:39Z</time>
      </trkpt>
      <trkpt lat="47.2677" lon="-1.645">
        <ele>59.3</ele>
        <time>2011-07-28T16:23:41Z</time>
      </trkpt>
      <trkpt lat="47.26772" lon="-1.64499">
        <ele>59</ele>
        <time>2011-07-28T16:23:42Z</time>
      </trkpt>
      <trkpt lat="47.26775" lon="-1.64499">
        <ele>59.1</ele>
        <time>2011-07-28T16:23:43Z</time>
      </trkpt>
      <trkpt lat="47.26777" lon="-1.64498">
        <ele>59.1</ele>
        <time>2011-07-28T16:23:44Z</time>
      </trkpt>
      <trkpt lat="47.26779" lon="-1.64498">
        <ele>59.2</ele>
        <time>2011-07-28T16:23:45Z</time>
      </trkpt>
      <trkpt lat="47.26782" lon="-1.64497">
        <ele>59.3</ele>
        <time>2011-07-28T16:23:46Z</time>
      </trkpt>
      <trkpt lat="47.26784" lon="-1.64497">
        <ele>59.4</ele>
        <time>2011-07-28T16:23:47Z</time>
      </trkpt>
      <trkpt lat="47.26789" lon="-1.64496">
        <ele>59.5</ele>
        <time>2011-07-28T16:23:49Z</time>
      </trkpt>
      <trkpt lat="47.26793" lon="-1.64494">
        <ele>59.1</ele>
        <time>2011-07-28T16:23:51Z</time>
      </trkpt>
      <trkpt lat="47.26795" lon="-1.64494">
        <ele>59</ele>
        <time>2011-07-28T16:23:52Z</time>
      </trkpt>
      <trkpt lat="47.26797" lon="-1.64493">
        <ele>58.7</ele>
        <time>2011-07-28T16:23:53Z</time>
      </trkpt>
      <trkpt lat="47.268" lon="-1.64493">
        <ele>58.4</ele>
        <time>2011-07-28T16:23:54Z</time>
      </trkpt>
      <trkpt lat="47.26802" lon="-1.64494">
        <ele>58.3</ele>
        <time>2011-07-28T16:23:55Z</time>
      </trkpt>
      <trkpt lat="47.26807" lon="-1.64494">
        <ele>58.5</ele>
        <time>2011-07-28T16:23:57Z</time>
      </trkpt>
      <trkpt lat="47.26811" lon="-1.64494">
        <ele>58.4</ele>
        <time>2011-07-28T16:23:59Z</time>
      </trkpt>
      <trkpt lat="47.26815" lon="-1.64495">
        <ele>58.3</ele>
        <time>2011-07-28T16:24:01Z</time>
      </trkpt>
      <trkpt lat="47.26817" lon="-1.64495">
        <ele>58.8</ele>
        <time>2011-07-28T16:24:02Z</time>
      </trkpt>
      <trkpt lat="47.2682" lon="-1.64496">
        <ele>59.1</ele>
        <time>2011-07-28T16:24:03Z</time>
      </trkpt>
      <trkpt lat="47.26822" lon="-1.64495">
        <ele>59.4</ele>
        <time>2011-07-28T16:24:04Z</time>
      </trkpt>
      <trkpt lat="47.26824" lon="-1.64493">
        <ele>59.6</ele>
        <time>2011-07-28T16:24:05Z</time>
      </trkpt>
      <trkpt lat="47.26828" lon="-1.64489">
        <ele>59.1</ele>
        <time>2011-07-28T16:24:07Z</time>
      </trkpt>
      <trkpt lat="47.2683" lon="-1.64487">
        <ele>58.9</ele>
        <time>2011-07-28T16:24:08Z</time>
      </trkpt>
      <trkpt lat="47.26832" lon="-1.64485">
        <ele>58.9</ele>
        <time>2011-07-28T16:24:09Z</time>
      </trkpt>
      <trkpt lat="47.26834" lon="-1.64483">
        <ele>58.8</ele>
        <time>2011-07-28T16:24:10Z</time>
      </trkpt>
      <trkpt lat="47.26837" lon="-1.64482">
        <ele>58.8</ele>
        <time>2011-07-28T16:24:11Z</time>
      </trkpt>
      <trkpt lat="47.26841" lon="-1.64481">
        <ele>58.6</ele>
        <time>2011-07-28T16:24:12Z</time>
      </trkpt>
      <trkpt lat="47.26843" lon="-1.64481">
        <ele>58.5</ele>
        <time>2011-07-28T16:24:13Z</time>
      </trkpt>
      <trkpt lat="47.26848" lon="-1.6448">
        <ele>57.7</ele>
        <time>2011-07-28T16:24:16Z</time>
      </trkpt>
      <trkpt lat="47.26849" lon="-1.6448">
        <ele>57.5</ele>
        <time>2011-07-28T16:24:17Z</time>
      </trkpt>
      <trkpt lat="47.26855" lon="-1.64481">
        <ele>58.5</ele>
        <time>2011-07-28T16:24:21Z</time>
      </trkpt>
      <trkpt lat="47.26859" lon="-1.6448">
        <ele>57.9</ele>
        <time>2011-07-28T16:24:23Z</time>
      </trkpt>
      <trkpt lat="47.26862" lon="-1.6448">
        <ele>57.7</ele>
        <time>2011-07-28T16:24:25Z</time>
      </trkpt>
      <trkpt lat="47.26865" lon="-1.64479">
        <ele>57.7</ele>
        <time>2011-07-28T16:24:27Z</time>
      </trkpt>
      <trkpt lat="47.26868" lon="-1.64475">
        <ele>57.4</ele>
        <time>2011-07-28T16:24:30Z</time>
      </trkpt>
      <trkpt lat="47.26872" lon="-1.64471">
        <ele>57</ele>
        <time>2011-07-28T16:24:39Z</time>
      </trkpt>
      <trkpt lat="47.26875" lon="-1.64467">
        <ele>56.7</ele>
        <time>2011-07-28T16:24:50Z</time>
      </trkpt>
      <trkpt lat="47.26878" lon="-1.64462">
        <ele>55.9</ele>
        <time>2011-07-28T16:24:55Z</time>
      </trkpt>
      <trkpt lat="47.26879" lon="-1.64457">
        <ele>56.6</ele>
        <time>2011-07-28T16:24:59Z</time>
      </trkpt>
      <trkpt lat="47.2688" lon="-1.64451">
        <ele>56.6</ele>
        <time>2011-07-28T16:25:05Z</time>
      </trkpt>
      <trkpt lat="47.26881" lon="-1.64445">
        <ele>56.2</ele>
        <time>2011-07-28T16:25:17Z</time>
      </trkpt>
      <trkpt lat="47.26881" lon="-1.64445">
        <ele>56.1</ele>
        <time>2011-07-28T16:25:18Z</time>
      </trkpt>
      <trkpt lat="47.26889" lon="-1.64439">
        <ele>55.6</ele>
        <time>2011-07-28T16:26:30Z</time>
      </trkpt>
      <trkpt lat="47.26889" lon="-1.64439">
        <ele>55.6</ele>
        <time>2011-07-28T16:26:31Z</time>
      </trkpt>
      <trkpt lat="47.26885" lon="-1.64429">
        <ele>57.1</ele>
        <time>2011-07-28T16:26:53Z</time>
      </trkpt>
      <trkpt lat="47.26884" lon="-1.64424">
        <ele>57.3</ele>
        <time>2011-07-28T16:26:55Z</time>
      </trkpt>
      <trkpt lat="47.26882" lon="-1.6442">
        <ele>57.4</ele>
        <time>2011-07-28T16:26:57Z</time>
      </trkpt>
      <trkpt lat="47.26879" lon="-1.64416">
        <ele>57.5</ele>
        <time>2011-07-28T16:27:00Z</time>
      </trkpt>
      <trkpt lat="47.26877" lon="-1.64411">
        <ele>57.7</ele>
        <time>2011-07-28T16:27:03Z</time>
      </trkpt>
      <trkpt lat="47.26874" lon="-1.64407">
        <ele>57.5</ele>
        <time>2011-07-28T16:27:06Z</time>
      </trkpt>
      <trkpt lat="47.26872" lon="-1.64404">
        <ele>57.6</ele>
        <time>2011-07-28T16:27:08Z</time>
      </trkpt>
      <trkpt lat="47.2687" lon="-1.644">
        <ele>57.7</ele>
        <time>2011-07-28T16:27:10Z</time>
      </trkpt>
      <trkpt lat="47.26868" lon="-1.64395">
        <ele>57.8</ele>
        <time>2011-07-28T16:27:12Z</time>
      </trkpt>
      <trkpt lat="47.26867" lon="-1.64391">
        <ele>57.8</ele>
        <time>2011-07-28T16:27:14Z</time>
      </trkpt>
      <trkpt lat="47.26865" lon="-1.64386">
        <ele>57.7</ele>
        <time>2011-07-28T16:27:16Z</time>
      </trkpt>
      <trkpt lat="47.26864" lon="-1.64384">
        <ele>57.9</ele>
        <time>2011-07-28T16:27:17Z</time>
      </trkpt>
      <trkpt lat="47.26862" lon="-1.64381">
        <ele>58</ele>
        <time>2011-07-28T16:27:18Z</time>
      </trkpt>
      <trkpt lat="47.26861" lon="-1.64378">
        <ele>58</ele>
        <time>2011-07-28T16:27:19Z</time>
      </trkpt>
      <trkpt lat="47.26859" lon="-1.64374">
        <ele>58</ele>
        <time>2011-07-28T16:27:20Z</time>
      </trkpt>
      <trkpt lat="47.26857" lon="-1.64371">
        <ele>57.9</ele>
        <time>2011-07-28T16:27:21Z</time>
      </trkpt>
      <trkpt lat="47.26856" lon="-1.64366">
        <ele>57.9</ele>
        <time>2011-07-28T16:27:22Z</time>
      </trkpt>
      <trkpt lat="47.26855" lon="-1.64361">
        <ele>57.9</ele>
        <time>2011-07-28T16:27:23Z</time>
      </trkpt>
      <trkpt lat="47.26853" lon="-1.64356">
        <ele>57.9</ele>
        <time>2011-07-28T16:27:24Z</time>
      </trkpt>
      <trkpt lat="47.26851" lon="-1.64351">
        <ele>57.9</ele>
        <time>2011-07-28T16:27:25Z</time>
      </trkpt>
      <trkpt lat="47.26849" lon="-1.64345">
        <ele>57.9</ele>
        <time>2011-07-28T16:27:26Z</time>
      </trkpt>
      <trkpt lat="47.26847" lon="-1.64339">
        <ele>57.5</ele>
        <time>2011-07-28T16:27:27Z</time>
      </trkpt>
      <trkpt lat="47.26845" lon="-1.64334">
        <ele>57.2</ele>
        <time>2011-07-28T16:27:28Z</time>
      </trkpt>
      <trkpt lat="47.26843" lon="-1.64329">
        <ele>57</ele>
        <time>2011-07-28T16:27:29Z</time>
      </trkpt>
      <trkpt lat="47.26841" lon="-1.64324">
        <ele>56.6</ele>
        <time>2011-07-28T16:27:30Z</time>
      </trkpt>
      <trkpt lat="47.2684" lon="-1.64318">
        <ele>56.1</ele>
        <time>2011-07-28T16:27:32Z</time>
      </trkpt>
      <trkpt lat="47.2684" lon="-1.64316">
        <ele>55.7</ele>
        <time>2011-07-28T16:27:33Z</time>
      </trkpt>
      <trkpt lat="47.2684" lon="-1.64306">
        <ele>55.2</ele>
        <time>2011-07-28T16:27:40Z</time>
      </trkpt>
      <trkpt lat="47.26839" lon="-1.643">
        <ele>55.9</ele>
        <time>2011-07-28T16:27:48Z</time>
      </trkpt>
      <trkpt lat="47.26842" lon="-1.64296">
        <ele>55.4</ele>
        <time>2011-07-28T16:28:14Z</time>
      </trkpt>
      <trkpt lat="47.26845" lon="-1.64293">
        <ele>55.8</ele>
        <time>2011-07-28T16:28:38Z</time>
      </trkpt>
      <trkpt lat="47.26847" lon="-1.64292">
        <ele>55.9</ele>
        <time>2011-07-28T16:28:39Z</time>
      </trkpt>
      <trkpt lat="47.2685" lon="-1.6429">
        <ele>56</ele>
        <time>2011-07-28T16:28:41Z</time>
      </trkpt>
      <trkpt lat="47.26853" lon="-1.64288">
        <ele>56</ele>
        <time>2011-07-28T16:28:42Z</time>
      </trkpt>
      <trkpt lat="47.26855" lon="-1.64286">
        <ele>55.9</ele>
        <time>2011-07-28T16:28:43Z</time>
      </trkpt>
      <trkpt lat="47.26857" lon="-1.64283">
        <ele>55.8</ele>
        <time>2011-07-28T16:28:44Z</time>
      </trkpt>
      <trkpt lat="47.26859" lon="-1.6428">
        <ele>55.8</ele>
        <time>2011-07-28T16:28:45Z</time>
      </trkpt>
      <trkpt lat="47.26861" lon="-1.64276">
        <ele>55.7</ele>
        <time>2011-07-28T16:28:46Z</time>
      </trkpt>
      <trkpt lat="47.26862" lon="-1.64271">
        <ele>55.5</ele>
        <time>2011-07-28T16:28:47Z</time>
      </trkpt>
      <trkpt lat="47.26864" lon="-1.64266">
        <ele>55.3</ele>
        <time>2011-07-28T16:28:48Z</time>
      </trkpt>
      <trkpt lat="47.26866" lon="-1.64261">
        <ele>55.1</ele>
        <time>2011-07-28T16:28:49Z</time>
      </trkpt>
      <trkpt lat="47.26867" lon="-1.64256">
        <ele>54.5</ele>
        <time>2011-07-28T16:28:50Z</time>
      </trkpt>
      <trkpt lat="47.26868" lon="-1.64252">
        <ele>53.3</ele>
        <time>2011-07-28T16:28:53Z</time>
      </trkpt>
      <trkpt lat="47.26869" lon="-1.64247">
        <ele>52.8</ele>
        <time>2011-07-28T16:28:55Z</time>
      </trkpt>
      <trkpt lat="47.26868" lon="-1.64242">
        <ele>52.2</ele>
        <time>2011-07-28T16:28:57Z</time>
      </trkpt>
      <trkpt lat="47.26868" lon="-1.64239">
        <ele>52</ele>
        <time>2011-07-28T16:28:58Z</time>
      </trkpt>
      <trkpt lat="47.26868" lon="-1.64235">
        <ele>51.7</ele>
        <time>2011-07-28T16:28:59Z</time>
      </trkpt>
      <trkpt lat="47.26867" lon="-1.64229">
        <ele>51.5</ele>
        <time>2011-07-28T16:29:00Z</time>
      </trkpt>
      <trkpt lat="47.26867" lon="-1.64224">
        <ele>51.3</ele>
        <time>2011-07-28T16:29:01Z</time>
      </trkpt>
      <trkpt lat="47.26867" lon="-1.64218">
        <ele>51.2</ele>
        <time>2011-07-28T16:29:02Z</time>
      </trkpt>
      <trkpt lat="47.26866" lon="-1.64213">
        <ele>51.4</ele>
        <time>2011-07-28T16:29:03Z</time>
      </trkpt>
      <trkpt lat="47.26866" lon="-1.64208">
        <ele>51.5</ele>
        <time>2011-07-28T16:29:04Z</time>
      </trkpt>
      <trkpt lat="47.26865" lon="-1.64204">
        <ele>51.6</ele>
        <time>2011-07-28T16:29:05Z</time>
      </trkpt>
      <trkpt lat="47.26863" lon="-1.64199">
        <ele>50.9</ele>
        <time>2011-07-28T16:29:07Z</time>
      </trkpt>
      <trkpt lat="47.2686" lon="-1.64196">
        <ele>50.5</ele>
        <time>2011-07-28T16:29:09Z</time>
      </trkpt>
      <trkpt lat="47.26856" lon="-1.64194">
        <ele>50.2</ele>
        <time>2011-07-28T16:29:11Z</time>
      </trkpt>
      <trkpt lat="47.26854" lon="-1.64192">
        <ele>49.9</ele>
        <time>2011-07-28T16:29:12Z</time>
      </trkpt>
      <trkpt lat="47.26852" lon="-1.64191">
        <ele>49.6</ele>
        <time>2011-07-28T16:29:13Z</time>
      </trkpt>
      <trkpt lat="47.2685" lon="-1.64189">
        <ele>49.3</ele>
        <time>2011-07-28T16:29:14Z</time>
      </trkpt>
      <trkpt lat="47.26846" lon="-1.64187">
        <ele>49.9</ele>
        <time>2011-07-28T16:29:16Z</time>
      </trkpt>
      <trkpt lat="47.26844" lon="-1.64185">
        <ele>50.1</ele>
        <time>2011-07-28T16:29:17Z</time>
      </trkpt>
      <trkpt lat="47.26842" lon="-1.64182">
        <ele>50.2</ele>
        <time>2011-07-28T16:29:18Z</time>
      </trkpt>
      <trkpt lat="47.26841" lon="-1.6418">
        <ele>50.4</ele>
        <time>2011-07-28T16:29:19Z</time>
      </trkpt>
      <trkpt lat="47.26839" lon="-1.64174">
        <ele>50.5</ele>
        <time>2011-07-28T16:29:21Z</time>
      </trkpt>
      <trkpt lat="47.26838" lon="-1.6417">
        <ele>50.7</ele>
        <time>2011-07-28T16:29:23Z</time>
      </trkpt>
      <trkpt lat="47.26838" lon="-1.64165">
        <ele>50.9</ele>
        <time>2011-07-28T16:29:25Z</time>
      </trkpt>
      <trkpt lat="47.26839" lon="-1.64159">
        <ele>51.1</ele>
        <time>2011-07-28T16:29:27Z</time>
      </trkpt>
      <trkpt lat="47.26841" lon="-1.64154">
        <ele>50.5</ele>
        <time>2011-07-28T16:29:29Z</time>
      </trkpt>
      <trkpt lat="47.26844" lon="-1.6415">
        <ele>50.3</ele>
        <time>2011-07-28T16:29:31Z</time>
      </trkpt>
      <trkpt lat="47.26846" lon="-1.64146">
        <ele>50.3</ele>
        <time>2011-07-28T16:29:33Z</time>
      </trkpt>
      <trkpt lat="47.26847" lon="-1.6414">
        <ele>49.5</ele>
        <time>2011-07-28T16:29:37Z</time>
      </trkpt>
      <trkpt lat="47.26847" lon="-1.64133">
        <ele>48.5</ele>
        <time>2011-07-28T16:29:47Z</time>
      </trkpt>
      <trkpt lat="47.26847" lon="-1.64133">
        <ele>48.7</ele>
        <time>2011-07-28T16:29:48Z</time>
      </trkpt>
      <trkpt lat="47.26845" lon="-1.64121">
        <ele>49.2</ele>
        <time>2011-07-28T16:30:24Z</time>
      </trkpt>
      <trkpt lat="47.26849" lon="-1.64125">
        <ele>47.7</ele>
        <time>2011-07-28T16:31:14Z</time>
      </trkpt>
      <trkpt lat="47.26849" lon="-1.64125">
        <ele>47.4</ele>
        <time>2011-07-28T16:31:15Z</time>
      </trkpt>
      <trkpt lat="47.26853" lon="-1.64116">
        <ele>47</ele>
        <time>2011-07-28T16:31:40Z</time>
      </trkpt>
      <trkpt lat="47.26855" lon="-1.64113">
        <ele>46.9</ele>
        <time>2011-07-28T16:31:41Z</time>
      </trkpt>
      <trkpt lat="47.26856" lon="-1.64109">
        <ele>46.8</ele>
        <time>2011-07-28T16:31:42Z</time>
      </trkpt>
      <trkpt lat="47.26857" lon="-1.64105">
        <ele>46.7</ele>
        <time>2011-07-28T16:31:43Z</time>
      </trkpt>
      <trkpt lat="47.26858" lon="-1.64102">
        <ele>46.6</ele>
        <time>2011-07-28T16:31:44Z</time>
      </trkpt>
      <trkpt lat="47.26859" lon="-1.64097">
        <ele>46.1</ele>
        <time>2011-07-28T16:31:46Z</time>
      </trkpt>
      <trkpt lat="47.2686" lon="-1.64094">
        <ele>45.9</ele>
        <time>2011-07-28T16:31:47Z</time>
      </trkpt>
      <trkpt lat="47.26862" lon="-1.64089">
        <ele>43.5</ele>
        <time>2011-07-28T16:31:49Z</time>
      </trkpt>
      <trkpt lat="47.26862" lon="-1.64084">
        <ele>42.2</ele>
        <time>2011-07-28T16:31:51Z</time>
      </trkpt>
      <trkpt lat="47.26861" lon="-1.64079">
        <ele>40.1</ele>
        <time>2011-07-28T16:31:53Z</time>
      </trkpt>
      <trkpt lat="47.26861" lon="-1.64073">
        <ele>38.4</ele>
        <time>2011-07-28T16:31:55Z</time>
      </trkpt>
      <trkpt lat="47.26861" lon="-1.6407">
        <ele>37.6</ele>
        <time>2011-07-28T16:31:56Z</time>
      </trkpt>
      <trkpt lat="47.26863" lon="-1.64067">
        <ele>37.1</ele>
        <time>2011-07-28T16:31:57Z</time>
      </trkpt>
      <trkpt lat="47.26865" lon="-1.64063">
        <ele>36.2</ele>
        <time>2011-07-28T16:31:58Z</time>
      </trkpt>
      <trkpt lat="47.26868" lon="-1.64059">
        <ele>35.6</ele>
        <time>2011-07-28T16:31:59Z</time>
      </trkpt>
      <trkpt lat="47.2687" lon="-1.64056">
        <ele>35.2</ele>
        <time>2011-07-28T16:32:00Z</time>
      </trkpt>
      <trkpt lat="47.26873" lon="-1.64051">
        <ele>34.1</ele>
        <time>2011-07-28T16:32:01Z</time>
      </trkpt>
      <trkpt lat="47.26874" lon="-1.64046">
        <ele>33.4</ele>
        <time>2011-07-28T16:32:02Z</time>
      </trkpt>
      <trkpt lat="47.26873" lon="-1.64042">
        <ele>32.8</ele>
        <time>2011-07-28T16:32:03Z</time>
      </trkpt>
      <trkpt lat="47.26873" lon="-1.64038">
        <ele>32</ele>
        <time>2011-07-28T16:32:04Z</time>
      </trkpt>
      <trkpt lat="47.26872" lon="-1.64033">
        <ele>30.9</ele>
        <time>2011-07-28T16:32:06Z</time>
      </trkpt>
      <trkpt lat="47.26871" lon="-1.64027">
        <ele>29.9</ele>
        <time>2011-07-28T16:32:10Z</time>
      </trkpt>
      <trkpt lat="47.2687" lon="-1.64021">
        <ele>29.2</ele>
        <time>2011-07-28T16:32:15Z</time>
      </trkpt>
      <trkpt lat="47.26869" lon="-1.6402">
        <ele>29.2</ele>
        <time>2011-07-28T16:32:16Z</time>
      </trkpt>
      <trkpt lat="47.26869" lon="-1.64009">
        <ele>30.2</ele>
        <time>2011-07-28T16:32:26Z</time>
      </trkpt>
      <trkpt lat="47.2687" lon="-1.64003">
        <ele>28.9</ele>
        <time>2011-07-28T16:32:33Z</time>
      </trkpt>
      <trkpt lat="47.26871" lon="-1.63996">
        <ele>29.1</ele>
        <time>2011-07-28T16:32:44Z</time>
      </trkpt>
      <trkpt lat="47.2687" lon="-1.63991">
        <ele>29.6</ele>
        <time>2011-07-28T16:34:30Z</time>
      </trkpt>
      <trkpt lat="47.2687" lon="-1.6399">
        <ele>29.4</ele>
        <time>2011-07-28T16:34:31Z</time>
      </trkpt>
      <trkpt lat="47.2687" lon="-1.63979">
        <ele>29.5</ele>
        <time>2011-07-28T16:34:42Z</time>
      </trkpt>
      <trkpt lat="47.26866" lon="-1.63978">
        <ele>29.7</ele>
        <time>2011-07-28T16:34:44Z</time>
      </trkpt>
      <trkpt lat="47.26862" lon="-1.63977">
        <ele>29.5</ele>
        <time>2011-07-28T16:34:46Z</time>
      </trkpt>
      <trkpt lat="47.26858" lon="-1.63978">
        <ele>29</ele>
        <time>2011-07-28T16:34:49Z</time>
      </trkpt>
      <trkpt lat="47.26853" lon="-1.63978">
        <ele>28.7</ele>
        <time>2011-07-28T16:34:54Z</time>
      </trkpt>
      <trkpt lat="47.26849" lon="-1.63977">
        <ele>29</ele>
        <time>2011-07-28T16:34:59Z</time>
      </trkpt>
      <trkpt lat="47.26846" lon="-1.63977">
        <ele>30</ele>
        <time>2011-07-28T16:35:02Z</time>
      </trkpt>
      <trkpt lat="47.26842" lon="-1.63976">
        <ele>29.8</ele>
        <time>2011-07-28T16:35:04Z</time>
      </trkpt>
      <trkpt lat="47.2684" lon="-1.63977">
        <ele>29.8</ele>
        <time>2011-07-28T16:35:05Z</time>
      </trkpt>
      <trkpt lat="47.26837" lon="-1.63977">
        <ele>29.7</ele>
        <time>2011-07-28T16:35:06Z</time>
      </trkpt>
      <trkpt lat="47.26834" lon="-1.63978">
        <ele>29.6</ele>
        <time>2011-07-28T16:35:07Z</time>
      </trkpt>
      <trkpt lat="47.26831" lon="-1.63979">
        <ele>29.5</ele>
        <time>2011-07-28T16:35:08Z</time>
      </trkpt>
      <trkpt lat="47.26828" lon="-1.6398">
        <ele>29.5</ele>
        <time>2011-07-28T16:35:09Z</time>
      </trkpt>
      <trkpt lat="47.26825" lon="-1.63981">
        <ele>29.6</ele>
        <time>2011-07-28T16:35:11Z</time>
      </trkpt>
      <trkpt lat="47.26821" lon="-1.63981">
        <ele>29.1</ele>
        <time>2011-07-28T16:35:13Z</time>
      </trkpt>
      <trkpt lat="47.26818" lon="-1.63982">
        <ele>28.5</ele>
        <time>2011-07-28T16:35:15Z</time>
      </trkpt>
      <trkpt lat="47.26814" lon="-1.63983">
        <ele>28.1</ele>
        <time>2011-07-28T16:35:17Z</time>
      </trkpt>
      <trkpt lat="47.26811" lon="-1.63984">
        <ele>28.1</ele>
        <time>2011-07-28T16:35:19Z</time>
      </trkpt>
      <trkpt lat="47.26808" lon="-1.63986">
        <ele>28.3</ele>
        <time>2011-07-28T16:35:21Z</time>
      </trkpt>
      <trkpt lat="47.26805" lon="-1.63988">
        <ele>28.7</ele>
        <time>2011-07-28T16:35:23Z</time>
      </trkpt>
      <trkpt lat="47.26802" lon="-1.63991">
        <ele>29</ele>
        <time>2011-07-28T16:35:25Z</time>
      </trkpt>
      <trkpt lat="47.26798" lon="-1.63992">
        <ele>28.4</ele>
        <time>2011-07-28T16:35:27Z</time>
      </trkpt>
      <trkpt lat="47.26796" lon="-1.63993">
        <ele>28.2</ele>
        <time>2011-07-28T16:35:28Z</time>
      </trkpt>
      <trkpt lat="47.26793" lon="-1.63994">
        <ele>28.3</ele>
        <time>2011-07-28T16:35:29Z</time>
      </trkpt>
      <trkpt lat="47.26791" lon="-1.63994">
        <ele>28.4</ele>
        <time>2011-07-28T16:35:30Z</time>
      </trkpt>
      <trkpt lat="47.26788" lon="-1.63995">
        <ele>28.4</ele>
        <time>2011-07-28T16:35:31Z</time>
      </trkpt>
      <trkpt lat="47.26785" lon="-1.63996">
        <ele>28.3</ele>
        <time>2011-07-28T16:35:32Z</time>
      </trkpt>
      <trkpt lat="47.26782" lon="-1.63997">
        <ele>28.2</ele>
        <time>2011-07-28T16:35:33Z</time>
      </trkpt>
      <trkpt lat="47.26779" lon="-1.63998">
        <ele>28.1</ele>
        <time>2011-07-28T16:35:34Z</time>
      </trkpt>
      <trkpt lat="47.26775" lon="-1.64">
        <ele>28.3</ele>
        <time>2011-07-28T16:35:36Z</time>
      </trkpt>
      <trkpt lat="47.26773" lon="-1.64001">
        <ele>28.3</ele>
        <time>2011-07-28T16:35:37Z</time>
      </trkpt>
      <trkpt lat="47.2677" lon="-1.64002">
        <ele>28.4</ele>
        <time>2011-07-28T16:35:38Z</time>
      </trkpt>
      <trkpt lat="47.26767" lon="-1.64003">
        <ele>28.5</ele>
        <time>2011-07-28T16:35:40Z</time>
      </trkpt>
      <trkpt lat="47.26765" lon="-1.64004">
        <ele>28.5</ele>
        <time>2011-07-28T16:35:41Z</time>
      </trkpt>
      <trkpt lat="47.2676" lon="-1.64006">
        <ele>28.8</ele>
        <time>2011-07-28T16:35:43Z</time>
      </trkpt>
      <trkpt lat="47.26757" lon="-1.64009">
        <ele>28.8</ele>
        <time>2011-07-28T16:35:45Z</time>
      </trkpt>
      <trkpt lat="47.26755" lon="-1.6401">
        <ele>28.9</ele>
        <time>2011-07-28T16:35:46Z</time>
      </trkpt>
      <trkpt lat="47.26753" lon="-1.64012">
        <ele>28.9</ele>
        <time>2011-07-28T16:35:47Z</time>
      </trkpt>
      <trkpt lat="47.26751" lon="-1.64013">
        <ele>29.1</ele>
        <time>2011-07-28T16:35:48Z</time>
      </trkpt>
      <trkpt lat="47.26748" lon="-1.64009">
        <ele>29.5</ele>
        <time>2011-07-28T16:35:52Z</time>
      </trkpt>
      <trkpt lat="47.26745" lon="-1.64004">
        <ele>27.9</ele>
        <time>2011-07-28T16:35:57Z</time>
      </trkpt>
      <trkpt lat="47.26741" lon="-1.64003">
        <ele>28.7</ele>
        <time>2011-07-28T16:36:03Z</time>
      </trkpt>
      <trkpt lat="47.26738" lon="-1.63998">
        <ele>29</ele>
        <time>2011-07-28T16:36:10Z</time>
      </trkpt>
      <trkpt lat="47.26737" lon="-1.63992">
        <ele>29.5</ele>
        <time>2011-07-28T16:36:14Z</time>
      </trkpt>
      <trkpt lat="47.26733" lon="-1.63988">
        <ele>28.8</ele>
        <time>2011-07-28T16:36:24Z</time>
      </trkpt>
      <trkpt lat="47.26729" lon="-1.63985">
        <ele>29.1</ele>
        <time>2011-07-28T16:36:44Z</time>
      </trkpt>
      <trkpt lat="47.26729" lon="-1.63984">
        <ele>29.1</ele>
        <time>2011-07-28T16:36:45Z</time>
      </trkpt>
      <trkpt lat="47.26728" lon="-1.63974">
        <ele>30</ele>
        <time>2011-07-28T16:37:24Z</time>
      </trkpt>
      <trkpt lat="47.2673" lon="-1.63968">
        <ele>30.3</ele>
        <time>2011-07-28T16:37:38Z</time>
      </trkpt>
      <trkpt lat="47.2673" lon="-1.63962">
        <ele>29.2</ele>
        <time>2011-07-28T16:37:41Z</time>
      </trkpt>
      <trkpt lat="47.2673" lon="-1.63956">
        <ele>30</ele>
        <time>2011-07-28T16:37:44Z</time>
      </trkpt>
      <trkpt lat="47.26731" lon="-1.63953">
        <ele>30.3</ele>
        <time>2011-07-28T16:37:45Z</time>
      </trkpt>
      <trkpt lat="47.2673" lon="-1.63949">
        <ele>30.8</ele>
        <time>2011-07-28T16:37:46Z</time>
      </trkpt>
      <trkpt lat="47.26731" lon="-1.63946">
        <ele>31.1</ele>
        <time>2011-07-28T16:37:47Z</time>
      </trkpt>
      <trkpt lat="47.26734" lon="-1.63941">
        <ele>31.7</ele>
        <time>2011-07-28T16:37:49Z</time>
      </trkpt>
      <trkpt lat="47.26733" lon="-1.63935">
        <ele>32.1</ele>
        <time>2011-07-28T16:37:51Z</time>
      </trkpt>
      <trkpt lat="47.26732" lon="-1.6393">
        <ele>32.9</ele>
        <time>2011-07-28T16:37:54Z</time>
      </trkpt>
      <trkpt lat="47.26729" lon="-1.63925">
        <ele>32.5</ele>
        <time>2011-07-28T16:37:57Z</time>
      </trkpt>
      <trkpt lat="47.26727" lon="-1.63921">
        <ele>32.4</ele>
        <time>2011-07-28T16:37:58Z</time>
      </trkpt>
      <trkpt lat="47.26725" lon="-1.63915">
        <ele>31.3</ele>
        <time>2011-07-28T16:38:00Z</time>
      </trkpt>
      <trkpt lat="47.26725" lon="-1.63909">
        <ele>30.6</ele>
        <time>2011-07-28T16:38:02Z</time>
      </trkpt>
      <trkpt lat="47.26725" lon="-1.63906">
        <ele>30.3</ele>
        <time>2011-07-28T16:38:03Z</time>
      </trkpt>
      <trkpt lat="47.26725" lon="-1.63899">
        <ele>30.2</ele>
        <time>2011-07-28T16:38:05Z</time>
      </trkpt>
      <trkpt lat="47.26725" lon="-1.63894">
        <ele>30.3</ele>
        <time>2011-07-28T16:38:07Z</time>
      </trkpt>
      <trkpt lat="47.26725" lon="-1.63888">
        <ele>30.3</ele>
        <time>2011-07-28T16:38:10Z</time>
      </trkpt>
      <trkpt lat="47.26725" lon="-1.63882">
        <ele>30.4</ele>
        <time>2011-07-28T16:38:14Z</time>
      </trkpt>
      <trkpt lat="47.26724" lon="-1.63875">
        <ele>30.1</ele>
        <time>2011-07-28T16:38:25Z</time>
      </trkpt>
      <trkpt lat="47.26725" lon="-1.63869">
        <ele>30.4</ele>
        <time>2011-07-28T16:38:49Z</time>
      </trkpt>
      <trkpt lat="47.26725" lon="-1.63869">
        <ele>30.2</ele>
        <time>2011-07-28T16:38:50Z</time>
      </trkpt>
      <trkpt lat="47.26726" lon="-1.63859">
        <ele>30.3</ele>
        <time>2011-07-28T16:39:09Z</time>
      </trkpt>
      <trkpt lat="47.26728" lon="-1.63853">
        <ele>30.3</ele>
        <time>2011-07-28T16:39:11Z</time>
      </trkpt>
      <trkpt lat="47.26728" lon="-1.63848">
        <ele>30.7</ele>
        <time>2011-07-28T16:39:13Z</time>
      </trkpt>
      <trkpt lat="47.26727" lon="-1.63844">
        <ele>30.8</ele>
        <time>2011-07-28T16:39:14Z</time>
      </trkpt>
      <trkpt lat="47.26727" lon="-1.63841">
        <ele>30.8</ele>
        <time>2011-07-28T16:39:15Z</time>
      </trkpt>
      <trkpt lat="47.26727" lon="-1.63834">
        <ele>30.8</ele>
        <time>2011-07-28T16:39:17Z</time>
      </trkpt>
      <trkpt lat="47.26728" lon="-1.63828">
        <ele>30.6</ele>
        <time>2011-07-28T16:39:19Z</time>
      </trkpt>
      <trkpt lat="47.26729" lon="-1.63824">
        <ele>30.5</ele>
        <time>2011-07-28T16:39:20Z</time>
      </trkpt>
      <trkpt lat="47.2673" lon="-1.6382">
        <ele>30.4</ele>
        <time>2011-07-28T16:39:21Z</time>
      </trkpt>
      <trkpt lat="47.26731" lon="-1.63816">
        <ele>30.5</ele>
        <time>2011-07-28T16:39:22Z</time>
      </trkpt>
      <trkpt lat="47.26732" lon="-1.63812">
        <ele>30.6</ele>
        <time>2011-07-28T16:39:23Z</time>
      </trkpt>
      <trkpt lat="47.26732" lon="-1.63808">
        <ele>30.7</ele>
        <time>2011-07-28T16:39:24Z</time>
      </trkpt>
      <trkpt lat="47.26733" lon="-1.63804">
        <ele>30.5</ele>
        <time>2011-07-28T16:39:25Z</time>
      </trkpt>
      <trkpt lat="47.26733" lon="-1.638">
        <ele>30.4</ele>
        <time>2011-07-28T16:39:26Z</time>
      </trkpt>
      <trkpt lat="47.26733" lon="-1.63795">
        <ele>30.3</ele>
        <time>2011-07-28T16:39:27Z</time>
      </trkpt>
      <trkpt lat="47.26734" lon="-1.63789">
        <ele>30.4</ele>
        <time>2011-07-28T16:39:28Z</time>
      </trkpt>
      <trkpt lat="47.26735" lon="-1.63783">
        <ele>30.5</ele>
        <time>2011-07-28T16:39:29Z</time>
      </trkpt>
      <trkpt lat="47.26736" lon="-1.63778">
        <ele>30.6</ele>
        <time>2011-07-28T16:39:30Z</time>
      </trkpt>
      <trkpt lat="47.26737" lon="-1.63772">
        <ele>30.7</ele>
        <time>2011-07-28T16:39:31Z</time>
      </trkpt>
      <trkpt lat="47.26738" lon="-1.63767">
        <ele>30.8</ele>
        <time>2011-07-28T16:39:32Z</time>
      </trkpt>
      <trkpt lat="47.26739" lon="-1.63763">
        <ele>30.9</ele>
        <time>2011-07-28T16:39:33Z</time>
      </trkpt>
      <trkpt lat="47.2674" lon="-1.63758">
        <ele>30.9</ele>
        <time>2011-07-28T16:39:34Z</time>
      </trkpt>
      <trkpt lat="47.26741" lon="-1.63754">
        <ele>30.4</ele>
        <time>2011-07-28T16:39:35Z</time>
      </trkpt>
      <trkpt lat="47.26742" lon="-1.63751">
        <ele>30</ele>
        <time>2011-07-28T16:39:36Z</time>
      </trkpt>
      <trkpt lat="47.26743" lon="-1.63747">
        <ele>29.8</ele>
        <time>2011-07-28T16:39:37Z</time>
      </trkpt>
      <trkpt lat="47.26744" lon="-1.63743">
        <ele>29.8</ele>
        <time>2011-07-28T16:39:38Z</time>
      </trkpt>
      <trkpt lat="47.26745" lon="-1.6374">
        <ele>29.9</ele>
        <time>2011-07-28T16:39:39Z</time>
      </trkpt>
      <trkpt lat="47.26746" lon="-1.63736">
        <ele>30</ele>
        <time>2011-07-28T16:39:40Z</time>
      </trkpt>
      <trkpt lat="47.26747" lon="-1.63732">
        <ele>30</ele>
        <time>2011-07-28T16:39:41Z</time>
      </trkpt>
      <trkpt lat="47.26748" lon="-1.63728">
        <ele>30</ele>
        <time>2011-07-28T16:39:42Z</time>
      </trkpt>
      <trkpt lat="47.26749" lon="-1.63724">
        <ele>30</ele>
        <time>2011-07-28T16:39:43Z</time>
      </trkpt>
      <trkpt lat="47.2675" lon="-1.6372">
        <ele>29.9</ele>
        <time>2011-07-28T16:39:44Z</time>
      </trkpt>
      <trkpt lat="47.26751" lon="-1.63716">
        <ele>29.8</ele>
        <time>2011-07-28T16:39:45Z</time>
      </trkpt>
      <trkpt lat="47.26752" lon="-1.63712">
        <ele>29.7</ele>
        <time>2011-07-28T16:39:46Z</time>
      </trkpt>
      <trkpt lat="47.26754" lon="-1.63709">
        <ele>30.1</ele>
        <time>2011-07-28T16:39:47Z</time>
      </trkpt>
      <trkpt lat="47.26755" lon="-1.63703">
        <ele>30.7</ele>
        <time>2011-07-28T16:39:49Z</time>
      </trkpt>
      <trkpt lat="47.26757" lon="-1.63699">
        <ele>31</ele>
        <time>2011-07-28T16:39:51Z</time>
      </trkpt>
      <trkpt lat="47.26757" lon="-1.63697">
        <ele>31</ele>
        <time>2011-07-28T16:39:52Z</time>
      </trkpt>
      <trkpt lat="47.26758" lon="-1.6369">
        <ele>31.4</ele>
        <time>2011-07-28T16:39:55Z</time>
      </trkpt>
      <trkpt lat="47.26761" lon="-1.63686">
        <ele>32.1</ele>
        <time>2011-07-28T16:39:57Z</time>
      </trkpt>
      <trkpt lat="47.26761" lon="-1.6368">
        <ele>32.7</ele>
        <time>2011-07-28T16:39:59Z</time>
      </trkpt>
      <trkpt lat="47.2676" lon="-1.63674">
        <ele>33.2</ele>
        <time>2011-07-28T16:40:01Z</time>
      </trkpt>
      <trkpt lat="47.26761" lon="-1.63668">
        <ele>33.7</ele>
        <time>2011-07-28T16:40:03Z</time>
      </trkpt>
      <trkpt lat="47.26762" lon="-1.63662">
        <ele>34.1</ele>
        <time>2011-07-28T16:40:05Z</time>
      </trkpt>
      <trkpt lat="47.26763" lon="-1.63657">
        <ele>34.3</ele>
        <time>2011-07-28T16:40:07Z</time>
      </trkpt>
      <trkpt lat="47.26763" lon="-1.63652">
        <ele>34.4</ele>
        <time>2011-07-28T16:40:09Z</time>
      </trkpt>
      <trkpt lat="47.26766" lon="-1.63647">
        <ele>34.9</ele>
        <time>2011-07-28T16:40:12Z</time>
      </trkpt>
      <trkpt lat="47.26768" lon="-1.63642">
        <ele>34.8</ele>
        <time>2011-07-28T16:40:18Z</time>
      </trkpt>
      <trkpt lat="47.26771" lon="-1.63637">
        <ele>35.2</ele>
        <time>2011-07-28T16:40:25Z</time>
      </trkpt>
      <trkpt lat="47.26774" lon="-1.63632">
        <ele>35.4</ele>
        <time>2011-07-28T16:40:32Z</time>
      </trkpt>
      <trkpt lat="47.26776" lon="-1.63628">
        <ele>35.1</ele>
        <time>2011-07-28T16:40:34Z</time>
      </trkpt>
      <trkpt lat="47.26778" lon="-1.63626">
        <ele>35</ele>
        <time>2011-07-28T16:40:35Z</time>
      </trkpt>
      <trkpt lat="47.2678" lon="-1.63623">
        <ele>35</ele>
        <time>2011-07-28T16:40:36Z</time>
      </trkpt>
      <trkpt lat="47.26783" lon="-1.6362">
        <ele>34.9</ele>
        <time>2011-07-28T16:40:37Z</time>
      </trkpt>
      <trkpt lat="47.26785" lon="-1.63618">
        <ele>34.9</ele>
        <time>2011-07-28T16:40:38Z</time>
      </trkpt>
      <trkpt lat="47.26787" lon="-1.63616">
        <ele>34.9</ele>
        <time>2011-07-28T16:40:39Z</time>
      </trkpt>
      <trkpt lat="47.2679" lon="-1.63613">
        <ele>34.9</ele>
        <time>2011-07-28T16:40:40Z</time>
      </trkpt>
      <trkpt lat="47.26792" lon="-1.63611">
        <ele>34.9</ele>
        <time>2011-07-28T16:40:41Z</time>
      </trkpt>
      <trkpt lat="47.26794" lon="-1.63609">
        <ele>35</ele>
        <time>2011-07-28T16:40:42Z</time>
      </trkpt>
      <trkpt lat="47.26798" lon="-1.63607">
        <ele>35</ele>
        <time>2011-07-28T16:40:44Z</time>
      </trkpt>
      <trkpt lat="47.268" lon="-1.63605">
        <ele>34.8</ele>
        <time>2011-07-28T16:40:45Z</time>
      </trkpt>
      <trkpt lat="47.26802" lon="-1.63603">
        <ele>34.7</ele>
        <time>2011-07-28T16:40:46Z</time>
      </trkpt>
      <trkpt lat="47.26806" lon="-1.636">
        <ele>34.7</ele>
        <time>2011-07-28T16:40:48Z</time>
      </trkpt>
      <trkpt lat="47.26809" lon="-1.63596">
        <ele>34.9</ele>
        <time>2011-07-28T16:40:53Z</time>
      </trkpt>
      <trkpt lat="47.2681" lon="-1.63594">
        <ele>35.1</ele>
        <time>2011-07-28T16:40:54Z</time>
      </trkpt>
      <trkpt lat="47.26812" lon="-1.63591">
        <ele>35.2</ele>
        <time>2011-07-28T16:40:55Z</time>
      </trkpt>
      <trkpt lat="47.26814" lon="-1.63587">
        <ele>35.3</ele>
        <time>2011-07-28T16:40:56Z</time>
      </trkpt>
      <trkpt lat="47.26816" lon="-1.63584">
        <ele>35.4</ele>
        <time>2011-07-28T16:40:57Z</time>
      </trkpt>
      <trkpt lat="47.26817" lon="-1.6358">
        <ele>35.2</ele>
        <time>2011-07-28T16:40:58Z</time>
      </trkpt>
      <trkpt lat="47.26819" lon="-1.63576">
        <ele>35</ele>
        <time>2011-07-28T16:40:59Z</time>
      </trkpt>
      <trkpt lat="47.2682" lon="-1.63572">
        <ele>34.9</ele>
        <time>2011-07-28T16:41:00Z</time>
      </trkpt>
      <trkpt lat="47.26822" lon="-1.63567">
        <ele>35</ele>
        <time>2011-07-28T16:41:01Z</time>
      </trkpt>
      <trkpt lat="47.26824" lon="-1.63561">
        <ele>35.1</ele>
        <time>2011-07-28T16:41:02Z</time>
      </trkpt>
      <trkpt lat="47.26825" lon="-1.63554">
        <ele>35.2</ele>
        <time>2011-07-28T16:41:03Z</time>
      </trkpt>
      <trkpt lat="47.26827" lon="-1.63547">
        <ele>35.4</ele>
        <time>2011-07-28T16:41:04Z</time>
      </trkpt>
      <trkpt lat="47.26829" lon="-1.63541">
        <ele>35.6</ele>
        <time>2011-07-28T16:41:05Z</time>
      </trkpt>
      <trkpt lat="47.26832" lon="-1.63536">
        <ele>35.8</ele>
        <time>2011-07-28T16:41:06Z</time>
      </trkpt>
      <trkpt lat="47.26835" lon="-1.63533">
        <ele>35.5</ele>
        <time>2011-07-28T16:41:07Z</time>
      </trkpt>
      <trkpt lat="47.26837" lon="-1.6353">
        <ele>35.3</ele>
        <time>2011-07-28T16:41:08Z</time>
      </trkpt>
      <trkpt lat="47.26839" lon="-1.63526">
        <ele>35.2</ele>
        <time>2011-07-28T16:41:09Z</time>
      </trkpt>
      <trkpt lat="47.26841" lon="-1.63522">
        <ele>35.1</ele>
        <time>2011-07-28T16:41:10Z</time>
      </trkpt>
      <trkpt lat="47.26842" lon="-1.63518">
        <ele>35.1</ele>
        <time>2011-07-28T16:41:11Z</time>
      </trkpt>
      <trkpt lat="47.26844" lon="-1.63514">
        <ele>35</ele>
        <time>2011-07-28T16:41:12Z</time>
      </trkpt>
      <trkpt lat="47.26845" lon="-1.6351">
        <ele>35</ele>
        <time>2011-07-28T16:41:13Z</time>
      </trkpt>
      <trkpt lat="47.26847" lon="-1.63505">
        <ele>35.1</ele>
        <time>2011-07-28T16:41:14Z</time>
      </trkpt>
      <trkpt lat="47.26848" lon="-1.63501">
        <ele>35.2</ele>
        <time>2011-07-28T16:41:15Z</time>
      </trkpt>
      <trkpt lat="47.26849" lon="-1.63497">
        <ele>35.2</ele>
        <time>2011-07-28T16:41:16Z</time>
      </trkpt>
      <trkpt lat="47.26851" lon="-1.63493">
        <ele>35.2</ele>
        <time>2011-07-28T16:41:17Z</time>
      </trkpt>
      <trkpt lat="47.26853" lon="-1.63489">
        <ele>35.3</ele>
        <time>2011-07-28T16:41:18Z</time>
      </trkpt>
      <trkpt lat="47.26855" lon="-1.63484">
        <ele>35.3</ele>
        <time>2011-07-28T16:41:19Z</time>
      </trkpt>
      <trkpt lat="47.26856" lon="-1.63478">
        <ele>35</ele>
        <time>2011-07-28T16:41:20Z</time>
      </trkpt>
      <trkpt lat="47.26859" lon="-1.63471">
        <ele>34.8</ele>
        <time>2011-07-28T16:41:21Z</time>
      </trkpt>
      <trkpt lat="47.26861" lon="-1.63463">
        <ele>34.6</ele>
        <time>2011-07-28T16:41:22Z</time>
      </trkpt>
      <trkpt lat="47.26864" lon="-1.63456">
        <ele>34.4</ele>
        <time>2011-07-28T16:41:23Z</time>
      </trkpt>
      <trkpt lat="47.26867" lon="-1.63447">
        <ele>34.2</ele>
        <time>2011-07-28T16:41:24Z</time>
      </trkpt>
      <trkpt lat="47.26868" lon="-1.63438">
        <ele>34</ele>
        <time>2011-07-28T16:41:25Z</time>
      </trkpt>
      <trkpt lat="47.2687" lon="-1.63428">
        <ele>34.1</ele>
        <time>2011-07-28T16:41:26Z</time>
      </trkpt>
      <trkpt lat="47.26872" lon="-1.63418">
        <ele>34.2</ele>
        <time>2011-07-28T16:41:27Z</time>
      </trkpt>
      <trkpt lat="47.26873" lon="-1.63408">
        <ele>34.3</ele>
        <time>2011-07-28T16:41:28Z</time>
      </trkpt>
      <trkpt lat="47.26873" lon="-1.63398">
        <ele>34.3</ele>
        <time>2011-07-28T16:41:29Z</time>
      </trkpt>
      <trkpt lat="47.26873" lon="-1.63388">
        <ele>34.3</ele>
        <time>2011-07-28T16:41:30Z</time>
      </trkpt>
      <trkpt lat="47.26874" lon="-1.63379">
        <ele>34.3</ele>
        <time>2011-07-28T16:41:31Z</time>
      </trkpt>
      <trkpt lat="47.26876" lon="-1.63372">
        <ele>34.3</ele>
        <time>2011-07-28T16:41:32Z</time>
      </trkpt>
      <trkpt lat="47.2688" lon="-1.63369">
        <ele>33.9</ele>
        <time>2011-07-28T16:41:33Z</time>
      </trkpt>
      <trkpt lat="47.26883" lon="-1.63369">
        <ele>33.5</ele>
        <time>2011-07-28T16:41:34Z</time>
      </trkpt>
      <trkpt lat="47.26886" lon="-1.6337">
        <ele>33.3</ele>
        <time>2011-07-28T16:41:35Z</time>
      </trkpt>
      <trkpt lat="47.26888" lon="-1.63372">
        <ele>33.5</ele>
        <time>2011-07-28T16:41:36Z</time>
      </trkpt>
      <trkpt lat="47.26891" lon="-1.63374">
        <ele>33.7</ele>
        <time>2011-07-28T16:41:37Z</time>
      </trkpt>
      <trkpt lat="47.26894" lon="-1.63375">
        <ele>33.8</ele>
        <time>2011-07-28T16:41:38Z</time>
      </trkpt>
      <trkpt lat="47.26896" lon="-1.63376">
        <ele>33.8</ele>
        <time>2011-07-28T16:41:39Z</time>
      </trkpt>
      <trkpt lat="47.26899" lon="-1.63376">
        <ele>33.9</ele>
        <time>2011-07-28T16:41:40Z</time>
      </trkpt>
      <trkpt lat="47.26902" lon="-1.63377">
        <ele>33.9</ele>
        <time>2011-07-28T16:41:41Z</time>
      </trkpt>
      <trkpt lat="47.26905" lon="-1.63378">
        <ele>33.9</ele>
        <time>2011-07-28T16:41:42Z</time>
      </trkpt>
      <trkpt lat="47.26908" lon="-1.63379">
        <ele>33.9</ele>
        <time>2011-07-28T16:41:43Z</time>
      </trkpt>
      <trkpt lat="47.2691" lon="-1.6338">
        <ele>33.9</ele>
        <time>2011-07-28T16:41:44Z</time>
      </trkpt>
      <trkpt lat="47.26913" lon="-1.63381">
        <ele>34.1</ele>
        <time>2011-07-28T16:41:45Z</time>
      </trkpt>
      <trkpt lat="47.26915" lon="-1.63382">
        <ele>34.3</ele>
        <time>2011-07-28T16:41:46Z</time>
      </trkpt>
      <trkpt lat="47.26917" lon="-1.63383">
        <ele>34.4</ele>
        <time>2011-07-28T16:41:47Z</time>
      </trkpt>
      <trkpt lat="47.26922" lon="-1.63384">
        <ele>34.7</ele>
        <time>2011-07-28T16:41:49Z</time>
      </trkpt>
      <trkpt lat="47.26925" lon="-1.63384">
        <ele>34.9</ele>
        <time>2011-07-28T16:41:51Z</time>
      </trkpt>
      <trkpt lat="47.2693" lon="-1.63383">
        <ele>37.1</ele>
        <time>2011-07-28T16:42:02Z</time>
      </trkpt>
      <trkpt lat="47.2693" lon="-1.63383">
        <ele>37.4</ele>
        <time>2011-07-28T16:42:03Z</time>
      </trkpt>
      <trkpt lat="47.26934" lon="-1.63374">
        <ele>35.9</ele>
        <time>2011-07-28T16:42:26Z</time>
      </trkpt>
      <trkpt lat="47.26937" lon="-1.63371">
        <ele>37.5</ele>
        <time>2011-07-28T16:42:32Z</time>
      </trkpt>
      <trkpt lat="47.26939" lon="-1.63365">
        <ele>36.7</ele>
        <time>2011-07-28T16:42:34Z</time>
      </trkpt>
      <trkpt lat="47.26939" lon="-1.63362">
        <ele>36.5</ele>
        <time>2011-07-28T16:42:35Z</time>
      </trkpt>
      <trkpt lat="47.2694" lon="-1.63355">
        <ele>36.6</ele>
        <time>2011-07-28T16:42:37Z</time>
      </trkpt>
      <trkpt lat="47.2694" lon="-1.63349">
        <ele>37.1</ele>
        <time>2011-07-28T16:42:39Z</time>
      </trkpt>
      <trkpt lat="47.26942" lon="-1.63343">
        <ele>37.5</ele>
        <time>2011-07-28T16:42:41Z</time>
      </trkpt>
      <trkpt lat="47.26944" lon="-1.63338">
        <ele>37.5</ele>
        <time>2011-07-28T16:42:43Z</time>
      </trkpt>
      <trkpt lat="47.26946" lon="-1.63333">
        <ele>37.4</ele>
        <time>2011-07-28T16:42:45Z</time>
      </trkpt>
      <trkpt lat="47.26948" lon="-1.63327">
        <ele>37.6</ele>
        <time>2011-07-28T16:42:47Z</time>
      </trkpt>
      <trkpt lat="47.26949" lon="-1.63324">
        <ele>37.6</ele>
        <time>2011-07-28T16:42:48Z</time>
      </trkpt>
      <trkpt lat="47.2695" lon="-1.6332">
        <ele>37.9</ele>
        <time>2011-07-28T16:42:49Z</time>
      </trkpt>
      <trkpt lat="47.26951" lon="-1.63317">
        <ele>38</ele>
        <time>2011-07-28T16:42:50Z</time>
      </trkpt>
      <trkpt lat="47.26952" lon="-1.63313">
        <ele>38.2</ele>
        <time>2011-07-28T16:42:51Z</time>
      </trkpt>
      <trkpt lat="47.26952" lon="-1.6331">
        <ele>38.2</ele>
        <time>2011-07-28T16:42:52Z</time>
      </trkpt>
      <trkpt lat="47.26951" lon="-1.63304">
        <ele>38.2</ele>
        <time>2011-07-28T16:42:54Z</time>
      </trkpt>
      <trkpt lat="47.26951" lon="-1.63298">
        <ele>38.4</ele>
        <time>2011-07-28T16:42:56Z</time>
      </trkpt>
      <trkpt lat="47.2695" lon="-1.63292">
        <ele>38.7</ele>
        <time>2011-07-28T16:42:59Z</time>
      </trkpt>
      <trkpt lat="47.2695" lon="-1.63288">
        <ele>38.8</ele>
        <time>2011-07-28T16:43:01Z</time>
      </trkpt>
      <trkpt lat="47.26949" lon="-1.63286">
        <ele>38.4</ele>
        <time>2011-07-28T16:43:02Z</time>
      </trkpt>
      <trkpt lat="47.26946" lon="-1.63283">
        <ele>38.2</ele>
        <time>2011-07-28T16:43:03Z</time>
      </trkpt>
      <trkpt lat="47.26942" lon="-1.63279">
        <ele>38</ele>
        <time>2011-07-28T16:43:04Z</time>
      </trkpt>
      <trkpt lat="47.26938" lon="-1.63277">
        <ele>37.5</ele>
        <time>2011-07-28T16:43:05Z</time>
      </trkpt>
      <trkpt lat="47.26933" lon="-1.63275">
        <ele>37.1</ele>
        <time>2011-07-28T16:43:06Z</time>
      </trkpt>
      <trkpt lat="47.26929" lon="-1.63272">
        <ele>36.9</ele>
        <time>2011-07-28T16:43:07Z</time>
      </trkpt>
      <trkpt lat="47.26924" lon="-1.63268">
        <ele>35.7</ele>
        <time>2011-07-28T16:43:08Z</time>
      </trkpt>
      <trkpt lat="47.26919" lon="-1.63265">
        <ele>34.8</ele>
        <time>2011-07-28T16:43:09Z</time>
      </trkpt>
      <trkpt lat="47.26916" lon="-1.63262">
        <ele>34.2</ele>
        <time>2011-07-28T16:43:10Z</time>
      </trkpt>
      <trkpt lat="47.26913" lon="-1.6326">
        <ele>33.7</ele>
        <time>2011-07-28T16:43:11Z</time>
      </trkpt>
      <trkpt lat="47.2691" lon="-1.63257">
        <ele>32.8</ele>
        <time>2011-07-28T16:43:12Z</time>
      </trkpt>
      <trkpt lat="47.26908" lon="-1.63255">
        <ele>32.2</ele>
        <time>2011-07-28T16:43:13Z</time>
      </trkpt>
      <trkpt lat="47.26907" lon="-1.63251">
        <ele>31.8</ele>
        <time>2011-07-28T16:43:14Z</time>
      </trkpt>
      <trkpt lat="47.26906" lon="-1.63248">
        <ele>31.1</ele>
        <time>2011-07-28T16:43:15Z</time>
      </trkpt>
      <trkpt lat="47.26904" lon="-1.63245">
        <ele>30.6</ele>
        <time>2011-07-28T16:43:16Z</time>
      </trkpt>
      <trkpt lat="47.26903" lon="-1.63242">
        <ele>30.2</ele>
        <time>2011-07-28T16:43:17Z</time>
      </trkpt>
      <trkpt lat="47.26903" lon="-1.63238">
        <ele>29.9</ele>
        <time>2011-07-28T16:43:18Z</time>
      </trkpt>
      <trkpt lat="47.26902" lon="-1.63234">
        <ele>29.6</ele>
        <time>2011-07-28T16:43:19Z</time>
      </trkpt>
      <trkpt lat="47.26901" lon="-1.6323">
        <ele>29.4</ele>
        <time>2011-07-28T16:43:20Z</time>
      </trkpt>
      <trkpt lat="47.26899" lon="-1.63224">
        <ele>27.9</ele>
        <time>2011-07-28T16:43:23Z</time>
      </trkpt>
      <trkpt lat="47.26898" lon="-1.63219">
        <ele>27.9</ele>
        <time>2011-07-28T16:43:29Z</time>
      </trkpt>
      <trkpt lat="47.26896" lon="-1.63213">
        <ele>27.5</ele>
        <time>2011-07-28T16:43:37Z</time>
      </trkpt>
      <trkpt lat="47.26894" lon="-1.63207">
        <ele>28.3</ele>
        <time>2011-07-28T16:43:51Z</time>
      </trkpt>
      <trkpt lat="47.26895" lon="-1.63201">
        <ele>27.1</ele>
        <time>2011-07-28T16:44:14Z</time>
      </trkpt>
      <trkpt lat="47.26895" lon="-1.632">
        <ele>27</ele>
        <time>2011-07-28T16:44:15Z</time>
      </trkpt>
      <trkpt lat="47.26895" lon="-1.63191">
        <ele>27.4</ele>
        <time>2011-07-28T16:44:18Z</time>
      </trkpt>
      <trkpt lat="47.26894" lon="-1.63187">
        <ele>27.2</ele>
        <time>2011-07-28T16:44:19Z</time>
      </trkpt>
      <trkpt lat="47.26893" lon="-1.63183">
        <ele>27.1</ele>
        <time>2011-07-28T16:44:20Z</time>
      </trkpt>
      <trkpt lat="47.26892" lon="-1.63178">
        <ele>27.1</ele>
        <time>2011-07-28T16:44:21Z</time>
      </trkpt>
      <trkpt lat="47.26892" lon="-1.63174">
        <ele>26.9</ele>
        <time>2011-07-28T16:44:22Z</time>
      </trkpt>
      <trkpt lat="47.26891" lon="-1.6317">
        <ele>26.8</ele>
        <time>2011-07-28T16:44:23Z</time>
      </trkpt>
      <trkpt lat="47.2689" lon="-1.63166">
        <ele>26.7</ele>
        <time>2011-07-28T16:44:24Z</time>
      </trkpt>
      <trkpt lat="47.26889" lon="-1.63162">
        <ele>26.8</ele>
        <time>2011-07-28T16:44:25Z</time>
      </trkpt>
      <trkpt lat="47.26888" lon="-1.63158">
        <ele>26.8</ele>
        <time>2011-07-28T16:44:26Z</time>
      </trkpt>
      <trkpt lat="47.26887" lon="-1.63153">
        <ele>26.9</ele>
        <time>2011-07-28T16:44:27Z</time>
      </trkpt>
      <trkpt lat="47.26886" lon="-1.63148">
        <ele>26.9</ele>
        <time>2011-07-28T16:44:28Z</time>
      </trkpt>
      <trkpt lat="47.26885" lon="-1.63143">
        <ele>26.9</ele>
        <time>2011-07-28T16:44:29Z</time>
      </trkpt>
      <trkpt lat="47.26884" lon="-1.63138">
        <ele>26.9</ele>
        <time>2011-07-28T16:44:30Z</time>
      </trkpt>
      <trkpt lat="47.26884" lon="-1.63133">
        <ele>26.9</ele>
        <time>2011-07-28T16:44:31Z</time>
      </trkpt>
      <trkpt lat="47.26883" lon="-1.63128">
        <ele>26.8</ele>
        <time>2011-07-28T16:44:32Z</time>
      </trkpt>
      <trkpt lat="47.26882" lon="-1.63124">
        <ele>26.7</ele>
        <time>2011-07-28T16:44:33Z</time>
      </trkpt>
      <trkpt lat="47.2688" lon="-1.6312">
        <ele>26.6</ele>
        <time>2011-07-28T16:44:34Z</time>
      </trkpt>
      <trkpt lat="47.26879" lon="-1.63116">
        <ele>26.6</ele>
        <time>2011-07-28T16:44:35Z</time>
      </trkpt>
      <trkpt lat="47.26877" lon="-1.63112">
        <ele>26.6</ele>
        <time>2011-07-28T16:44:36Z</time>
      </trkpt>
      <trkpt lat="47.26876" lon="-1.63109">
        <ele>26.6</ele>
        <time>2011-07-28T16:44:37Z</time>
      </trkpt>
      <trkpt lat="47.26874" lon="-1.63105">
        <ele>26.3</ele>
        <time>2011-07-28T16:44:38Z</time>
      </trkpt>
      <trkpt lat="47.26873" lon="-1.63102">
        <ele>26.2</ele>
        <time>2011-07-28T16:44:39Z</time>
      </trkpt>
      <trkpt lat="47.26871" lon="-1.63099">
        <ele>26.1</ele>
        <time>2011-07-28T16:44:40Z</time>
      </trkpt>
      <trkpt lat="47.2687" lon="-1.63096">
        <ele>25.9</ele>
        <time>2011-07-28T16:44:41Z</time>
      </trkpt>
      <trkpt lat="47.26868" lon="-1.63094">
        <ele>25.8</ele>
        <time>2011-07-28T16:44:42Z</time>
      </trkpt>
      <trkpt lat="47.26866" lon="-1.63091">
        <ele>25.8</ele>
        <time>2011-07-28T16:44:43Z</time>
      </trkpt>
      <trkpt lat="47.26864" lon="-1.63089">
        <ele>25.8</ele>
        <time>2011-07-28T16:44:44Z</time>
      </trkpt>
      <trkpt lat="47.26861" lon="-1.63085">
        <ele>25.8</ele>
        <time>2011-07-28T16:44:46Z</time>
      </trkpt>
      <trkpt lat="47.26859" lon="-1.63083">
        <ele>25.8</ele>
        <time>2011-07-28T16:44:47Z</time>
      </trkpt>
      <trkpt lat="47.26857" lon="-1.6308">
        <ele>25.7</ele>
        <time>2011-07-28T16:44:48Z</time>
      </trkpt>
      <trkpt lat="47.26856" lon="-1.63077">
        <ele>25.7</ele>
        <time>2011-07-28T16:44:49Z</time>
      </trkpt>
      <trkpt lat="47.26852" lon="-1.63074">
        <ele>25.8</ele>
        <time>2011-07-28T16:44:51Z</time>
      </trkpt>
      <trkpt lat="47.2685" lon="-1.63072">
        <ele>25.9</ele>
        <time>2011-07-28T16:44:52Z</time>
      </trkpt>
      <trkpt lat="47.26848" lon="-1.6307">
        <ele>26</ele>
        <time>2011-07-28T16:44:53Z</time>
      </trkpt>
      <trkpt lat="47.26845" lon="-1.63068">
        <ele>25.9</ele>
        <time>2011-07-28T16:44:54Z</time>
      </trkpt>
      <trkpt lat="47.26842" lon="-1.63065">
        <ele>25.8</ele>
        <time>2011-07-28T16:44:55Z</time>
      </trkpt>
      <trkpt lat="47.26841" lon="-1.63063">
        <ele>25.7</ele>
        <time>2011-07-28T16:44:56Z</time>
      </trkpt>
      <trkpt lat="47.26839" lon="-1.63057">
        <ele>25.4</ele>
        <time>2011-07-28T16:44:58Z</time>
      </trkpt>
      <trkpt lat="47.26837" lon="-1.63051">
        <ele>25.6</ele>
        <time>2011-07-28T16:45:00Z</time>
      </trkpt>
      <trkpt lat="47.26834" lon="-1.63048">
        <ele>26.1</ele>
        <time>2011-07-28T16:45:02Z</time>
      </trkpt>
      <trkpt lat="47.26831" lon="-1.63046">
        <ele>26.2</ele>
        <time>2011-07-28T16:45:03Z</time>
      </trkpt>
      <trkpt lat="47.26828" lon="-1.63045">
        <ele>26.4</ele>
        <time>2011-07-28T16:45:04Z</time>
      </trkpt>
      <trkpt lat="47.26825" lon="-1.63044">
        <ele>26.5</ele>
        <time>2011-07-28T16:45:05Z</time>
      </trkpt>
      <trkpt lat="47.26823" lon="-1.63042">
        <ele>26.6</ele>
        <time>2011-07-28T16:45:06Z</time>
      </trkpt>
      <trkpt lat="47.26821" lon="-1.63038">
        <ele>26.6</ele>
        <time>2011-07-28T16:45:07Z</time>
      </trkpt>
      <trkpt lat="47.26819" lon="-1.63034">
        <ele>26.6</ele>
        <time>2011-07-28T16:45:08Z</time>
      </trkpt>
      <trkpt lat="47.26817" lon="-1.6303">
        <ele>26.6</ele>
        <time>2011-07-28T16:45:09Z</time>
      </trkpt>
      <trkpt lat="47.26814" lon="-1.63026">
        <ele>26.6</ele>
        <time>2011-07-28T16:45:10Z</time>
      </trkpt>
      <trkpt lat="47.26812" lon="-1.63022">
        <ele>26.7</ele>
        <time>2011-07-28T16:45:11Z</time>
      </trkpt>
      <trkpt lat="47.2681" lon="-1.63019">
        <ele>26.7</ele>
        <time>2011-07-28T16:45:12Z</time>
      </trkpt>
      <trkpt lat="47.26808" lon="-1.63016">
        <ele>26.7</ele>
        <time>2011-07-28T16:45:13Z</time>
      </trkpt>
      <trkpt lat="47.26807" lon="-1.63013">
        <ele>26.7</ele>
        <time>2011-07-28T16:45:14Z</time>
      </trkpt>
      <trkpt lat="47.26805" lon="-1.63009">
        <ele>26.7</ele>
        <time>2011-07-28T16:45:15Z</time>
      </trkpt>
      <trkpt lat="47.26803" lon="-1.63005">
        <ele>26.6</ele>
        <time>2011-07-28T16:45:16Z</time>
      </trkpt>
      <trkpt lat="47.26801" lon="-1.63001">
        <ele>26.5</ele>
        <time>2011-07-28T16:45:17Z</time>
      </trkpt>
      <trkpt lat="47.268" lon="-1.62996">
        <ele>26.4</ele>
        <time>2011-07-28T16:45:18Z</time>
      </trkpt>
      <trkpt lat="47.26799" lon="-1.62991">
        <ele>26.5</ele>
        <time>2011-07-28T16:45:19Z</time>
      </trkpt>
      <trkpt lat="47.26798" lon="-1.62985">
        <ele>26.6</ele>
        <time>2011-07-28T16:45:20Z</time>
      </trkpt>
      <trkpt lat="47.26798" lon="-1.6298">
        <ele>26.7</ele>
        <time>2011-07-28T16:45:21Z</time>
      </trkpt>
      <trkpt lat="47.26797" lon="-1.62974">
        <ele>26.7</ele>
        <time>2011-07-28T16:45:22Z</time>
      </trkpt>
      <trkpt lat="47.26797" lon="-1.62969">
        <ele>26.7</ele>
        <time>2011-07-28T16:45:23Z</time>
      </trkpt>
      <trkpt lat="47.26797" lon="-1.62963">
        <ele>26.7</ele>
        <time>2011-07-28T16:45:24Z</time>
      </trkpt>
      <trkpt lat="47.26797" lon="-1.62958">
        <ele>26.7</ele>
        <time>2011-07-28T16:45:25Z</time>
      </trkpt>
      <trkpt lat="47.26796" lon="-1.62953">
        <ele>26.3</ele>
        <time>2011-07-28T16:45:26Z</time>
      </trkpt>
      <trkpt lat="47.26796" lon="-1.62948">
        <ele>26</ele>
        <time>2011-07-28T16:45:27Z</time>
      </trkpt>
      <trkpt lat="47.26796" lon="-1.62943">
        <ele>25.8</ele>
        <time>2011-07-28T16:45:28Z</time>
      </trkpt>
      <trkpt lat="47.26795" lon="-1.62937">
        <ele>25.7</ele>
        <time>2011-07-28T16:45:29Z</time>
      </trkpt>
      <trkpt lat="47.26795" lon="-1.62932">
        <ele>25.5</ele>
        <time>2011-07-28T16:45:30Z</time>
      </trkpt>
      <trkpt lat="47.26795" lon="-1.62927">
        <ele>25.5</ele>
        <time>2011-07-28T16:45:31Z</time>
      </trkpt>
      <trkpt lat="47.26795" lon="-1.62922">
        <ele>25.2</ele>
        <time>2011-07-28T16:45:32Z</time>
      </trkpt>
      <trkpt lat="47.26795" lon="-1.62918">
        <ele>24.9</ele>
        <time>2011-07-28T16:45:33Z</time>
      </trkpt>
      <trkpt lat="47.26795" lon="-1.62913">
        <ele>24.8</ele>
        <time>2011-07-28T16:45:34Z</time>
      </trkpt>
      <trkpt lat="47.26795" lon="-1.62909">
        <ele>25.1</ele>
        <time>2011-07-28T16:45:35Z</time>
      </trkpt>
      <trkpt lat="47.26794" lon="-1.62905">
        <ele>25.3</ele>
        <time>2011-07-28T16:45:36Z</time>
      </trkpt>
      <trkpt lat="47.26794" lon="-1.62901">
        <ele>25.5</ele>
        <time>2011-07-28T16:45:37Z</time>
      </trkpt>
      <trkpt lat="47.26794" lon="-1.62897">
        <ele>25.6</ele>
        <time>2011-07-28T16:45:38Z</time>
      </trkpt>
      <trkpt lat="47.26794" lon="-1.62893">
        <ele>25.5</ele>
        <time>2011-07-28T16:45:39Z</time>
      </trkpt>
      <trkpt lat="47.26794" lon="-1.62888">
        <ele>25.4</ele>
        <time>2011-07-28T16:45:40Z</time>
      </trkpt>
      <trkpt lat="47.26793" lon="-1.62884">
        <ele>25.3</ele>
        <time>2011-07-28T16:45:41Z</time>
      </trkpt>
      <trkpt lat="47.26793" lon="-1.6288">
        <ele>25.3</ele>
        <time>2011-07-28T16:45:42Z</time>
      </trkpt>
      <trkpt lat="47.26792" lon="-1.62876">
        <ele>25.3</ele>
        <time>2011-07-28T16:45:43Z</time>
      </trkpt>
      <trkpt lat="47.26791" lon="-1.62872">
        <ele>25.3</ele>
        <time>2011-07-28T16:45:44Z</time>
      </trkpt>
      <trkpt lat="47.2679" lon="-1.62868">
        <ele>25.3</ele>
        <time>2011-07-28T16:45:45Z</time>
      </trkpt>
      <trkpt lat="47.26789" lon="-1.62864">
        <ele>25.3</ele>
        <time>2011-07-28T16:45:46Z</time>
      </trkpt>
      <trkpt lat="47.26787" lon="-1.62859">
        <ele>25.3</ele>
        <time>2011-07-28T16:45:47Z</time>
      </trkpt>
      <trkpt lat="47.26786" lon="-1.62855">
        <ele>25</ele>
        <time>2011-07-28T16:45:48Z</time>
      </trkpt>
      <trkpt lat="47.26785" lon="-1.6285">
        <ele>24.8</ele>
        <time>2011-07-28T16:45:49Z</time>
      </trkpt>
      <trkpt lat="47.26784" lon="-1.62846">
        <ele>24.6</ele>
        <time>2011-07-28T16:45:50Z</time>
      </trkpt>
      <trkpt lat="47.26784" lon="-1.62842">
        <ele>24.7</ele>
        <time>2011-07-28T16:45:51Z</time>
      </trkpt>
      <trkpt lat="47.26783" lon="-1.62837">
        <ele>24.8</ele>
        <time>2011-07-28T16:45:52Z</time>
      </trkpt>
      <trkpt lat="47.26783" lon="-1.62832">
        <ele>24.8</ele>
        <time>2011-07-28T16:45:53Z</time>
      </trkpt>
      <trkpt lat="47.26782" lon="-1.62827">
        <ele>24.8</ele>
        <time>2011-07-28T16:45:54Z</time>
      </trkpt>
      <trkpt lat="47.26782" lon="-1.62822">
        <ele>24.8</ele>
        <time>2011-07-28T16:45:55Z</time>
      </trkpt>
      <trkpt lat="47.26781" lon="-1.62817">
        <ele>24.7</ele>
        <time>2011-07-28T16:45:56Z</time>
      </trkpt>
      <trkpt lat="47.26781" lon="-1.62813">
        <ele>24.7</ele>
        <time>2011-07-28T16:45:57Z</time>
      </trkpt>
      <trkpt lat="47.2678" lon="-1.62809">
        <ele>24.8</ele>
        <time>2011-07-28T16:45:58Z</time>
      </trkpt>
      <trkpt lat="47.2678" lon="-1.62804">
        <ele>24.9</ele>
        <time>2011-07-28T16:45:59Z</time>
      </trkpt>
      <trkpt lat="47.26781" lon="-1.628">
        <ele>25</ele>
        <time>2011-07-28T16:46:00Z</time>
      </trkpt>
      <trkpt lat="47.2678" lon="-1.62797">
        <ele>24.8</ele>
        <time>2011-07-28T16:46:01Z</time>
      </trkpt>
      <trkpt lat="47.2678" lon="-1.62793">
        <ele>24.7</ele>
        <time>2011-07-28T16:46:02Z</time>
      </trkpt>
      <trkpt lat="47.2678" lon="-1.62788">
        <ele>24.6</ele>
        <time>2011-07-28T16:46:03Z</time>
      </trkpt>
      <trkpt lat="47.2678" lon="-1.62783">
        <ele>24.8</ele>
        <time>2011-07-28T16:46:04Z</time>
      </trkpt>
      <trkpt lat="47.26778" lon="-1.62777">
        <ele>24.9</ele>
        <time>2011-07-28T16:46:05Z</time>
      </trkpt>
      <trkpt lat="47.26777" lon="-1.62772">
        <ele>24.9</ele>
        <time>2011-07-28T16:46:06Z</time>
      </trkpt>
      <trkpt lat="47.26776" lon="-1.62767">
        <ele>25.1</ele>
        <time>2011-07-28T16:46:07Z</time>
      </trkpt>
      <trkpt lat="47.26775" lon="-1.62763">
        <ele>25.2</ele>
        <time>2011-07-28T16:46:08Z</time>
      </trkpt>
      <trkpt lat="47.26775" lon="-1.62758">
        <ele>25.3</ele>
        <time>2011-07-28T16:46:09Z</time>
      </trkpt>
      <trkpt lat="47.26775" lon="-1.62754">
        <ele>25</ele>
        <time>2011-07-28T16:46:10Z</time>
      </trkpt>
      <trkpt lat="47.26775" lon="-1.62749">
        <ele>24.8</ele>
        <time>2011-07-28T16:46:11Z</time>
      </trkpt>
      <trkpt lat="47.26775" lon="-1.62745">
        <ele>24.6</ele>
        <time>2011-07-28T16:46:12Z</time>
      </trkpt>
      <trkpt lat="47.26775" lon="-1.6274">
        <ele>24.5</ele>
        <time>2011-07-28T16:46:13Z</time>
      </trkpt>
      <trkpt lat="47.26775" lon="-1.62736">
        <ele>24.5</ele>
        <time>2011-07-28T16:46:14Z</time>
      </trkpt>
      <trkpt lat="47.26775" lon="-1.62731">
        <ele>24.4</ele>
        <time>2011-07-28T16:46:15Z</time>
      </trkpt>
      <trkpt lat="47.26775" lon="-1.62725">
        <ele>24.4</ele>
        <time>2011-07-28T16:46:16Z</time>
      </trkpt>
      <trkpt lat="47.26776" lon="-1.6272">
        <ele>24.2</ele>
        <time>2011-07-28T16:46:17Z</time>
      </trkpt>
      <trkpt lat="47.26776" lon="-1.62714">
        <ele>24</ele>
        <time>2011-07-28T16:46:18Z</time>
      </trkpt>
      <trkpt lat="47.26776" lon="-1.62709">
        <ele>23.8</ele>
        <time>2011-07-28T16:46:19Z</time>
      </trkpt>
      <trkpt lat="47.26777" lon="-1.62705">
        <ele>23.8</ele>
        <time>2011-07-28T16:46:20Z</time>
      </trkpt>
      <trkpt lat="47.26777" lon="-1.627">
        <ele>23.8</ele>
        <time>2011-07-28T16:46:21Z</time>
      </trkpt>
      <trkpt lat="47.26777" lon="-1.62695">
        <ele>23.8</ele>
        <time>2011-07-28T16:46:22Z</time>
      </trkpt>
      <trkpt lat="47.26777" lon="-1.62689">
        <ele>24</ele>
        <time>2011-07-28T16:46:23Z</time>
      </trkpt>
      <trkpt lat="47.26777" lon="-1.62684">
        <ele>24.2</ele>
        <time>2011-07-28T16:46:24Z</time>
      </trkpt>
      <trkpt lat="47.26778" lon="-1.62678">
        <ele>24.3</ele>
        <time>2011-07-28T16:46:25Z</time>
      </trkpt>
      <trkpt lat="47.26778" lon="-1.62674">
        <ele>24.4</ele>
        <time>2011-07-28T16:46:26Z</time>
      </trkpt>
      <trkpt lat="47.26778" lon="-1.6267">
        <ele>24.5</ele>
        <time>2011-07-28T16:46:27Z</time>
      </trkpt>
      <trkpt lat="47.26777" lon="-1.62665">
        <ele>24.6</ele>
        <time>2011-07-28T16:46:28Z</time>
      </trkpt>
      <trkpt lat="47.26777" lon="-1.6266">
        <ele>24.6</ele>
        <time>2011-07-28T16:46:29Z</time>
      </trkpt>
      <trkpt lat="47.26776" lon="-1.62654">
        <ele>24.3</ele>
        <time>2011-07-28T16:46:30Z</time>
      </trkpt>
      <trkpt lat="47.26775" lon="-1.62649">
        <ele>24.1</ele>
        <time>2011-07-28T16:46:31Z</time>
      </trkpt>
      <trkpt lat="47.26775" lon="-1.62644">
        <ele>23.9</ele>
        <time>2011-07-28T16:46:32Z</time>
      </trkpt>
      <trkpt lat="47.26775" lon="-1.6264">
        <ele>23.9</ele>
        <time>2011-07-28T16:46:33Z</time>
      </trkpt>
      <trkpt lat="47.26775" lon="-1.62635">
        <ele>23.9</ele>
        <time>2011-07-28T16:46:34Z</time>
      </trkpt>
      <trkpt lat="47.26775" lon="-1.62629">
        <ele>23.9</ele>
        <time>2011-07-28T16:46:35Z</time>
      </trkpt>
      <trkpt lat="47.26775" lon="-1.62624">
        <ele>24.1</ele>
        <time>2011-07-28T16:46:36Z</time>
      </trkpt>
      <trkpt lat="47.26774" lon="-1.6262">
        <ele>24.2</ele>
        <time>2011-07-28T16:46:37Z</time>
      </trkpt>
      <trkpt lat="47.26774" lon="-1.62615">
        <ele>24.3</ele>
        <time>2011-07-28T16:46:38Z</time>
      </trkpt>
      <trkpt lat="47.26774" lon="-1.6261">
        <ele>24.1</ele>
        <time>2011-07-28T16:46:39Z</time>
      </trkpt>
      <trkpt lat="47.26775" lon="-1.62606">
        <ele>24</ele>
        <time>2011-07-28T16:46:40Z</time>
      </trkpt>
      <trkpt lat="47.26775" lon="-1.62601">
        <ele>24</ele>
        <time>2011-07-28T16:46:41Z</time>
      </trkpt>
      <trkpt lat="47.26776" lon="-1.62596">
        <ele>23.8</ele>
        <time>2011-07-28T16:46:42Z</time>
      </trkpt>
      <trkpt lat="47.26777" lon="-1.62592">
        <ele>23.7</ele>
        <time>2011-07-28T16:46:43Z</time>
      </trkpt>
      <trkpt lat="47.26778" lon="-1.62587">
        <ele>23.7</ele>
        <time>2011-07-28T16:46:44Z</time>
      </trkpt>
      <trkpt lat="47.26779" lon="-1.62583">
        <ele>23.6</ele>
        <time>2011-07-28T16:46:45Z</time>
      </trkpt>
      <trkpt lat="47.26779" lon="-1.62579">
        <ele>23.5</ele>
        <time>2011-07-28T16:46:46Z</time>
      </trkpt>
      <trkpt lat="47.2678" lon="-1.62574">
        <ele>23.4</ele>
        <time>2011-07-28T16:46:47Z</time>
      </trkpt>
      <trkpt lat="47.26781" lon="-1.62569">
        <ele>23.4</ele>
        <time>2011-07-28T16:46:48Z</time>
      </trkpt>
      <trkpt lat="47.26781" lon="-1.62564">
        <ele>23</ele>
        <time>2011-07-28T16:46:49Z</time>
      </trkpt>
      <trkpt lat="47.26781" lon="-1.62559">
        <ele>22.7</ele>
        <time>2011-07-28T16:46:50Z</time>
      </trkpt>
      <trkpt lat="47.26781" lon="-1.62554">
        <ele>22.5</ele>
        <time>2011-07-28T16:46:51Z</time>
      </trkpt>
      <trkpt lat="47.26781" lon="-1.62549">
        <ele>23.2</ele>
        <time>2011-07-28T16:46:52Z</time>
      </trkpt>
      <trkpt lat="47.26782" lon="-1.62544">
        <ele>23.6</ele>
        <time>2011-07-28T16:46:53Z</time>
      </trkpt>
      <trkpt lat="47.26781" lon="-1.62539">
        <ele>24</ele>
        <time>2011-07-28T16:46:54Z</time>
      </trkpt>
      <trkpt lat="47.26781" lon="-1.62535">
        <ele>24.5</ele>
        <time>2011-07-28T16:46:55Z</time>
      </trkpt>
      <trkpt lat="47.26781" lon="-1.62531">
        <ele>24.8</ele>
        <time>2011-07-28T16:46:56Z</time>
      </trkpt>
      <trkpt lat="47.26782" lon="-1.62527">
        <ele>25.1</ele>
        <time>2011-07-28T16:46:57Z</time>
      </trkpt>
      <trkpt lat="47.26782" lon="-1.62522">
        <ele>25.2</ele>
        <time>2011-07-28T16:46:58Z</time>
      </trkpt>
      <trkpt lat="47.26782" lon="-1.62518">
        <ele>25.2</ele>
        <time>2011-07-28T16:46:59Z</time>
      </trkpt>
      <trkpt lat="47.26783" lon="-1.62513">
        <ele>25.3</ele>
        <time>2011-07-28T16:47:00Z</time>
      </trkpt>
      <trkpt lat="47.26783" lon="-1.62509">
        <ele>25</ele>
        <time>2011-07-28T16:47:01Z</time>
      </trkpt>
      <trkpt lat="47.26784" lon="-1.62505">
        <ele>24.8</ele>
        <time>2011-07-28T16:47:02Z</time>
      </trkpt>
      <trkpt lat="47.26785" lon="-1.625">
        <ele>24.7</ele>
        <time>2011-07-28T16:47:03Z</time>
      </trkpt>
      <trkpt lat="47.26785" lon="-1.62496">
        <ele>24.6</ele>
        <time>2011-07-28T16:47:04Z</time>
      </trkpt>
      <trkpt lat="47.26786" lon="-1.62493">
        <ele>24.5</ele>
        <time>2011-07-28T16:47:05Z</time>
      </trkpt>
      <trkpt lat="47.26786" lon="-1.62489">
        <ele>24.4</ele>
        <time>2011-07-28T16:47:06Z</time>
      </trkpt>
      <trkpt lat="47.26787" lon="-1.62486">
        <ele>24.4</ele>
        <time>2011-07-28T16:47:07Z</time>
      </trkpt>
      <trkpt lat="47.26787" lon="-1.62483">
        <ele>24.3</ele>
        <time>2011-07-28T16:47:08Z</time>
      </trkpt>
      <trkpt lat="47.26788" lon="-1.62479">
        <ele>24.2</ele>
        <time>2011-07-28T16:47:09Z</time>
      </trkpt>
      <trkpt lat="47.26788" lon="-1.62476">
        <ele>24.2</ele>
        <time>2011-07-28T16:47:10Z</time>
      </trkpt>
      <trkpt lat="47.26788" lon="-1.62472">
        <ele>24.7</ele>
        <time>2011-07-28T16:47:11Z</time>
      </trkpt>
      <trkpt lat="47.26788" lon="-1.62467">
        <ele>25</ele>
        <time>2011-07-28T16:47:12Z</time>
      </trkpt>
      <trkpt lat="47.26788" lon="-1.62463">
        <ele>25.3</ele>
        <time>2011-07-28T16:47:13Z</time>
      </trkpt>
      <trkpt lat="47.26789" lon="-1.62459">
        <ele>25.1</ele>
        <time>2011-07-28T16:47:14Z</time>
      </trkpt>
      <trkpt lat="47.26789" lon="-1.62454">
        <ele>25</ele>
        <time>2011-07-28T16:47:15Z</time>
      </trkpt>
      <trkpt lat="47.26789" lon="-1.6245">
        <ele>24.9</ele>
        <time>2011-07-28T16:47:16Z</time>
      </trkpt>
      <trkpt lat="47.2679" lon="-1.62445">
        <ele>25</ele>
        <time>2011-07-28T16:47:17Z</time>
      </trkpt>
      <trkpt lat="47.2679" lon="-1.62441">
        <ele>25</ele>
        <time>2011-07-28T16:47:18Z</time>
      </trkpt>
      <trkpt lat="47.26791" lon="-1.62437">
        <ele>25.1</ele>
        <time>2011-07-28T16:47:19Z</time>
      </trkpt>
      <trkpt lat="47.26791" lon="-1.62432">
        <ele>25.1</ele>
        <time>2011-07-28T16:47:20Z</time>
      </trkpt>
      <trkpt lat="47.26791" lon="-1.62428">
        <ele>25.1</ele>
        <time>2011-07-28T16:47:21Z</time>
      </trkpt>
      <trkpt lat="47.26791" lon="-1.62423">
        <ele>25.1</ele>
        <time>2011-07-28T16:47:22Z</time>
      </trkpt>
      <trkpt lat="47.26791" lon="-1.62418">
        <ele>25.1</ele>
        <time>2011-07-28T16:47:23Z</time>
      </trkpt>
      <trkpt lat="47.26791" lon="-1.62414">
        <ele>25</ele>
        <time>2011-07-28T16:47:24Z</time>
      </trkpt>
      <trkpt lat="47.26791" lon="-1.62409">
        <ele>24.9</ele>
        <time>2011-07-28T16:47:25Z</time>
      </trkpt>
      <trkpt lat="47.26791" lon="-1.62405">
        <ele>24.9</ele>
        <time>2011-07-28T16:47:26Z</time>
      </trkpt>
      <trkpt lat="47.26791" lon="-1.62401">
        <ele>25.5</ele>
        <time>2011-07-28T16:47:27Z</time>
      </trkpt>
      <trkpt lat="47.26791" lon="-1.62397">
        <ele>25.9</ele>
        <time>2011-07-28T16:47:28Z</time>
      </trkpt>
      <trkpt lat="47.26791" lon="-1.62393">
        <ele>26.2</ele>
        <time>2011-07-28T16:47:29Z</time>
      </trkpt>
      <trkpt lat="47.26792" lon="-1.62389">
        <ele>26.2</ele>
        <time>2011-07-28T16:47:30Z</time>
      </trkpt>
      <trkpt lat="47.26794" lon="-1.62384">
        <ele>26.1</ele>
        <time>2011-07-28T16:47:32Z</time>
      </trkpt>
      <trkpt lat="47.26794" lon="-1.62378">
        <ele>25.5</ele>
        <time>2011-07-28T16:47:40Z</time>
      </trkpt>
      <trkpt lat="47.26796" lon="-1.62372">
        <ele>26.2</ele>
        <time>2011-07-28T16:47:48Z</time>
      </trkpt>
      <trkpt lat="47.26801" lon="-1.62372">
        <ele>26.1</ele>
        <time>2011-07-28T16:47:52Z</time>
      </trkpt>
      <trkpt lat="47.26804" lon="-1.62374">
        <ele>26.8</ele>
        <time>2011-07-28T16:47:54Z</time>
      </trkpt>
      <trkpt lat="47.26807" lon="-1.62375">
        <ele>27.4</ele>
        <time>2011-07-28T16:47:56Z</time>
      </trkpt>
      <trkpt lat="47.2681" lon="-1.62377">
        <ele>27.7</ele>
        <time>2011-07-28T16:47:58Z</time>
      </trkpt>
      <trkpt lat="47.26813" lon="-1.6238">
        <ele>28.2</ele>
        <time>2011-07-28T16:48:00Z</time>
      </trkpt>
      <trkpt lat="47.26816" lon="-1.62382">
        <ele>28.7</ele>
        <time>2011-07-28T16:48:02Z</time>
      </trkpt>
      <trkpt lat="47.26819" lon="-1.62385">
        <ele>29.3</ele>
        <time>2011-07-28T16:48:04Z</time>
      </trkpt>
      <trkpt lat="47.26823" lon="-1.62388">
        <ele>30.7</ele>
        <time>2011-07-28T16:48:06Z</time>
      </trkpt>
      <trkpt lat="47.26825" lon="-1.62389">
        <ele>31.1</ele>
        <time>2011-07-28T16:48:07Z</time>
      </trkpt>
      <trkpt lat="47.26827" lon="-1.62391">
        <ele>31.5</ele>
        <time>2011-07-28T16:48:08Z</time>
      </trkpt>
      <trkpt lat="47.26829" lon="-1.62393">
        <ele>31.7</ele>
        <time>2011-07-28T16:48:09Z</time>
      </trkpt>
      <trkpt lat="47.26832" lon="-1.62396">
        <ele>32</ele>
        <time>2011-07-28T16:48:11Z</time>
      </trkpt>
      <trkpt lat="47.26836" lon="-1.62398">
        <ele>32.3</ele>
        <time>2011-07-28T16:48:14Z</time>
      </trkpt>
      <trkpt lat="47.26839" lon="-1.62401">
        <ele>33</ele>
        <time>2011-07-28T16:48:17Z</time>
      </trkpt>
      <trkpt lat="47.26844" lon="-1.624">
        <ele>33.5</ele>
        <time>2011-07-28T16:48:54Z</time>
      </trkpt>
      <trkpt lat="47.26844" lon="-1.624">
        <ele>33.9</ele>
        <time>2011-07-28T16:48:55Z</time>
      </trkpt>
      <trkpt lat="47.26847" lon="-1.62408">
        <ele>33.1</ele>
        <time>2011-07-28T16:49:16Z</time>
      </trkpt>
      <trkpt lat="47.2685" lon="-1.62411">
        <ele>33.3</ele>
        <time>2011-07-28T16:49:18Z</time>
      </trkpt>
      <trkpt lat="47.26852" lon="-1.62413">
        <ele>33.8</ele>
        <time>2011-07-28T16:49:20Z</time>
      </trkpt>
      <trkpt lat="47.26855" lon="-1.62416">
        <ele>34.3</ele>
        <time>2011-07-28T16:49:22Z</time>
      </trkpt>
      <trkpt lat="47.26858" lon="-1.62417">
        <ele>34.5</ele>
        <time>2011-07-28T16:49:23Z</time>
      </trkpt>
      <trkpt lat="47.26861" lon="-1.6242">
        <ele>34.7</ele>
        <time>2011-07-28T16:49:24Z</time>
      </trkpt>
      <trkpt lat="47.26863" lon="-1.62422">
        <ele>35.1</ele>
        <time>2011-07-28T16:49:25Z</time>
      </trkpt>
      <trkpt lat="47.26866" lon="-1.62423">
        <ele>35.4</ele>
        <time>2011-07-28T16:49:26Z</time>
      </trkpt>
      <trkpt lat="47.2687" lon="-1.62425">
        <ele>35.8</ele>
        <time>2011-07-28T16:49:28Z</time>
      </trkpt>
      <trkpt lat="47.26872" lon="-1.62424">
        <ele>35.9</ele>
        <time>2011-07-28T16:49:29Z</time>
      </trkpt>
      <trkpt lat="47.26876" lon="-1.62422">
        <ele>36</ele>
        <time>2011-07-28T16:49:31Z</time>
      </trkpt>
      <trkpt lat="47.2688" lon="-1.62423">
        <ele>36.8</ele>
        <time>2011-07-28T16:49:33Z</time>
      </trkpt>
      <trkpt lat="47.26884" lon="-1.62424">
        <ele>37.9</ele>
        <time>2011-07-28T16:50:00Z</time>
      </trkpt>
      <trkpt lat="47.26884" lon="-1.62424">
        <ele>37.8</ele>
        <time>2011-07-28T16:50:01Z</time>
      </trkpt>
      <trkpt lat="47.26888" lon="-1.62428">
        <ele>38.5</ele>
        <time>2011-07-28T16:51:21Z</time>
      </trkpt>
      <trkpt lat="47.26893" lon="-1.62427">
        <ele>38.7</ele>
        <time>2011-07-28T16:51:24Z</time>
      </trkpt>
      <trkpt lat="47.26896" lon="-1.62426">
        <ele>39</ele>
        <time>2011-07-28T16:51:27Z</time>
      </trkpt>
      <trkpt lat="47.26899" lon="-1.6242">
        <ele>38.9</ele>
        <time>2011-07-28T16:51:31Z</time>
      </trkpt>
      <trkpt lat="47.26898" lon="-1.62415">
        <ele>39.1</ele>
        <time>2011-07-28T16:51:36Z</time>
      </trkpt>
      <trkpt lat="47.26902" lon="-1.62411">
        <ele>39.7</ele>
        <time>2011-07-28T16:51:39Z</time>
      </trkpt>
      <trkpt lat="47.26905" lon="-1.6241">
        <ele>40.2</ele>
        <time>2011-07-28T16:51:41Z</time>
      </trkpt>
      <trkpt lat="47.26909" lon="-1.62406">
        <ele>40.2</ele>
        <time>2011-07-28T16:51:43Z</time>
      </trkpt>
      <trkpt lat="47.26911" lon="-1.62404">
        <ele>40.2</ele>
        <time>2011-07-28T16:51:44Z</time>
      </trkpt>
      <trkpt lat="47.26913" lon="-1.62403">
        <ele>40.2</ele>
        <time>2011-07-28T16:51:45Z</time>
      </trkpt>
      <trkpt lat="47.26915" lon="-1.62402">
        <ele>40</ele>
        <time>2011-07-28T16:51:46Z</time>
      </trkpt>
      <trkpt lat="47.2692" lon="-1.62402">
        <ele>39.6</ele>
        <time>2011-07-28T16:51:48Z</time>
      </trkpt>
      <trkpt lat="47.26923" lon="-1.62402">
        <ele>39.8</ele>
        <time>2011-07-28T16:51:49Z</time>
      </trkpt>
      <trkpt lat="47.26927" lon="-1.62403">
        <ele>40.1</ele>
        <time>2011-07-28T16:51:51Z</time>
      </trkpt>
      <trkpt lat="47.26931" lon="-1.62402">
        <ele>40.4</ele>
        <time>2011-07-28T16:51:53Z</time>
      </trkpt>
      <trkpt lat="47.26935" lon="-1.62401">
        <ele>40.6</ele>
        <time>2011-07-28T16:51:55Z</time>
      </trkpt>
      <trkpt lat="47.26939" lon="-1.62399">
        <ele>40.9</ele>
        <time>2011-07-28T16:51:57Z</time>
      </trkpt>
      <trkpt lat="47.26943" lon="-1.62398">
        <ele>41.6</ele>
        <time>2011-07-28T16:51:59Z</time>
      </trkpt>
      <trkpt lat="47.26947" lon="-1.62396">
        <ele>42</ele>
        <time>2011-07-28T16:52:01Z</time>
      </trkpt>
      <trkpt lat="47.2695" lon="-1.62392">
        <ele>42.5</ele>
        <time>2011-07-28T16:52:03Z</time>
      </trkpt>
      <trkpt lat="47.26953" lon="-1.6239">
        <ele>42.5</ele>
        <time>2011-07-28T16:52:05Z</time>
      </trkpt>
      <trkpt lat="47.26957" lon="-1.62387">
        <ele>42.2</ele>
        <time>2011-07-28T16:52:07Z</time>
      </trkpt>
      <trkpt lat="47.26961" lon="-1.62385">
        <ele>42.3</ele>
        <time>2011-07-28T16:52:09Z</time>
      </trkpt>
      <trkpt lat="47.26966" lon="-1.62382">
        <ele>42.5</ele>
        <time>2011-07-28T16:52:11Z</time>
      </trkpt>
      <trkpt lat="47.26968" lon="-1.62381">
        <ele>42.7</ele>
        <time>2011-07-28T16:52:12Z</time>
      </trkpt>
      <trkpt lat="47.2697" lon="-1.6238">
        <ele>42.8</ele>
        <time>2011-07-28T16:52:13Z</time>
      </trkpt>
      <trkpt lat="47.26974" lon="-1.62377">
        <ele>43.3</ele>
        <time>2011-07-28T16:52:15Z</time>
      </trkpt>
      <trkpt lat="47.26976" lon="-1.62376">
        <ele>43.4</ele>
        <time>2011-07-28T16:52:16Z</time>
      </trkpt>
      <trkpt lat="47.26978" lon="-1.62375">
        <ele>43.5</ele>
        <time>2011-07-28T16:52:17Z</time>
      </trkpt>
      <trkpt lat="47.26981" lon="-1.62373">
        <ele>43.7</ele>
        <time>2011-07-28T16:52:18Z</time>
      </trkpt>
      <trkpt lat="47.26983" lon="-1.62372">
        <ele>43.9</ele>
        <time>2011-07-28T16:52:19Z</time>
      </trkpt>
      <trkpt lat="47.26987" lon="-1.6237">
        <ele>43.8</ele>
        <time>2011-07-28T16:52:21Z</time>
      </trkpt>
      <trkpt lat="47.26989" lon="-1.62368">
        <ele>43.7</ele>
        <time>2011-07-28T16:52:22Z</time>
      </trkpt>
      <trkpt lat="47.26995" lon="-1.62364">
        <ele>44.6</ele>
        <time>2011-07-28T16:52:25Z</time>
      </trkpt>
      <trkpt lat="47.26999" lon="-1.62362">
        <ele>45</ele>
        <time>2011-07-28T16:52:27Z</time>
      </trkpt>
      <trkpt lat="47.27003" lon="-1.62359">
        <ele>45</ele>
        <time>2011-07-28T16:52:29Z</time>
      </trkpt>
      <trkpt lat="47.27007" lon="-1.62356">
        <ele>45.6</ele>
        <time>2011-07-28T16:52:31Z</time>
      </trkpt>
      <trkpt lat="47.27009" lon="-1.62354">
        <ele>45.8</ele>
        <time>2011-07-28T16:52:32Z</time>
      </trkpt>
      <trkpt lat="47.27011" lon="-1.62353">
        <ele>45.9</ele>
        <time>2011-07-28T16:52:33Z</time>
      </trkpt>
      <trkpt lat="47.27014" lon="-1.62351">
        <ele>46</ele>
        <time>2011-07-28T16:52:34Z</time>
      </trkpt>
      <trkpt lat="47.27016" lon="-1.6235">
        <ele>46</ele>
        <time>2011-07-28T16:52:35Z</time>
      </trkpt>
      <trkpt lat="47.27018" lon="-1.62348">
        <ele>46</ele>
        <time>2011-07-28T16:52:36Z</time>
      </trkpt>
      <trkpt lat="47.2702" lon="-1.62346">
        <ele>46.2</ele>
        <time>2011-07-28T16:52:37Z</time>
      </trkpt>
      <trkpt lat="47.27022" lon="-1.62345">
        <ele>46.3</ele>
        <time>2011-07-28T16:52:38Z</time>
      </trkpt>
      <trkpt lat="47.27024" lon="-1.62344">
        <ele>46.5</ele>
        <time>2011-07-28T16:52:39Z</time>
      </trkpt>
      <trkpt lat="47.27027" lon="-1.62343">
        <ele>46.5</ele>
        <time>2011-07-28T16:52:40Z</time>
      </trkpt>
      <trkpt lat="47.27031" lon="-1.62342">
        <ele>46.5</ele>
        <time>2011-07-28T16:52:42Z</time>
      </trkpt>
      <trkpt lat="47.27033" lon="-1.62341">
        <ele>46.7</ele>
        <time>2011-07-28T16:52:43Z</time>
      </trkpt>
      <trkpt lat="47.27036" lon="-1.6234">
        <ele>46.9</ele>
        <time>2011-07-28T16:52:44Z</time>
      </trkpt>
      <trkpt lat="47.27038" lon="-1.62338">
        <ele>47</ele>
        <time>2011-07-28T16:52:45Z</time>
      </trkpt>
      <trkpt lat="47.2704" lon="-1.62337">
        <ele>47.4</ele>
        <time>2011-07-28T16:52:46Z</time>
      </trkpt>
      <trkpt lat="47.27042" lon="-1.62336">
        <ele>47.7</ele>
        <time>2011-07-28T16:52:47Z</time>
      </trkpt>
      <trkpt lat="47.27044" lon="-1.62334">
        <ele>47.9</ele>
        <time>2011-07-28T16:52:48Z</time>
      </trkpt>
      <trkpt lat="47.27046" lon="-1.62333">
        <ele>48.1</ele>
        <time>2011-07-28T16:52:49Z</time>
      </trkpt>
      <trkpt lat="47.27049" lon="-1.62331">
        <ele>48.1</ele>
        <time>2011-07-28T16:52:50Z</time>
      </trkpt>
      <trkpt lat="47.27051" lon="-1.6233">
        <ele>48.1</ele>
        <time>2011-07-28T16:52:51Z</time>
      </trkpt>
      <trkpt lat="47.27053" lon="-1.62328">
        <ele>48.1</ele>
        <time>2011-07-28T16:52:52Z</time>
      </trkpt>
      <trkpt lat="47.27055" lon="-1.62327">
        <ele>48.3</ele>
        <time>2011-07-28T16:52:53Z</time>
      </trkpt>
      <trkpt lat="47.27057" lon="-1.62325">
        <ele>48.5</ele>
        <time>2011-07-28T16:52:54Z</time>
      </trkpt>
      <trkpt lat="47.2706" lon="-1.62324">
        <ele>48.6</ele>
        <time>2011-07-28T16:52:55Z</time>
      </trkpt>
      <trkpt lat="47.27062" lon="-1.62323">
        <ele>48.6</ele>
        <time>2011-07-28T16:52:56Z</time>
      </trkpt>
      <trkpt lat="47.27064" lon="-1.62321">
        <ele>48.7</ele>
        <time>2011-07-28T16:52:57Z</time>
      </trkpt>
      <trkpt lat="47.27066" lon="-1.62319">
        <ele>48.7</ele>
        <time>2011-07-28T16:52:58Z</time>
      </trkpt>
      <trkpt lat="47.27069" lon="-1.62318">
        <ele>49.1</ele>
        <time>2011-07-28T16:52:59Z</time>
      </trkpt>
      <trkpt lat="47.27071" lon="-1.62317">
        <ele>49.4</ele>
        <time>2011-07-28T16:53:00Z</time>
      </trkpt>
      <trkpt lat="47.27073" lon="-1.62315">
        <ele>49.6</ele>
        <time>2011-07-28T16:53:01Z</time>
      </trkpt>
      <trkpt lat="47.27075" lon="-1.62313">
        <ele>49.3</ele>
        <time>2011-07-28T16:53:02Z</time>
      </trkpt>
      <trkpt lat="47.27079" lon="-1.62311">
        <ele>49</ele>
        <time>2011-07-28T16:53:04Z</time>
      </trkpt>
      <trkpt lat="47.27081" lon="-1.62309">
        <ele>49</ele>
        <time>2011-07-28T16:53:05Z</time>
      </trkpt>
      <trkpt lat="47.27085" lon="-1.62308">
        <ele>49</ele>
        <time>2011-07-28T16:53:07Z</time>
      </trkpt>
      <trkpt lat="47.27089" lon="-1.62306">
        <ele>49.6</ele>
        <time>2011-07-28T16:53:10Z</time>
      </trkpt>
      <trkpt lat="47.27092" lon="-1.62302">
        <ele>49.4</ele>
        <time>2011-07-28T16:53:13Z</time>
      </trkpt>
      <trkpt lat="47.27095" lon="-1.62299">
        <ele>49.6</ele>
        <time>2011-07-28T16:53:32Z</time>
      </trkpt>
      <trkpt lat="47.27096" lon="-1.62298">
        <ele>49.6</ele>
        <time>2011-07-28T16:53:33Z</time>
      </trkpt>
      <trkpt lat="47.27101" lon="-1.62291">
        <ele>48.8</ele>
        <time>2011-07-28T16:53:41Z</time>
      </trkpt>
      <trkpt lat="47.27098" lon="-1.62296">
        <ele>49.5</ele>
        <time>2011-07-28T16:54:02Z</time>
      </trkpt>
      <trkpt lat="47.27097" lon="-1.623">
        <ele>50.1</ele>
        <time>2011-07-28T16:54:04Z</time>
      </trkpt>
      <trkpt lat="47.27094" lon="-1.62305">
        <ele>49.9</ele>
        <time>2011-07-28T16:54:06Z</time>
      </trkpt>
      <trkpt lat="47.27094" lon="-1.62309">
        <ele>49.7</ele>
        <time>2011-07-28T16:54:07Z</time>
      </trkpt>
      <trkpt lat="47.27097" lon="-1.62311">
        <ele>49.6</ele>
        <time>2011-07-28T16:54:08Z</time>
      </trkpt>
      <trkpt lat="47.271" lon="-1.62312">
        <ele>49.6</ele>
        <time>2011-07-28T16:54:09Z</time>
      </trkpt>
      <trkpt lat="47.27104" lon="-1.6231">
        <ele>49.7</ele>
        <time>2011-07-28T16:54:10Z</time>
      </trkpt>
      <trkpt lat="47.27108" lon="-1.62311">
        <ele>49.7</ele>
        <time>2011-07-28T16:54:11Z</time>
      </trkpt>
      <trkpt lat="47.27112" lon="-1.62314">
        <ele>49.5</ele>
        <time>2011-07-28T16:54:12Z</time>
      </trkpt>
      <trkpt lat="47.27113" lon="-1.62319">
        <ele>49.4</ele>
        <time>2011-07-28T16:54:13Z</time>
      </trkpt>
      <trkpt lat="47.27113" lon="-1.62326">
        <ele>49.2</ele>
        <time>2011-07-28T16:54:14Z</time>
      </trkpt>
      <trkpt lat="47.27111" lon="-1.62331">
        <ele>49.1</ele>
        <time>2011-07-28T16:54:15Z</time>
      </trkpt>
      <trkpt lat="47.27109" lon="-1.62338">
        <ele>49.4</ele>
        <time>2011-07-28T16:54:16Z</time>
      </trkpt>
      <trkpt lat="47.27107" lon="-1.62345">
        <ele>49.6</ele>
        <time>2011-07-28T16:54:17Z</time>
      </trkpt>
      <trkpt lat="47.27104" lon="-1.62352">
        <ele>49.7</ele>
        <time>2011-07-28T16:54:18Z</time>
      </trkpt>
      <trkpt lat="47.27102" lon="-1.6236">
        <ele>50.1</ele>
        <time>2011-07-28T16:54:19Z</time>
      </trkpt>
      <trkpt lat="47.27099" lon="-1.62367">
        <ele>50.3</ele>
        <time>2011-07-28T16:54:20Z</time>
      </trkpt>
      <trkpt lat="47.27095" lon="-1.62373">
        <ele>50.5</ele>
        <time>2011-07-28T16:54:21Z</time>
      </trkpt>
      <trkpt lat="47.27091" lon="-1.62379">
        <ele>50.8</ele>
        <time>2011-07-28T16:54:22Z</time>
      </trkpt>
      <trkpt lat="47.27087" lon="-1.62385">
        <ele>51.1</ele>
        <time>2011-07-28T16:54:23Z</time>
      </trkpt>
      <trkpt lat="47.27083" lon="-1.62391">
        <ele>51.3</ele>
        <time>2011-07-28T16:54:24Z</time>
      </trkpt>
      <trkpt lat="47.27079" lon="-1.62396">
        <ele>51.7</ele>
        <time>2011-07-28T16:54:25Z</time>
      </trkpt>
      <trkpt lat="47.27075" lon="-1.62401">
        <ele>52</ele>
        <time>2011-07-28T16:54:26Z</time>
      </trkpt>
      <trkpt lat="47.27071" lon="-1.62406">
        <ele>52.3</ele>
        <time>2011-07-28T16:54:27Z</time>
      </trkpt>
      <trkpt lat="47.27068" lon="-1.6241">
        <ele>52.6</ele>
        <time>2011-07-28T16:54:28Z</time>
      </trkpt>
      <trkpt lat="47.27065" lon="-1.62414">
        <ele>52.9</ele>
        <time>2011-07-28T16:54:29Z</time>
      </trkpt>
      <trkpt lat="47.27063" lon="-1.62418">
        <ele>53.1</ele>
        <time>2011-07-28T16:54:30Z</time>
      </trkpt>
      <trkpt lat="47.27061" lon="-1.62421">
        <ele>53.2</ele>
        <time>2011-07-28T16:54:31Z</time>
      </trkpt>
      <trkpt lat="47.27059" lon="-1.62424">
        <ele>53.7</ele>
        <time>2011-07-28T16:54:32Z</time>
      </trkpt>
      <trkpt lat="47.27057" lon="-1.62426">
        <ele>54</ele>
        <time>2011-07-28T16:54:33Z</time>
      </trkpt>
      <trkpt lat="47.27055" lon="-1.62429">
        <ele>54.3</ele>
        <time>2011-07-28T16:54:34Z</time>
      </trkpt>
      <trkpt lat="47.27053" lon="-1.62431">
        <ele>54.4</ele>
        <time>2011-07-28T16:54:35Z</time>
      </trkpt>
      <trkpt lat="47.27051" lon="-1.62434">
        <ele>54.5</ele>
        <time>2011-07-28T16:54:36Z</time>
      </trkpt>
      <trkpt lat="47.27049" lon="-1.62437">
        <ele>54.6</ele>
        <time>2011-07-28T16:54:37Z</time>
      </trkpt>
      <trkpt lat="47.27047" lon="-1.62441">
        <ele>54.8</ele>
        <time>2011-07-28T16:54:38Z</time>
      </trkpt>
      <trkpt lat="47.27045" lon="-1.62445">
        <ele>54.9</ele>
        <time>2011-07-28T16:54:39Z</time>
      </trkpt>
      <trkpt lat="47.27043" lon="-1.62449">
        <ele>55.1</ele>
        <time>2011-07-28T16:54:40Z</time>
      </trkpt>
      <trkpt lat="47.2704" lon="-1.62454">
        <ele>55.3</ele>
        <time>2011-07-28T16:54:41Z</time>
      </trkpt>
      <trkpt lat="47.27038" lon="-1.62459">
        <ele>55.4</ele>
        <time>2011-07-28T16:54:42Z</time>
      </trkpt>
      <trkpt lat="47.27037" lon="-1.62464">
        <ele>55.5</ele>
        <time>2011-07-28T16:54:43Z</time>
      </trkpt>
      <trkpt lat="47.27036" lon="-1.62469">
        <ele>55.8</ele>
        <time>2011-07-28T16:54:44Z</time>
      </trkpt>
      <trkpt lat="47.27036" lon="-1.62475">
        <ele>56.1</ele>
        <time>2011-07-28T16:54:45Z</time>
      </trkpt>
      <trkpt lat="47.27037" lon="-1.62481">
        <ele>56.2</ele>
        <time>2011-07-28T16:54:46Z</time>
      </trkpt>
      <trkpt lat="47.2704" lon="-1.62486">
        <ele>56.4</ele>
        <time>2011-07-28T16:54:47Z</time>
      </trkpt>
      <trkpt lat="47.27043" lon="-1.6249">
        <ele>56.2</ele>
        <time>2011-07-28T16:54:48Z</time>
      </trkpt>
      <trkpt lat="47.27047" lon="-1.62494">
        <ele>56.1</ele>
        <time>2011-07-28T16:54:49Z</time>
      </trkpt>
      <trkpt lat="47.2705" lon="-1.62499">
        <ele>56</ele>
        <time>2011-07-28T16:54:50Z</time>
      </trkpt>
      <trkpt lat="47.27054" lon="-1.62503">
        <ele>56.1</ele>
        <time>2011-07-28T16:54:51Z</time>
      </trkpt>
      <trkpt lat="47.27057" lon="-1.62508">
        <ele>56.1</ele>
        <time>2011-07-28T16:54:52Z</time>
      </trkpt>
      <trkpt lat="47.2706" lon="-1.62512">
        <ele>56.1</ele>
        <time>2011-07-28T16:54:53Z</time>
      </trkpt>
      <trkpt lat="47.27063" lon="-1.62516">
        <ele>56.1</ele>
        <time>2011-07-28T16:54:54Z</time>
      </trkpt>
      <trkpt lat="47.27065" lon="-1.6252">
        <ele>56.2</ele>
        <time>2011-07-28T16:54:55Z</time>
      </trkpt>
      <trkpt lat="47.27067" lon="-1.62523">
        <ele>56.2</ele>
        <time>2011-07-28T16:54:56Z</time>
      </trkpt>
      <trkpt lat="47.27069" lon="-1.62525">
        <ele>56.3</ele>
        <time>2011-07-28T16:54:57Z</time>
      </trkpt>
      <trkpt lat="47.27072" lon="-1.62527">
        <ele>56.4</ele>
        <time>2011-07-28T16:54:58Z</time>
      </trkpt>
      <trkpt lat="47.27074" lon="-1.62529">
        <ele>56.5</ele>
        <time>2011-07-28T16:54:59Z</time>
      </trkpt>
      <trkpt lat="47.27077" lon="-1.62532">
        <ele>56.5</ele>
        <time>2011-07-28T16:55:01Z</time>
      </trkpt>
      <trkpt lat="47.2708" lon="-1.62537">
        <ele>56.7</ele>
        <time>2011-07-28T16:55:04Z</time>
      </trkpt>
      <trkpt lat="47.2708" lon="-1.62542">
        <ele>56.7</ele>
        <time>2011-07-28T16:55:07Z</time>
      </trkpt>
      <trkpt lat="47.27076" lon="-1.62539">
        <ele>56.6</ele>
        <time>2011-07-28T16:55:10Z</time>
      </trkpt>
      <trkpt lat="47.27075" lon="-1.62536">
        <ele>56.6</ele>
        <time>2011-07-28T16:55:11Z</time>
      </trkpt>
      <trkpt lat="47.27074" lon="-1.62532">
        <ele>56.6</ele>
        <time>2011-07-28T16:55:12Z</time>
      </trkpt>
      <trkpt lat="47.27071" lon="-1.62528">
        <ele>56.6</ele>
        <time>2011-07-28T16:55:13Z</time>
      </trkpt>
      <trkpt lat="47.27068" lon="-1.62525">
        <ele>56.7</ele>
        <time>2011-07-28T16:55:14Z</time>
      </trkpt>
      <trkpt lat="47.27065" lon="-1.6252">
        <ele>56.7</ele>
        <time>2011-07-28T16:55:15Z</time>
      </trkpt>
      <trkpt lat="47.27061" lon="-1.62516">
        <ele>56.4</ele>
        <time>2011-07-28T16:55:16Z</time>
      </trkpt>
      <trkpt lat="47.27057" lon="-1.62511">
        <ele>56.1</ele>
        <time>2011-07-28T16:55:17Z</time>
      </trkpt>
      <trkpt lat="47.27054" lon="-1.62507">
        <ele>55.9</ele>
        <time>2011-07-28T16:55:18Z</time>
      </trkpt>
      <trkpt lat="47.2705" lon="-1.62502">
        <ele>55.9</ele>
        <time>2011-07-28T16:55:19Z</time>
      </trkpt>
      <trkpt lat="47.27046" lon="-1.62497">
        <ele>55.9</ele>
        <time>2011-07-28T16:55:20Z</time>
      </trkpt>
      <trkpt lat="47.27043" lon="-1.62491">
        <ele>55.9</ele>
        <time>2011-07-28T16:55:21Z</time>
      </trkpt>
      <trkpt lat="47.27039" lon="-1.62486">
        <ele>55.9</ele>
        <time>2011-07-28T16:55:22Z</time>
      </trkpt>
      <trkpt lat="47.27036" lon="-1.6248">
        <ele>56</ele>
        <time>2011-07-28T16:55:23Z</time>
      </trkpt>
      <trkpt lat="47.27037" lon="-1.62474">
        <ele>56.1</ele>
        <time>2011-07-28T16:55:24Z</time>
      </trkpt>
      <trkpt lat="47.27039" lon="-1.62469">
        <ele>56.2</ele>
        <time>2011-07-28T16:55:25Z</time>
      </trkpt>
      <trkpt lat="47.2704" lon="-1.62463">
        <ele>56.2</ele>
        <time>2011-07-28T16:55:26Z</time>
      </trkpt>
      <trkpt lat="47.27042" lon="-1.62457">
        <ele>56.1</ele>
        <time>2011-07-28T16:55:27Z</time>
      </trkpt>
      <trkpt lat="47.27045" lon="-1.62453">
        <ele>56.1</ele>
        <time>2011-07-28T16:55:28Z</time>
      </trkpt>
      <trkpt lat="47.27048" lon="-1.62448">
        <ele>55.7</ele>
        <time>2011-07-28T16:55:29Z</time>
      </trkpt>
      <trkpt lat="47.27051" lon="-1.62442">
        <ele>55.4</ele>
        <time>2011-07-28T16:55:30Z</time>
      </trkpt>
      <trkpt lat="47.27055" lon="-1.62436">
        <ele>55.2</ele>
        <time>2011-07-28T16:55:31Z</time>
      </trkpt>
      <trkpt lat="47.27059" lon="-1.62431">
        <ele>55.3</ele>
        <time>2011-07-28T16:55:32Z</time>
      </trkpt>
      <trkpt lat="47.27062" lon="-1.62425">
        <ele>55.3</ele>
        <time>2011-07-28T16:55:33Z</time>
      </trkpt>
      <trkpt lat="47.27067" lon="-1.6242">
        <ele>55.3</ele>
        <time>2011-07-28T16:55:34Z</time>
      </trkpt>
      <trkpt lat="47.2707" lon="-1.62413">
        <ele>55.4</ele>
        <time>2011-07-28T16:55:35Z</time>
      </trkpt>
      <trkpt lat="47.27074" lon="-1.62407">
        <ele>55.1</ele>
        <time>2011-07-28T16:55:36Z</time>
      </trkpt>
      <trkpt lat="47.27078" lon="-1.624">
        <ele>54.8</ele>
        <time>2011-07-28T16:55:37Z</time>
      </trkpt>
      <trkpt lat="47.27083" lon="-1.62395">
        <ele>54.7</ele>
        <time>2011-07-28T16:55:38Z</time>
      </trkpt>
      <trkpt lat="47.27087" lon="-1.62389">
        <ele>53.9</ele>
        <time>2011-07-28T16:55:39Z</time>
      </trkpt>
      <trkpt lat="47.27091" lon="-1.62382">
        <ele>53.3</ele>
        <time>2011-07-28T16:55:40Z</time>
      </trkpt>
      <trkpt lat="47.27095" lon="-1.62375">
        <ele>52.9</ele>
        <time>2011-07-28T16:55:41Z</time>
      </trkpt>
      <trkpt lat="47.27099" lon="-1.62368">
        <ele>53.1</ele>
        <time>2011-07-28T16:55:42Z</time>
      </trkpt>
      <trkpt lat="47.27102" lon="-1.62362">
        <ele>53.2</ele>
        <time>2011-07-28T16:55:43Z</time>
      </trkpt>
      <trkpt lat="47.27103" lon="-1.62355">
        <ele>53.3</ele>
        <time>2011-07-28T16:55:44Z</time>
      </trkpt>
      <trkpt lat="47.27102" lon="-1.62348">
        <ele>52.4</ele>
        <time>2011-07-28T16:55:45Z</time>
      </trkpt>
      <trkpt lat="47.27102" lon="-1.62344">
        <ele>51.8</ele>
        <time>2011-07-28T16:55:46Z</time>
      </trkpt>
      <trkpt lat="47.27104" lon="-1.62341">
        <ele>50.8</ele>
        <time>2011-07-28T16:55:48Z</time>
      </trkpt>
      <trkpt lat="47.27105" lon="-1.62335">
        <ele>50.1</ele>
        <time>2011-07-28T16:55:50Z</time>
      </trkpt>
      <trkpt lat="47.27104" lon="-1.62332">
        <ele>49.9</ele>
        <time>2011-07-28T16:55:51Z</time>
      </trkpt>
      <trkpt lat="47.27103" lon="-1.62328">
        <ele>49.7</ele>
        <time>2011-07-28T16:55:52Z</time>
      </trkpt>
      <trkpt lat="47.27103" lon="-1.62323">
        <ele>49.6</ele>
        <time>2011-07-28T16:55:53Z</time>
      </trkpt>
      <trkpt lat="47.27103" lon="-1.62318">
        <ele>49.5</ele>
        <time>2011-07-28T16:55:54Z</time>
      </trkpt>
      <trkpt lat="47.27102" lon="-1.62313">
        <ele>49.4</ele>
        <time>2011-07-28T16:55:55Z</time>
      </trkpt>
      <trkpt lat="47.271" lon="-1.6231">
        <ele>49.3</ele>
        <time>2011-07-28T16:55:56Z</time>
      </trkpt>
      <trkpt lat="47.27098" lon="-1.62308">
        <ele>49.3</ele>
        <time>2011-07-28T16:55:57Z</time>
      </trkpt>
      <trkpt lat="47.27096" lon="-1.62306">
        <ele>49.1</ele>
        <time>2011-07-28T16:55:58Z</time>
      </trkpt>
      <trkpt lat="47.27096" lon="-1.62302">
        <ele>49</ele>
        <time>2011-07-28T16:55:59Z</time>
      </trkpt>
      <trkpt lat="47.27097" lon="-1.62298">
        <ele>48.9</ele>
        <time>2011-07-28T16:56:00Z</time>
      </trkpt>
      <trkpt lat="47.27099" lon="-1.62295">
        <ele>49.1</ele>
        <time>2011-07-28T16:56:01Z</time>
      </trkpt>
    </trkseg>
  </trk>
</gpx>